<?xml version="1.0" encoding="UTF-8" standalone="no" ?>
<gpx xmlns="http://www.topografix.com/GPX/1/1" xmlns:xsi="http://www.w3.org/2001/XMLSchema-instance" xsi:schemaLocation="http://www.topografix.com/GPX/1/1 http://www.topografix.com/GPX/1/1/gpx.xsd" version="1.1" creator="VisuGPX - https://www.visugpx.com">
  <metadata>
    <name>Circuit Marennes - St Pierre de Chandieu</name>
    <desc><![CDATA[Des portions connues et un nouveau petit massif au km 30]]></desc>
  </metadata>
  <trk>
    <name><![CDATA[TracÃ© actuel: 15 OCT 2011 07:44]]></name>
    <trkseg>
      <trkpt lat="45.62001" lon="4.91519">
        <ele>227</ele>
        <time>2011-10-15T05:44:22Z</time>
      </trkpt>
      <trkpt lat="45.62001" lon="4.91519">
        <ele>227</ele>
        <time>2011-10-15T05:44:33Z</time>
      </trkpt>
      <trkpt lat="45.62" lon="4.91516">
        <ele>227</ele>
        <time>2011-10-15T05:44:35Z</time>
      </trkpt>
      <trkpt lat="45.61997" lon="4.91508">
        <ele>227</ele>
        <time>2011-10-15T05:44:39Z</time>
      </trkpt>
      <trkpt lat="45.61998" lon="4.91494">
        <ele>226</ele>
        <time>2011-10-15T05:44:46Z</time>
      </trkpt>
      <trkpt lat="45.62006" lon="4.91501">
        <ele>226</ele>
        <time>2011-10-15T05:44:50Z</time>
      </trkpt>
      <trkpt lat="45.62013" lon="4.91522">
        <ele>226</ele>
        <time>2011-10-15T05:44:56Z</time>
      </trkpt>
      <trkpt lat="45.62017" lon="4.91551">
        <ele>227</ele>
        <time>2011-10-15T05:45:03Z</time>
      </trkpt>
      <trkpt lat="45.62023" lon="4.91577">
        <ele>227</ele>
        <time>2011-10-15T05:45:09Z</time>
      </trkpt>
      <trkpt lat="45.62029" lon="4.91623">
        <ele>227</ele>
        <time>2011-10-15T05:45:19Z</time>
      </trkpt>
      <trkpt lat="45.62038" lon="4.91663">
        <ele>227</ele>
        <time>2011-10-15T05:45:28Z</time>
      </trkpt>
      <trkpt lat="45.62046" lon="4.91688">
        <ele>227</ele>
        <time>2011-10-15T05:45:34Z</time>
      </trkpt>
      <trkpt lat="45.62056" lon="4.91725">
        <ele>227</ele>
        <time>2011-10-15T05:45:42Z</time>
      </trkpt>
      <trkpt lat="45.62066" lon="4.91764">
        <ele>227</ele>
        <time>2011-10-15T05:45:50Z</time>
      </trkpt>
      <trkpt lat="45.6208" lon="4.918">
        <ele>227</ele>
        <time>2011-10-15T05:45:58Z</time>
      </trkpt>
      <trkpt lat="45.62093" lon="4.91833">
        <ele>227</ele>
        <time>2011-10-15T05:46:05Z</time>
      </trkpt>
      <trkpt lat="45.62107" lon="4.9187">
        <ele>228</ele>
        <time>2011-10-15T05:46:13Z</time>
      </trkpt>
      <trkpt lat="45.62123" lon="4.9191">
        <ele>228</ele>
        <time>2011-10-15T05:46:22Z</time>
      </trkpt>
      <trkpt lat="45.62144" lon="4.91958">
        <ele>229</ele>
        <time>2011-10-15T05:46:33Z</time>
      </trkpt>
      <trkpt lat="45.62163" lon="4.92008">
        <ele>229</ele>
        <time>2011-10-15T05:46:44Z</time>
      </trkpt>
      <trkpt lat="45.62171" lon="4.92032">
        <ele>230</ele>
        <time>2011-10-15T05:46:50Z</time>
      </trkpt>
      <trkpt lat="45.62189" lon="4.92061">
        <ele>229</ele>
        <time>2011-10-15T05:46:57Z</time>
      </trkpt>
      <trkpt lat="45.62207" lon="4.92096">
        <ele>230</ele>
        <time>2011-10-15T05:47:05Z</time>
      </trkpt>
      <trkpt lat="45.62226" lon="4.92131">
        <ele>229</ele>
        <time>2011-10-15T05:47:14Z</time>
      </trkpt>
      <trkpt lat="45.6223" lon="4.92139">
        <ele>229</ele>
        <time>2011-10-15T05:47:16Z</time>
      </trkpt>
      <trkpt lat="45.62229" lon="4.92143">
        <ele>228</ele>
        <time>2011-10-15T05:47:17Z</time>
      </trkpt>
      <trkpt lat="45.62228" lon="4.92147">
        <ele>229</ele>
        <time>2011-10-15T05:47:18Z</time>
      </trkpt>
      <trkpt lat="45.62225" lon="4.92151">
        <ele>228</ele>
        <time>2011-10-15T05:47:19Z</time>
      </trkpt>
      <trkpt lat="45.62221" lon="4.92154">
        <ele>228</ele>
        <time>2011-10-15T05:47:20Z</time>
      </trkpt>
      <trkpt lat="45.62217" lon="4.92158">
        <ele>227</ele>
        <time>2011-10-15T05:47:21Z</time>
      </trkpt>
      <trkpt lat="45.62213" lon="4.9216">
        <ele>227</ele>
        <time>2011-10-15T05:47:22Z</time>
      </trkpt>
      <trkpt lat="45.62188" lon="4.92176">
        <ele>227</ele>
        <time>2011-10-15T05:47:29Z</time>
      </trkpt>
      <trkpt lat="45.62186" lon="4.92179">
        <ele>227</ele>
        <time>2011-10-15T05:47:30Z</time>
      </trkpt>
      <trkpt lat="45.62179" lon="4.92198">
        <ele>227</ele>
        <time>2011-10-15T05:47:37Z</time>
      </trkpt>
      <trkpt lat="45.62178" lon="4.922">
        <ele>228</ele>
        <time>2011-10-15T05:47:38Z</time>
      </trkpt>
      <trkpt lat="45.62176" lon="4.92202">
        <ele>227</ele>
        <time>2011-10-15T05:47:39Z</time>
      </trkpt>
      <trkpt lat="45.62169" lon="4.92212">
        <ele>229</ele>
        <time>2011-10-15T05:47:45Z</time>
      </trkpt>
      <trkpt lat="45.62167" lon="4.92218">
        <ele>230</ele>
        <time>2011-10-15T05:47:50Z</time>
      </trkpt>
      <trkpt lat="45.62165" lon="4.92221">
        <ele>231</ele>
        <time>2011-10-15T05:47:53Z</time>
      </trkpt>
      <trkpt lat="45.62163" lon="4.92227">
        <ele>233</ele>
        <time>2011-10-15T05:47:57Z</time>
      </trkpt>
      <trkpt lat="45.62158" lon="4.92239">
        <ele>234</ele>
        <time>2011-10-15T05:48:04Z</time>
      </trkpt>
      <trkpt lat="45.6215" lon="4.92251">
        <ele>236</ele>
        <time>2011-10-15T05:48:11Z</time>
      </trkpt>
      <trkpt lat="45.6215" lon="4.9227">
        <ele>237</ele>
        <time>2011-10-15T05:48:20Z</time>
      </trkpt>
      <trkpt lat="45.62149" lon="4.92278">
        <ele>238</ele>
        <time>2011-10-15T05:48:22Z</time>
      </trkpt>
      <trkpt lat="45.62149" lon="4.92281">
        <ele>238</ele>
        <time>2011-10-15T05:48:23Z</time>
      </trkpt>
      <trkpt lat="45.62149" lon="4.92284">
        <ele>238</ele>
        <time>2011-10-15T05:48:24Z</time>
      </trkpt>
      <trkpt lat="45.62149" lon="4.92287">
        <ele>238</ele>
        <time>2011-10-15T05:48:25Z</time>
      </trkpt>
      <trkpt lat="45.62149" lon="4.92289">
        <ele>238</ele>
        <time>2011-10-15T05:48:26Z</time>
      </trkpt>
      <trkpt lat="45.62149" lon="4.92292">
        <ele>238</ele>
        <time>2011-10-15T05:48:27Z</time>
      </trkpt>
      <trkpt lat="45.6215" lon="4.92294">
        <ele>238</ele>
        <time>2011-10-15T05:48:28Z</time>
      </trkpt>
      <trkpt lat="45.6215" lon="4.92297">
        <ele>238</ele>
        <time>2011-10-15T05:48:29Z</time>
      </trkpt>
      <trkpt lat="45.6215" lon="4.92299">
        <ele>239</ele>
        <time>2011-10-15T05:48:30Z</time>
      </trkpt>
      <trkpt lat="45.6215" lon="4.92301">
        <ele>239</ele>
        <time>2011-10-15T05:48:31Z</time>
      </trkpt>
      <trkpt lat="45.62151" lon="4.92303">
        <ele>239</ele>
        <time>2011-10-15T05:48:32Z</time>
      </trkpt>
      <trkpt lat="45.62153" lon="4.92305">
        <ele>239</ele>
        <time>2011-10-15T05:48:33Z</time>
      </trkpt>
      <trkpt lat="45.62154" lon="4.92306">
        <ele>239</ele>
        <time>2011-10-15T05:48:34Z</time>
      </trkpt>
      <trkpt lat="45.62155" lon="4.92308">
        <ele>239</ele>
        <time>2011-10-15T05:48:35Z</time>
      </trkpt>
      <trkpt lat="45.62156" lon="4.9231">
        <ele>240</ele>
        <time>2011-10-15T05:48:36Z</time>
      </trkpt>
      <trkpt lat="45.62158" lon="4.92317">
        <ele>240</ele>
        <time>2011-10-15T05:48:39Z</time>
      </trkpt>
      <trkpt lat="45.62158" lon="4.92319">
        <ele>240</ele>
        <time>2011-10-15T05:48:40Z</time>
      </trkpt>
      <trkpt lat="45.62158" lon="4.92322">
        <ele>240</ele>
        <time>2011-10-15T05:48:41Z</time>
      </trkpt>
      <trkpt lat="45.62159" lon="4.92324">
        <ele>240</ele>
        <time>2011-10-15T05:48:42Z</time>
      </trkpt>
      <trkpt lat="45.6216" lon="4.92326">
        <ele>240</ele>
        <time>2011-10-15T05:48:43Z</time>
      </trkpt>
      <trkpt lat="45.62161" lon="4.92328">
        <ele>241</ele>
        <time>2011-10-15T05:48:44Z</time>
      </trkpt>
      <trkpt lat="45.62169" lon="4.92347">
        <ele>242</ele>
        <time>2011-10-15T05:48:53Z</time>
      </trkpt>
      <trkpt lat="45.62175" lon="4.92364">
        <ele>243</ele>
        <time>2011-10-15T05:49:01Z</time>
      </trkpt>
      <trkpt lat="45.62178" lon="4.92383">
        <ele>243</ele>
        <time>2011-10-15T05:49:09Z</time>
      </trkpt>
      <trkpt lat="45.62178" lon="4.92385">
        <ele>244</ele>
        <time>2011-10-15T05:49:10Z</time>
      </trkpt>
      <trkpt lat="45.62177" lon="4.92387">
        <ele>244</ele>
        <time>2011-10-15T05:49:11Z</time>
      </trkpt>
      <trkpt lat="45.62176" lon="4.92388">
        <ele>244</ele>
        <time>2011-10-15T05:49:12Z</time>
      </trkpt>
      <trkpt lat="45.62175" lon="4.9239">
        <ele>245</ele>
        <time>2011-10-15T05:49:13Z</time>
      </trkpt>
      <trkpt lat="45.62174" lon="4.92391">
        <ele>244</ele>
        <time>2011-10-15T05:49:14Z</time>
      </trkpt>
      <trkpt lat="45.62172" lon="4.92392">
        <ele>244</ele>
        <time>2011-10-15T05:49:15Z</time>
      </trkpt>
      <trkpt lat="45.62161" lon="4.92396">
        <ele>246</ele>
        <time>2011-10-15T05:49:23Z</time>
      </trkpt>
      <trkpt lat="45.62157" lon="4.92398">
        <ele>246</ele>
        <time>2011-10-15T05:49:26Z</time>
      </trkpt>
      <trkpt lat="45.62156" lon="4.92399">
        <ele>246</ele>
        <time>2011-10-15T05:49:27Z</time>
      </trkpt>
      <trkpt lat="45.62155" lon="4.92399">
        <ele>246</ele>
        <time>2011-10-15T05:49:28Z</time>
      </trkpt>
      <trkpt lat="45.62154" lon="4.924">
        <ele>247</ele>
        <time>2011-10-15T05:49:29Z</time>
      </trkpt>
      <trkpt lat="45.62152" lon="4.92402">
        <ele>246</ele>
        <time>2011-10-15T05:49:30Z</time>
      </trkpt>
      <trkpt lat="45.62148" lon="4.92408">
        <ele>247</ele>
        <time>2011-10-15T05:49:34Z</time>
      </trkpt>
      <trkpt lat="45.62147" lon="4.92412">
        <ele>247</ele>
        <time>2011-10-15T05:49:36Z</time>
      </trkpt>
      <trkpt lat="45.62148" lon="4.92415">
        <ele>248</ele>
        <time>2011-10-15T05:49:37Z</time>
      </trkpt>
      <trkpt lat="45.62148" lon="4.92417">
        <ele>248</ele>
        <time>2011-10-15T05:49:38Z</time>
      </trkpt>
      <trkpt lat="45.62148" lon="4.92438">
        <ele>249</ele>
        <time>2011-10-15T05:49:46Z</time>
      </trkpt>
      <trkpt lat="45.62148" lon="4.9244">
        <ele>249</ele>
        <time>2011-10-15T05:49:47Z</time>
      </trkpt>
      <trkpt lat="45.62147" lon="4.92443">
        <ele>249</ele>
        <time>2011-10-15T05:49:48Z</time>
      </trkpt>
      <trkpt lat="45.62147" lon="4.92445">
        <ele>249</ele>
        <time>2011-10-15T05:49:49Z</time>
      </trkpt>
      <trkpt lat="45.62147" lon="4.92448">
        <ele>250</ele>
        <time>2011-10-15T05:49:50Z</time>
      </trkpt>
      <trkpt lat="45.62147" lon="4.92451">
        <ele>250</ele>
        <time>2011-10-15T05:49:51Z</time>
      </trkpt>
      <trkpt lat="45.62146" lon="4.92458">
        <ele>250</ele>
        <time>2011-10-15T05:49:54Z</time>
      </trkpt>
      <trkpt lat="45.62146" lon="4.92459">
        <ele>250</ele>
        <time>2011-10-15T05:49:55Z</time>
      </trkpt>
      <trkpt lat="45.62144" lon="4.92476">
        <ele>251</ele>
        <time>2011-10-15T05:50:02Z</time>
      </trkpt>
      <trkpt lat="45.62141" lon="4.92485">
        <ele>251</ele>
        <time>2011-10-15T05:50:06Z</time>
      </trkpt>
      <trkpt lat="45.6214" lon="4.92485">
        <ele>252</ele>
        <time>2011-10-15T05:50:07Z</time>
      </trkpt>
      <trkpt lat="45.62138" lon="4.92486">
        <ele>251</ele>
        <time>2011-10-15T05:50:08Z</time>
      </trkpt>
      <trkpt lat="45.62136" lon="4.92487">
        <ele>252</ele>
        <time>2011-10-15T05:50:09Z</time>
      </trkpt>
      <trkpt lat="45.62134" lon="4.92488">
        <ele>252</ele>
        <time>2011-10-15T05:50:10Z</time>
      </trkpt>
      <trkpt lat="45.62124" lon="4.92497">
        <ele>253</ele>
        <time>2011-10-15T05:50:17Z</time>
      </trkpt>
      <trkpt lat="45.62123" lon="4.92497">
        <ele>252</ele>
        <time>2011-10-15T05:50:18Z</time>
      </trkpt>
      <trkpt lat="45.62122" lon="4.92498">
        <ele>252</ele>
        <time>2011-10-15T05:50:19Z</time>
      </trkpt>
      <trkpt lat="45.6212" lon="4.92498">
        <ele>252</ele>
        <time>2011-10-15T05:50:20Z</time>
      </trkpt>
      <trkpt lat="45.62117" lon="4.92502">
        <ele>252</ele>
        <time>2011-10-15T05:50:23Z</time>
      </trkpt>
      <trkpt lat="45.62117" lon="4.92504">
        <ele>253</ele>
        <time>2011-10-15T05:50:24Z</time>
      </trkpt>
      <trkpt lat="45.62116" lon="4.92505">
        <ele>253</ele>
        <time>2011-10-15T05:50:25Z</time>
      </trkpt>
      <trkpt lat="45.62105" lon="4.92517">
        <ele>255</ele>
        <time>2011-10-15T05:50:33Z</time>
      </trkpt>
      <trkpt lat="45.62096" lon="4.92527">
        <ele>256</ele>
        <time>2011-10-15T05:50:40Z</time>
      </trkpt>
      <trkpt lat="45.62091" lon="4.92529">
        <ele>256</ele>
        <time>2011-10-15T05:50:44Z</time>
      </trkpt>
      <trkpt lat="45.62089" lon="4.9253">
        <ele>257</ele>
        <time>2011-10-15T05:50:45Z</time>
      </trkpt>
      <trkpt lat="45.62087" lon="4.92531">
        <ele>257</ele>
        <time>2011-10-15T05:50:46Z</time>
      </trkpt>
      <trkpt lat="45.62076" lon="4.9254">
        <ele>258</ele>
        <time>2011-10-15T05:50:54Z</time>
      </trkpt>
      <trkpt lat="45.62074" lon="4.9254">
        <ele>259</ele>
        <time>2011-10-15T05:50:55Z</time>
      </trkpt>
      <trkpt lat="45.62073" lon="4.92541">
        <ele>259</ele>
        <time>2011-10-15T05:50:56Z</time>
      </trkpt>
      <trkpt lat="45.62071" lon="4.92542">
        <ele>259</ele>
        <time>2011-10-15T05:50:57Z</time>
      </trkpt>
      <trkpt lat="45.6207" lon="4.92543">
        <ele>260</ele>
        <time>2011-10-15T05:50:58Z</time>
      </trkpt>
      <trkpt lat="45.62069" lon="4.92543">
        <ele>260</ele>
        <time>2011-10-15T05:50:59Z</time>
      </trkpt>
      <trkpt lat="45.62068" lon="4.92543">
        <ele>260</ele>
        <time>2011-10-15T05:51:00Z</time>
      </trkpt>
      <trkpt lat="45.62066" lon="4.92543">
        <ele>260</ele>
        <time>2011-10-15T05:51:01Z</time>
      </trkpt>
      <trkpt lat="45.62056" lon="4.9254">
        <ele>261</ele>
        <time>2011-10-15T05:51:08Z</time>
      </trkpt>
      <trkpt lat="45.62043" lon="4.9254">
        <ele>263</ele>
        <time>2011-10-15T05:51:17Z</time>
      </trkpt>
      <trkpt lat="45.62038" lon="4.92543">
        <ele>263</ele>
        <time>2011-10-15T05:51:21Z</time>
      </trkpt>
      <trkpt lat="45.62037" lon="4.92545">
        <ele>263</ele>
        <time>2011-10-15T05:51:22Z</time>
      </trkpt>
      <trkpt lat="45.62036" lon="4.92547">
        <ele>263</ele>
        <time>2011-10-15T05:51:23Z</time>
      </trkpt>
      <trkpt lat="45.62031" lon="4.92559">
        <ele>264</ele>
        <time>2011-10-15T05:51:30Z</time>
      </trkpt>
      <trkpt lat="45.62025" lon="4.9257">
        <ele>265</ele>
        <time>2011-10-15T05:51:37Z</time>
      </trkpt>
      <trkpt lat="45.6202" lon="4.92585">
        <ele>266</ele>
        <time>2011-10-15T05:51:45Z</time>
      </trkpt>
      <trkpt lat="45.62016" lon="4.92594">
        <ele>267</ele>
        <time>2011-10-15T05:51:49Z</time>
      </trkpt>
      <trkpt lat="45.62012" lon="4.92602">
        <ele>267</ele>
        <time>2011-10-15T05:51:53Z</time>
      </trkpt>
      <trkpt lat="45.62008" lon="4.92611">
        <ele>268</ele>
        <time>2011-10-15T05:51:58Z</time>
      </trkpt>
      <trkpt lat="45.62006" lon="4.92619">
        <ele>269</ele>
        <time>2011-10-15T05:52:04Z</time>
      </trkpt>
      <trkpt lat="45.62004" lon="4.92626">
        <ele>271</ele>
        <time>2011-10-15T05:52:10Z</time>
      </trkpt>
      <trkpt lat="45.62003" lon="4.92628">
        <ele>271</ele>
        <time>2011-10-15T05:52:11Z</time>
      </trkpt>
      <trkpt lat="45.61998" lon="4.92633">
        <ele>271</ele>
        <time>2011-10-15T05:52:13Z</time>
      </trkpt>
      <trkpt lat="45.61996" lon="4.92634">
        <ele>271</ele>
        <time>2011-10-15T05:52:14Z</time>
      </trkpt>
      <trkpt lat="45.61994" lon="4.92636">
        <ele>271</ele>
        <time>2011-10-15T05:52:15Z</time>
      </trkpt>
      <trkpt lat="45.61993" lon="4.92638">
        <ele>272</ele>
        <time>2011-10-15T05:52:16Z</time>
      </trkpt>
      <trkpt lat="45.61992" lon="4.92641">
        <ele>271</ele>
        <time>2011-10-15T05:52:17Z</time>
      </trkpt>
      <trkpt lat="45.61991" lon="4.92642">
        <ele>272</ele>
        <time>2011-10-15T05:52:18Z</time>
      </trkpt>
      <trkpt lat="45.6199" lon="4.92644">
        <ele>272</ele>
        <time>2011-10-15T05:52:19Z</time>
      </trkpt>
      <trkpt lat="45.61988" lon="4.92652">
        <ele>273</ele>
        <time>2011-10-15T05:52:25Z</time>
      </trkpt>
      <trkpt lat="45.61986" lon="4.92666">
        <ele>275</ele>
        <time>2011-10-15T05:52:32Z</time>
      </trkpt>
      <trkpt lat="45.61983" lon="4.92676">
        <ele>275</ele>
        <time>2011-10-15T05:52:38Z</time>
      </trkpt>
      <trkpt lat="45.61979" lon="4.92691">
        <ele>277</ele>
        <time>2011-10-15T05:52:46Z</time>
      </trkpt>
      <trkpt lat="45.61977" lon="4.92707">
        <ele>277</ele>
        <time>2011-10-15T05:52:54Z</time>
      </trkpt>
      <trkpt lat="45.61977" lon="4.92722">
        <ele>279</ele>
        <time>2011-10-15T05:53:01Z</time>
      </trkpt>
      <trkpt lat="45.61977" lon="4.92736">
        <ele>280</ele>
        <time>2011-10-15T05:53:08Z</time>
      </trkpt>
      <trkpt lat="45.61977" lon="4.92738">
        <ele>281</ele>
        <time>2011-10-15T05:53:09Z</time>
      </trkpt>
      <trkpt lat="45.61979" lon="4.92753">
        <ele>281</ele>
        <time>2011-10-15T05:53:16Z</time>
      </trkpt>
      <trkpt lat="45.61974" lon="4.92767">
        <ele>282</ele>
        <time>2011-10-15T05:53:23Z</time>
      </trkpt>
      <trkpt lat="45.61975" lon="4.92783">
        <ele>283</ele>
        <time>2011-10-15T05:53:29Z</time>
      </trkpt>
      <trkpt lat="45.61975" lon="4.92785">
        <ele>283</ele>
        <time>2011-10-15T05:53:30Z</time>
      </trkpt>
      <trkpt lat="45.61974" lon="4.92802">
        <ele>284</ele>
        <time>2011-10-15T05:53:38Z</time>
      </trkpt>
      <trkpt lat="45.61969" lon="4.92821">
        <ele>285</ele>
        <time>2011-10-15T05:53:46Z</time>
      </trkpt>
      <trkpt lat="45.61963" lon="4.92833">
        <ele>286</ele>
        <time>2011-10-15T05:53:52Z</time>
      </trkpt>
      <trkpt lat="45.61958" lon="4.92857">
        <ele>287</ele>
        <time>2011-10-15T05:54:02Z</time>
      </trkpt>
      <trkpt lat="45.61957" lon="4.92876">
        <ele>288</ele>
        <time>2011-10-15T05:54:10Z</time>
      </trkpt>
      <trkpt lat="45.61956" lon="4.92878">
        <ele>289</ele>
        <time>2011-10-15T05:54:11Z</time>
      </trkpt>
      <trkpt lat="45.61955" lon="4.9288">
        <ele>289</ele>
        <time>2011-10-15T05:54:12Z</time>
      </trkpt>
      <trkpt lat="45.61953" lon="4.92881">
        <ele>288</ele>
        <time>2011-10-15T05:54:13Z</time>
      </trkpt>
      <trkpt lat="45.61952" lon="4.92882">
        <ele>288</ele>
        <time>2011-10-15T05:54:14Z</time>
      </trkpt>
      <trkpt lat="45.6195" lon="4.92882">
        <ele>288</ele>
        <time>2011-10-15T05:54:15Z</time>
      </trkpt>
      <trkpt lat="45.61948" lon="4.92881">
        <ele>288</ele>
        <time>2011-10-15T05:54:16Z</time>
      </trkpt>
      <trkpt lat="45.61947" lon="4.92881">
        <ele>289</ele>
        <time>2011-10-15T05:54:17Z</time>
      </trkpt>
      <trkpt lat="45.61945" lon="4.92881">
        <ele>288</ele>
        <time>2011-10-15T05:54:18Z</time>
      </trkpt>
      <trkpt lat="45.61933" lon="4.92882">
        <ele>289</ele>
        <time>2011-10-15T05:54:25Z</time>
      </trkpt>
      <trkpt lat="45.61923" lon="4.92891">
        <ele>290</ele>
        <time>2011-10-15T05:54:32Z</time>
      </trkpt>
      <trkpt lat="45.61919" lon="4.929">
        <ele>290</ele>
        <time>2011-10-15T05:54:37Z</time>
      </trkpt>
      <trkpt lat="45.61918" lon="4.92917">
        <ele>291</ele>
        <time>2011-10-15T05:54:44Z</time>
      </trkpt>
      <trkpt lat="45.61917" lon="4.92937">
        <ele>292</ele>
        <time>2011-10-15T05:54:52Z</time>
      </trkpt>
      <trkpt lat="45.61915" lon="4.92955">
        <ele>293</ele>
        <time>2011-10-15T05:55:00Z</time>
      </trkpt>
      <trkpt lat="45.61914" lon="4.92962">
        <ele>295</ele>
        <time>2011-10-15T05:55:03Z</time>
      </trkpt>
      <trkpt lat="45.6191" lon="4.9298">
        <ele>297</ele>
        <time>2011-10-15T05:55:11Z</time>
      </trkpt>
      <trkpt lat="45.6191" lon="4.92994">
        <ele>297</ele>
        <time>2011-10-15T05:55:17Z</time>
      </trkpt>
      <trkpt lat="45.61913" lon="4.93009">
        <ele>299</ele>
        <time>2011-10-15T05:55:24Z</time>
      </trkpt>
      <trkpt lat="45.61914" lon="4.93028">
        <ele>301</ele>
        <time>2011-10-15T05:55:32Z</time>
      </trkpt>
      <trkpt lat="45.61911" lon="4.93047">
        <ele>302</ele>
        <time>2011-10-15T05:55:40Z</time>
      </trkpt>
      <trkpt lat="45.61905" lon="4.93065">
        <ele>303</ele>
        <time>2011-10-15T05:55:48Z</time>
      </trkpt>
      <trkpt lat="45.61904" lon="4.93069">
        <ele>304</ele>
        <time>2011-10-15T05:55:50Z</time>
      </trkpt>
      <trkpt lat="45.61903" lon="4.93071">
        <ele>304</ele>
        <time>2011-10-15T05:55:51Z</time>
      </trkpt>
      <trkpt lat="45.61903" lon="4.93074">
        <ele>304</ele>
        <time>2011-10-15T05:55:52Z</time>
      </trkpt>
      <trkpt lat="45.61902" lon="4.93076">
        <ele>304</ele>
        <time>2011-10-15T05:55:53Z</time>
      </trkpt>
      <trkpt lat="45.61901" lon="4.93078">
        <ele>305</ele>
        <time>2011-10-15T05:55:54Z</time>
      </trkpt>
      <trkpt lat="45.619" lon="4.9308">
        <ele>305</ele>
        <time>2011-10-15T05:55:55Z</time>
      </trkpt>
      <trkpt lat="45.619" lon="4.93082">
        <ele>305</ele>
        <time>2011-10-15T05:55:56Z</time>
      </trkpt>
      <trkpt lat="45.61899" lon="4.93085">
        <ele>305</ele>
        <time>2011-10-15T05:55:57Z</time>
      </trkpt>
      <trkpt lat="45.61899" lon="4.93087">
        <ele>305</ele>
        <time>2011-10-15T05:55:58Z</time>
      </trkpt>
      <trkpt lat="45.61898" lon="4.93089">
        <ele>305</ele>
        <time>2011-10-15T05:55:59Z</time>
      </trkpt>
      <trkpt lat="45.61898" lon="4.93091">
        <ele>305</ele>
        <time>2011-10-15T05:56:00Z</time>
      </trkpt>
      <trkpt lat="45.61891" lon="4.93111">
        <ele>308</ele>
        <time>2011-10-15T05:56:10Z</time>
      </trkpt>
      <trkpt lat="45.61891" lon="4.93114">
        <ele>307</ele>
        <time>2011-10-15T05:56:11Z</time>
      </trkpt>
      <trkpt lat="45.6189" lon="4.93116">
        <ele>308</ele>
        <time>2011-10-15T05:56:12Z</time>
      </trkpt>
      <trkpt lat="45.6189" lon="4.93118">
        <ele>308</ele>
        <time>2011-10-15T05:56:13Z</time>
      </trkpt>
      <trkpt lat="45.6189" lon="4.9312">
        <ele>308</ele>
        <time>2011-10-15T05:56:14Z</time>
      </trkpt>
      <trkpt lat="45.61889" lon="4.93122">
        <ele>308</ele>
        <time>2011-10-15T05:56:15Z</time>
      </trkpt>
      <trkpt lat="45.61888" lon="4.93125">
        <ele>309</ele>
        <time>2011-10-15T05:56:16Z</time>
      </trkpt>
      <trkpt lat="45.61887" lon="4.93127">
        <ele>309</ele>
        <time>2011-10-15T05:56:17Z</time>
      </trkpt>
      <trkpt lat="45.61882" lon="4.93142">
        <ele>310</ele>
        <time>2011-10-15T05:56:24Z</time>
      </trkpt>
      <trkpt lat="45.61876" lon="4.93164">
        <ele>311</ele>
        <time>2011-10-15T05:56:32Z</time>
      </trkpt>
      <trkpt lat="45.61875" lon="4.93166">
        <ele>311</ele>
        <time>2011-10-15T05:56:33Z</time>
      </trkpt>
      <trkpt lat="45.61874" lon="4.93169">
        <ele>311</ele>
        <time>2011-10-15T05:56:34Z</time>
      </trkpt>
      <trkpt lat="45.61873" lon="4.93175">
        <ele>311</ele>
        <time>2011-10-15T05:56:37Z</time>
      </trkpt>
      <trkpt lat="45.61872" lon="4.93178">
        <ele>312</ele>
        <time>2011-10-15T05:56:38Z</time>
      </trkpt>
      <trkpt lat="45.61872" lon="4.93181">
        <ele>312</ele>
        <time>2011-10-15T05:56:39Z</time>
      </trkpt>
      <trkpt lat="45.61871" lon="4.93183">
        <ele>312</ele>
        <time>2011-10-15T05:56:40Z</time>
      </trkpt>
      <trkpt lat="45.61871" lon="4.93186">
        <ele>312</ele>
        <time>2011-10-15T05:56:41Z</time>
      </trkpt>
      <trkpt lat="45.6187" lon="4.93188">
        <ele>312</ele>
        <time>2011-10-15T05:56:42Z</time>
      </trkpt>
      <trkpt lat="45.61865" lon="4.93207">
        <ele>313</ele>
        <time>2011-10-15T05:56:49Z</time>
      </trkpt>
      <trkpt lat="45.61857" lon="4.93225">
        <ele>313</ele>
        <time>2011-10-15T05:56:56Z</time>
      </trkpt>
      <trkpt lat="45.61845" lon="4.93244">
        <ele>313</ele>
        <time>2011-10-15T05:57:04Z</time>
      </trkpt>
      <trkpt lat="45.6183" lon="4.9326">
        <ele>314</ele>
        <time>2011-10-15T05:57:12Z</time>
      </trkpt>
      <trkpt lat="45.61809" lon="4.93269">
        <ele>314</ele>
        <time>2011-10-15T05:57:20Z</time>
      </trkpt>
      <trkpt lat="45.61783" lon="4.93272">
        <ele>314</ele>
        <time>2011-10-15T05:57:29Z</time>
      </trkpt>
      <trkpt lat="45.61762" lon="4.93273">
        <ele>315</ele>
        <time>2011-10-15T05:57:36Z</time>
      </trkpt>
      <trkpt lat="45.61742" lon="4.93275">
        <ele>314</ele>
        <time>2011-10-15T05:57:43Z</time>
      </trkpt>
      <trkpt lat="45.6172" lon="4.93283">
        <ele>315</ele>
        <time>2011-10-15T05:57:51Z</time>
      </trkpt>
      <trkpt lat="45.61701" lon="4.93291">
        <ele>315</ele>
        <time>2011-10-15T05:57:58Z</time>
      </trkpt>
      <trkpt lat="45.61681" lon="4.93299">
        <ele>316</ele>
        <time>2011-10-15T05:58:05Z</time>
      </trkpt>
      <trkpt lat="45.61659" lon="4.93308">
        <ele>316</ele>
        <time>2011-10-15T05:58:13Z</time>
      </trkpt>
      <trkpt lat="45.61657" lon="4.93309">
        <ele>316</ele>
        <time>2011-10-15T05:58:18Z</time>
      </trkpt>
      <trkpt lat="45.61659" lon="4.93306">
        <ele>316</ele>
        <time>2011-10-15T05:58:21Z</time>
      </trkpt>
      <trkpt lat="45.61661" lon="4.93306">
        <ele>315</ele>
        <time>2011-10-15T05:58:22Z</time>
      </trkpt>
      <trkpt lat="45.61674" lon="4.93302">
        <ele>316</ele>
        <time>2011-10-15T05:58:27Z</time>
      </trkpt>
      <trkpt lat="45.61695" lon="4.93293">
        <ele>315</ele>
        <time>2011-10-15T05:58:34Z</time>
      </trkpt>
      <trkpt lat="45.61716" lon="4.93284">
        <ele>314</ele>
        <time>2011-10-15T05:58:41Z</time>
      </trkpt>
      <trkpt lat="45.61724" lon="4.9328">
        <ele>314</ele>
        <time>2011-10-15T05:58:44Z</time>
      </trkpt>
      <trkpt lat="45.61725" lon="4.93278">
        <ele>315</ele>
        <time>2011-10-15T05:58:45Z</time>
      </trkpt>
      <trkpt lat="45.61725" lon="4.93275">
        <ele>314</ele>
        <time>2011-10-15T05:58:46Z</time>
      </trkpt>
      <trkpt lat="45.61723" lon="4.93272">
        <ele>315</ele>
        <time>2011-10-15T05:58:47Z</time>
      </trkpt>
      <trkpt lat="45.61721" lon="4.93268">
        <ele>315</ele>
        <time>2011-10-15T05:58:48Z</time>
      </trkpt>
      <trkpt lat="45.61707" lon="4.93246">
        <ele>315</ele>
        <time>2011-10-15T05:58:54Z</time>
      </trkpt>
      <trkpt lat="45.61689" lon="4.93212">
        <ele>316</ele>
        <time>2011-10-15T05:59:03Z</time>
      </trkpt>
      <trkpt lat="45.61672" lon="4.93194">
        <ele>315</ele>
        <time>2011-10-15T05:59:10Z</time>
      </trkpt>
      <trkpt lat="45.61644" lon="4.93188">
        <ele>317</ele>
        <time>2011-10-15T05:59:19Z</time>
      </trkpt>
      <trkpt lat="45.61608" lon="4.93184">
        <ele>317</ele>
        <time>2011-10-15T05:59:30Z</time>
      </trkpt>
      <trkpt lat="45.61579" lon="4.93181">
        <ele>318</ele>
        <time>2011-10-15T05:59:39Z</time>
      </trkpt>
      <trkpt lat="45.61545" lon="4.93178">
        <ele>319</ele>
        <time>2011-10-15T05:59:49Z</time>
      </trkpt>
      <trkpt lat="45.61516" lon="4.93182">
        <ele>320</ele>
        <time>2011-10-15T05:59:58Z</time>
      </trkpt>
      <trkpt lat="45.61487" lon="4.93193">
        <ele>320</ele>
        <time>2011-10-15T06:00:07Z</time>
      </trkpt>
      <trkpt lat="45.61463" lon="4.93206">
        <ele>322</ele>
        <time>2011-10-15T06:00:15Z</time>
      </trkpt>
      <trkpt lat="45.61435" lon="4.93223">
        <ele>323</ele>
        <time>2011-10-15T06:00:24Z</time>
      </trkpt>
      <trkpt lat="45.61409" lon="4.93231">
        <ele>323</ele>
        <time>2011-10-15T06:00:32Z</time>
      </trkpt>
      <trkpt lat="45.61374" lon="4.9323">
        <ele>325</ele>
        <time>2011-10-15T06:00:42Z</time>
      </trkpt>
      <trkpt lat="45.61343" lon="4.93228">
        <ele>325</ele>
        <time>2011-10-15T06:00:51Z</time>
      </trkpt>
      <trkpt lat="45.61312" lon="4.93227">
        <ele>326</ele>
        <time>2011-10-15T06:01:00Z</time>
      </trkpt>
      <trkpt lat="45.61278" lon="4.93232">
        <ele>326</ele>
        <time>2011-10-15T06:01:10Z</time>
      </trkpt>
      <trkpt lat="45.61258" lon="4.93238">
        <ele>326</ele>
        <time>2011-10-15T06:01:16Z</time>
      </trkpt>
      <trkpt lat="45.61228" lon="4.93247">
        <ele>326</ele>
        <time>2011-10-15T06:01:25Z</time>
      </trkpt>
      <trkpt lat="45.61204" lon="4.93251">
        <ele>326</ele>
        <time>2011-10-15T06:01:32Z</time>
      </trkpt>
      <trkpt lat="45.6118" lon="4.93253">
        <ele>326</ele>
        <time>2011-10-15T06:01:39Z</time>
      </trkpt>
      <trkpt lat="45.61152" lon="4.93247">
        <ele>326</ele>
        <time>2011-10-15T06:01:47Z</time>
      </trkpt>
      <trkpt lat="45.61126" lon="4.93235">
        <ele>326</ele>
        <time>2011-10-15T06:01:55Z</time>
      </trkpt>
      <trkpt lat="45.61102" lon="4.93222">
        <ele>326</ele>
        <time>2011-10-15T06:02:03Z</time>
      </trkpt>
      <trkpt lat="45.611" lon="4.93225">
        <ele>326</ele>
        <time>2011-10-15T06:02:04Z</time>
      </trkpt>
      <trkpt lat="45.61099" lon="4.93229">
        <ele>326</ele>
        <time>2011-10-15T06:02:05Z</time>
      </trkpt>
      <trkpt lat="45.61099" lon="4.93234">
        <ele>327</ele>
        <time>2011-10-15T06:02:06Z</time>
      </trkpt>
      <trkpt lat="45.61098" lon="4.93239">
        <ele>327</ele>
        <time>2011-10-15T06:02:07Z</time>
      </trkpt>
      <trkpt lat="45.61098" lon="4.93244">
        <ele>327</ele>
        <time>2011-10-15T06:02:08Z</time>
      </trkpt>
      <trkpt lat="45.61097" lon="4.93248">
        <ele>328</ele>
        <time>2011-10-15T06:02:09Z</time>
      </trkpt>
      <trkpt lat="45.61092" lon="4.93264">
        <ele>327</ele>
        <time>2011-10-15T06:02:13Z</time>
      </trkpt>
      <trkpt lat="45.61089" lon="4.93266">
        <ele>329</ele>
        <time>2011-10-15T06:02:14Z</time>
      </trkpt>
      <trkpt lat="45.61086" lon="4.93265">
        <ele>328</ele>
        <time>2011-10-15T06:02:15Z</time>
      </trkpt>
      <trkpt lat="45.61068" lon="4.93254">
        <ele>329</ele>
        <time>2011-10-15T06:02:23Z</time>
      </trkpt>
      <trkpt lat="45.61067" lon="4.93254">
        <ele>329</ele>
        <time>2011-10-15T06:02:28Z</time>
      </trkpt>
      <trkpt lat="45.61067" lon="4.93254">
        <ele>329</ele>
        <time>2011-10-15T06:02:39Z</time>
      </trkpt>
      <trkpt lat="45.61067" lon="4.93254">
        <ele>328</ele>
        <time>2011-10-15T06:02:57Z</time>
      </trkpt>
      <trkpt lat="45.61067" lon="4.93254">
        <ele>328</ele>
        <time>2011-10-15T06:03:20Z</time>
      </trkpt>
      <trkpt lat="45.61067" lon="4.93254">
        <ele>327</ele>
        <time>2011-10-15T06:03:39Z</time>
      </trkpt>
      <trkpt lat="45.61067" lon="4.93254">
        <ele>328</ele>
        <time>2011-10-15T06:03:55Z</time>
      </trkpt>
      <trkpt lat="45.61067" lon="4.93254">
        <ele>327</ele>
        <time>2011-10-15T06:04:05Z</time>
      </trkpt>
      <trkpt lat="45.61065" lon="4.93253">
        <ele>328</ele>
        <time>2011-10-15T06:04:06Z</time>
      </trkpt>
      <trkpt lat="45.61064" lon="4.93252">
        <ele>327</ele>
        <time>2011-10-15T06:04:07Z</time>
      </trkpt>
      <trkpt lat="45.61049" lon="4.93242">
        <ele>328</ele>
        <time>2011-10-15T06:04:12Z</time>
      </trkpt>
      <trkpt lat="45.61028" lon="4.93225">
        <ele>326</ele>
        <time>2011-10-15T06:04:18Z</time>
      </trkpt>
      <trkpt lat="45.61024" lon="4.93223">
        <ele>326</ele>
        <time>2011-10-15T06:04:19Z</time>
      </trkpt>
      <trkpt lat="45.60994" lon="4.93197">
        <ele>325</ele>
        <time>2011-10-15T06:04:27Z</time>
      </trkpt>
      <trkpt lat="45.60961" lon="4.93173">
        <ele>323</ele>
        <time>2011-10-15T06:04:35Z</time>
      </trkpt>
      <trkpt lat="45.60948" lon="4.93169">
        <ele>322</ele>
        <time>2011-10-15T06:04:38Z</time>
      </trkpt>
      <trkpt lat="45.60916" lon="4.93167">
        <ele>321</ele>
        <time>2011-10-15T06:04:45Z</time>
      </trkpt>
      <trkpt lat="45.60906" lon="4.93165">
        <ele>321</ele>
        <time>2011-10-15T06:04:47Z</time>
      </trkpt>
      <trkpt lat="45.60864" lon="4.9316">
        <ele>319</ele>
        <time>2011-10-15T06:04:55Z</time>
      </trkpt>
      <trkpt lat="45.60843" lon="4.93155">
        <ele>318</ele>
        <time>2011-10-15T06:04:59Z</time>
      </trkpt>
      <trkpt lat="45.60838" lon="4.93154">
        <ele>317</ele>
        <time>2011-10-15T06:05:00Z</time>
      </trkpt>
      <trkpt lat="45.60802" lon="4.93134">
        <ele>317</ele>
        <time>2011-10-15T06:05:08Z</time>
      </trkpt>
      <trkpt lat="45.60789" lon="4.93127">
        <ele>317</ele>
        <time>2011-10-15T06:05:11Z</time>
      </trkpt>
      <trkpt lat="45.60779" lon="4.93124">
        <ele>317</ele>
        <time>2011-10-15T06:05:13Z</time>
      </trkpt>
      <trkpt lat="45.60742" lon="4.9312">
        <ele>317</ele>
        <time>2011-10-15T06:05:21Z</time>
      </trkpt>
      <trkpt lat="45.60715" lon="4.9311">
        <ele>318</ele>
        <time>2011-10-15T06:05:27Z</time>
      </trkpt>
      <trkpt lat="45.60686" lon="4.93105">
        <ele>316</ele>
        <time>2011-10-15T06:05:33Z</time>
      </trkpt>
      <trkpt lat="45.60681" lon="4.93105">
        <ele>317</ele>
        <time>2011-10-15T06:05:34Z</time>
      </trkpt>
      <trkpt lat="45.60665" lon="4.93107">
        <ele>316</ele>
        <time>2011-10-15T06:05:37Z</time>
      </trkpt>
      <trkpt lat="45.60639" lon="4.93114">
        <ele>316</ele>
        <time>2011-10-15T06:05:42Z</time>
      </trkpt>
      <trkpt lat="45.60634" lon="4.93116">
        <ele>316</ele>
        <time>2011-10-15T06:05:43Z</time>
      </trkpt>
      <trkpt lat="45.60595" lon="4.93135">
        <ele>314</ele>
        <time>2011-10-15T06:05:51Z</time>
      </trkpt>
      <trkpt lat="45.6059" lon="4.93138">
        <ele>314</ele>
        <time>2011-10-15T06:05:52Z</time>
      </trkpt>
      <trkpt lat="45.60584" lon="4.93142">
        <ele>313</ele>
        <time>2011-10-15T06:05:53Z</time>
      </trkpt>
      <trkpt lat="45.60564" lon="4.93157">
        <ele>312</ele>
        <time>2011-10-15T06:05:57Z</time>
      </trkpt>
      <trkpt lat="45.60531" lon="4.93181">
        <ele>311</ele>
        <time>2011-10-15T06:06:04Z</time>
      </trkpt>
      <trkpt lat="45.60518" lon="4.93189">
        <ele>310</ele>
        <time>2011-10-15T06:06:07Z</time>
      </trkpt>
      <trkpt lat="45.60511" lon="4.93195">
        <ele>309</ele>
        <time>2011-10-15T06:06:09Z</time>
      </trkpt>
      <trkpt lat="45.60508" lon="4.932">
        <ele>309</ele>
        <time>2011-10-15T06:06:10Z</time>
      </trkpt>
      <trkpt lat="45.605" lon="4.93219">
        <ele>306</ele>
        <time>2011-10-15T06:06:13Z</time>
      </trkpt>
      <trkpt lat="45.60497" lon="4.93225">
        <ele>305</ele>
        <time>2011-10-15T06:06:14Z</time>
      </trkpt>
      <trkpt lat="45.60494" lon="4.9323">
        <ele>304</ele>
        <time>2011-10-15T06:06:15Z</time>
      </trkpt>
      <trkpt lat="45.6049" lon="4.93235">
        <ele>302</ele>
        <time>2011-10-15T06:06:16Z</time>
      </trkpt>
      <trkpt lat="45.60487" lon="4.93239">
        <ele>301</ele>
        <time>2011-10-15T06:06:17Z</time>
      </trkpt>
      <trkpt lat="45.60483" lon="4.93243">
        <ele>300</ele>
        <time>2011-10-15T06:06:18Z</time>
      </trkpt>
      <trkpt lat="45.60478" lon="4.93246">
        <ele>299</ele>
        <time>2011-10-15T06:06:19Z</time>
      </trkpt>
      <trkpt lat="45.60472" lon="4.93248">
        <ele>298</ele>
        <time>2011-10-15T06:06:20Z</time>
      </trkpt>
      <trkpt lat="45.60466" lon="4.93249">
        <ele>297</ele>
        <time>2011-10-15T06:06:21Z</time>
      </trkpt>
      <trkpt lat="45.6046" lon="4.9325">
        <ele>297</ele>
        <time>2011-10-15T06:06:22Z</time>
      </trkpt>
      <trkpt lat="45.60452" lon="4.93252">
        <ele>295</ele>
        <time>2011-10-15T06:06:23Z</time>
      </trkpt>
      <trkpt lat="45.60445" lon="4.93254">
        <ele>293</ele>
        <time>2011-10-15T06:06:24Z</time>
      </trkpt>
      <trkpt lat="45.60438" lon="4.93255">
        <ele>291</ele>
        <time>2011-10-15T06:06:25Z</time>
      </trkpt>
      <trkpt lat="45.60431" lon="4.93255">
        <ele>290</ele>
        <time>2011-10-15T06:06:26Z</time>
      </trkpt>
      <trkpt lat="45.60423" lon="4.93255">
        <ele>289</ele>
        <time>2011-10-15T06:06:27Z</time>
      </trkpt>
      <trkpt lat="45.60408" lon="4.93255">
        <ele>288</ele>
        <time>2011-10-15T06:06:29Z</time>
      </trkpt>
      <trkpt lat="45.604" lon="4.93255">
        <ele>287</ele>
        <time>2011-10-15T06:06:30Z</time>
      </trkpt>
      <trkpt lat="45.60392" lon="4.93252">
        <ele>286</ele>
        <time>2011-10-15T06:06:31Z</time>
      </trkpt>
      <trkpt lat="45.60384" lon="4.93249">
        <ele>285</ele>
        <time>2011-10-15T06:06:32Z</time>
      </trkpt>
      <trkpt lat="45.60377" lon="4.93247">
        <ele>284</ele>
        <time>2011-10-15T06:06:33Z</time>
      </trkpt>
      <trkpt lat="45.6037" lon="4.93246">
        <ele>283</ele>
        <time>2011-10-15T06:06:34Z</time>
      </trkpt>
      <trkpt lat="45.60363" lon="4.93245">
        <ele>282</ele>
        <time>2011-10-15T06:06:35Z</time>
      </trkpt>
      <trkpt lat="45.60349" lon="4.93245">
        <ele>281</ele>
        <time>2011-10-15T06:06:37Z</time>
      </trkpt>
      <trkpt lat="45.60342" lon="4.93246">
        <ele>281</ele>
        <time>2011-10-15T06:06:38Z</time>
      </trkpt>
      <trkpt lat="45.60335" lon="4.93244">
        <ele>280</ele>
        <time>2011-10-15T06:06:39Z</time>
      </trkpt>
      <trkpt lat="45.60328" lon="4.93242">
        <ele>279</ele>
        <time>2011-10-15T06:06:40Z</time>
      </trkpt>
      <trkpt lat="45.60321" lon="4.93239">
        <ele>279</ele>
        <time>2011-10-15T06:06:41Z</time>
      </trkpt>
      <trkpt lat="45.60314" lon="4.93235">
        <ele>277</ele>
        <time>2011-10-15T06:06:42Z</time>
      </trkpt>
      <trkpt lat="45.60307" lon="4.93231">
        <ele>277</ele>
        <time>2011-10-15T06:06:43Z</time>
      </trkpt>
      <trkpt lat="45.60301" lon="4.93227">
        <ele>277</ele>
        <time>2011-10-15T06:06:44Z</time>
      </trkpt>
      <trkpt lat="45.60294" lon="4.93222">
        <ele>277</ele>
        <time>2011-10-15T06:06:45Z</time>
      </trkpt>
      <trkpt lat="45.60289" lon="4.93216">
        <ele>276</ele>
        <time>2011-10-15T06:06:46Z</time>
      </trkpt>
      <trkpt lat="45.60285" lon="4.93211">
        <ele>275</ele>
        <time>2011-10-15T06:06:47Z</time>
      </trkpt>
      <trkpt lat="45.60281" lon="4.93205">
        <ele>274</ele>
        <time>2011-10-15T06:06:48Z</time>
      </trkpt>
      <trkpt lat="45.60271" lon="4.93188">
        <ele>272</ele>
        <time>2011-10-15T06:06:52Z</time>
      </trkpt>
      <trkpt lat="45.60271" lon="4.93184">
        <ele>272</ele>
        <time>2011-10-15T06:06:53Z</time>
      </trkpt>
      <trkpt lat="45.60271" lon="4.93181">
        <ele>273</ele>
        <time>2011-10-15T06:06:54Z</time>
      </trkpt>
      <trkpt lat="45.6027" lon="4.93177">
        <ele>273</ele>
        <time>2011-10-15T06:06:55Z</time>
      </trkpt>
      <trkpt lat="45.60271" lon="4.93162">
        <ele>273</ele>
        <time>2011-10-15T06:07:01Z</time>
      </trkpt>
      <trkpt lat="45.60273" lon="4.93139">
        <ele>273</ele>
        <time>2011-10-15T06:07:06Z</time>
      </trkpt>
      <trkpt lat="45.60277" lon="4.93112">
        <ele>272</ele>
        <time>2011-10-15T06:07:11Z</time>
      </trkpt>
      <trkpt lat="45.60279" lon="4.9308">
        <ele>273</ele>
        <time>2011-10-15T06:07:17Z</time>
      </trkpt>
      <trkpt lat="45.60279" lon="4.93058">
        <ele>275</ele>
        <time>2011-10-15T06:07:24Z</time>
      </trkpt>
      <trkpt lat="45.60279" lon="4.93033">
        <ele>275</ele>
        <time>2011-10-15T06:07:30Z</time>
      </trkpt>
      <trkpt lat="45.60278" lon="4.93016">
        <ele>275</ele>
        <time>2011-10-15T06:07:34Z</time>
      </trkpt>
      <trkpt lat="45.60277" lon="4.93013">
        <ele>275</ele>
        <time>2011-10-15T06:07:35Z</time>
      </trkpt>
      <trkpt lat="45.60277" lon="4.93009">
        <ele>275</ele>
        <time>2011-10-15T06:07:36Z</time>
      </trkpt>
      <trkpt lat="45.60278" lon="4.93004">
        <ele>275</ele>
        <time>2011-10-15T06:07:37Z</time>
      </trkpt>
      <trkpt lat="45.60278" lon="4.93">
        <ele>275</ele>
        <time>2011-10-15T06:07:38Z</time>
      </trkpt>
      <trkpt lat="45.60281" lon="4.92971">
        <ele>276</ele>
        <time>2011-10-15T06:07:45Z</time>
      </trkpt>
      <trkpt lat="45.60285" lon="4.92953">
        <ele>277</ele>
        <time>2011-10-15T06:07:50Z</time>
      </trkpt>
      <trkpt lat="45.60287" lon="4.92934">
        <ele>278</ele>
        <time>2011-10-15T06:07:56Z</time>
      </trkpt>
      <trkpt lat="45.60292" lon="4.92916">
        <ele>278</ele>
        <time>2011-10-15T06:08:01Z</time>
      </trkpt>
      <trkpt lat="45.60291" lon="4.92914">
        <ele>278</ele>
        <time>2011-10-15T06:08:02Z</time>
      </trkpt>
      <trkpt lat="45.60291" lon="4.92912">
        <ele>279</ele>
        <time>2011-10-15T06:08:03Z</time>
      </trkpt>
      <trkpt lat="45.60287" lon="4.9291">
        <ele>281</ele>
        <time>2011-10-15T06:08:07Z</time>
      </trkpt>
      <trkpt lat="45.60284" lon="4.92908">
        <ele>281</ele>
        <time>2011-10-15T06:08:10Z</time>
      </trkpt>
      <trkpt lat="45.60281" lon="4.92912">
        <ele>283</ele>
        <time>2011-10-15T06:08:15Z</time>
      </trkpt>
      <trkpt lat="45.60281" lon="4.92912">
        <ele>283</ele>
        <time>2011-10-15T06:08:17Z</time>
      </trkpt>
      <trkpt lat="45.60276" lon="4.92915">
        <ele>285</ele>
        <time>2011-10-15T06:08:24Z</time>
      </trkpt>
      <trkpt lat="45.60271" lon="4.92916">
        <ele>287</ele>
        <time>2011-10-15T06:08:29Z</time>
      </trkpt>
      <trkpt lat="45.60265" lon="4.92917">
        <ele>288</ele>
        <time>2011-10-15T06:08:35Z</time>
      </trkpt>
      <trkpt lat="45.60262" lon="4.92917">
        <ele>289</ele>
        <time>2011-10-15T06:08:37Z</time>
      </trkpt>
      <trkpt lat="45.60258" lon="4.92916">
        <ele>289</ele>
        <time>2011-10-15T06:08:43Z</time>
      </trkpt>
      <trkpt lat="45.60256" lon="4.92915">
        <ele>290</ele>
        <time>2011-10-15T06:08:45Z</time>
      </trkpt>
      <trkpt lat="45.60253" lon="4.92913">
        <ele>291</ele>
        <time>2011-10-15T06:08:48Z</time>
      </trkpt>
      <trkpt lat="45.60241" lon="4.92914">
        <ele>294</ele>
        <time>2011-10-15T06:08:55Z</time>
      </trkpt>
      <trkpt lat="45.60233" lon="4.92911">
        <ele>295</ele>
        <time>2011-10-15T06:09:01Z</time>
      </trkpt>
      <trkpt lat="45.60223" lon="4.92911">
        <ele>297</ele>
        <time>2011-10-15T06:09:08Z</time>
      </trkpt>
      <trkpt lat="45.60217" lon="4.92908">
        <ele>298</ele>
        <time>2011-10-15T06:09:14Z</time>
      </trkpt>
      <trkpt lat="45.60214" lon="4.92907">
        <ele>298</ele>
        <time>2011-10-15T06:09:23Z</time>
      </trkpt>
      <trkpt lat="45.60214" lon="4.92907">
        <ele>298</ele>
        <time>2011-10-15T06:09:33Z</time>
      </trkpt>
      <trkpt lat="45.60214" lon="4.92907">
        <ele>298</ele>
        <time>2011-10-15T06:09:47Z</time>
      </trkpt>
      <trkpt lat="45.60214" lon="4.92907">
        <ele>298</ele>
        <time>2011-10-15T06:10:00Z</time>
      </trkpt>
      <trkpt lat="45.60214" lon="4.92907">
        <ele>298</ele>
        <time>2011-10-15T06:10:14Z</time>
      </trkpt>
      <trkpt lat="45.60214" lon="4.92907">
        <ele>298</ele>
        <time>2011-10-15T06:10:31Z</time>
      </trkpt>
      <trkpt lat="45.60213" lon="4.92907">
        <ele>298</ele>
        <time>2011-10-15T06:10:45Z</time>
      </trkpt>
      <trkpt lat="45.60208" lon="4.92914">
        <ele>297</ele>
        <time>2011-10-15T06:10:49Z</time>
      </trkpt>
      <trkpt lat="45.60202" lon="4.92942">
        <ele>295</ele>
        <time>2011-10-15T06:10:55Z</time>
      </trkpt>
      <trkpt lat="45.60198" lon="4.92976">
        <ele>292</ele>
        <time>2011-10-15T06:11:00Z</time>
      </trkpt>
      <trkpt lat="45.60197" lon="4.92991">
        <ele>290</ele>
        <time>2011-10-15T06:11:02Z</time>
      </trkpt>
      <trkpt lat="45.60198" lon="4.92997">
        <ele>290</ele>
        <time>2011-10-15T06:11:03Z</time>
      </trkpt>
      <trkpt lat="45.60199" lon="4.93003">
        <ele>289</ele>
        <time>2011-10-15T06:11:04Z</time>
      </trkpt>
      <trkpt lat="45.602" lon="4.93009">
        <ele>288</ele>
        <time>2011-10-15T06:11:05Z</time>
      </trkpt>
      <trkpt lat="45.60199" lon="4.93036">
        <ele>286</ele>
        <time>2011-10-15T06:11:07Z</time>
      </trkpt>
      <trkpt lat="45.60202" lon="4.93069">
        <ele>282</ele>
        <time>2011-10-15T06:11:10Z</time>
      </trkpt>
      <trkpt lat="45.60201" lon="4.93081">
        <ele>282</ele>
        <time>2011-10-15T06:11:11Z</time>
      </trkpt>
      <trkpt lat="45.60199" lon="4.93091">
        <ele>281</ele>
        <time>2011-10-15T06:11:12Z</time>
      </trkpt>
      <trkpt lat="45.60196" lon="4.93101">
        <ele>281</ele>
        <time>2011-10-15T06:11:13Z</time>
      </trkpt>
      <trkpt lat="45.60192" lon="4.93109">
        <ele>280</ele>
        <time>2011-10-15T06:11:14Z</time>
      </trkpt>
      <trkpt lat="45.60188" lon="4.93115">
        <ele>280</ele>
        <time>2011-10-15T06:11:15Z</time>
      </trkpt>
      <trkpt lat="45.60181" lon="4.9312">
        <ele>280</ele>
        <time>2011-10-15T06:11:16Z</time>
      </trkpt>
      <trkpt lat="45.60174" lon="4.93124">
        <ele>280</ele>
        <time>2011-10-15T06:11:17Z</time>
      </trkpt>
      <trkpt lat="45.60169" lon="4.93126">
        <ele>280</ele>
        <time>2011-10-15T06:11:18Z</time>
      </trkpt>
      <trkpt lat="45.60157" lon="4.93132">
        <ele>280</ele>
        <time>2011-10-15T06:11:20Z</time>
      </trkpt>
      <trkpt lat="45.60136" lon="4.93133">
        <ele>280</ele>
        <time>2011-10-15T06:11:25Z</time>
      </trkpt>
      <trkpt lat="45.60116" lon="4.93129">
        <ele>280</ele>
        <time>2011-10-15T06:11:31Z</time>
      </trkpt>
      <trkpt lat="45.60113" lon="4.93127">
        <ele>280</ele>
        <time>2011-10-15T06:11:32Z</time>
      </trkpt>
      <trkpt lat="45.6011" lon="4.93124">
        <ele>280</ele>
        <time>2011-10-15T06:11:33Z</time>
      </trkpt>
      <trkpt lat="45.60107" lon="4.93121">
        <ele>280</ele>
        <time>2011-10-15T06:11:34Z</time>
      </trkpt>
      <trkpt lat="45.60105" lon="4.93117">
        <ele>279</ele>
        <time>2011-10-15T06:11:35Z</time>
      </trkpt>
      <trkpt lat="45.6009" lon="4.93094">
        <ele>279</ele>
        <time>2011-10-15T06:11:41Z</time>
      </trkpt>
      <trkpt lat="45.60073" lon="4.93061">
        <ele>279</ele>
        <time>2011-10-15T06:11:48Z</time>
      </trkpt>
      <trkpt lat="45.60052" lon="4.93029">
        <ele>280</ele>
        <time>2011-10-15T06:11:55Z</time>
      </trkpt>
      <trkpt lat="45.60031" lon="4.9301">
        <ele>281</ele>
        <time>2011-10-15T06:12:01Z</time>
      </trkpt>
      <trkpt lat="45.60015" lon="4.92996">
        <ele>282</ele>
        <time>2011-10-15T06:12:07Z</time>
      </trkpt>
      <trkpt lat="45.59992" lon="4.92981">
        <ele>282</ele>
        <time>2011-10-15T06:12:14Z</time>
      </trkpt>
      <trkpt lat="45.59973" lon="4.92957">
        <ele>280</ele>
        <time>2011-10-15T06:12:20Z</time>
      </trkpt>
      <trkpt lat="45.59948" lon="4.92916">
        <ele>277</ele>
        <time>2011-10-15T06:12:28Z</time>
      </trkpt>
      <trkpt lat="45.59932" lon="4.92872">
        <ele>276</ele>
        <time>2011-10-15T06:12:34Z</time>
      </trkpt>
      <trkpt lat="45.59902" lon="4.92811">
        <ele>274</ele>
        <time>2011-10-15T06:12:42Z</time>
      </trkpt>
      <trkpt lat="45.59899" lon="4.92804">
        <ele>273</ele>
        <time>2011-10-15T06:12:43Z</time>
      </trkpt>
      <trkpt lat="45.59894" lon="4.92798">
        <ele>273</ele>
        <time>2011-10-15T06:12:44Z</time>
      </trkpt>
      <trkpt lat="45.5989" lon="4.92792">
        <ele>273</ele>
        <time>2011-10-15T06:12:45Z</time>
      </trkpt>
      <trkpt lat="45.59886" lon="4.92788">
        <ele>273</ele>
        <time>2011-10-15T06:12:46Z</time>
      </trkpt>
      <trkpt lat="45.59883" lon="4.92783">
        <ele>272</ele>
        <time>2011-10-15T06:12:47Z</time>
      </trkpt>
      <trkpt lat="45.59879" lon="4.9278">
        <ele>272</ele>
        <time>2011-10-15T06:12:48Z</time>
      </trkpt>
      <trkpt lat="45.59859" lon="4.92771">
        <ele>274</ele>
        <time>2011-10-15T06:12:54Z</time>
      </trkpt>
      <trkpt lat="45.5984" lon="4.9277">
        <ele>274</ele>
        <time>2011-10-15T06:12:59Z</time>
      </trkpt>
      <trkpt lat="45.59821" lon="4.9276">
        <ele>275</ele>
        <time>2011-10-15T06:13:05Z</time>
      </trkpt>
      <trkpt lat="45.59803" lon="4.92749">
        <ele>274</ele>
        <time>2011-10-15T06:13:10Z</time>
      </trkpt>
      <trkpt lat="45.59798" lon="4.92749">
        <ele>274</ele>
        <time>2011-10-15T06:13:11Z</time>
      </trkpt>
      <trkpt lat="45.59794" lon="4.92751">
        <ele>272</ele>
        <time>2011-10-15T06:13:12Z</time>
      </trkpt>
      <trkpt lat="45.59791" lon="4.92753">
        <ele>271</ele>
        <time>2011-10-15T06:13:13Z</time>
      </trkpt>
      <trkpt lat="45.59787" lon="4.92755">
        <ele>271</ele>
        <time>2011-10-15T06:13:14Z</time>
      </trkpt>
      <trkpt lat="45.59784" lon="4.92757">
        <ele>269</ele>
        <time>2011-10-15T06:13:15Z</time>
      </trkpt>
      <trkpt lat="45.59781" lon="4.92758">
        <ele>269</ele>
        <time>2011-10-15T06:13:16Z</time>
      </trkpt>
      <trkpt lat="45.59779" lon="4.9276">
        <ele>269</ele>
        <time>2011-10-15T06:13:17Z</time>
      </trkpt>
      <trkpt lat="45.5977" lon="4.92767">
        <ele>264</ele>
        <time>2011-10-15T06:13:20Z</time>
      </trkpt>
      <trkpt lat="45.59759" lon="4.92779">
        <ele>260</ele>
        <time>2011-10-15T06:13:23Z</time>
      </trkpt>
      <trkpt lat="45.59754" lon="4.92784">
        <ele>260</ele>
        <time>2011-10-15T06:13:24Z</time>
      </trkpt>
      <trkpt lat="45.59748" lon="4.92787">
        <ele>259</ele>
        <time>2011-10-15T06:13:25Z</time>
      </trkpt>
      <trkpt lat="45.59742" lon="4.92789">
        <ele>258</ele>
        <time>2011-10-15T06:13:26Z</time>
      </trkpt>
      <trkpt lat="45.59735" lon="4.92791">
        <ele>257</ele>
        <time>2011-10-15T06:13:27Z</time>
      </trkpt>
      <trkpt lat="45.5973" lon="4.92792">
        <ele>256</ele>
        <time>2011-10-15T06:13:28Z</time>
      </trkpt>
      <trkpt lat="45.59724" lon="4.92792">
        <ele>255</ele>
        <time>2011-10-15T06:13:29Z</time>
      </trkpt>
      <trkpt lat="45.59709" lon="4.92794">
        <ele>252</ele>
        <time>2011-10-15T06:13:33Z</time>
      </trkpt>
      <trkpt lat="45.59706" lon="4.92795">
        <ele>252</ele>
        <time>2011-10-15T06:13:34Z</time>
      </trkpt>
      <trkpt lat="45.59704" lon="4.92797">
        <ele>251</ele>
        <time>2011-10-15T06:13:35Z</time>
      </trkpt>
      <trkpt lat="45.59702" lon="4.92799">
        <ele>250</ele>
        <time>2011-10-15T06:13:36Z</time>
      </trkpt>
      <trkpt lat="45.59699" lon="4.92801">
        <ele>250</ele>
        <time>2011-10-15T06:13:37Z</time>
      </trkpt>
      <trkpt lat="45.59695" lon="4.92802">
        <ele>250</ele>
        <time>2011-10-15T06:13:38Z</time>
      </trkpt>
      <trkpt lat="45.59692" lon="4.92803">
        <ele>249</ele>
        <time>2011-10-15T06:13:39Z</time>
      </trkpt>
      <trkpt lat="45.59688" lon="4.92804">
        <ele>248</ele>
        <time>2011-10-15T06:13:40Z</time>
      </trkpt>
      <trkpt lat="45.59685" lon="4.92804">
        <ele>249</ele>
        <time>2011-10-15T06:13:41Z</time>
      </trkpt>
      <trkpt lat="45.59682" lon="4.92803">
        <ele>249</ele>
        <time>2011-10-15T06:13:42Z</time>
      </trkpt>
      <trkpt lat="45.59674" lon="4.92804">
        <ele>249</ele>
        <time>2011-10-15T06:13:47Z</time>
      </trkpt>
      <trkpt lat="45.5966" lon="4.92798">
        <ele>248</ele>
        <time>2011-10-15T06:13:51Z</time>
      </trkpt>
      <trkpt lat="45.59642" lon="4.92763">
        <ele>247</ele>
        <time>2011-10-15T06:13:58Z</time>
      </trkpt>
      <trkpt lat="45.59624" lon="4.92734">
        <ele>247</ele>
        <time>2011-10-15T06:14:05Z</time>
      </trkpt>
      <trkpt lat="45.59616" lon="4.92719">
        <ele>248</ele>
        <time>2011-10-15T06:14:11Z</time>
      </trkpt>
      <trkpt lat="45.59603" lon="4.92692">
        <ele>247</ele>
        <time>2011-10-15T06:14:19Z</time>
      </trkpt>
      <trkpt lat="45.5959" lon="4.9267">
        <ele>246</ele>
        <time>2011-10-15T06:14:26Z</time>
      </trkpt>
      <trkpt lat="45.59572" lon="4.92653">
        <ele>246</ele>
        <time>2011-10-15T06:14:33Z</time>
      </trkpt>
      <trkpt lat="45.59553" lon="4.9264">
        <ele>244</ele>
        <time>2011-10-15T06:14:38Z</time>
      </trkpt>
      <trkpt lat="45.59545" lon="4.92633">
        <ele>242</ele>
        <time>2011-10-15T06:14:40Z</time>
      </trkpt>
      <trkpt lat="45.59537" lon="4.92627">
        <ele>240</ele>
        <time>2011-10-15T06:14:42Z</time>
      </trkpt>
      <trkpt lat="45.59532" lon="4.92623">
        <ele>240</ele>
        <time>2011-10-15T06:14:43Z</time>
      </trkpt>
      <trkpt lat="45.59517" lon="4.92611">
        <ele>237</ele>
        <time>2011-10-15T06:14:46Z</time>
      </trkpt>
      <trkpt lat="45.59513" lon="4.92605">
        <ele>236</ele>
        <time>2011-10-15T06:14:47Z</time>
      </trkpt>
      <trkpt lat="45.59509" lon="4.92599">
        <ele>236</ele>
        <time>2011-10-15T06:14:48Z</time>
      </trkpt>
      <trkpt lat="45.59506" lon="4.92592">
        <ele>234</ele>
        <time>2011-10-15T06:14:49Z</time>
      </trkpt>
      <trkpt lat="45.59504" lon="4.92584">
        <ele>234</ele>
        <time>2011-10-15T06:14:50Z</time>
      </trkpt>
      <trkpt lat="45.59499" lon="4.92563">
        <ele>233</ele>
        <time>2011-10-15T06:14:53Z</time>
      </trkpt>
      <trkpt lat="45.59492" lon="4.92545">
        <ele>233</ele>
        <time>2011-10-15T06:14:56Z</time>
      </trkpt>
      <trkpt lat="45.59482" lon="4.92526">
        <ele>232</ele>
        <time>2011-10-15T06:15:01Z</time>
      </trkpt>
      <trkpt lat="45.59475" lon="4.92505">
        <ele>232</ele>
        <time>2011-10-15T06:15:06Z</time>
      </trkpt>
      <trkpt lat="45.59463" lon="4.92485">
        <ele>231</ele>
        <time>2011-10-15T06:15:13Z</time>
      </trkpt>
      <trkpt lat="45.5945" lon="4.92468">
        <ele>231</ele>
        <time>2011-10-15T06:15:19Z</time>
      </trkpt>
      <trkpt lat="45.59439" lon="4.92447">
        <ele>231</ele>
        <time>2011-10-15T06:15:24Z</time>
      </trkpt>
      <trkpt lat="45.59433" lon="4.92421">
        <ele>231</ele>
        <time>2011-10-15T06:15:30Z</time>
      </trkpt>
      <trkpt lat="45.59426" lon="4.924">
        <ele>230</ele>
        <time>2011-10-15T06:15:35Z</time>
      </trkpt>
      <trkpt lat="45.59416" lon="4.92384">
        <ele>230</ele>
        <time>2011-10-15T06:15:40Z</time>
      </trkpt>
      <trkpt lat="45.59405" lon="4.92362">
        <ele>230</ele>
        <time>2011-10-15T06:15:46Z</time>
      </trkpt>
      <trkpt lat="45.59388" lon="4.92344">
        <ele>229</ele>
        <time>2011-10-15T06:15:52Z</time>
      </trkpt>
      <trkpt lat="45.59377" lon="4.92332">
        <ele>230</ele>
        <time>2011-10-15T06:15:56Z</time>
      </trkpt>
      <trkpt lat="45.59375" lon="4.92329">
        <ele>229</ele>
        <time>2011-10-15T06:15:57Z</time>
      </trkpt>
      <trkpt lat="45.59374" lon="4.92327">
        <ele>229</ele>
        <time>2011-10-15T06:15:58Z</time>
      </trkpt>
      <trkpt lat="45.59372" lon="4.92325">
        <ele>229</ele>
        <time>2011-10-15T06:15:59Z</time>
      </trkpt>
      <trkpt lat="45.5937" lon="4.92322">
        <ele>229</ele>
        <time>2011-10-15T06:16:00Z</time>
      </trkpt>
      <trkpt lat="45.59363" lon="4.92316">
        <ele>229</ele>
        <time>2011-10-15T06:16:03Z</time>
      </trkpt>
      <trkpt lat="45.59361" lon="4.92313">
        <ele>229</ele>
        <time>2011-10-15T06:16:04Z</time>
      </trkpt>
      <trkpt lat="45.59351" lon="4.923">
        <ele>229</ele>
        <time>2011-10-15T06:16:09Z</time>
      </trkpt>
      <trkpt lat="45.59349" lon="4.92286">
        <ele>229</ele>
        <time>2011-10-15T06:16:13Z</time>
      </trkpt>
      <trkpt lat="45.59346" lon="4.92277">
        <ele>229</ele>
        <time>2011-10-15T06:16:17Z</time>
      </trkpt>
      <trkpt lat="45.5934" lon="4.9227">
        <ele>228</ele>
        <time>2011-10-15T06:16:21Z</time>
      </trkpt>
      <trkpt lat="45.59338" lon="4.9227">
        <ele>229</ele>
        <time>2011-10-15T06:16:25Z</time>
      </trkpt>
      <trkpt lat="45.59292" lon="4.9228">
        <ele>228</ele>
        <time>2011-10-15T06:16:30Z</time>
      </trkpt>
      <trkpt lat="45.59268" lon="4.92273">
        <ele>228</ele>
        <time>2011-10-15T06:16:35Z</time>
      </trkpt>
      <trkpt lat="45.59236" lon="4.92251">
        <ele>228</ele>
        <time>2011-10-15T06:16:43Z</time>
      </trkpt>
      <trkpt lat="45.59215" lon="4.92231">
        <ele>228</ele>
        <time>2011-10-15T06:16:49Z</time>
      </trkpt>
      <trkpt lat="45.59183" lon="4.92208">
        <ele>227</ele>
        <time>2011-10-15T06:16:57Z</time>
      </trkpt>
      <trkpt lat="45.59161" lon="4.9219">
        <ele>227</ele>
        <time>2011-10-15T06:17:04Z</time>
      </trkpt>
      <trkpt lat="45.59146" lon="4.92175">
        <ele>227</ele>
        <time>2011-10-15T06:17:10Z</time>
      </trkpt>
      <trkpt lat="45.59146" lon="4.92154">
        <ele>227</ele>
        <time>2011-10-15T06:17:14Z</time>
      </trkpt>
      <trkpt lat="45.59147" lon="4.92148">
        <ele>227</ele>
        <time>2011-10-15T06:17:15Z</time>
      </trkpt>
      <trkpt lat="45.59145" lon="4.92142">
        <ele>227</ele>
        <time>2011-10-15T06:17:16Z</time>
      </trkpt>
      <trkpt lat="45.59128" lon="4.92119">
        <ele>227</ele>
        <time>2011-10-15T06:17:22Z</time>
      </trkpt>
      <trkpt lat="45.59107" lon="4.92089">
        <ele>227</ele>
        <time>2011-10-15T06:17:29Z</time>
      </trkpt>
      <trkpt lat="45.59084" lon="4.92051">
        <ele>226</ele>
        <time>2011-10-15T06:17:38Z</time>
      </trkpt>
      <trkpt lat="45.59065" lon="4.92027">
        <ele>226</ele>
        <time>2011-10-15T06:17:45Z</time>
      </trkpt>
      <trkpt lat="45.59043" lon="4.9202">
        <ele>226</ele>
        <time>2011-10-15T06:17:51Z</time>
      </trkpt>
      <trkpt lat="45.59023" lon="4.9201">
        <ele>226</ele>
        <time>2011-10-15T06:17:57Z</time>
      </trkpt>
      <trkpt lat="45.58998" lon="4.92002">
        <ele>226</ele>
        <time>2011-10-15T06:18:04Z</time>
      </trkpt>
      <trkpt lat="45.5899" lon="4.92003">
        <ele>226</ele>
        <time>2011-10-15T06:18:08Z</time>
      </trkpt>
      <trkpt lat="45.58989" lon="4.92006">
        <ele>226</ele>
        <time>2011-10-15T06:18:09Z</time>
      </trkpt>
      <trkpt lat="45.58989" lon="4.92009">
        <ele>226</ele>
        <time>2011-10-15T06:18:10Z</time>
      </trkpt>
      <trkpt lat="45.58993" lon="4.9204">
        <ele>226</ele>
        <time>2011-10-15T06:18:18Z</time>
      </trkpt>
      <trkpt lat="45.59001" lon="4.92055">
        <ele>228</ele>
        <time>2011-10-15T06:18:25Z</time>
      </trkpt>
      <trkpt lat="45.59007" lon="4.92067">
        <ele>229</ele>
        <time>2011-10-15T06:18:31Z</time>
      </trkpt>
      <trkpt lat="45.5902" lon="4.92083">
        <ele>231</ele>
        <time>2011-10-15T06:18:40Z</time>
      </trkpt>
      <trkpt lat="45.59021" lon="4.92083">
        <ele>232</ele>
        <time>2011-10-15T06:18:41Z</time>
      </trkpt>
      <trkpt lat="45.59035" lon="4.92088">
        <ele>234</ele>
        <time>2011-10-15T06:18:49Z</time>
      </trkpt>
      <trkpt lat="45.59049" lon="4.92098">
        <ele>235</ele>
        <time>2011-10-15T06:18:58Z</time>
      </trkpt>
      <trkpt lat="45.59058" lon="4.92117">
        <ele>238</ele>
        <time>2011-10-15T06:19:07Z</time>
      </trkpt>
      <trkpt lat="45.59066" lon="4.92134">
        <ele>239</ele>
        <time>2011-10-15T06:19:15Z</time>
      </trkpt>
      <trkpt lat="45.59074" lon="4.92149">
        <ele>240</ele>
        <time>2011-10-15T06:19:23Z</time>
      </trkpt>
      <trkpt lat="45.59083" lon="4.92165">
        <ele>242</ele>
        <time>2011-10-15T06:19:31Z</time>
      </trkpt>
      <trkpt lat="45.59091" lon="4.92192">
        <ele>244</ele>
        <time>2011-10-15T06:19:42Z</time>
      </trkpt>
      <trkpt lat="45.59098" lon="4.92213">
        <ele>245</ele>
        <time>2011-10-15T06:19:51Z</time>
      </trkpt>
      <trkpt lat="45.59102" lon="4.92236">
        <ele>247</ele>
        <time>2011-10-15T06:20:00Z</time>
      </trkpt>
      <trkpt lat="45.591" lon="4.92245">
        <ele>248</ele>
        <time>2011-10-15T06:20:04Z</time>
      </trkpt>
      <trkpt lat="45.59099" lon="4.92246">
        <ele>248</ele>
        <time>2011-10-15T06:20:05Z</time>
      </trkpt>
      <trkpt lat="45.59096" lon="4.92249">
        <ele>248</ele>
        <time>2011-10-15T06:20:07Z</time>
      </trkpt>
      <trkpt lat="45.59094" lon="4.92249">
        <ele>249</ele>
        <time>2011-10-15T06:20:08Z</time>
      </trkpt>
      <trkpt lat="45.59093" lon="4.92249">
        <ele>249</ele>
        <time>2011-10-15T06:20:09Z</time>
      </trkpt>
      <trkpt lat="45.59082" lon="4.92246">
        <ele>250</ele>
        <time>2011-10-15T06:20:16Z</time>
      </trkpt>
      <trkpt lat="45.59072" lon="4.92243">
        <ele>250</ele>
        <time>2011-10-15T06:20:22Z</time>
      </trkpt>
      <trkpt lat="45.59057" lon="4.92241">
        <ele>252</ele>
        <time>2011-10-15T06:20:30Z</time>
      </trkpt>
      <trkpt lat="45.59056" lon="4.92241">
        <ele>251</ele>
        <time>2011-10-15T06:20:31Z</time>
      </trkpt>
      <trkpt lat="45.59053" lon="4.92243">
        <ele>252</ele>
        <time>2011-10-15T06:20:33Z</time>
      </trkpt>
      <trkpt lat="45.59052" lon="4.92244">
        <ele>252</ele>
        <time>2011-10-15T06:20:34Z</time>
      </trkpt>
      <trkpt lat="45.59051" lon="4.92246">
        <ele>252</ele>
        <time>2011-10-15T06:20:35Z</time>
      </trkpt>
      <trkpt lat="45.59041" lon="4.92263">
        <ele>253</ele>
        <time>2011-10-15T06:20:43Z</time>
      </trkpt>
      <trkpt lat="45.59028" lon="4.92273">
        <ele>254</ele>
        <time>2011-10-15T06:20:51Z</time>
      </trkpt>
      <trkpt lat="45.59016" lon="4.92288">
        <ele>256</ele>
        <time>2011-10-15T06:21:00Z</time>
      </trkpt>
      <trkpt lat="45.59011" lon="4.92304">
        <ele>257</ele>
        <time>2011-10-15T06:21:07Z</time>
      </trkpt>
      <trkpt lat="45.59004" lon="4.92322">
        <ele>259</ele>
        <time>2011-10-15T06:21:15Z</time>
      </trkpt>
      <trkpt lat="45.59001" lon="4.92336">
        <ele>261</ele>
        <time>2011-10-15T06:21:22Z</time>
      </trkpt>
      <trkpt lat="45.58998" lon="4.92349">
        <ele>262</ele>
        <time>2011-10-15T06:21:29Z</time>
      </trkpt>
      <trkpt lat="45.58993" lon="4.9237">
        <ele>264</ele>
        <time>2011-10-15T06:21:38Z</time>
      </trkpt>
      <trkpt lat="45.58991" lon="4.92388">
        <ele>265</ele>
        <time>2011-10-15T06:21:46Z</time>
      </trkpt>
      <trkpt lat="45.58987" lon="4.92404">
        <ele>267</ele>
        <time>2011-10-15T06:21:54Z</time>
      </trkpt>
      <trkpt lat="45.58986" lon="4.9242">
        <ele>268</ele>
        <time>2011-10-15T06:22:01Z</time>
      </trkpt>
      <trkpt lat="45.58985" lon="4.92437">
        <ele>269</ele>
        <time>2011-10-15T06:22:08Z</time>
      </trkpt>
      <trkpt lat="45.58985" lon="4.92439">
        <ele>269</ele>
        <time>2011-10-15T06:22:09Z</time>
      </trkpt>
      <trkpt lat="45.58986" lon="4.92441">
        <ele>269</ele>
        <time>2011-10-15T06:22:10Z</time>
      </trkpt>
      <trkpt lat="45.58999" lon="4.92458">
        <ele>269</ele>
        <time>2011-10-15T06:22:19Z</time>
      </trkpt>
      <trkpt lat="45.59013" lon="4.92468">
        <ele>270</ele>
        <time>2011-10-15T06:22:26Z</time>
      </trkpt>
      <trkpt lat="45.59032" lon="4.92484">
        <ele>270</ele>
        <time>2011-10-15T06:22:34Z</time>
      </trkpt>
      <trkpt lat="45.5905" lon="4.925">
        <ele>269</ele>
        <time>2011-10-15T06:22:41Z</time>
      </trkpt>
      <trkpt lat="45.59067" lon="4.92515">
        <ele>269</ele>
        <time>2011-10-15T06:22:47Z</time>
      </trkpt>
      <trkpt lat="45.59082" lon="4.92526">
        <ele>269</ele>
        <time>2011-10-15T06:22:53Z</time>
      </trkpt>
      <trkpt lat="45.59104" lon="4.92535">
        <ele>270</ele>
        <time>2011-10-15T06:23:01Z</time>
      </trkpt>
      <trkpt lat="45.59128" lon="4.92533">
        <ele>272</ele>
        <time>2011-10-15T06:23:09Z</time>
      </trkpt>
      <trkpt lat="45.59154" lon="4.92542">
        <ele>273</ele>
        <time>2011-10-15T06:23:18Z</time>
      </trkpt>
      <trkpt lat="45.59174" lon="4.92561">
        <ele>273</ele>
        <time>2011-10-15T06:23:26Z</time>
      </trkpt>
      <trkpt lat="45.59189" lon="4.92577">
        <ele>275</ele>
        <time>2011-10-15T06:23:33Z</time>
      </trkpt>
      <trkpt lat="45.59194" lon="4.92591">
        <ele>275</ele>
        <time>2011-10-15T06:23:39Z</time>
      </trkpt>
      <trkpt lat="45.59194" lon="4.92615">
        <ele>277</ele>
        <time>2011-10-15T06:23:48Z</time>
      </trkpt>
      <trkpt lat="45.59193" lon="4.92633">
        <ele>278</ele>
        <time>2011-10-15T06:23:56Z</time>
      </trkpt>
      <trkpt lat="45.59191" lon="4.92655">
        <ele>280</ele>
        <time>2011-10-15T06:24:05Z</time>
      </trkpt>
      <trkpt lat="45.59188" lon="4.92675">
        <ele>283</ele>
        <time>2011-10-15T06:24:15Z</time>
      </trkpt>
      <trkpt lat="45.59184" lon="4.92693">
        <ele>285</ele>
        <time>2011-10-15T06:24:23Z</time>
      </trkpt>
      <trkpt lat="45.5918" lon="4.92709">
        <ele>288</ele>
        <time>2011-10-15T06:24:31Z</time>
      </trkpt>
      <trkpt lat="45.59171" lon="4.92723">
        <ele>290</ele>
        <time>2011-10-15T06:24:39Z</time>
      </trkpt>
      <trkpt lat="45.59166" lon="4.92729">
        <ele>291</ele>
        <time>2011-10-15T06:24:43Z</time>
      </trkpt>
      <trkpt lat="45.59165" lon="4.92729">
        <ele>291</ele>
        <time>2011-10-15T06:24:44Z</time>
      </trkpt>
      <trkpt lat="45.59164" lon="4.92729">
        <ele>291</ele>
        <time>2011-10-15T06:24:49Z</time>
      </trkpt>
      <trkpt lat="45.59163" lon="4.9273">
        <ele>291</ele>
        <time>2011-10-15T06:24:56Z</time>
      </trkpt>
      <trkpt lat="45.59163" lon="4.92732">
        <ele>291</ele>
        <time>2011-10-15T06:24:57Z</time>
      </trkpt>
      <trkpt lat="45.59163" lon="4.92734">
        <ele>291</ele>
        <time>2011-10-15T06:24:58Z</time>
      </trkpt>
      <trkpt lat="45.59162" lon="4.92736">
        <ele>291</ele>
        <time>2011-10-15T06:24:59Z</time>
      </trkpt>
      <trkpt lat="45.59161" lon="4.92738">
        <ele>291</ele>
        <time>2011-10-15T06:25:00Z</time>
      </trkpt>
      <trkpt lat="45.59157" lon="4.92745">
        <ele>291</ele>
        <time>2011-10-15T06:25:07Z</time>
      </trkpt>
      <trkpt lat="45.59156" lon="4.9275">
        <ele>292</ele>
        <time>2011-10-15T06:25:10Z</time>
      </trkpt>
      <trkpt lat="45.59156" lon="4.92751">
        <ele>291</ele>
        <time>2011-10-15T06:25:11Z</time>
      </trkpt>
      <trkpt lat="45.59143" lon="4.92774">
        <ele>290</ele>
        <time>2011-10-15T06:25:19Z</time>
      </trkpt>
      <trkpt lat="45.59144" lon="4.9279">
        <ele>289</ele>
        <time>2011-10-15T06:25:23Z</time>
      </trkpt>
      <trkpt lat="45.59146" lon="4.92792">
        <ele>289</ele>
        <time>2011-10-15T06:25:24Z</time>
      </trkpt>
      <trkpt lat="45.59148" lon="4.92794">
        <ele>289</ele>
        <time>2011-10-15T06:25:25Z</time>
      </trkpt>
      <trkpt lat="45.5915" lon="4.92796">
        <ele>289</ele>
        <time>2011-10-15T06:25:26Z</time>
      </trkpt>
      <trkpt lat="45.59152" lon="4.92798">
        <ele>289</ele>
        <time>2011-10-15T06:25:27Z</time>
      </trkpt>
      <trkpt lat="45.59154" lon="4.928">
        <ele>289</ele>
        <time>2011-10-15T06:25:28Z</time>
      </trkpt>
      <trkpt lat="45.59156" lon="4.92802">
        <ele>289</ele>
        <time>2011-10-15T06:25:29Z</time>
      </trkpt>
      <trkpt lat="45.59171" lon="4.92817">
        <ele>289</ele>
        <time>2011-10-15T06:25:36Z</time>
      </trkpt>
      <trkpt lat="45.59196" lon="4.92844">
        <ele>290</ele>
        <time>2011-10-15T06:25:45Z</time>
      </trkpt>
      <trkpt lat="45.59218" lon="4.92868">
        <ele>290</ele>
        <time>2011-10-15T06:25:53Z</time>
      </trkpt>
      <trkpt lat="45.59239" lon="4.92888">
        <ele>290</ele>
        <time>2011-10-15T06:26:00Z</time>
      </trkpt>
      <trkpt lat="45.59258" lon="4.92909">
        <ele>291</ele>
        <time>2011-10-15T06:26:07Z</time>
      </trkpt>
      <trkpt lat="45.59282" lon="4.92936">
        <ele>291</ele>
        <time>2011-10-15T06:26:16Z</time>
      </trkpt>
      <trkpt lat="45.59316" lon="4.92971">
        <ele>292</ele>
        <time>2011-10-15T06:26:28Z</time>
      </trkpt>
      <trkpt lat="45.5934" lon="4.92996">
        <ele>293</ele>
        <time>2011-10-15T06:26:36Z</time>
      </trkpt>
      <trkpt lat="45.59365" lon="4.93024">
        <ele>294</ele>
        <time>2011-10-15T06:26:45Z</time>
      </trkpt>
      <trkpt lat="45.59386" lon="4.93051">
        <ele>294</ele>
        <time>2011-10-15T06:26:53Z</time>
      </trkpt>
      <trkpt lat="45.59409" lon="4.93072">
        <ele>294</ele>
        <time>2011-10-15T06:27:01Z</time>
      </trkpt>
      <trkpt lat="45.59417" lon="4.93081">
        <ele>295</ele>
        <time>2011-10-15T06:27:04Z</time>
      </trkpt>
      <trkpt lat="45.59424" lon="4.93097">
        <ele>296</ele>
        <time>2011-10-15T06:27:08Z</time>
      </trkpt>
      <trkpt lat="45.59436" lon="4.93141">
        <ele>297</ele>
        <time>2011-10-15T06:27:18Z</time>
      </trkpt>
      <trkpt lat="45.5945" lon="4.93167">
        <ele>299</ele>
        <time>2011-10-15T06:27:26Z</time>
      </trkpt>
      <trkpt lat="45.59454" lon="4.93173">
        <ele>300</ele>
        <time>2011-10-15T06:27:28Z</time>
      </trkpt>
      <trkpt lat="45.5948" lon="4.93204">
        <ele>301</ele>
        <time>2011-10-15T06:27:39Z</time>
      </trkpt>
      <trkpt lat="45.59508" lon="4.93237">
        <ele>302</ele>
        <time>2011-10-15T06:27:51Z</time>
      </trkpt>
      <trkpt lat="45.59527" lon="4.93257">
        <ele>303</ele>
        <time>2011-10-15T06:27:59Z</time>
      </trkpt>
      <trkpt lat="45.59529" lon="4.93256">
        <ele>303</ele>
        <time>2011-10-15T06:28:00Z</time>
      </trkpt>
      <trkpt lat="45.5953" lon="4.93254">
        <ele>303</ele>
        <time>2011-10-15T06:28:01Z</time>
      </trkpt>
      <trkpt lat="45.59531" lon="4.93251">
        <ele>303</ele>
        <time>2011-10-15T06:28:02Z</time>
      </trkpt>
      <trkpt lat="45.59532" lon="4.93247">
        <ele>303</ele>
        <time>2011-10-15T06:28:03Z</time>
      </trkpt>
      <trkpt lat="45.59534" lon="4.93242">
        <ele>302</ele>
        <time>2011-10-15T06:28:04Z</time>
      </trkpt>
      <trkpt lat="45.59536" lon="4.93236">
        <ele>301</ele>
        <time>2011-10-15T06:28:05Z</time>
      </trkpt>
      <trkpt lat="45.59539" lon="4.93229">
        <ele>301</ele>
        <time>2011-10-15T06:28:06Z</time>
      </trkpt>
      <trkpt lat="45.59544" lon="4.93212">
        <ele>300</ele>
        <time>2011-10-15T06:28:08Z</time>
      </trkpt>
      <trkpt lat="45.59559" lon="4.9317">
        <ele>296</ele>
        <time>2011-10-15T06:28:12Z</time>
      </trkpt>
      <trkpt lat="45.59567" lon="4.93149">
        <ele>291</ele>
        <time>2011-10-15T06:28:14Z</time>
      </trkpt>
      <trkpt lat="45.59576" lon="4.93128">
        <ele>288</ele>
        <time>2011-10-15T06:28:17Z</time>
      </trkpt>
      <trkpt lat="45.59581" lon="4.9312">
        <ele>286</ele>
        <time>2011-10-15T06:28:19Z</time>
      </trkpt>
      <trkpt lat="45.59584" lon="4.93119">
        <ele>285</ele>
        <time>2011-10-15T06:28:20Z</time>
      </trkpt>
      <trkpt lat="45.59587" lon="4.93119">
        <ele>284</ele>
        <time>2011-10-15T06:28:21Z</time>
      </trkpt>
      <trkpt lat="45.5959" lon="4.93122">
        <ele>284</ele>
        <time>2011-10-15T06:28:22Z</time>
      </trkpt>
      <trkpt lat="45.59592" lon="4.93126">
        <ele>285</ele>
        <time>2011-10-15T06:28:23Z</time>
      </trkpt>
      <trkpt lat="45.59595" lon="4.93131">
        <ele>285</ele>
        <time>2011-10-15T06:28:25Z</time>
      </trkpt>
      <trkpt lat="45.59595" lon="4.93134">
        <ele>285</ele>
        <time>2011-10-15T06:28:27Z</time>
      </trkpt>
      <trkpt lat="45.59596" lon="4.93136">
        <ele>285</ele>
        <time>2011-10-15T06:28:30Z</time>
      </trkpt>
      <trkpt lat="45.59601" lon="4.93144">
        <ele>285</ele>
        <time>2011-10-15T06:28:33Z</time>
      </trkpt>
      <trkpt lat="45.59603" lon="4.93147">
        <ele>285</ele>
        <time>2011-10-15T06:28:34Z</time>
      </trkpt>
      <trkpt lat="45.59605" lon="4.9315">
        <ele>285</ele>
        <time>2011-10-15T06:28:35Z</time>
      </trkpt>
      <trkpt lat="45.59608" lon="4.93153">
        <ele>286</ele>
        <time>2011-10-15T06:28:36Z</time>
      </trkpt>
      <trkpt lat="45.59611" lon="4.93156">
        <ele>286</ele>
        <time>2011-10-15T06:28:37Z</time>
      </trkpt>
      <trkpt lat="45.59614" lon="4.93159">
        <ele>285</ele>
        <time>2011-10-15T06:28:38Z</time>
      </trkpt>
      <trkpt lat="45.59621" lon="4.93167">
        <ele>285</ele>
        <time>2011-10-15T06:28:41Z</time>
      </trkpt>
      <trkpt lat="45.59634" lon="4.9318">
        <ele>286</ele>
        <time>2011-10-15T06:28:46Z</time>
      </trkpt>
      <trkpt lat="45.59645" lon="4.93192">
        <ele>285</ele>
        <time>2011-10-15T06:28:51Z</time>
      </trkpt>
      <trkpt lat="45.59654" lon="4.932">
        <ele>284</ele>
        <time>2011-10-15T06:28:56Z</time>
      </trkpt>
      <trkpt lat="45.59654" lon="4.932">
        <ele>285</ele>
        <time>2011-10-15T06:29:05Z</time>
      </trkpt>
      <trkpt lat="45.59654" lon="4.932">
        <ele>284</ele>
        <time>2011-10-15T06:29:20Z</time>
      </trkpt>
      <trkpt lat="45.59654" lon="4.932">
        <ele>284</ele>
        <time>2011-10-15T06:29:34Z</time>
      </trkpt>
      <trkpt lat="45.59654" lon="4.932">
        <ele>284</ele>
        <time>2011-10-15T06:29:49Z</time>
      </trkpt>
      <trkpt lat="45.59656" lon="4.93203">
        <ele>284</ele>
        <time>2011-10-15T06:30:01Z</time>
      </trkpt>
      <trkpt lat="45.59657" lon="4.93204">
        <ele>284</ele>
        <time>2011-10-15T06:30:02Z</time>
      </trkpt>
      <trkpt lat="45.5966" lon="4.93208">
        <ele>284</ele>
        <time>2011-10-15T06:30:04Z</time>
      </trkpt>
      <trkpt lat="45.59663" lon="4.93211">
        <ele>283</ele>
        <time>2011-10-15T06:30:06Z</time>
      </trkpt>
      <trkpt lat="45.59671" lon="4.9322">
        <ele>283</ele>
        <time>2011-10-15T06:30:10Z</time>
      </trkpt>
      <trkpt lat="45.59689" lon="4.9324">
        <ele>282</ele>
        <time>2011-10-15T06:30:16Z</time>
      </trkpt>
      <trkpt lat="45.59696" lon="4.93251">
        <ele>280</ele>
        <time>2011-10-15T06:30:19Z</time>
      </trkpt>
      <trkpt lat="45.597" lon="4.93254">
        <ele>280</ele>
        <time>2011-10-15T06:30:20Z</time>
      </trkpt>
      <trkpt lat="45.59724" lon="4.93271">
        <ele>281</ele>
        <time>2011-10-15T06:30:26Z</time>
      </trkpt>
      <trkpt lat="45.59735" lon="4.93281">
        <ele>281</ele>
        <time>2011-10-15T06:30:29Z</time>
      </trkpt>
      <trkpt lat="45.59739" lon="4.93284">
        <ele>281</ele>
        <time>2011-10-15T06:30:30Z</time>
      </trkpt>
      <trkpt lat="45.59742" lon="4.93286">
        <ele>282</ele>
        <time>2011-10-15T06:30:31Z</time>
      </trkpt>
      <trkpt lat="45.59758" lon="4.933">
        <ele>283</ele>
        <time>2011-10-15T06:30:37Z</time>
      </trkpt>
      <trkpt lat="45.59772" lon="4.93311">
        <ele>285</ele>
        <time>2011-10-15T06:30:43Z</time>
      </trkpt>
      <trkpt lat="45.5979" lon="4.93321">
        <ele>286</ele>
        <time>2011-10-15T06:30:50Z</time>
      </trkpt>
      <trkpt lat="45.59803" lon="4.93332">
        <ele>287</ele>
        <time>2011-10-15T06:30:56Z</time>
      </trkpt>
      <trkpt lat="45.59818" lon="4.93342">
        <ele>288</ele>
        <time>2011-10-15T06:31:03Z</time>
      </trkpt>
      <trkpt lat="45.5982" lon="4.93343">
        <ele>289</ele>
        <time>2011-10-15T06:31:04Z</time>
      </trkpt>
      <trkpt lat="45.59822" lon="4.93345">
        <ele>289</ele>
        <time>2011-10-15T06:31:05Z</time>
      </trkpt>
      <trkpt lat="45.59823" lon="4.93347">
        <ele>289</ele>
        <time>2011-10-15T06:31:06Z</time>
      </trkpt>
      <trkpt lat="45.59824" lon="4.93349">
        <ele>289</ele>
        <time>2011-10-15T06:31:07Z</time>
      </trkpt>
      <trkpt lat="45.59826" lon="4.93351">
        <ele>289</ele>
        <time>2011-10-15T06:31:08Z</time>
      </trkpt>
      <trkpt lat="45.59827" lon="4.93352">
        <ele>290</ele>
        <time>2011-10-15T06:31:09Z</time>
      </trkpt>
      <trkpt lat="45.59829" lon="4.93354">
        <ele>290</ele>
        <time>2011-10-15T06:31:10Z</time>
      </trkpt>
      <trkpt lat="45.59836" lon="4.93363">
        <ele>291</ele>
        <time>2011-10-15T06:31:15Z</time>
      </trkpt>
      <trkpt lat="45.59839" lon="4.93368">
        <ele>291</ele>
        <time>2011-10-15T06:31:18Z</time>
      </trkpt>
      <trkpt lat="45.59841" lon="4.9337">
        <ele>291</ele>
        <time>2011-10-15T06:31:19Z</time>
      </trkpt>
      <trkpt lat="45.59842" lon="4.93371">
        <ele>292</ele>
        <time>2011-10-15T06:31:20Z</time>
      </trkpt>
      <trkpt lat="45.59844" lon="4.93373">
        <ele>292</ele>
        <time>2011-10-15T06:31:21Z</time>
      </trkpt>
      <trkpt lat="45.59845" lon="4.93374">
        <ele>292</ele>
        <time>2011-10-15T06:31:22Z</time>
      </trkpt>
      <trkpt lat="45.59851" lon="4.9338">
        <ele>293</ele>
        <time>2011-10-15T06:31:26Z</time>
      </trkpt>
      <trkpt lat="45.59852" lon="4.93382">
        <ele>292</ele>
        <time>2011-10-15T06:31:27Z</time>
      </trkpt>
      <trkpt lat="45.59853" lon="4.93384">
        <ele>293</ele>
        <time>2011-10-15T06:31:28Z</time>
      </trkpt>
      <trkpt lat="45.59855" lon="4.93386">
        <ele>293</ele>
        <time>2011-10-15T06:31:29Z</time>
      </trkpt>
      <trkpt lat="45.59856" lon="4.93389">
        <ele>294</ele>
        <time>2011-10-15T06:31:30Z</time>
      </trkpt>
      <trkpt lat="45.59857" lon="4.93392">
        <ele>293</ele>
        <time>2011-10-15T06:31:31Z</time>
      </trkpt>
      <trkpt lat="45.59857" lon="4.93395">
        <ele>294</ele>
        <time>2011-10-15T06:31:32Z</time>
      </trkpt>
      <trkpt lat="45.59857" lon="4.93397">
        <ele>294</ele>
        <time>2011-10-15T06:31:33Z</time>
      </trkpt>
      <trkpt lat="45.59858" lon="4.934">
        <ele>295</ele>
        <time>2011-10-15T06:31:34Z</time>
      </trkpt>
      <trkpt lat="45.59858" lon="4.93402">
        <ele>295</ele>
        <time>2011-10-15T06:31:35Z</time>
      </trkpt>
      <trkpt lat="45.59859" lon="4.93404">
        <ele>295</ele>
        <time>2011-10-15T06:31:36Z</time>
      </trkpt>
      <trkpt lat="45.5986" lon="4.93407">
        <ele>295</ele>
        <time>2011-10-15T06:31:37Z</time>
      </trkpt>
      <trkpt lat="45.59862" lon="4.93415">
        <ele>296</ele>
        <time>2011-10-15T06:31:41Z</time>
      </trkpt>
      <trkpt lat="45.59863" lon="4.93417">
        <ele>296</ele>
        <time>2011-10-15T06:31:42Z</time>
      </trkpt>
      <trkpt lat="45.59864" lon="4.9342">
        <ele>297</ele>
        <time>2011-10-15T06:31:43Z</time>
      </trkpt>
      <trkpt lat="45.59865" lon="4.93422">
        <ele>296</ele>
        <time>2011-10-15T06:31:44Z</time>
      </trkpt>
      <trkpt lat="45.59866" lon="4.93424">
        <ele>297</ele>
        <time>2011-10-15T06:31:45Z</time>
      </trkpt>
      <trkpt lat="45.59876" lon="4.93435">
        <ele>297</ele>
        <time>2011-10-15T06:31:50Z</time>
      </trkpt>
      <trkpt lat="45.59877" lon="4.93438">
        <ele>297</ele>
        <time>2011-10-15T06:31:51Z</time>
      </trkpt>
      <trkpt lat="45.59873" lon="4.93446">
        <ele>298</ele>
        <time>2011-10-15T06:31:55Z</time>
      </trkpt>
      <trkpt lat="45.5987" lon="4.93456">
        <ele>299</ele>
        <time>2011-10-15T06:32:02Z</time>
      </trkpt>
      <trkpt lat="45.59881" lon="4.93473">
        <ele>301</ele>
        <time>2011-10-15T06:32:10Z</time>
      </trkpt>
      <trkpt lat="45.59886" lon="4.93485">
        <ele>301</ele>
        <time>2011-10-15T06:32:15Z</time>
      </trkpt>
      <trkpt lat="45.59896" lon="4.93503">
        <ele>301</ele>
        <time>2011-10-15T06:32:22Z</time>
      </trkpt>
      <trkpt lat="45.59898" lon="4.93507">
        <ele>303</ele>
        <time>2011-10-15T06:32:23Z</time>
      </trkpt>
      <trkpt lat="45.59903" lon="4.93512">
        <ele>302</ele>
        <time>2011-10-15T06:32:25Z</time>
      </trkpt>
      <trkpt lat="45.59911" lon="4.93527">
        <ele>303</ele>
        <time>2011-10-15T06:32:31Z</time>
      </trkpt>
      <trkpt lat="45.59911" lon="4.93529">
        <ele>304</ele>
        <time>2011-10-15T06:32:34Z</time>
      </trkpt>
      <trkpt lat="45.59918" lon="4.93542">
        <ele>305</ele>
        <time>2011-10-15T06:32:39Z</time>
      </trkpt>
      <trkpt lat="45.59918" lon="4.93543">
        <ele>306</ele>
        <time>2011-10-15T06:32:40Z</time>
      </trkpt>
      <trkpt lat="45.59918" lon="4.93547">
        <ele>306</ele>
        <time>2011-10-15T06:32:43Z</time>
      </trkpt>
      <trkpt lat="45.59924" lon="4.93557">
        <ele>307</ele>
        <time>2011-10-15T06:32:47Z</time>
      </trkpt>
      <trkpt lat="45.59931" lon="4.93566">
        <ele>307</ele>
        <time>2011-10-15T06:32:53Z</time>
      </trkpt>
      <trkpt lat="45.59934" lon="4.93575">
        <ele>310</ele>
        <time>2011-10-15T06:32:59Z</time>
      </trkpt>
      <trkpt lat="45.59947" lon="4.93589">
        <ele>311</ele>
        <time>2011-10-15T06:33:06Z</time>
      </trkpt>
      <trkpt lat="45.59951" lon="4.93597">
        <ele>312</ele>
        <time>2011-10-15T06:33:09Z</time>
      </trkpt>
      <trkpt lat="45.59962" lon="4.93612">
        <ele>313</ele>
        <time>2011-10-15T06:33:15Z</time>
      </trkpt>
      <trkpt lat="45.59967" lon="4.93621">
        <ele>315</ele>
        <time>2011-10-15T06:33:20Z</time>
      </trkpt>
      <trkpt lat="45.59968" lon="4.93623">
        <ele>315</ele>
        <time>2011-10-15T06:33:22Z</time>
      </trkpt>
      <trkpt lat="45.59969" lon="4.93628">
        <ele>315</ele>
        <time>2011-10-15T06:33:26Z</time>
      </trkpt>
      <trkpt lat="45.59979" lon="4.93644">
        <ele>316</ele>
        <time>2011-10-15T06:33:34Z</time>
      </trkpt>
      <trkpt lat="45.59986" lon="4.93655">
        <ele>318</ele>
        <time>2011-10-15T06:33:39Z</time>
      </trkpt>
      <trkpt lat="45.5999" lon="4.93664">
        <ele>319</ele>
        <time>2011-10-15T06:33:44Z</time>
      </trkpt>
      <trkpt lat="45.59992" lon="4.93678">
        <ele>320</ele>
        <time>2011-10-15T06:33:50Z</time>
      </trkpt>
      <trkpt lat="45.5999" lon="4.93685">
        <ele>321</ele>
        <time>2011-10-15T06:33:54Z</time>
      </trkpt>
      <trkpt lat="45.59991" lon="4.93691">
        <ele>322</ele>
        <time>2011-10-15T06:33:58Z</time>
      </trkpt>
      <trkpt lat="45.59988" lon="4.93705">
        <ele>323</ele>
        <time>2011-10-15T06:34:04Z</time>
      </trkpt>
      <trkpt lat="45.59988" lon="4.93708">
        <ele>323</ele>
        <time>2011-10-15T06:34:05Z</time>
      </trkpt>
      <trkpt lat="45.59988" lon="4.93716">
        <ele>324</ele>
        <time>2011-10-15T06:34:11Z</time>
      </trkpt>
      <trkpt lat="45.59983" lon="4.9373">
        <ele>325</ele>
        <time>2011-10-15T06:34:16Z</time>
      </trkpt>
      <trkpt lat="45.59982" lon="4.93733">
        <ele>325</ele>
        <time>2011-10-15T06:34:17Z</time>
      </trkpt>
      <trkpt lat="45.5998" lon="4.93755">
        <ele>326</ele>
        <time>2011-10-15T06:34:24Z</time>
      </trkpt>
      <trkpt lat="45.59986" lon="4.93771">
        <ele>326</ele>
        <time>2011-10-15T06:34:29Z</time>
      </trkpt>
      <trkpt lat="45.60005" lon="4.93798">
        <ele>326</ele>
        <time>2011-10-15T06:34:39Z</time>
      </trkpt>
      <trkpt lat="45.60013" lon="4.93816">
        <ele>327</ele>
        <time>2011-10-15T06:34:46Z</time>
      </trkpt>
      <trkpt lat="45.60026" lon="4.93841">
        <ele>328</ele>
        <time>2011-10-15T06:34:54Z</time>
      </trkpt>
      <trkpt lat="45.60032" lon="4.93859">
        <ele>328</ele>
        <time>2011-10-15T06:35:00Z</time>
      </trkpt>
      <trkpt lat="45.60044" lon="4.93882">
        <ele>329</ele>
        <time>2011-10-15T06:35:07Z</time>
      </trkpt>
      <trkpt lat="45.60059" lon="4.9391">
        <ele>329</ele>
        <time>2011-10-15T06:35:16Z</time>
      </trkpt>
      <trkpt lat="45.60068" lon="4.93929">
        <ele>330</ele>
        <time>2011-10-15T06:35:22Z</time>
      </trkpt>
      <trkpt lat="45.60083" lon="4.93957">
        <ele>330</ele>
        <time>2011-10-15T06:35:30Z</time>
      </trkpt>
      <trkpt lat="45.60105" lon="4.93996">
        <ele>332</ele>
        <time>2011-10-15T06:35:41Z</time>
      </trkpt>
      <trkpt lat="45.60124" lon="4.94026">
        <ele>333</ele>
        <time>2011-10-15T06:35:50Z</time>
      </trkpt>
      <trkpt lat="45.60146" lon="4.94056">
        <ele>333</ele>
        <time>2011-10-15T06:35:59Z</time>
      </trkpt>
      <trkpt lat="45.60161" lon="4.94091">
        <ele>334</ele>
        <time>2011-10-15T06:36:07Z</time>
      </trkpt>
      <trkpt lat="45.60178" lon="4.94132">
        <ele>334</ele>
        <time>2011-10-15T06:36:16Z</time>
      </trkpt>
      <trkpt lat="45.6018" lon="4.94136">
        <ele>333</ele>
        <time>2011-10-15T06:36:17Z</time>
      </trkpt>
      <trkpt lat="45.60186" lon="4.94147">
        <ele>334</ele>
        <time>2011-10-15T06:36:23Z</time>
      </trkpt>
      <trkpt lat="45.60186" lon="4.94147">
        <ele>333</ele>
        <time>2011-10-15T06:36:41Z</time>
      </trkpt>
      <trkpt lat="45.60186" lon="4.94148">
        <ele>333</ele>
        <time>2011-10-15T06:36:50Z</time>
      </trkpt>
      <trkpt lat="45.60192" lon="4.94164">
        <ele>335</ele>
        <time>2011-10-15T06:36:56Z</time>
      </trkpt>
      <trkpt lat="45.60208" lon="4.94192">
        <ele>334</ele>
        <time>2011-10-15T06:37:03Z</time>
      </trkpt>
      <trkpt lat="45.60219" lon="4.94222">
        <ele>335</ele>
        <time>2011-10-15T06:37:10Z</time>
      </trkpt>
      <trkpt lat="45.60221" lon="4.94273">
        <ele>336</ele>
        <time>2011-10-15T06:37:20Z</time>
      </trkpt>
      <trkpt lat="45.60222" lon="4.94325">
        <ele>336</ele>
        <time>2011-10-15T06:37:30Z</time>
      </trkpt>
      <trkpt lat="45.60223" lon="4.94383">
        <ele>336</ele>
        <time>2011-10-15T06:37:41Z</time>
      </trkpt>
      <trkpt lat="45.60224" lon="4.94429">
        <ele>338</ele>
        <time>2011-10-15T06:37:50Z</time>
      </trkpt>
      <trkpt lat="45.60225" lon="4.94476">
        <ele>339</ele>
        <time>2011-10-15T06:37:59Z</time>
      </trkpt>
      <trkpt lat="45.60227" lon="4.945">
        <ele>339</ele>
        <time>2011-10-15T06:38:04Z</time>
      </trkpt>
      <trkpt lat="45.60252" lon="4.94504">
        <ele>340</ele>
        <time>2011-10-15T06:38:11Z</time>
      </trkpt>
      <trkpt lat="45.60283" lon="4.945">
        <ele>339</ele>
        <time>2011-10-15T06:38:19Z</time>
      </trkpt>
      <trkpt lat="45.60307" lon="4.94499">
        <ele>338</ele>
        <time>2011-10-15T06:38:24Z</time>
      </trkpt>
      <trkpt lat="45.60357" lon="4.94492">
        <ele>336</ele>
        <time>2011-10-15T06:38:33Z</time>
      </trkpt>
      <trkpt lat="45.60379" lon="4.9449">
        <ele>336</ele>
        <time>2011-10-15T06:38:37Z</time>
      </trkpt>
      <trkpt lat="45.60385" lon="4.94491">
        <ele>336</ele>
        <time>2011-10-15T06:38:38Z</time>
      </trkpt>
      <trkpt lat="45.6039" lon="4.94493">
        <ele>336</ele>
        <time>2011-10-15T06:38:39Z</time>
      </trkpt>
      <trkpt lat="45.60395" lon="4.94496">
        <ele>336</ele>
        <time>2011-10-15T06:38:40Z</time>
      </trkpt>
      <trkpt lat="45.60399" lon="4.94499">
        <ele>336</ele>
        <time>2011-10-15T06:38:41Z</time>
      </trkpt>
      <trkpt lat="45.60403" lon="4.94502">
        <ele>336</ele>
        <time>2011-10-15T06:38:42Z</time>
      </trkpt>
      <trkpt lat="45.60407" lon="4.94505">
        <ele>336</ele>
        <time>2011-10-15T06:38:43Z</time>
      </trkpt>
      <trkpt lat="45.6045" lon="4.94536">
        <ele>337</ele>
        <time>2011-10-15T06:38:54Z</time>
      </trkpt>
      <trkpt lat="45.60461" lon="4.94544">
        <ele>336</ele>
        <time>2011-10-15T06:38:57Z</time>
      </trkpt>
      <trkpt lat="45.60464" lon="4.94549">
        <ele>336</ele>
        <time>2011-10-15T06:38:58Z</time>
      </trkpt>
      <trkpt lat="45.60465" lon="4.94555">
        <ele>336</ele>
        <time>2011-10-15T06:38:59Z</time>
      </trkpt>
      <trkpt lat="45.60465" lon="4.94561">
        <ele>336</ele>
        <time>2011-10-15T06:39:00Z</time>
      </trkpt>
      <trkpt lat="45.60464" lon="4.94568">
        <ele>336</ele>
        <time>2011-10-15T06:39:01Z</time>
      </trkpt>
      <trkpt lat="45.60463" lon="4.94575">
        <ele>336</ele>
        <time>2011-10-15T06:39:02Z</time>
      </trkpt>
      <trkpt lat="45.60462" lon="4.94634">
        <ele>336</ele>
        <time>2011-10-15T06:39:11Z</time>
      </trkpt>
      <trkpt lat="45.60461" lon="4.94685">
        <ele>336</ele>
        <time>2011-10-15T06:39:19Z</time>
      </trkpt>
      <trkpt lat="45.6046" lon="4.94743">
        <ele>335</ele>
        <time>2011-10-15T06:39:28Z</time>
      </trkpt>
      <trkpt lat="45.60454" lon="4.94797">
        <ele>335</ele>
        <time>2011-10-15T06:39:37Z</time>
      </trkpt>
      <trkpt lat="45.60453" lon="4.9481">
        <ele>334</ele>
        <time>2011-10-15T06:39:39Z</time>
      </trkpt>
      <trkpt lat="45.60449" lon="4.94838">
        <ele>334</ele>
        <time>2011-10-15T06:39:43Z</time>
      </trkpt>
      <trkpt lat="45.60448" lon="4.94845">
        <ele>333</ele>
        <time>2011-10-15T06:39:44Z</time>
      </trkpt>
      <trkpt lat="45.60446" lon="4.94868">
        <ele>332</ele>
        <time>2011-10-15T06:39:47Z</time>
      </trkpt>
      <trkpt lat="45.60446" lon="4.94877">
        <ele>332</ele>
        <time>2011-10-15T06:39:48Z</time>
      </trkpt>
      <trkpt lat="45.60447" lon="4.94906">
        <ele>330</ele>
        <time>2011-10-15T06:39:51Z</time>
      </trkpt>
      <trkpt lat="45.60447" lon="4.94917">
        <ele>329</ele>
        <time>2011-10-15T06:39:52Z</time>
      </trkpt>
      <trkpt lat="45.60441" lon="4.94993">
        <ele>325</ele>
        <time>2011-10-15T06:39:59Z</time>
      </trkpt>
      <trkpt lat="45.6044" lon="4.95003">
        <ele>325</ele>
        <time>2011-10-15T06:40:00Z</time>
      </trkpt>
      <trkpt lat="45.60435" lon="4.95032">
        <ele>321</ele>
        <time>2011-10-15T06:40:03Z</time>
      </trkpt>
      <trkpt lat="45.60435" lon="4.95039">
        <ele>321</ele>
        <time>2011-10-15T06:40:04Z</time>
      </trkpt>
      <trkpt lat="45.60439" lon="4.95054">
        <ele>320</ele>
        <time>2011-10-15T06:40:06Z</time>
      </trkpt>
      <trkpt lat="45.60441" lon="4.95061">
        <ele>319</ele>
        <time>2011-10-15T06:40:07Z</time>
      </trkpt>
      <trkpt lat="45.60444" lon="4.95068">
        <ele>319</ele>
        <time>2011-10-15T06:40:08Z</time>
      </trkpt>
      <trkpt lat="45.60446" lon="4.95075">
        <ele>317</ele>
        <time>2011-10-15T06:40:09Z</time>
      </trkpt>
      <trkpt lat="45.60448" lon="4.95083">
        <ele>315</ele>
        <time>2011-10-15T06:40:10Z</time>
      </trkpt>
      <trkpt lat="45.6045" lon="4.95091">
        <ele>315</ele>
        <time>2011-10-15T06:40:11Z</time>
      </trkpt>
      <trkpt lat="45.6045" lon="4.95098">
        <ele>315</ele>
        <time>2011-10-15T06:40:12Z</time>
      </trkpt>
      <trkpt lat="45.6045" lon="4.95113">
        <ele>314</ele>
        <time>2011-10-15T06:40:14Z</time>
      </trkpt>
      <trkpt lat="45.60449" lon="4.95128">
        <ele>314</ele>
        <time>2011-10-15T06:40:16Z</time>
      </trkpt>
      <trkpt lat="45.60448" lon="4.95136">
        <ele>314</ele>
        <time>2011-10-15T06:40:17Z</time>
      </trkpt>
      <trkpt lat="45.60442" lon="4.95177">
        <ele>312</ele>
        <time>2011-10-15T06:40:22Z</time>
      </trkpt>
      <trkpt lat="45.60442" lon="4.95185">
        <ele>311</ele>
        <time>2011-10-15T06:40:23Z</time>
      </trkpt>
      <trkpt lat="45.60443" lon="4.95193">
        <ele>310</ele>
        <time>2011-10-15T06:40:24Z</time>
      </trkpt>
      <trkpt lat="45.60445" lon="4.95202">
        <ele>309</ele>
        <time>2011-10-15T06:40:25Z</time>
      </trkpt>
      <trkpt lat="45.60448" lon="4.9521">
        <ele>310</ele>
        <time>2011-10-15T06:40:26Z</time>
      </trkpt>
      <trkpt lat="45.60465" lon="4.95254">
        <ele>308</ele>
        <time>2011-10-15T06:40:31Z</time>
      </trkpt>
      <trkpt lat="45.60482" lon="4.95313">
        <ele>305</ele>
        <time>2011-10-15T06:40:37Z</time>
      </trkpt>
      <trkpt lat="45.60486" lon="4.95323">
        <ele>304</ele>
        <time>2011-10-15T06:40:38Z</time>
      </trkpt>
      <trkpt lat="45.60495" lon="4.9535">
        <ele>301</ele>
        <time>2011-10-15T06:40:41Z</time>
      </trkpt>
      <trkpt lat="45.60503" lon="4.95369">
        <ele>299</ele>
        <time>2011-10-15T06:40:44Z</time>
      </trkpt>
      <trkpt lat="45.60509" lon="4.95392">
        <ele>296</ele>
        <time>2011-10-15T06:40:48Z</time>
      </trkpt>
      <trkpt lat="45.6051" lon="4.95399">
        <ele>295</ele>
        <time>2011-10-15T06:40:49Z</time>
      </trkpt>
      <trkpt lat="45.60511" lon="4.95408">
        <ele>295</ele>
        <time>2011-10-15T06:40:50Z</time>
      </trkpt>
      <trkpt lat="45.60513" lon="4.95433">
        <ele>292</ele>
        <time>2011-10-15T06:40:53Z</time>
      </trkpt>
      <trkpt lat="45.60514" lon="4.9544">
        <ele>291</ele>
        <time>2011-10-15T06:40:54Z</time>
      </trkpt>
      <trkpt lat="45.60515" lon="4.95455">
        <ele>290</ele>
        <time>2011-10-15T06:40:56Z</time>
      </trkpt>
      <trkpt lat="45.60514" lon="4.95489">
        <ele>287</ele>
        <time>2011-10-15T06:41:00Z</time>
      </trkpt>
      <trkpt lat="45.60514" lon="4.95502">
        <ele>286</ele>
        <time>2011-10-15T06:41:02Z</time>
      </trkpt>
      <trkpt lat="45.60511" lon="4.9553">
        <ele>283</ele>
        <time>2011-10-15T06:41:06Z</time>
      </trkpt>
      <trkpt lat="45.60506" lon="4.95555">
        <ele>280</ele>
        <time>2011-10-15T06:41:10Z</time>
      </trkpt>
      <trkpt lat="45.60504" lon="4.95561">
        <ele>280</ele>
        <time>2011-10-15T06:41:11Z</time>
      </trkpt>
      <trkpt lat="45.60494" lon="4.95588">
        <ele>278</ele>
        <time>2011-10-15T06:41:16Z</time>
      </trkpt>
      <trkpt lat="45.6049" lon="4.95599">
        <ele>278</ele>
        <time>2011-10-15T06:41:18Z</time>
      </trkpt>
      <trkpt lat="45.60487" lon="4.95603">
        <ele>278</ele>
        <time>2011-10-15T06:41:19Z</time>
      </trkpt>
      <trkpt lat="45.60484" lon="4.95605">
        <ele>277</ele>
        <time>2011-10-15T06:41:20Z</time>
      </trkpt>
      <trkpt lat="45.60471" lon="4.95617">
        <ele>277</ele>
        <time>2011-10-15T06:41:24Z</time>
      </trkpt>
      <trkpt lat="45.6045" lon="4.95628">
        <ele>275</ele>
        <time>2011-10-15T06:41:30Z</time>
      </trkpt>
      <trkpt lat="45.60435" lon="4.9564">
        <ele>275</ele>
        <time>2011-10-15T06:41:36Z</time>
      </trkpt>
      <trkpt lat="45.6042" lon="4.95646">
        <ele>273</ele>
        <time>2011-10-15T06:41:42Z</time>
      </trkpt>
      <trkpt lat="45.604" lon="4.95643">
        <ele>273</ele>
        <time>2011-10-15T06:41:50Z</time>
      </trkpt>
      <trkpt lat="45.60381" lon="4.95636">
        <ele>272</ele>
        <time>2011-10-15T06:41:57Z</time>
      </trkpt>
      <trkpt lat="45.60372" lon="4.95638">
        <ele>271</ele>
        <time>2011-10-15T06:42:01Z</time>
      </trkpt>
      <trkpt lat="45.60368" lon="4.9564">
        <ele>270</ele>
        <time>2011-10-15T06:42:02Z</time>
      </trkpt>
      <trkpt lat="45.60365" lon="4.9564">
        <ele>270</ele>
        <time>2011-10-15T06:42:03Z</time>
      </trkpt>
      <trkpt lat="45.60362" lon="4.95639">
        <ele>270</ele>
        <time>2011-10-15T06:42:04Z</time>
      </trkpt>
      <trkpt lat="45.6036" lon="4.95638">
        <ele>269</ele>
        <time>2011-10-15T06:42:05Z</time>
      </trkpt>
      <trkpt lat="45.60357" lon="4.95636">
        <ele>269</ele>
        <time>2011-10-15T06:42:06Z</time>
      </trkpt>
      <trkpt lat="45.60339" lon="4.9562">
        <ele>269</ele>
        <time>2011-10-15T06:42:13Z</time>
      </trkpt>
      <trkpt lat="45.60332" lon="4.9561">
        <ele>269</ele>
        <time>2011-10-15T06:42:16Z</time>
      </trkpt>
      <trkpt lat="45.60329" lon="4.95602">
        <ele>268</ele>
        <time>2011-10-15T06:42:19Z</time>
      </trkpt>
      <trkpt lat="45.60327" lon="4.95601">
        <ele>268</ele>
        <time>2011-10-15T06:42:20Z</time>
      </trkpt>
      <trkpt lat="45.60323" lon="4.95601">
        <ele>268</ele>
        <time>2011-10-15T06:42:21Z</time>
      </trkpt>
      <trkpt lat="45.60315" lon="4.956">
        <ele>266</ele>
        <time>2011-10-15T06:42:26Z</time>
      </trkpt>
      <trkpt lat="45.60306" lon="4.95601">
        <ele>263</ele>
        <time>2011-10-15T06:42:32Z</time>
      </trkpt>
      <trkpt lat="45.60304" lon="4.95602">
        <ele>263</ele>
        <time>2011-10-15T06:42:38Z</time>
      </trkpt>
      <trkpt lat="45.60303" lon="4.95602">
        <ele>263</ele>
        <time>2011-10-15T06:42:48Z</time>
      </trkpt>
      <trkpt lat="45.60302" lon="4.95603">
        <ele>263</ele>
        <time>2011-10-15T06:42:54Z</time>
      </trkpt>
      <trkpt lat="45.60301" lon="4.95603">
        <ele>263</ele>
        <time>2011-10-15T06:43:03Z</time>
      </trkpt>
      <trkpt lat="45.60297" lon="4.95601">
        <ele>263</ele>
        <time>2011-10-15T06:43:09Z</time>
      </trkpt>
      <trkpt lat="45.60291" lon="4.95597">
        <ele>261</ele>
        <time>2011-10-15T06:43:15Z</time>
      </trkpt>
      <trkpt lat="45.60279" lon="4.95591">
        <ele>259</ele>
        <time>2011-10-15T06:43:22Z</time>
      </trkpt>
      <trkpt lat="45.60274" lon="4.9559">
        <ele>258</ele>
        <time>2011-10-15T06:43:29Z</time>
      </trkpt>
      <trkpt lat="45.60273" lon="4.95594">
        <ele>258</ele>
        <time>2011-10-15T06:43:34Z</time>
      </trkpt>
      <trkpt lat="45.60269" lon="4.95598">
        <ele>259</ele>
        <time>2011-10-15T06:43:40Z</time>
      </trkpt>
      <trkpt lat="45.60266" lon="4.95601">
        <ele>259</ele>
        <time>2011-10-15T06:43:42Z</time>
      </trkpt>
      <trkpt lat="45.60265" lon="4.9561">
        <ele>258</ele>
        <time>2011-10-15T06:43:46Z</time>
      </trkpt>
      <trkpt lat="45.60266" lon="4.95622">
        <ele>258</ele>
        <time>2011-10-15T06:43:50Z</time>
      </trkpt>
      <trkpt lat="45.60277" lon="4.95631">
        <ele>259</ele>
        <time>2011-10-15T06:43:58Z</time>
      </trkpt>
      <trkpt lat="45.60278" lon="4.95631">
        <ele>260</ele>
        <time>2011-10-15T06:44:04Z</time>
      </trkpt>
      <trkpt lat="45.60279" lon="4.95634">
        <ele>260</ele>
        <time>2011-10-15T06:44:07Z</time>
      </trkpt>
      <trkpt lat="45.60281" lon="4.95637">
        <ele>261</ele>
        <time>2011-10-15T06:44:12Z</time>
      </trkpt>
      <trkpt lat="45.60278" lon="4.95639">
        <ele>262</ele>
        <time>2011-10-15T06:44:16Z</time>
      </trkpt>
      <trkpt lat="45.60274" lon="4.95643">
        <ele>262</ele>
        <time>2011-10-15T06:44:22Z</time>
      </trkpt>
      <trkpt lat="45.60274" lon="4.95644">
        <ele>262</ele>
        <time>2011-10-15T06:44:28Z</time>
      </trkpt>
      <trkpt lat="45.60274" lon="4.95645">
        <ele>262</ele>
        <time>2011-10-15T06:44:39Z</time>
      </trkpt>
      <trkpt lat="45.60274" lon="4.95645">
        <ele>263</ele>
        <time>2011-10-15T06:44:53Z</time>
      </trkpt>
      <trkpt lat="45.60275" lon="4.95646">
        <ele>264</ele>
        <time>2011-10-15T06:45:01Z</time>
      </trkpt>
      <trkpt lat="45.60273" lon="4.95647">
        <ele>264</ele>
        <time>2011-10-15T06:45:07Z</time>
      </trkpt>
      <trkpt lat="45.60272" lon="4.95648">
        <ele>265</ele>
        <time>2011-10-15T06:45:09Z</time>
      </trkpt>
      <trkpt lat="45.6027" lon="4.95654">
        <ele>267</ele>
        <time>2011-10-15T06:45:15Z</time>
      </trkpt>
      <trkpt lat="45.60268" lon="4.95656">
        <ele>268</ele>
        <time>2011-10-15T06:45:20Z</time>
      </trkpt>
      <trkpt lat="45.60266" lon="4.95654">
        <ele>268</ele>
        <time>2011-10-15T06:45:26Z</time>
      </trkpt>
      <trkpt lat="45.60263" lon="4.95655">
        <ele>268</ele>
        <time>2011-10-15T06:45:36Z</time>
      </trkpt>
      <trkpt lat="45.60257" lon="4.95661">
        <ele>269</ele>
        <time>2011-10-15T06:45:42Z</time>
      </trkpt>
      <trkpt lat="45.60249" lon="4.95666">
        <ele>271</ele>
        <time>2011-10-15T06:45:48Z</time>
      </trkpt>
      <trkpt lat="45.60242" lon="4.95675">
        <ele>272</ele>
        <time>2011-10-15T06:45:53Z</time>
      </trkpt>
      <trkpt lat="45.60233" lon="4.95675">
        <ele>273</ele>
        <time>2011-10-15T06:45:58Z</time>
      </trkpt>
      <trkpt lat="45.60222" lon="4.95661">
        <ele>274</ele>
        <time>2011-10-15T06:46:07Z</time>
      </trkpt>
      <trkpt lat="45.60221" lon="4.95659">
        <ele>274</ele>
        <time>2011-10-15T06:46:08Z</time>
      </trkpt>
      <trkpt lat="45.60206" lon="4.95646">
        <ele>275</ele>
        <time>2011-10-15T06:46:17Z</time>
      </trkpt>
      <trkpt lat="45.60204" lon="4.95644">
        <ele>276</ele>
        <time>2011-10-15T06:46:19Z</time>
      </trkpt>
      <trkpt lat="45.60196" lon="4.95634">
        <ele>276</ele>
        <time>2011-10-15T06:46:25Z</time>
      </trkpt>
      <trkpt lat="45.6019" lon="4.95621">
        <ele>276</ele>
        <time>2011-10-15T06:46:33Z</time>
      </trkpt>
      <trkpt lat="45.6019" lon="4.9562">
        <ele>276</ele>
        <time>2011-10-15T06:46:42Z</time>
      </trkpt>
      <trkpt lat="45.6019" lon="4.9562">
        <ele>276</ele>
        <time>2011-10-15T06:46:54Z</time>
      </trkpt>
      <trkpt lat="45.6019" lon="4.9562">
        <ele>276</ele>
        <time>2011-10-15T06:47:08Z</time>
      </trkpt>
      <trkpt lat="45.6019" lon="4.9562">
        <ele>277</ele>
        <time>2011-10-15T06:47:29Z</time>
      </trkpt>
      <trkpt lat="45.6019" lon="4.9562">
        <ele>276</ele>
        <time>2011-10-15T06:47:49Z</time>
      </trkpt>
      <trkpt lat="45.6019" lon="4.9562">
        <ele>276</ele>
        <time>2011-10-15T06:48:11Z</time>
      </trkpt>
      <trkpt lat="45.6019" lon="4.9562">
        <ele>276</ele>
        <time>2011-10-15T06:48:26Z</time>
      </trkpt>
      <trkpt lat="45.6019" lon="4.9562">
        <ele>276</ele>
        <time>2011-10-15T06:48:30Z</time>
      </trkpt>
      <trkpt lat="45.60184" lon="4.95605">
        <ele>275</ele>
        <time>2011-10-15T06:48:35Z</time>
      </trkpt>
      <trkpt lat="45.60173" lon="4.9558">
        <ele>275</ele>
        <time>2011-10-15T06:48:41Z</time>
      </trkpt>
      <trkpt lat="45.60158" lon="4.95549">
        <ele>274</ele>
        <time>2011-10-15T06:48:47Z</time>
      </trkpt>
      <trkpt lat="45.60155" lon="4.95543">
        <ele>273</ele>
        <time>2011-10-15T06:48:48Z</time>
      </trkpt>
      <trkpt lat="45.60152" lon="4.95538">
        <ele>273</ele>
        <time>2011-10-15T06:48:49Z</time>
      </trkpt>
      <trkpt lat="45.60146" lon="4.95528">
        <ele>273</ele>
        <time>2011-10-15T06:48:51Z</time>
      </trkpt>
      <trkpt lat="45.60144" lon="4.95523">
        <ele>272</ele>
        <time>2011-10-15T06:48:52Z</time>
      </trkpt>
      <trkpt lat="45.6014" lon="4.95518">
        <ele>272</ele>
        <time>2011-10-15T06:48:53Z</time>
      </trkpt>
      <trkpt lat="45.60124" lon="4.95502">
        <ele>271</ele>
        <time>2011-10-15T06:48:58Z</time>
      </trkpt>
      <trkpt lat="45.60117" lon="4.95498">
        <ele>271</ele>
        <time>2011-10-15T06:49:00Z</time>
      </trkpt>
      <trkpt lat="45.60102" lon="4.95493">
        <ele>271</ele>
        <time>2011-10-15T06:49:03Z</time>
      </trkpt>
      <trkpt lat="45.6008" lon="4.95491">
        <ele>272</ele>
        <time>2011-10-15T06:49:08Z</time>
      </trkpt>
      <trkpt lat="45.60075" lon="4.95491">
        <ele>271</ele>
        <time>2011-10-15T06:49:09Z</time>
      </trkpt>
      <trkpt lat="45.60059" lon="4.95493">
        <ele>271</ele>
        <time>2011-10-15T06:49:13Z</time>
      </trkpt>
      <trkpt lat="45.60055" lon="4.95492">
        <ele>272</ele>
        <time>2011-10-15T06:49:14Z</time>
      </trkpt>
      <trkpt lat="45.60051" lon="4.95491">
        <ele>271</ele>
        <time>2011-10-15T06:49:15Z</time>
      </trkpt>
      <trkpt lat="45.60048" lon="4.9549">
        <ele>271</ele>
        <time>2011-10-15T06:49:16Z</time>
      </trkpt>
      <trkpt lat="45.60044" lon="4.95489">
        <ele>272</ele>
        <time>2011-10-15T06:49:17Z</time>
      </trkpt>
      <trkpt lat="45.6004" lon="4.95489">
        <ele>271</ele>
        <time>2011-10-15T06:49:18Z</time>
      </trkpt>
      <trkpt lat="45.60035" lon="4.95488">
        <ele>271</ele>
        <time>2011-10-15T06:49:19Z</time>
      </trkpt>
      <trkpt lat="45.60031" lon="4.95487">
        <ele>272</ele>
        <time>2011-10-15T06:49:20Z</time>
      </trkpt>
      <trkpt lat="45.60005" lon="4.95481">
        <ele>272</ele>
        <time>2011-10-15T06:49:26Z</time>
      </trkpt>
      <trkpt lat="45.59983" lon="4.9548">
        <ele>270</ele>
        <time>2011-10-15T06:49:31Z</time>
      </trkpt>
      <trkpt lat="45.5997" lon="4.95479">
        <ele>271</ele>
        <time>2011-10-15T06:49:34Z</time>
      </trkpt>
      <trkpt lat="45.59965" lon="4.95478">
        <ele>270</ele>
        <time>2011-10-15T06:49:35Z</time>
      </trkpt>
      <trkpt lat="45.5994" lon="4.95473">
        <ele>270</ele>
        <time>2011-10-15T06:49:40Z</time>
      </trkpt>
      <trkpt lat="45.59935" lon="4.95472">
        <ele>269</ele>
        <time>2011-10-15T06:49:41Z</time>
      </trkpt>
      <trkpt lat="45.5993" lon="4.9547">
        <ele>270</ele>
        <time>2011-10-15T06:49:42Z</time>
      </trkpt>
      <trkpt lat="45.59925" lon="4.95469">
        <ele>269</ele>
        <time>2011-10-15T06:49:43Z</time>
      </trkpt>
      <trkpt lat="45.59921" lon="4.95468">
        <ele>269</ele>
        <time>2011-10-15T06:49:44Z</time>
      </trkpt>
      <trkpt lat="45.59916" lon="4.95467">
        <ele>269</ele>
        <time>2011-10-15T06:49:45Z</time>
      </trkpt>
      <trkpt lat="45.59912" lon="4.95466">
        <ele>269</ele>
        <time>2011-10-15T06:49:46Z</time>
      </trkpt>
      <trkpt lat="45.59883" lon="4.95462">
        <ele>269</ele>
        <time>2011-10-15T06:49:52Z</time>
      </trkpt>
      <trkpt lat="45.59859" lon="4.9546">
        <ele>269</ele>
        <time>2011-10-15T06:49:57Z</time>
      </trkpt>
      <trkpt lat="45.59854" lon="4.9546">
        <ele>269</ele>
        <time>2011-10-15T06:49:58Z</time>
      </trkpt>
      <trkpt lat="45.59848" lon="4.95459">
        <ele>268</ele>
        <time>2011-10-15T06:49:59Z</time>
      </trkpt>
      <trkpt lat="45.59829" lon="4.95455">
        <ele>269</ele>
        <time>2011-10-15T06:50:03Z</time>
      </trkpt>
      <trkpt lat="45.59825" lon="4.95453">
        <ele>268</ele>
        <time>2011-10-15T06:50:04Z</time>
      </trkpt>
      <trkpt lat="45.59816" lon="4.95449">
        <ele>269</ele>
        <time>2011-10-15T06:50:06Z</time>
      </trkpt>
      <trkpt lat="45.59811" lon="4.95446">
        <ele>268</ele>
        <time>2011-10-15T06:50:07Z</time>
      </trkpt>
      <trkpt lat="45.59806" lon="4.95444">
        <ele>268</ele>
        <time>2011-10-15T06:50:08Z</time>
      </trkpt>
      <trkpt lat="45.59783" lon="4.95435">
        <ele>268</ele>
        <time>2011-10-15T06:50:13Z</time>
      </trkpt>
      <trkpt lat="45.59756" lon="4.95429">
        <ele>270</ele>
        <time>2011-10-15T06:50:19Z</time>
      </trkpt>
      <trkpt lat="45.59751" lon="4.95427">
        <ele>270</ele>
        <time>2011-10-15T06:50:20Z</time>
      </trkpt>
      <trkpt lat="45.59746" lon="4.95425">
        <ele>270</ele>
        <time>2011-10-15T06:50:21Z</time>
      </trkpt>
      <trkpt lat="45.59732" lon="4.9542">
        <ele>270</ele>
        <time>2011-10-15T06:50:24Z</time>
      </trkpt>
      <trkpt lat="45.59728" lon="4.95418">
        <ele>271</ele>
        <time>2011-10-15T06:50:25Z</time>
      </trkpt>
      <trkpt lat="45.59706" lon="4.95411">
        <ele>270</ele>
        <time>2011-10-15T06:50:31Z</time>
      </trkpt>
      <trkpt lat="45.59686" lon="4.95411">
        <ele>272</ele>
        <time>2011-10-15T06:50:37Z</time>
      </trkpt>
      <trkpt lat="45.5967" lon="4.9541">
        <ele>273</ele>
        <time>2011-10-15T06:50:43Z</time>
      </trkpt>
      <trkpt lat="45.59666" lon="4.95411">
        <ele>273</ele>
        <time>2011-10-15T06:50:45Z</time>
      </trkpt>
      <trkpt lat="45.59664" lon="4.95411">
        <ele>273</ele>
        <time>2011-10-15T06:50:46Z</time>
      </trkpt>
      <trkpt lat="45.59662" lon="4.95411">
        <ele>274</ele>
        <time>2011-10-15T06:50:47Z</time>
      </trkpt>
      <trkpt lat="45.59659" lon="4.95412">
        <ele>274</ele>
        <time>2011-10-15T06:50:48Z</time>
      </trkpt>
      <trkpt lat="45.59658" lon="4.95413">
        <ele>274</ele>
        <time>2011-10-15T06:50:49Z</time>
      </trkpt>
      <trkpt lat="45.59656" lon="4.95413">
        <ele>274</ele>
        <time>2011-10-15T06:50:50Z</time>
      </trkpt>
      <trkpt lat="45.59653" lon="4.95414">
        <ele>274</ele>
        <time>2011-10-15T06:50:51Z</time>
      </trkpt>
      <trkpt lat="45.59641" lon="4.95417">
        <ele>276</ele>
        <time>2011-10-15T06:50:58Z</time>
      </trkpt>
      <trkpt lat="45.59634" lon="4.9542">
        <ele>277</ele>
        <time>2011-10-15T06:51:02Z</time>
      </trkpt>
      <trkpt lat="45.59633" lon="4.95421">
        <ele>277</ele>
        <time>2011-10-15T06:51:03Z</time>
      </trkpt>
      <trkpt lat="45.59631" lon="4.95422">
        <ele>277</ele>
        <time>2011-10-15T06:51:04Z</time>
      </trkpt>
      <trkpt lat="45.59629" lon="4.95423">
        <ele>278</ele>
        <time>2011-10-15T06:51:05Z</time>
      </trkpt>
      <trkpt lat="45.59627" lon="4.95424">
        <ele>277</ele>
        <time>2011-10-15T06:51:06Z</time>
      </trkpt>
      <trkpt lat="45.59617" lon="4.95425">
        <ele>278</ele>
        <time>2011-10-15T06:51:10Z</time>
      </trkpt>
      <trkpt lat="45.59616" lon="4.95426">
        <ele>278</ele>
        <time>2011-10-15T06:51:11Z</time>
      </trkpt>
      <trkpt lat="45.59609" lon="4.95429">
        <ele>280</ele>
        <time>2011-10-15T06:51:15Z</time>
      </trkpt>
      <trkpt lat="45.59607" lon="4.9543">
        <ele>279</ele>
        <time>2011-10-15T06:51:16Z</time>
      </trkpt>
      <trkpt lat="45.59605" lon="4.95431">
        <ele>279</ele>
        <time>2011-10-15T06:51:17Z</time>
      </trkpt>
      <trkpt lat="45.59603" lon="4.95431">
        <ele>279</ele>
        <time>2011-10-15T06:51:18Z</time>
      </trkpt>
      <trkpt lat="45.59601" lon="4.95433">
        <ele>280</ele>
        <time>2011-10-15T06:51:19Z</time>
      </trkpt>
      <trkpt lat="45.596" lon="4.95434">
        <ele>280</ele>
        <time>2011-10-15T06:51:20Z</time>
      </trkpt>
      <trkpt lat="45.59599" lon="4.95436">
        <ele>280</ele>
        <time>2011-10-15T06:51:21Z</time>
      </trkpt>
      <trkpt lat="45.59599" lon="4.95437">
        <ele>280</ele>
        <time>2011-10-15T06:51:22Z</time>
      </trkpt>
      <trkpt lat="45.59599" lon="4.95439">
        <ele>280</ele>
        <time>2011-10-15T06:51:23Z</time>
      </trkpt>
      <trkpt lat="45.59599" lon="4.95441">
        <ele>280</ele>
        <time>2011-10-15T06:51:24Z</time>
      </trkpt>
      <trkpt lat="45.59599" lon="4.95443">
        <ele>281</ele>
        <time>2011-10-15T06:51:25Z</time>
      </trkpt>
      <trkpt lat="45.596" lon="4.95445">
        <ele>281</ele>
        <time>2011-10-15T06:51:26Z</time>
      </trkpt>
      <trkpt lat="45.59601" lon="4.95446">
        <ele>281</ele>
        <time>2011-10-15T06:51:27Z</time>
      </trkpt>
      <trkpt lat="45.59602" lon="4.95448">
        <ele>281</ele>
        <time>2011-10-15T06:51:28Z</time>
      </trkpt>
      <trkpt lat="45.59603" lon="4.9545">
        <ele>282</ele>
        <time>2011-10-15T06:51:29Z</time>
      </trkpt>
      <trkpt lat="45.59604" lon="4.95451">
        <ele>282</ele>
        <time>2011-10-15T06:51:30Z</time>
      </trkpt>
      <trkpt lat="45.59605" lon="4.95452">
        <ele>282</ele>
        <time>2011-10-15T06:51:31Z</time>
      </trkpt>
      <trkpt lat="45.59606" lon="4.95453">
        <ele>282</ele>
        <time>2011-10-15T06:51:32Z</time>
      </trkpt>
      <trkpt lat="45.59614" lon="4.95461">
        <ele>284</ele>
        <time>2011-10-15T06:51:39Z</time>
      </trkpt>
      <trkpt lat="45.59628" lon="4.95471">
        <ele>285</ele>
        <time>2011-10-15T06:51:47Z</time>
      </trkpt>
      <trkpt lat="45.59632" lon="4.95474">
        <ele>285</ele>
        <time>2011-10-15T06:51:49Z</time>
      </trkpt>
      <trkpt lat="45.59633" lon="4.95476">
        <ele>285</ele>
        <time>2011-10-15T06:51:50Z</time>
      </trkpt>
      <trkpt lat="45.59635" lon="4.95478">
        <ele>286</ele>
        <time>2011-10-15T06:51:51Z</time>
      </trkpt>
      <trkpt lat="45.59636" lon="4.95479">
        <ele>286</ele>
        <time>2011-10-15T06:51:52Z</time>
      </trkpt>
      <trkpt lat="45.59637" lon="4.9548">
        <ele>286</ele>
        <time>2011-10-15T06:51:53Z</time>
      </trkpt>
      <trkpt lat="45.59639" lon="4.95481">
        <ele>285</ele>
        <time>2011-10-15T06:51:54Z</time>
      </trkpt>
      <trkpt lat="45.59641" lon="4.95482">
        <ele>286</ele>
        <time>2011-10-15T06:51:55Z</time>
      </trkpt>
      <trkpt lat="45.59651" lon="4.95488">
        <ele>286</ele>
        <time>2011-10-15T06:52:00Z</time>
      </trkpt>
      <trkpt lat="45.59652" lon="4.9549">
        <ele>286</ele>
        <time>2011-10-15T06:52:01Z</time>
      </trkpt>
      <trkpt lat="45.59654" lon="4.95491">
        <ele>287</ele>
        <time>2011-10-15T06:52:02Z</time>
      </trkpt>
      <trkpt lat="45.59656" lon="4.95492">
        <ele>287</ele>
        <time>2011-10-15T06:52:03Z</time>
      </trkpt>
      <trkpt lat="45.59658" lon="4.95494">
        <ele>287</ele>
        <time>2011-10-15T06:52:04Z</time>
      </trkpt>
      <trkpt lat="45.5966" lon="4.95495">
        <ele>287</ele>
        <time>2011-10-15T06:52:05Z</time>
      </trkpt>
      <trkpt lat="45.59662" lon="4.95496">
        <ele>287</ele>
        <time>2011-10-15T06:52:06Z</time>
      </trkpt>
      <trkpt lat="45.59675" lon="4.95502">
        <ele>288</ele>
        <time>2011-10-15T06:52:12Z</time>
      </trkpt>
      <trkpt lat="45.59687" lon="4.95512">
        <ele>289</ele>
        <time>2011-10-15T06:52:18Z</time>
      </trkpt>
      <trkpt lat="45.59688" lon="4.95515">
        <ele>288</ele>
        <time>2011-10-15T06:52:19Z</time>
      </trkpt>
      <trkpt lat="45.59689" lon="4.95519">
        <ele>289</ele>
        <time>2011-10-15T06:52:20Z</time>
      </trkpt>
      <trkpt lat="45.5969" lon="4.95522">
        <ele>288</ele>
        <time>2011-10-15T06:52:21Z</time>
      </trkpt>
      <trkpt lat="45.5969" lon="4.95525">
        <ele>289</ele>
        <time>2011-10-15T06:52:22Z</time>
      </trkpt>
      <trkpt lat="45.5969" lon="4.95528">
        <ele>289</ele>
        <time>2011-10-15T06:52:23Z</time>
      </trkpt>
      <trkpt lat="45.59689" lon="4.95531">
        <ele>289</ele>
        <time>2011-10-15T06:52:24Z</time>
      </trkpt>
      <trkpt lat="45.59686" lon="4.95558">
        <ele>289</ele>
        <time>2011-10-15T06:52:32Z</time>
      </trkpt>
      <trkpt lat="45.59682" lon="4.95587">
        <ele>288</ele>
        <time>2011-10-15T06:52:37Z</time>
      </trkpt>
      <trkpt lat="45.59682" lon="4.95594">
        <ele>288</ele>
        <time>2011-10-15T06:52:38Z</time>
      </trkpt>
      <trkpt lat="45.59681" lon="4.95602">
        <ele>287</ele>
        <time>2011-10-15T06:52:39Z</time>
      </trkpt>
      <trkpt lat="45.5968" lon="4.95608">
        <ele>287</ele>
        <time>2011-10-15T06:52:40Z</time>
      </trkpt>
      <trkpt lat="45.59679" lon="4.95614">
        <ele>286</ele>
        <time>2011-10-15T06:52:41Z</time>
      </trkpt>
      <trkpt lat="45.59678" lon="4.95619">
        <ele>286</ele>
        <time>2011-10-15T06:52:42Z</time>
      </trkpt>
      <trkpt lat="45.59676" lon="4.95623">
        <ele>286</ele>
        <time>2011-10-15T06:52:43Z</time>
      </trkpt>
      <trkpt lat="45.59673" lon="4.95624">
        <ele>285</ele>
        <time>2011-10-15T06:52:44Z</time>
      </trkpt>
      <trkpt lat="45.5967" lon="4.95622">
        <ele>285</ele>
        <time>2011-10-15T06:52:45Z</time>
      </trkpt>
      <trkpt lat="45.59667" lon="4.9562">
        <ele>285</ele>
        <time>2011-10-15T06:52:46Z</time>
      </trkpt>
      <trkpt lat="45.59663" lon="4.95619">
        <ele>284</ele>
        <time>2011-10-15T06:52:47Z</time>
      </trkpt>
      <trkpt lat="45.59652" lon="4.95613">
        <ele>284</ele>
        <time>2011-10-15T06:52:50Z</time>
      </trkpt>
      <trkpt lat="45.59647" lon="4.95612">
        <ele>283</ele>
        <time>2011-10-15T06:52:51Z</time>
      </trkpt>
      <trkpt lat="45.59628" lon="4.95605">
        <ele>282</ele>
        <time>2011-10-15T06:52:55Z</time>
      </trkpt>
      <trkpt lat="45.59622" lon="4.95604">
        <ele>282</ele>
        <time>2011-10-15T06:52:56Z</time>
      </trkpt>
      <trkpt lat="45.59585" lon="4.95593">
        <ele>280</ele>
        <time>2011-10-15T06:53:02Z</time>
      </trkpt>
      <trkpt lat="45.59579" lon="4.95589">
        <ele>279</ele>
        <time>2011-10-15T06:53:03Z</time>
      </trkpt>
      <trkpt lat="45.59574" lon="4.95585">
        <ele>279</ele>
        <time>2011-10-15T06:53:04Z</time>
      </trkpt>
      <trkpt lat="45.59528" lon="4.95545">
        <ele>276</ele>
        <time>2011-10-15T06:53:12Z</time>
      </trkpt>
      <trkpt lat="45.59522" lon="4.95542">
        <ele>275</ele>
        <time>2011-10-15T06:53:13Z</time>
      </trkpt>
      <trkpt lat="45.59515" lon="4.95539">
        <ele>275</ele>
        <time>2011-10-15T06:53:14Z</time>
      </trkpt>
      <trkpt lat="45.59508" lon="4.95536">
        <ele>275</ele>
        <time>2011-10-15T06:53:15Z</time>
      </trkpt>
      <trkpt lat="45.59489" lon="4.95529">
        <ele>273</ele>
        <time>2011-10-15T06:53:18Z</time>
      </trkpt>
      <trkpt lat="45.59483" lon="4.95529">
        <ele>274</ele>
        <time>2011-10-15T06:53:19Z</time>
      </trkpt>
      <trkpt lat="45.59445" lon="4.9553">
        <ele>272</ele>
        <time>2011-10-15T06:53:26Z</time>
      </trkpt>
      <trkpt lat="45.59432" lon="4.95532">
        <ele>272</ele>
        <time>2011-10-15T06:53:29Z</time>
      </trkpt>
      <trkpt lat="45.59424" lon="4.95534">
        <ele>271</ele>
        <time>2011-10-15T06:53:31Z</time>
      </trkpt>
      <trkpt lat="45.5942" lon="4.95535">
        <ele>272</ele>
        <time>2011-10-15T06:53:32Z</time>
      </trkpt>
      <trkpt lat="45.59416" lon="4.95536">
        <ele>271</ele>
        <time>2011-10-15T06:53:33Z</time>
      </trkpt>
      <trkpt lat="45.59405" lon="4.95544">
        <ele>271</ele>
        <time>2011-10-15T06:53:36Z</time>
      </trkpt>
      <trkpt lat="45.5939" lon="4.95564">
        <ele>270</ele>
        <time>2011-10-15T06:53:41Z</time>
      </trkpt>
      <trkpt lat="45.59386" lon="4.95567">
        <ele>270</ele>
        <time>2011-10-15T06:53:42Z</time>
      </trkpt>
      <trkpt lat="45.59373" lon="4.95584">
        <ele>269</ele>
        <time>2011-10-15T06:53:46Z</time>
      </trkpt>
      <trkpt lat="45.59343" lon="4.95616">
        <ele>265</ele>
        <time>2011-10-15T06:53:53Z</time>
      </trkpt>
      <trkpt lat="45.59332" lon="4.95626">
        <ele>264</ele>
        <time>2011-10-15T06:53:55Z</time>
      </trkpt>
      <trkpt lat="45.5932" lon="4.95636">
        <ele>264</ele>
        <time>2011-10-15T06:53:57Z</time>
      </trkpt>
      <trkpt lat="45.59314" lon="4.9564">
        <ele>263</ele>
        <time>2011-10-15T06:53:58Z</time>
      </trkpt>
      <trkpt lat="45.59307" lon="4.95644">
        <ele>262</ele>
        <time>2011-10-15T06:53:59Z</time>
      </trkpt>
      <trkpt lat="45.59284" lon="4.95651">
        <ele>259</ele>
        <time>2011-10-15T06:54:02Z</time>
      </trkpt>
      <trkpt lat="45.59274" lon="4.95651">
        <ele>258</ele>
        <time>2011-10-15T06:54:03Z</time>
      </trkpt>
      <trkpt lat="45.59254" lon="4.95654">
        <ele>255</ele>
        <time>2011-10-15T06:54:05Z</time>
      </trkpt>
      <trkpt lat="45.59246" lon="4.95657">
        <ele>255</ele>
        <time>2011-10-15T06:54:06Z</time>
      </trkpt>
      <trkpt lat="45.59237" lon="4.95662">
        <ele>254</ele>
        <time>2011-10-15T06:54:07Z</time>
      </trkpt>
      <trkpt lat="45.5923" lon="4.95668">
        <ele>253</ele>
        <time>2011-10-15T06:54:08Z</time>
      </trkpt>
      <trkpt lat="45.59224" lon="4.95676">
        <ele>253</ele>
        <time>2011-10-15T06:54:09Z</time>
      </trkpt>
      <trkpt lat="45.59218" lon="4.95685">
        <ele>252</ele>
        <time>2011-10-15T06:54:10Z</time>
      </trkpt>
      <trkpt lat="45.59212" lon="4.95693">
        <ele>252</ele>
        <time>2011-10-15T06:54:11Z</time>
      </trkpt>
      <trkpt lat="45.59205" lon="4.957">
        <ele>250</ele>
        <time>2011-10-15T06:54:12Z</time>
      </trkpt>
      <trkpt lat="45.59197" lon="4.95705">
        <ele>250</ele>
        <time>2011-10-15T06:54:13Z</time>
      </trkpt>
      <trkpt lat="45.59171" lon="4.95719">
        <ele>246</ele>
        <time>2011-10-15T06:54:16Z</time>
      </trkpt>
      <trkpt lat="45.59163" lon="4.95723">
        <ele>245</ele>
        <time>2011-10-15T06:54:17Z</time>
      </trkpt>
      <trkpt lat="45.59155" lon="4.95726">
        <ele>243</ele>
        <time>2011-10-15T06:54:18Z</time>
      </trkpt>
      <trkpt lat="45.59147" lon="4.95727">
        <ele>242</ele>
        <time>2011-10-15T06:54:19Z</time>
      </trkpt>
      <trkpt lat="45.59139" lon="4.95726">
        <ele>240</ele>
        <time>2011-10-15T06:54:20Z</time>
      </trkpt>
      <trkpt lat="45.59132" lon="4.95724">
        <ele>241</ele>
        <time>2011-10-15T06:54:21Z</time>
      </trkpt>
      <trkpt lat="45.59125" lon="4.95724">
        <ele>239</ele>
        <time>2011-10-15T06:54:22Z</time>
      </trkpt>
      <trkpt lat="45.59118" lon="4.95724">
        <ele>239</ele>
        <time>2011-10-15T06:54:23Z</time>
      </trkpt>
      <trkpt lat="45.5911" lon="4.95724">
        <ele>239</ele>
        <time>2011-10-15T06:54:24Z</time>
      </trkpt>
      <trkpt lat="45.59103" lon="4.95723">
        <ele>237</ele>
        <time>2011-10-15T06:54:25Z</time>
      </trkpt>
      <trkpt lat="45.59094" lon="4.9572">
        <ele>237</ele>
        <time>2011-10-15T06:54:26Z</time>
      </trkpt>
      <trkpt lat="45.59062" lon="4.95708">
        <ele>235</ele>
        <time>2011-10-15T06:54:30Z</time>
      </trkpt>
      <trkpt lat="45.59016" lon="4.95688">
        <ele>233</ele>
        <time>2011-10-15T06:54:36Z</time>
      </trkpt>
      <trkpt lat="45.58949" lon="4.95661">
        <ele>230</ele>
        <time>2011-10-15T06:54:45Z</time>
      </trkpt>
      <trkpt lat="45.58942" lon="4.95657">
        <ele>230</ele>
        <time>2011-10-15T06:54:46Z</time>
      </trkpt>
      <trkpt lat="45.58923" lon="4.95645">
        <ele>229</ele>
        <time>2011-10-15T06:54:49Z</time>
      </trkpt>
      <trkpt lat="45.58916" lon="4.95645">
        <ele>229</ele>
        <time>2011-10-15T06:54:50Z</time>
      </trkpt>
      <trkpt lat="45.58909" lon="4.95644">
        <ele>229</ele>
        <time>2011-10-15T06:54:51Z</time>
      </trkpt>
      <trkpt lat="45.58903" lon="4.95642">
        <ele>229</ele>
        <time>2011-10-15T06:54:52Z</time>
      </trkpt>
      <trkpt lat="45.58896" lon="4.9564">
        <ele>229</ele>
        <time>2011-10-15T06:54:53Z</time>
      </trkpt>
      <trkpt lat="45.58884" lon="4.95635">
        <ele>228</ele>
        <time>2011-10-15T06:54:55Z</time>
      </trkpt>
      <trkpt lat="45.58879" lon="4.95632">
        <ele>227</ele>
        <time>2011-10-15T06:54:56Z</time>
      </trkpt>
      <trkpt lat="45.58875" lon="4.95633">
        <ele>228</ele>
        <time>2011-10-15T06:54:57Z</time>
      </trkpt>
      <trkpt lat="45.5887" lon="4.95636">
        <ele>228</ele>
        <time>2011-10-15T06:54:58Z</time>
      </trkpt>
      <trkpt lat="45.58868" lon="4.95641">
        <ele>227</ele>
        <time>2011-10-15T06:54:59Z</time>
      </trkpt>
      <trkpt lat="45.58869" lon="4.95647">
        <ele>228</ele>
        <time>2011-10-15T06:55:00Z</time>
      </trkpt>
      <trkpt lat="45.5887" lon="4.95654">
        <ele>228</ele>
        <time>2011-10-15T06:55:01Z</time>
      </trkpt>
      <trkpt lat="45.58878" lon="4.95686">
        <ele>228</ele>
        <time>2011-10-15T06:55:06Z</time>
      </trkpt>
      <trkpt lat="45.58879" lon="4.95693">
        <ele>228</ele>
        <time>2011-10-15T06:55:07Z</time>
      </trkpt>
      <trkpt lat="45.58881" lon="4.95706">
        <ele>228</ele>
        <time>2011-10-15T06:55:09Z</time>
      </trkpt>
      <trkpt lat="45.58882" lon="4.95712">
        <ele>228</ele>
        <time>2011-10-15T06:55:10Z</time>
      </trkpt>
      <trkpt lat="45.58884" lon="4.95718">
        <ele>228</ele>
        <time>2011-10-15T06:55:11Z</time>
      </trkpt>
      <trkpt lat="45.58886" lon="4.95724">
        <ele>228</ele>
        <time>2011-10-15T06:55:12Z</time>
      </trkpt>
      <trkpt lat="45.5889" lon="4.95729">
        <ele>228</ele>
        <time>2011-10-15T06:55:13Z</time>
      </trkpt>
      <trkpt lat="45.58895" lon="4.95733">
        <ele>228</ele>
        <time>2011-10-15T06:55:14Z</time>
      </trkpt>
      <trkpt lat="45.58899" lon="4.95736">
        <ele>228</ele>
        <time>2011-10-15T06:55:15Z</time>
      </trkpt>
      <trkpt lat="45.58908" lon="4.95745">
        <ele>228</ele>
        <time>2011-10-15T06:55:18Z</time>
      </trkpt>
      <trkpt lat="45.58911" lon="4.95751">
        <ele>228</ele>
        <time>2011-10-15T06:55:19Z</time>
      </trkpt>
      <trkpt lat="45.58926" lon="4.95799">
        <ele>228</ele>
        <time>2011-10-15T06:55:27Z</time>
      </trkpt>
      <trkpt lat="45.58935" lon="4.95823">
        <ele>228</ele>
        <time>2011-10-15T06:55:31Z</time>
      </trkpt>
      <trkpt lat="45.5894" lon="4.95835">
        <ele>228</ele>
        <time>2011-10-15T06:55:33Z</time>
      </trkpt>
      <trkpt lat="45.58947" lon="4.9585">
        <ele>228</ele>
        <time>2011-10-15T06:55:36Z</time>
      </trkpt>
      <trkpt lat="45.58969" lon="4.95891">
        <ele>228</ele>
        <time>2011-10-15T06:55:44Z</time>
      </trkpt>
      <trkpt lat="45.58979" lon="4.95911">
        <ele>229</ele>
        <time>2011-10-15T06:55:48Z</time>
      </trkpt>
      <trkpt lat="45.58983" lon="4.95922">
        <ele>229</ele>
        <time>2011-10-15T06:55:50Z</time>
      </trkpt>
      <trkpt lat="45.58984" lon="4.95928">
        <ele>229</ele>
        <time>2011-10-15T06:55:51Z</time>
      </trkpt>
      <trkpt lat="45.58983" lon="4.95935">
        <ele>229</ele>
        <time>2011-10-15T06:55:52Z</time>
      </trkpt>
      <trkpt lat="45.58983" lon="4.95941">
        <ele>229</ele>
        <time>2011-10-15T06:55:53Z</time>
      </trkpt>
      <trkpt lat="45.58984" lon="4.95948">
        <ele>229</ele>
        <time>2011-10-15T06:55:54Z</time>
      </trkpt>
      <trkpt lat="45.58999" lon="4.96015">
        <ele>228</ele>
        <time>2011-10-15T06:56:04Z</time>
      </trkpt>
      <trkpt lat="45.5901" lon="4.96069">
        <ele>228</ele>
        <time>2011-10-15T06:56:12Z</time>
      </trkpt>
      <trkpt lat="45.59019" lon="4.9612">
        <ele>228</ele>
        <time>2011-10-15T06:56:20Z</time>
      </trkpt>
      <trkpt lat="45.5902" lon="4.96153">
        <ele>229</ele>
        <time>2011-10-15T06:56:25Z</time>
      </trkpt>
      <trkpt lat="45.59015" lon="4.96187">
        <ele>228</ele>
        <time>2011-10-15T06:56:30Z</time>
      </trkpt>
      <trkpt lat="45.59012" lon="4.96199">
        <ele>232</ele>
        <time>2011-10-15T06:56:32Z</time>
      </trkpt>
      <trkpt lat="45.59" lon="4.96259">
        <ele>230</ele>
        <time>2011-10-15T06:56:42Z</time>
      </trkpt>
      <trkpt lat="45.58989" lon="4.963">
        <ele>231</ele>
        <time>2011-10-15T06:56:50Z</time>
      </trkpt>
      <trkpt lat="45.58979" lon="4.96337">
        <ele>233</ele>
        <time>2011-10-15T06:56:58Z</time>
      </trkpt>
      <trkpt lat="45.58975" lon="4.96373">
        <ele>234</ele>
        <time>2011-10-15T06:57:06Z</time>
      </trkpt>
      <trkpt lat="45.58974" lon="4.96401">
        <ele>236</ele>
        <time>2011-10-15T06:57:13Z</time>
      </trkpt>
      <trkpt lat="45.58977" lon="4.96426">
        <ele>238</ele>
        <time>2011-10-15T06:57:20Z</time>
      </trkpt>
      <trkpt lat="45.58983" lon="4.96454">
        <ele>239</ele>
        <time>2011-10-15T06:57:29Z</time>
      </trkpt>
      <trkpt lat="45.58981" lon="4.96473">
        <ele>241</ele>
        <time>2011-10-15T06:57:36Z</time>
      </trkpt>
      <trkpt lat="45.5898" lon="4.96494">
        <ele>242</ele>
        <time>2011-10-15T06:57:44Z</time>
      </trkpt>
      <trkpt lat="45.58979" lon="4.96502">
        <ele>243</ele>
        <time>2011-10-15T06:57:47Z</time>
      </trkpt>
      <trkpt lat="45.58979" lon="4.96505">
        <ele>243</ele>
        <time>2011-10-15T06:57:48Z</time>
      </trkpt>
      <trkpt lat="45.58979" lon="4.96507">
        <ele>243</ele>
        <time>2011-10-15T06:57:49Z</time>
      </trkpt>
      <trkpt lat="45.58975" lon="4.96533">
        <ele>245</ele>
        <time>2011-10-15T06:57:59Z</time>
      </trkpt>
      <trkpt lat="45.58973" lon="4.96554">
        <ele>247</ele>
        <time>2011-10-15T06:58:07Z</time>
      </trkpt>
      <trkpt lat="45.58972" lon="4.9658">
        <ele>248</ele>
        <time>2011-10-15T06:58:17Z</time>
      </trkpt>
      <trkpt lat="45.58969" lon="4.96607">
        <ele>250</ele>
        <time>2011-10-15T06:58:27Z</time>
      </trkpt>
      <trkpt lat="45.58967" lon="4.96633">
        <ele>250</ele>
        <time>2011-10-15T06:58:35Z</time>
      </trkpt>
      <trkpt lat="45.5897" lon="4.96654">
        <ele>249</ele>
        <time>2011-10-15T06:58:42Z</time>
      </trkpt>
      <trkpt lat="45.58979" lon="4.96662">
        <ele>251</ele>
        <time>2011-10-15T06:58:48Z</time>
      </trkpt>
      <trkpt lat="45.58995" lon="4.96672">
        <ele>252</ele>
        <time>2011-10-15T06:58:56Z</time>
      </trkpt>
      <trkpt lat="45.59004" lon="4.96684">
        <ele>252</ele>
        <time>2011-10-15T06:59:03Z</time>
      </trkpt>
      <trkpt lat="45.59004" lon="4.96686">
        <ele>252</ele>
        <time>2011-10-15T06:59:04Z</time>
      </trkpt>
      <trkpt lat="45.59004" lon="4.96688">
        <ele>253</ele>
        <time>2011-10-15T06:59:05Z</time>
      </trkpt>
      <trkpt lat="45.59003" lon="4.9669">
        <ele>252</ele>
        <time>2011-10-15T06:59:06Z</time>
      </trkpt>
      <trkpt lat="45.59002" lon="4.96691">
        <ele>253</ele>
        <time>2011-10-15T06:59:07Z</time>
      </trkpt>
      <trkpt lat="45.59001" lon="4.96694">
        <ele>253</ele>
        <time>2011-10-15T06:59:08Z</time>
      </trkpt>
      <trkpt lat="45.59" lon="4.96696">
        <ele>253</ele>
        <time>2011-10-15T06:59:09Z</time>
      </trkpt>
      <trkpt lat="45.59" lon="4.96698">
        <ele>253</ele>
        <time>2011-10-15T06:59:10Z</time>
      </trkpt>
      <trkpt lat="45.59001" lon="4.9671">
        <ele>254</ele>
        <time>2011-10-15T06:59:15Z</time>
      </trkpt>
      <trkpt lat="45.58999" lon="4.96723">
        <ele>254</ele>
        <time>2011-10-15T06:59:20Z</time>
      </trkpt>
      <trkpt lat="45.59" lon="4.96726">
        <ele>255</ele>
        <time>2011-10-15T06:59:21Z</time>
      </trkpt>
      <trkpt lat="45.59001" lon="4.96728">
        <ele>256</ele>
        <time>2011-10-15T06:59:22Z</time>
      </trkpt>
      <trkpt lat="45.59002" lon="4.96731">
        <ele>255</ele>
        <time>2011-10-15T06:59:23Z</time>
      </trkpt>
      <trkpt lat="45.59003" lon="4.96734">
        <ele>256</ele>
        <time>2011-10-15T06:59:24Z</time>
      </trkpt>
      <trkpt lat="45.59003" lon="4.96737">
        <ele>256</ele>
        <time>2011-10-15T06:59:25Z</time>
      </trkpt>
      <trkpt lat="45.59003" lon="4.96742">
        <ele>256</ele>
        <time>2011-10-15T06:59:27Z</time>
      </trkpt>
      <trkpt lat="45.59004" lon="4.96744">
        <ele>256</ele>
        <time>2011-10-15T06:59:28Z</time>
      </trkpt>
      <trkpt lat="45.59005" lon="4.96747">
        <ele>257</ele>
        <time>2011-10-15T06:59:29Z</time>
      </trkpt>
      <trkpt lat="45.59006" lon="4.96754">
        <ele>258</ele>
        <time>2011-10-15T06:59:32Z</time>
      </trkpt>
      <trkpt lat="45.59007" lon="4.96759">
        <ele>258</ele>
        <time>2011-10-15T06:59:35Z</time>
      </trkpt>
      <trkpt lat="45.59008" lon="4.96762">
        <ele>257</ele>
        <time>2011-10-15T06:59:36Z</time>
      </trkpt>
      <trkpt lat="45.59009" lon="4.96764">
        <ele>258</ele>
        <time>2011-10-15T06:59:37Z</time>
      </trkpt>
      <trkpt lat="45.5901" lon="4.96766">
        <ele>259</ele>
        <time>2011-10-15T06:59:38Z</time>
      </trkpt>
      <trkpt lat="45.59011" lon="4.96769">
        <ele>259</ele>
        <time>2011-10-15T06:59:39Z</time>
      </trkpt>
      <trkpt lat="45.59012" lon="4.96772">
        <ele>259</ele>
        <time>2011-10-15T06:59:40Z</time>
      </trkpt>
      <trkpt lat="45.59012" lon="4.96774">
        <ele>259</ele>
        <time>2011-10-15T06:59:41Z</time>
      </trkpt>
      <trkpt lat="45.59012" lon="4.96776">
        <ele>259</ele>
        <time>2011-10-15T06:59:42Z</time>
      </trkpt>
      <trkpt lat="45.59013" lon="4.96779">
        <ele>259</ele>
        <time>2011-10-15T06:59:43Z</time>
      </trkpt>
      <trkpt lat="45.59016" lon="4.9679">
        <ele>261</ele>
        <time>2011-10-15T06:59:48Z</time>
      </trkpt>
      <trkpt lat="45.59016" lon="4.96802">
        <ele>262</ele>
        <time>2011-10-15T06:59:54Z</time>
      </trkpt>
      <trkpt lat="45.59013" lon="4.9681">
        <ele>263</ele>
        <time>2011-10-15T07:00:00Z</time>
      </trkpt>
      <trkpt lat="45.5901" lon="4.96814">
        <ele>264</ele>
        <time>2011-10-15T07:00:03Z</time>
      </trkpt>
      <trkpt lat="45.5901" lon="4.96815">
        <ele>264</ele>
        <time>2011-10-15T07:00:04Z</time>
      </trkpt>
      <trkpt lat="45.59009" lon="4.96817">
        <ele>264</ele>
        <time>2011-10-15T07:00:05Z</time>
      </trkpt>
      <trkpt lat="45.59008" lon="4.96818">
        <ele>265</ele>
        <time>2011-10-15T07:00:06Z</time>
      </trkpt>
      <trkpt lat="45.59007" lon="4.96821">
        <ele>265</ele>
        <time>2011-10-15T07:00:08Z</time>
      </trkpt>
      <trkpt lat="45.59006" lon="4.96823">
        <ele>265</ele>
        <time>2011-10-15T07:00:09Z</time>
      </trkpt>
      <trkpt lat="45.59005" lon="4.96824">
        <ele>265</ele>
        <time>2011-10-15T07:00:10Z</time>
      </trkpt>
      <trkpt lat="45.59004" lon="4.96825">
        <ele>266</ele>
        <time>2011-10-15T07:00:11Z</time>
      </trkpt>
      <trkpt lat="45.59002" lon="4.96826">
        <ele>265</ele>
        <time>2011-10-15T07:00:12Z</time>
      </trkpt>
      <trkpt lat="45.59" lon="4.96827">
        <ele>266</ele>
        <time>2011-10-15T07:00:13Z</time>
      </trkpt>
      <trkpt lat="45.58999" lon="4.96829">
        <ele>266</ele>
        <time>2011-10-15T07:00:14Z</time>
      </trkpt>
      <trkpt lat="45.58998" lon="4.9683">
        <ele>266</ele>
        <time>2011-10-15T07:00:15Z</time>
      </trkpt>
      <trkpt lat="45.58996" lon="4.96831">
        <ele>267</ele>
        <time>2011-10-15T07:00:16Z</time>
      </trkpt>
      <trkpt lat="45.58995" lon="4.96832">
        <ele>267</ele>
        <time>2011-10-15T07:00:17Z</time>
      </trkpt>
      <trkpt lat="45.58994" lon="4.96833">
        <ele>267</ele>
        <time>2011-10-15T07:00:18Z</time>
      </trkpt>
      <trkpt lat="45.58993" lon="4.96834">
        <ele>267</ele>
        <time>2011-10-15T07:00:19Z</time>
      </trkpt>
      <trkpt lat="45.58992" lon="4.96836">
        <ele>268</ele>
        <time>2011-10-15T07:00:20Z</time>
      </trkpt>
      <trkpt lat="45.58992" lon="4.96839">
        <ele>268</ele>
        <time>2011-10-15T07:00:21Z</time>
      </trkpt>
      <trkpt lat="45.58991" lon="4.9684">
        <ele>269</ele>
        <time>2011-10-15T07:00:22Z</time>
      </trkpt>
      <trkpt lat="45.58992" lon="4.96842">
        <ele>269</ele>
        <time>2011-10-15T07:00:23Z</time>
      </trkpt>
      <trkpt lat="45.58993" lon="4.96843">
        <ele>269</ele>
        <time>2011-10-15T07:00:24Z</time>
      </trkpt>
      <trkpt lat="45.58995" lon="4.96843">
        <ele>269</ele>
        <time>2011-10-15T07:00:25Z</time>
      </trkpt>
      <trkpt lat="45.58996" lon="4.96842">
        <ele>269</ele>
        <time>2011-10-15T07:00:26Z</time>
      </trkpt>
      <trkpt lat="45.58997" lon="4.96843">
        <ele>269</ele>
        <time>2011-10-15T07:00:27Z</time>
      </trkpt>
      <trkpt lat="45.58999" lon="4.96843">
        <ele>269</ele>
        <time>2011-10-15T07:00:28Z</time>
      </trkpt>
      <trkpt lat="45.59003" lon="4.96854">
        <ele>271</ele>
        <time>2011-10-15T07:00:35Z</time>
      </trkpt>
      <trkpt lat="45.59009" lon="4.96871">
        <ele>273</ele>
        <time>2011-10-15T07:00:45Z</time>
      </trkpt>
      <trkpt lat="45.59012" lon="4.96883">
        <ele>275</ele>
        <time>2011-10-15T07:00:52Z</time>
      </trkpt>
      <trkpt lat="45.59016" lon="4.96896">
        <ele>276</ele>
        <time>2011-10-15T07:01:00Z</time>
      </trkpt>
      <trkpt lat="45.59016" lon="4.96899">
        <ele>277</ele>
        <time>2011-10-15T07:01:02Z</time>
      </trkpt>
      <trkpt lat="45.5902" lon="4.96913">
        <ele>278</ele>
        <time>2011-10-15T07:01:10Z</time>
      </trkpt>
      <trkpt lat="45.59025" lon="4.96925">
        <ele>280</ele>
        <time>2011-10-15T07:01:17Z</time>
      </trkpt>
      <trkpt lat="45.59027" lon="4.96937">
        <ele>281</ele>
        <time>2011-10-15T07:01:23Z</time>
      </trkpt>
      <trkpt lat="45.59028" lon="4.96938">
        <ele>281</ele>
        <time>2011-10-15T07:01:24Z</time>
      </trkpt>
      <trkpt lat="45.59029" lon="4.96945">
        <ele>282</ele>
        <time>2011-10-15T07:01:28Z</time>
      </trkpt>
      <trkpt lat="45.59029" lon="4.96953">
        <ele>282</ele>
        <time>2011-10-15T07:01:34Z</time>
      </trkpt>
      <trkpt lat="45.5903" lon="4.96957">
        <ele>283</ele>
        <time>2011-10-15T07:01:37Z</time>
      </trkpt>
      <trkpt lat="45.59029" lon="4.96959">
        <ele>283</ele>
        <time>2011-10-15T07:01:38Z</time>
      </trkpt>
      <trkpt lat="45.59028" lon="4.96963">
        <ele>284</ele>
        <time>2011-10-15T07:01:41Z</time>
      </trkpt>
      <trkpt lat="45.59029" lon="4.96965">
        <ele>284</ele>
        <time>2011-10-15T07:01:42Z</time>
      </trkpt>
      <trkpt lat="45.59032" lon="4.96976">
        <ele>286</ele>
        <time>2011-10-15T07:01:48Z</time>
      </trkpt>
      <trkpt lat="45.59036" lon="4.96991">
        <ele>288</ele>
        <time>2011-10-15T07:01:55Z</time>
      </trkpt>
      <trkpt lat="45.59039" lon="4.97002">
        <ele>289</ele>
        <time>2011-10-15T07:02:01Z</time>
      </trkpt>
      <trkpt lat="45.5904" lon="4.97005">
        <ele>289</ele>
        <time>2011-10-15T07:02:03Z</time>
      </trkpt>
      <trkpt lat="45.5904" lon="4.97007">
        <ele>289</ele>
        <time>2011-10-15T07:02:04Z</time>
      </trkpt>
      <trkpt lat="45.59044" lon="4.97018">
        <ele>290</ele>
        <time>2011-10-15T07:02:10Z</time>
      </trkpt>
      <trkpt lat="45.59045" lon="4.97021">
        <ele>291</ele>
        <time>2011-10-15T07:02:12Z</time>
      </trkpt>
      <trkpt lat="45.59045" lon="4.97023">
        <ele>291</ele>
        <time>2011-10-15T07:02:13Z</time>
      </trkpt>
      <trkpt lat="45.59048" lon="4.97032">
        <ele>293</ele>
        <time>2011-10-15T07:02:19Z</time>
      </trkpt>
      <trkpt lat="45.59053" lon="4.97045">
        <ele>296</ele>
        <time>2011-10-15T07:02:26Z</time>
      </trkpt>
      <trkpt lat="45.5906" lon="4.97057">
        <ele>298</ele>
        <time>2011-10-15T07:02:33Z</time>
      </trkpt>
      <trkpt lat="45.59067" lon="4.97063">
        <ele>300</ele>
        <time>2011-10-15T07:02:39Z</time>
      </trkpt>
      <trkpt lat="45.59074" lon="4.97066">
        <ele>301</ele>
        <time>2011-10-15T07:02:45Z</time>
      </trkpt>
      <trkpt lat="45.5908" lon="4.97069">
        <ele>302</ele>
        <time>2011-10-15T07:02:50Z</time>
      </trkpt>
      <trkpt lat="45.59084" lon="4.97071">
        <ele>304</ele>
        <time>2011-10-15T07:02:53Z</time>
      </trkpt>
      <trkpt lat="45.5909" lon="4.97073">
        <ele>305</ele>
        <time>2011-10-15T07:02:58Z</time>
      </trkpt>
      <trkpt lat="45.59091" lon="4.97074">
        <ele>304</ele>
        <time>2011-10-15T07:02:59Z</time>
      </trkpt>
      <trkpt lat="45.59093" lon="4.97074">
        <ele>305</ele>
        <time>2011-10-15T07:03:00Z</time>
      </trkpt>
      <trkpt lat="45.59101" lon="4.97078">
        <ele>307</ele>
        <time>2011-10-15T07:03:07Z</time>
      </trkpt>
      <trkpt lat="45.5911" lon="4.97082">
        <ele>308</ele>
        <time>2011-10-15T07:03:13Z</time>
      </trkpt>
      <trkpt lat="45.5912" lon="4.97085">
        <ele>310</ele>
        <time>2011-10-15T07:03:20Z</time>
      </trkpt>
      <trkpt lat="45.59122" lon="4.97087">
        <ele>310</ele>
        <time>2011-10-15T07:03:22Z</time>
      </trkpt>
      <trkpt lat="45.59127" lon="4.97097">
        <ele>312</ele>
        <time>2011-10-15T07:03:29Z</time>
      </trkpt>
      <trkpt lat="45.59127" lon="4.97098">
        <ele>312</ele>
        <time>2011-10-15T07:03:30Z</time>
      </trkpt>
      <trkpt lat="45.59127" lon="4.971">
        <ele>312</ele>
        <time>2011-10-15T07:03:31Z</time>
      </trkpt>
      <trkpt lat="45.59128" lon="4.97101">
        <ele>312</ele>
        <time>2011-10-15T07:03:32Z</time>
      </trkpt>
      <trkpt lat="45.59127" lon="4.97105">
        <ele>314</ele>
        <time>2011-10-15T07:03:34Z</time>
      </trkpt>
      <trkpt lat="45.59129" lon="4.97121">
        <ele>315</ele>
        <time>2011-10-15T07:03:42Z</time>
      </trkpt>
      <trkpt lat="45.59129" lon="4.97136">
        <ele>315</ele>
        <time>2011-10-15T07:03:49Z</time>
      </trkpt>
      <trkpt lat="45.5913" lon="4.97138">
        <ele>316</ele>
        <time>2011-10-15T07:03:50Z</time>
      </trkpt>
      <trkpt lat="45.59134" lon="4.97142">
        <ele>316</ele>
        <time>2011-10-15T07:03:53Z</time>
      </trkpt>
      <trkpt lat="45.59136" lon="4.97142">
        <ele>316</ele>
        <time>2011-10-15T07:03:54Z</time>
      </trkpt>
      <trkpt lat="45.59147" lon="4.97136">
        <ele>316</ele>
        <time>2011-10-15T07:04:02Z</time>
      </trkpt>
      <trkpt lat="45.59155" lon="4.97131">
        <ele>316</ele>
        <time>2011-10-15T07:04:09Z</time>
      </trkpt>
      <trkpt lat="45.5917" lon="4.9712">
        <ele>317</ele>
        <time>2011-10-15T07:04:19Z</time>
      </trkpt>
      <trkpt lat="45.59177" lon="4.97116">
        <ele>315</ele>
        <time>2011-10-15T07:04:26Z</time>
      </trkpt>
      <trkpt lat="45.59177" lon="4.97116">
        <ele>315</ele>
        <time>2011-10-15T07:04:43Z</time>
      </trkpt>
      <trkpt lat="45.59177" lon="4.97116">
        <ele>316</ele>
        <time>2011-10-15T07:04:49Z</time>
      </trkpt>
      <trkpt lat="45.59185" lon="4.97108">
        <ele>316</ele>
        <time>2011-10-15T07:04:56Z</time>
      </trkpt>
      <trkpt lat="45.5919" lon="4.97104">
        <ele>317</ele>
        <time>2011-10-15T07:05:01Z</time>
      </trkpt>
      <trkpt lat="45.59192" lon="4.97104">
        <ele>316</ele>
        <time>2011-10-15T07:05:02Z</time>
      </trkpt>
      <trkpt lat="45.59193" lon="4.97103">
        <ele>316</ele>
        <time>2011-10-15T07:05:03Z</time>
      </trkpt>
      <trkpt lat="45.59194" lon="4.97102">
        <ele>317</ele>
        <time>2011-10-15T07:05:04Z</time>
      </trkpt>
      <trkpt lat="45.59195" lon="4.971">
        <ele>316</ele>
        <time>2011-10-15T07:05:05Z</time>
      </trkpt>
      <trkpt lat="45.59196" lon="4.97099">
        <ele>316</ele>
        <time>2011-10-15T07:05:06Z</time>
      </trkpt>
      <trkpt lat="45.59198" lon="4.97098">
        <ele>316</ele>
        <time>2011-10-15T07:05:07Z</time>
      </trkpt>
      <trkpt lat="45.59202" lon="4.97096">
        <ele>317</ele>
        <time>2011-10-15T07:05:10Z</time>
      </trkpt>
      <trkpt lat="45.59204" lon="4.97096">
        <ele>317</ele>
        <time>2011-10-15T07:05:11Z</time>
      </trkpt>
      <trkpt lat="45.59206" lon="4.97098">
        <ele>317</ele>
        <time>2011-10-15T07:05:12Z</time>
      </trkpt>
      <trkpt lat="45.59206" lon="4.971">
        <ele>317</ele>
        <time>2011-10-15T07:05:13Z</time>
      </trkpt>
      <trkpt lat="45.59207" lon="4.97102">
        <ele>317</ele>
        <time>2011-10-15T07:05:14Z</time>
      </trkpt>
      <trkpt lat="45.59209" lon="4.97104">
        <ele>317</ele>
        <time>2011-10-15T07:05:15Z</time>
      </trkpt>
      <trkpt lat="45.59209" lon="4.97106">
        <ele>318</ele>
        <time>2011-10-15T07:05:16Z</time>
      </trkpt>
      <trkpt lat="45.59213" lon="4.97113">
        <ele>318</ele>
        <time>2011-10-15T07:05:19Z</time>
      </trkpt>
      <trkpt lat="45.59224" lon="4.9713">
        <ele>318</ele>
        <time>2011-10-15T07:05:27Z</time>
      </trkpt>
      <trkpt lat="45.59225" lon="4.97133">
        <ele>319</ele>
        <time>2011-10-15T07:05:33Z</time>
      </trkpt>
      <trkpt lat="45.59225" lon="4.97133">
        <ele>319</ele>
        <time>2011-10-15T07:05:42Z</time>
      </trkpt>
      <trkpt lat="45.59228" lon="4.97138">
        <ele>317</ele>
        <time>2011-10-15T07:05:48Z</time>
      </trkpt>
      <trkpt lat="45.59229" lon="4.9714">
        <ele>317</ele>
        <time>2011-10-15T07:05:49Z</time>
      </trkpt>
      <trkpt lat="45.59236" lon="4.9715">
        <ele>316</ele>
        <time>2011-10-15T07:05:54Z</time>
      </trkpt>
      <trkpt lat="45.59239" lon="4.97153">
        <ele>315</ele>
        <time>2011-10-15T07:05:55Z</time>
      </trkpt>
      <trkpt lat="45.59243" lon="4.97157">
        <ele>315</ele>
        <time>2011-10-15T07:05:56Z</time>
      </trkpt>
      <trkpt lat="45.59247" lon="4.9716">
        <ele>315</ele>
        <time>2011-10-15T07:05:57Z</time>
      </trkpt>
      <trkpt lat="45.59252" lon="4.97163">
        <ele>313</ele>
        <time>2011-10-15T07:05:58Z</time>
      </trkpt>
      <trkpt lat="45.59257" lon="4.97168">
        <ele>313</ele>
        <time>2011-10-15T07:05:59Z</time>
      </trkpt>
      <trkpt lat="45.5927" lon="4.9718">
        <ele>311</ele>
        <time>2011-10-15T07:06:01Z</time>
      </trkpt>
      <trkpt lat="45.59277" lon="4.97184">
        <ele>310</ele>
        <time>2011-10-15T07:06:02Z</time>
      </trkpt>
      <trkpt lat="45.59284" lon="4.97186">
        <ele>310</ele>
        <time>2011-10-15T07:06:03Z</time>
      </trkpt>
      <trkpt lat="45.59291" lon="4.97186">
        <ele>309</ele>
        <time>2011-10-15T07:06:04Z</time>
      </trkpt>
      <trkpt lat="45.59299" lon="4.97184">
        <ele>308</ele>
        <time>2011-10-15T07:06:05Z</time>
      </trkpt>
      <trkpt lat="45.59305" lon="4.97181">
        <ele>308</ele>
        <time>2011-10-15T07:06:06Z</time>
      </trkpt>
      <trkpt lat="45.59312" lon="4.97178">
        <ele>307</ele>
        <time>2011-10-15T07:06:07Z</time>
      </trkpt>
      <trkpt lat="45.59319" lon="4.97177">
        <ele>307</ele>
        <time>2011-10-15T07:06:08Z</time>
      </trkpt>
      <trkpt lat="45.59325" lon="4.97175">
        <ele>307</ele>
        <time>2011-10-15T07:06:09Z</time>
      </trkpt>
      <trkpt lat="45.59353" lon="4.97171">
        <ele>305</ele>
        <time>2011-10-15T07:06:13Z</time>
      </trkpt>
      <trkpt lat="45.59371" lon="4.97167">
        <ele>304</ele>
        <time>2011-10-15T07:06:16Z</time>
      </trkpt>
      <trkpt lat="45.59378" lon="4.97167">
        <ele>304</ele>
        <time>2011-10-15T07:06:17Z</time>
      </trkpt>
      <trkpt lat="45.59418" lon="4.97169">
        <ele>301</ele>
        <time>2011-10-15T07:06:23Z</time>
      </trkpt>
      <trkpt lat="45.59431" lon="4.9717">
        <ele>301</ele>
        <time>2011-10-15T07:06:25Z</time>
      </trkpt>
      <trkpt lat="45.59465" lon="4.97177">
        <ele>300</ele>
        <time>2011-10-15T07:06:31Z</time>
      </trkpt>
      <trkpt lat="45.59488" lon="4.9718">
        <ele>299</ele>
        <time>2011-10-15T07:06:37Z</time>
      </trkpt>
      <trkpt lat="45.59503" lon="4.97183">
        <ele>300</ele>
        <time>2011-10-15T07:06:43Z</time>
      </trkpt>
      <trkpt lat="45.59516" lon="4.97191">
        <ele>300</ele>
        <time>2011-10-15T07:06:49Z</time>
      </trkpt>
      <trkpt lat="45.59531" lon="4.972">
        <ele>301</ele>
        <time>2011-10-15T07:06:54Z</time>
      </trkpt>
      <trkpt lat="45.59554" lon="4.97208">
        <ele>301</ele>
        <time>2011-10-15T07:07:02Z</time>
      </trkpt>
      <trkpt lat="45.59568" lon="4.97211">
        <ele>301</ele>
        <time>2011-10-15T07:07:07Z</time>
      </trkpt>
      <trkpt lat="45.59576" lon="4.9721">
        <ele>301</ele>
        <time>2011-10-15T07:07:10Z</time>
      </trkpt>
      <trkpt lat="45.59593" lon="4.97208">
        <ele>301</ele>
        <time>2011-10-15T07:07:17Z</time>
      </trkpt>
      <trkpt lat="45.59605" lon="4.97209">
        <ele>303</ele>
        <time>2011-10-15T07:07:22Z</time>
      </trkpt>
      <trkpt lat="45.59607" lon="4.97208">
        <ele>303</ele>
        <time>2011-10-15T07:07:23Z</time>
      </trkpt>
      <trkpt lat="45.5961" lon="4.97208">
        <ele>303</ele>
        <time>2011-10-15T07:07:24Z</time>
      </trkpt>
      <trkpt lat="45.59612" lon="4.97209">
        <ele>304</ele>
        <time>2011-10-15T07:07:25Z</time>
      </trkpt>
      <trkpt lat="45.59615" lon="4.97209">
        <ele>304</ele>
        <time>2011-10-15T07:07:26Z</time>
      </trkpt>
      <trkpt lat="45.59617" lon="4.97209">
        <ele>303</ele>
        <time>2011-10-15T07:07:27Z</time>
      </trkpt>
      <trkpt lat="45.5962" lon="4.9721">
        <ele>304</ele>
        <time>2011-10-15T07:07:28Z</time>
      </trkpt>
      <trkpt lat="45.59623" lon="4.9721">
        <ele>304</ele>
        <time>2011-10-15T07:07:29Z</time>
      </trkpt>
      <trkpt lat="45.59625" lon="4.97211">
        <ele>303</ele>
        <time>2011-10-15T07:07:30Z</time>
      </trkpt>
      <trkpt lat="45.59628" lon="4.97212">
        <ele>305</ele>
        <time>2011-10-15T07:07:31Z</time>
      </trkpt>
      <trkpt lat="45.5963" lon="4.97212">
        <ele>304</ele>
        <time>2011-10-15T07:07:32Z</time>
      </trkpt>
      <trkpt lat="45.59633" lon="4.97213">
        <ele>304</ele>
        <time>2011-10-15T07:07:33Z</time>
      </trkpt>
      <trkpt lat="45.59635" lon="4.97213">
        <ele>305</ele>
        <time>2011-10-15T07:07:34Z</time>
      </trkpt>
      <trkpt lat="45.59637" lon="4.97214">
        <ele>304</ele>
        <time>2011-10-15T07:07:35Z</time>
      </trkpt>
      <trkpt lat="45.5964" lon="4.97215">
        <ele>305</ele>
        <time>2011-10-15T07:07:36Z</time>
      </trkpt>
      <trkpt lat="45.59642" lon="4.97216">
        <ele>305</ele>
        <time>2011-10-15T07:07:37Z</time>
      </trkpt>
      <trkpt lat="45.59645" lon="4.97217">
        <ele>305</ele>
        <time>2011-10-15T07:07:38Z</time>
      </trkpt>
      <trkpt lat="45.59648" lon="4.97217">
        <ele>306</ele>
        <time>2011-10-15T07:07:39Z</time>
      </trkpt>
      <trkpt lat="45.59652" lon="4.97218">
        <ele>305</ele>
        <time>2011-10-15T07:07:40Z</time>
      </trkpt>
      <trkpt lat="45.59669" lon="4.97222">
        <ele>306</ele>
        <time>2011-10-15T07:07:46Z</time>
      </trkpt>
      <trkpt lat="45.59695" lon="4.97231">
        <ele>307</ele>
        <time>2011-10-15T07:07:55Z</time>
      </trkpt>
      <trkpt lat="45.59709" lon="4.97236">
        <ele>307</ele>
        <time>2011-10-15T07:08:01Z</time>
      </trkpt>
      <trkpt lat="45.59725" lon="4.97242">
        <ele>309</ele>
        <time>2011-10-15T07:08:08Z</time>
      </trkpt>
      <trkpt lat="45.59738" lon="4.97246">
        <ele>309</ele>
        <time>2011-10-15T07:08:14Z</time>
      </trkpt>
      <trkpt lat="45.59742" lon="4.97247">
        <ele>310</ele>
        <time>2011-10-15T07:08:16Z</time>
      </trkpt>
      <trkpt lat="45.59744" lon="4.97246">
        <ele>309</ele>
        <time>2011-10-15T07:08:17Z</time>
      </trkpt>
      <trkpt lat="45.59746" lon="4.97246">
        <ele>309</ele>
        <time>2011-10-15T07:08:18Z</time>
      </trkpt>
      <trkpt lat="45.59749" lon="4.97246">
        <ele>309</ele>
        <time>2011-10-15T07:08:19Z</time>
      </trkpt>
      <trkpt lat="45.59751" lon="4.97246">
        <ele>309</ele>
        <time>2011-10-15T07:08:20Z</time>
      </trkpt>
      <trkpt lat="45.59754" lon="4.97246">
        <ele>310</ele>
        <time>2011-10-15T07:08:21Z</time>
      </trkpt>
      <trkpt lat="45.59756" lon="4.97246">
        <ele>309</ele>
        <time>2011-10-15T07:08:22Z</time>
      </trkpt>
      <trkpt lat="45.59758" lon="4.97246">
        <ele>309</ele>
        <time>2011-10-15T07:08:23Z</time>
      </trkpt>
      <trkpt lat="45.59761" lon="4.97246">
        <ele>310</ele>
        <time>2011-10-15T07:08:24Z</time>
      </trkpt>
      <trkpt lat="45.59764" lon="4.97246">
        <ele>310</ele>
        <time>2011-10-15T07:08:25Z</time>
      </trkpt>
      <trkpt lat="45.59766" lon="4.97247">
        <ele>310</ele>
        <time>2011-10-15T07:08:26Z</time>
      </trkpt>
      <trkpt lat="45.59768" lon="4.97248">
        <ele>310</ele>
        <time>2011-10-15T07:08:27Z</time>
      </trkpt>
      <trkpt lat="45.5977" lon="4.97248">
        <ele>310</ele>
        <time>2011-10-15T07:08:28Z</time>
      </trkpt>
      <trkpt lat="45.59773" lon="4.97249">
        <ele>311</ele>
        <time>2011-10-15T07:08:29Z</time>
      </trkpt>
      <trkpt lat="45.59775" lon="4.9725">
        <ele>310</ele>
        <time>2011-10-15T07:08:30Z</time>
      </trkpt>
      <trkpt lat="45.59777" lon="4.97251">
        <ele>310</ele>
        <time>2011-10-15T07:08:31Z</time>
      </trkpt>
      <trkpt lat="45.59779" lon="4.97252">
        <ele>311</ele>
        <time>2011-10-15T07:08:32Z</time>
      </trkpt>
      <trkpt lat="45.59793" lon="4.97258">
        <ele>311</ele>
        <time>2011-10-15T07:08:37Z</time>
      </trkpt>
      <trkpt lat="45.59795" lon="4.97259">
        <ele>311</ele>
        <time>2011-10-15T07:08:38Z</time>
      </trkpt>
      <trkpt lat="45.59799" lon="4.97261">
        <ele>312</ele>
        <time>2011-10-15T07:08:40Z</time>
      </trkpt>
      <trkpt lat="45.59812" lon="4.97267">
        <ele>312</ele>
        <time>2011-10-15T07:08:46Z</time>
      </trkpt>
      <trkpt lat="45.59824" lon="4.97273">
        <ele>313</ele>
        <time>2011-10-15T07:08:52Z</time>
      </trkpt>
      <trkpt lat="45.59839" lon="4.97278">
        <ele>314</ele>
        <time>2011-10-15T07:08:59Z</time>
      </trkpt>
      <trkpt lat="45.59854" lon="4.97283">
        <ele>314</ele>
        <time>2011-10-15T07:09:05Z</time>
      </trkpt>
      <trkpt lat="45.59872" lon="4.97291">
        <ele>314</ele>
        <time>2011-10-15T07:09:11Z</time>
      </trkpt>
      <trkpt lat="45.59893" lon="4.97304">
        <ele>315</ele>
        <time>2011-10-15T07:09:18Z</time>
      </trkpt>
      <trkpt lat="45.59916" lon="4.9732">
        <ele>315</ele>
        <time>2011-10-15T07:09:27Z</time>
      </trkpt>
      <trkpt lat="45.59931" lon="4.9733">
        <ele>316</ele>
        <time>2011-10-15T07:09:33Z</time>
      </trkpt>
      <trkpt lat="45.59946" lon="4.97342">
        <ele>315</ele>
        <time>2011-10-15T07:09:39Z</time>
      </trkpt>
      <trkpt lat="45.59967" lon="4.9736">
        <ele>315</ele>
        <time>2011-10-15T07:09:46Z</time>
      </trkpt>
      <trkpt lat="45.59982" lon="4.97375">
        <ele>314</ele>
        <time>2011-10-15T07:09:52Z</time>
      </trkpt>
      <trkpt lat="45.59987" lon="4.97379">
        <ele>314</ele>
        <time>2011-10-15T07:09:56Z</time>
      </trkpt>
      <trkpt lat="45.59989" lon="4.9738">
        <ele>314</ele>
        <time>2011-10-15T07:09:57Z</time>
      </trkpt>
      <trkpt lat="45.60002" lon="4.97394">
        <ele>314</ele>
        <time>2011-10-15T07:10:03Z</time>
      </trkpt>
      <trkpt lat="45.60021" lon="4.97412">
        <ele>315</ele>
        <time>2011-10-15T07:10:09Z</time>
      </trkpt>
      <trkpt lat="45.60037" lon="4.97439">
        <ele>315</ele>
        <time>2011-10-15T07:10:16Z</time>
      </trkpt>
      <trkpt lat="45.60052" lon="4.97466">
        <ele>316</ele>
        <time>2011-10-15T07:10:22Z</time>
      </trkpt>
      <trkpt lat="45.60058" lon="4.97481">
        <ele>316</ele>
        <time>2011-10-15T07:10:25Z</time>
      </trkpt>
      <trkpt lat="45.60059" lon="4.97485">
        <ele>316</ele>
        <time>2011-10-15T07:10:26Z</time>
      </trkpt>
      <trkpt lat="45.60066" lon="4.97513">
        <ele>316</ele>
        <time>2011-10-15T07:10:32Z</time>
      </trkpt>
      <trkpt lat="45.60071" lon="4.97524">
        <ele>316</ele>
        <time>2011-10-15T07:10:34Z</time>
      </trkpt>
      <trkpt lat="45.60075" lon="4.97531">
        <ele>316</ele>
        <time>2011-10-15T07:10:35Z</time>
      </trkpt>
      <trkpt lat="45.60078" lon="4.97537">
        <ele>315</ele>
        <time>2011-10-15T07:10:36Z</time>
      </trkpt>
      <trkpt lat="45.60082" lon="4.97543">
        <ele>316</ele>
        <time>2011-10-15T07:10:37Z</time>
      </trkpt>
      <trkpt lat="45.60085" lon="4.97549">
        <ele>316</ele>
        <time>2011-10-15T07:10:38Z</time>
      </trkpt>
      <trkpt lat="45.60107" lon="4.97588">
        <ele>316</ele>
        <time>2011-10-15T07:10:46Z</time>
      </trkpt>
      <trkpt lat="45.6011" lon="4.97593">
        <ele>316</ele>
        <time>2011-10-15T07:10:47Z</time>
      </trkpt>
      <trkpt lat="45.60128" lon="4.97618">
        <ele>316</ele>
        <time>2011-10-15T07:10:54Z</time>
      </trkpt>
      <trkpt lat="45.60147" lon="4.97637">
        <ele>318</ele>
        <time>2011-10-15T07:11:01Z</time>
      </trkpt>
      <trkpt lat="45.60163" lon="4.9765">
        <ele>319</ele>
        <time>2011-10-15T07:11:08Z</time>
      </trkpt>
      <trkpt lat="45.60181" lon="4.97665">
        <ele>320</ele>
        <time>2011-10-15T07:11:14Z</time>
      </trkpt>
      <trkpt lat="45.60199" lon="4.97685">
        <ele>321</ele>
        <time>2011-10-15T07:11:21Z</time>
      </trkpt>
      <trkpt lat="45.60216" lon="4.97705">
        <ele>321</ele>
        <time>2011-10-15T07:11:28Z</time>
      </trkpt>
      <trkpt lat="45.60228" lon="4.9772">
        <ele>323</ele>
        <time>2011-10-15T07:11:35Z</time>
      </trkpt>
      <trkpt lat="45.60236" lon="4.97733">
        <ele>323</ele>
        <time>2011-10-15T07:11:42Z</time>
      </trkpt>
      <trkpt lat="45.60239" lon="4.97738">
        <ele>324</ele>
        <time>2011-10-15T07:11:47Z</time>
      </trkpt>
      <trkpt lat="45.60241" lon="4.9774">
        <ele>324</ele>
        <time>2011-10-15T07:11:48Z</time>
      </trkpt>
      <trkpt lat="45.60241" lon="4.97742">
        <ele>325</ele>
        <time>2011-10-15T07:11:49Z</time>
      </trkpt>
      <trkpt lat="45.60242" lon="4.97744">
        <ele>325</ele>
        <time>2011-10-15T07:11:50Z</time>
      </trkpt>
      <trkpt lat="45.60244" lon="4.97751">
        <ele>326</ele>
        <time>2011-10-15T07:11:53Z</time>
      </trkpt>
      <trkpt lat="45.60246" lon="4.97754">
        <ele>326</ele>
        <time>2011-10-15T07:11:54Z</time>
      </trkpt>
      <trkpt lat="45.60248" lon="4.97758">
        <ele>327</ele>
        <time>2011-10-15T07:11:58Z</time>
      </trkpt>
      <trkpt lat="45.60249" lon="4.97767">
        <ele>328</ele>
        <time>2011-10-15T07:12:02Z</time>
      </trkpt>
      <trkpt lat="45.60249" lon="4.97774">
        <ele>328</ele>
        <time>2011-10-15T07:12:06Z</time>
      </trkpt>
      <trkpt lat="45.6025" lon="4.97779">
        <ele>329</ele>
        <time>2011-10-15T07:12:08Z</time>
      </trkpt>
      <trkpt lat="45.6025" lon="4.97782">
        <ele>329</ele>
        <time>2011-10-15T07:12:09Z</time>
      </trkpt>
      <trkpt lat="45.60251" lon="4.97784">
        <ele>329</ele>
        <time>2011-10-15T07:12:10Z</time>
      </trkpt>
      <trkpt lat="45.60251" lon="4.9779">
        <ele>330</ele>
        <time>2011-10-15T07:12:14Z</time>
      </trkpt>
      <trkpt lat="45.6025" lon="4.97792">
        <ele>330</ele>
        <time>2011-10-15T07:12:15Z</time>
      </trkpt>
      <trkpt lat="45.60247" lon="4.97802">
        <ele>331</ele>
        <time>2011-10-15T07:12:21Z</time>
      </trkpt>
      <trkpt lat="45.60248" lon="4.9781">
        <ele>332</ele>
        <time>2011-10-15T07:12:25Z</time>
      </trkpt>
      <trkpt lat="45.60248" lon="4.97812">
        <ele>333</ele>
        <time>2011-10-15T07:12:26Z</time>
      </trkpt>
      <trkpt lat="45.60251" lon="4.97825">
        <ele>334</ele>
        <time>2011-10-15T07:12:31Z</time>
      </trkpt>
      <trkpt lat="45.60257" lon="4.97837">
        <ele>335</ele>
        <time>2011-10-15T07:12:36Z</time>
      </trkpt>
      <trkpt lat="45.60259" lon="4.97839">
        <ele>335</ele>
        <time>2011-10-15T07:12:37Z</time>
      </trkpt>
      <trkpt lat="45.60262" lon="4.97845">
        <ele>336</ele>
        <time>2011-10-15T07:12:40Z</time>
      </trkpt>
      <trkpt lat="45.60264" lon="4.97848">
        <ele>337</ele>
        <time>2011-10-15T07:12:42Z</time>
      </trkpt>
      <trkpt lat="45.60266" lon="4.97851">
        <ele>337</ele>
        <time>2011-10-15T07:12:43Z</time>
      </trkpt>
      <trkpt lat="45.60274" lon="4.97865">
        <ele>338</ele>
        <time>2011-10-15T07:12:49Z</time>
      </trkpt>
      <trkpt lat="45.60277" lon="4.97869">
        <ele>338</ele>
        <time>2011-10-15T07:12:51Z</time>
      </trkpt>
      <trkpt lat="45.60278" lon="4.97871">
        <ele>339</ele>
        <time>2011-10-15T07:12:52Z</time>
      </trkpt>
      <trkpt lat="45.60282" lon="4.9788">
        <ele>340</ele>
        <time>2011-10-15T07:12:57Z</time>
      </trkpt>
      <trkpt lat="45.6029" lon="4.97892">
        <ele>342</ele>
        <time>2011-10-15T07:13:04Z</time>
      </trkpt>
      <trkpt lat="45.60295" lon="4.97901">
        <ele>344</ele>
        <time>2011-10-15T07:13:10Z</time>
      </trkpt>
      <trkpt lat="45.60297" lon="4.97904">
        <ele>345</ele>
        <time>2011-10-15T07:13:12Z</time>
      </trkpt>
      <trkpt lat="45.60298" lon="4.97906">
        <ele>345</ele>
        <time>2011-10-15T07:13:13Z</time>
      </trkpt>
      <trkpt lat="45.60299" lon="4.97907">
        <ele>345</ele>
        <time>2011-10-15T07:13:14Z</time>
      </trkpt>
      <trkpt lat="45.603" lon="4.97909">
        <ele>346</ele>
        <time>2011-10-15T07:13:15Z</time>
      </trkpt>
      <trkpt lat="45.60301" lon="4.97911">
        <ele>345</ele>
        <time>2011-10-15T07:13:16Z</time>
      </trkpt>
      <trkpt lat="45.60304" lon="4.97915">
        <ele>346</ele>
        <time>2011-10-15T07:13:19Z</time>
      </trkpt>
      <trkpt lat="45.60305" lon="4.97916">
        <ele>347</ele>
        <time>2011-10-15T07:13:20Z</time>
      </trkpt>
      <trkpt lat="45.60313" lon="4.97923">
        <ele>349</ele>
        <time>2011-10-15T07:13:27Z</time>
      </trkpt>
      <trkpt lat="45.6032" lon="4.97925">
        <ele>351</ele>
        <time>2011-10-15T07:13:33Z</time>
      </trkpt>
      <trkpt lat="45.6033" lon="4.97928">
        <ele>351</ele>
        <time>2011-10-15T07:13:40Z</time>
      </trkpt>
      <trkpt lat="45.6034" lon="4.97928">
        <ele>352</ele>
        <time>2011-10-15T07:13:47Z</time>
      </trkpt>
      <trkpt lat="45.60347" lon="4.97919">
        <ele>351</ele>
        <time>2011-10-15T07:13:54Z</time>
      </trkpt>
      <trkpt lat="45.60347" lon="4.97916">
        <ele>351</ele>
        <time>2011-10-15T07:13:55Z</time>
      </trkpt>
      <trkpt lat="45.60347" lon="4.97914">
        <ele>351</ele>
        <time>2011-10-15T07:13:56Z</time>
      </trkpt>
      <trkpt lat="45.60348" lon="4.97911">
        <ele>351</ele>
        <time>2011-10-15T07:13:57Z</time>
      </trkpt>
      <trkpt lat="45.60348" lon="4.97909">
        <ele>351</ele>
        <time>2011-10-15T07:13:58Z</time>
      </trkpt>
      <trkpt lat="45.60348" lon="4.97906">
        <ele>351</ele>
        <time>2011-10-15T07:13:59Z</time>
      </trkpt>
      <trkpt lat="45.60348" lon="4.97903">
        <ele>351</ele>
        <time>2011-10-15T07:14:00Z</time>
      </trkpt>
      <trkpt lat="45.60347" lon="4.97899">
        <ele>351</ele>
        <time>2011-10-15T07:14:01Z</time>
      </trkpt>
      <trkpt lat="45.60347" lon="4.97893">
        <ele>351</ele>
        <time>2011-10-15T07:14:03Z</time>
      </trkpt>
      <trkpt lat="45.60347" lon="4.97889">
        <ele>351</ele>
        <time>2011-10-15T07:14:04Z</time>
      </trkpt>
      <trkpt lat="45.60347" lon="4.97886">
        <ele>351</ele>
        <time>2011-10-15T07:14:05Z</time>
      </trkpt>
      <trkpt lat="45.60347" lon="4.97882">
        <ele>351</ele>
        <time>2011-10-15T07:14:06Z</time>
      </trkpt>
      <trkpt lat="45.60346" lon="4.97879">
        <ele>351</ele>
        <time>2011-10-15T07:14:07Z</time>
      </trkpt>
      <trkpt lat="45.60346" lon="4.97875">
        <ele>351</ele>
        <time>2011-10-15T07:14:08Z</time>
      </trkpt>
      <trkpt lat="45.60345" lon="4.97872">
        <ele>351</ele>
        <time>2011-10-15T07:14:09Z</time>
      </trkpt>
      <trkpt lat="45.60344" lon="4.97852">
        <ele>350</ele>
        <time>2011-10-15T07:14:14Z</time>
      </trkpt>
      <trkpt lat="45.60343" lon="4.97847">
        <ele>351</ele>
        <time>2011-10-15T07:14:15Z</time>
      </trkpt>
      <trkpt lat="45.60342" lon="4.97843">
        <ele>350</ele>
        <time>2011-10-15T07:14:16Z</time>
      </trkpt>
      <trkpt lat="45.60337" lon="4.97815">
        <ele>349</ele>
        <time>2011-10-15T07:14:22Z</time>
      </trkpt>
      <trkpt lat="45.60334" lon="4.97784">
        <ele>349</ele>
        <time>2011-10-15T07:14:28Z</time>
      </trkpt>
      <trkpt lat="45.60332" lon="4.97763">
        <ele>349</ele>
        <time>2011-10-15T07:14:33Z</time>
      </trkpt>
      <trkpt lat="45.60331" lon="4.97759">
        <ele>349</ele>
        <time>2011-10-15T07:14:34Z</time>
      </trkpt>
      <trkpt lat="45.6033" lon="4.97755">
        <ele>349</ele>
        <time>2011-10-15T07:14:35Z</time>
      </trkpt>
      <trkpt lat="45.6033" lon="4.97752">
        <ele>349</ele>
        <time>2011-10-15T07:14:36Z</time>
      </trkpt>
      <trkpt lat="45.6033" lon="4.97749">
        <ele>349</ele>
        <time>2011-10-15T07:14:37Z</time>
      </trkpt>
      <trkpt lat="45.6033" lon="4.97746">
        <ele>349</ele>
        <time>2011-10-15T07:14:38Z</time>
      </trkpt>
      <trkpt lat="45.6033" lon="4.97743">
        <ele>349</ele>
        <time>2011-10-15T07:14:39Z</time>
      </trkpt>
      <trkpt lat="45.6033" lon="4.9774">
        <ele>349</ele>
        <time>2011-10-15T07:14:40Z</time>
      </trkpt>
      <trkpt lat="45.60329" lon="4.97737">
        <ele>349</ele>
        <time>2011-10-15T07:14:41Z</time>
      </trkpt>
      <trkpt lat="45.60326" lon="4.97718">
        <ele>348</ele>
        <time>2011-10-15T07:14:46Z</time>
      </trkpt>
      <trkpt lat="45.60325" lon="4.97715">
        <ele>349</ele>
        <time>2011-10-15T07:14:47Z</time>
      </trkpt>
      <trkpt lat="45.60326" lon="4.97711">
        <ele>349</ele>
        <time>2011-10-15T07:14:48Z</time>
      </trkpt>
      <trkpt lat="45.60327" lon="4.97707">
        <ele>349</ele>
        <time>2011-10-15T07:14:49Z</time>
      </trkpt>
      <trkpt lat="45.60329" lon="4.97705">
        <ele>348</ele>
        <time>2011-10-15T07:14:50Z</time>
      </trkpt>
      <trkpt lat="45.60337" lon="4.97699">
        <ele>349</ele>
        <time>2011-10-15T07:14:54Z</time>
      </trkpt>
      <trkpt lat="45.60338" lon="4.97698">
        <ele>348</ele>
        <time>2011-10-15T07:14:55Z</time>
      </trkpt>
      <trkpt lat="45.60345" lon="4.97693">
        <ele>348</ele>
        <time>2011-10-15T07:14:59Z</time>
      </trkpt>
      <trkpt lat="45.60346" lon="4.97692">
        <ele>348</ele>
        <time>2011-10-15T07:15:00Z</time>
      </trkpt>
      <trkpt lat="45.60348" lon="4.97689">
        <ele>347</ele>
        <time>2011-10-15T07:15:01Z</time>
      </trkpt>
      <trkpt lat="45.60351" lon="4.97687">
        <ele>347</ele>
        <time>2011-10-15T07:15:02Z</time>
      </trkpt>
      <trkpt lat="45.60353" lon="4.97684">
        <ele>346</ele>
        <time>2011-10-15T07:15:03Z</time>
      </trkpt>
      <trkpt lat="45.60354" lon="4.9768">
        <ele>346</ele>
        <time>2011-10-15T07:15:04Z</time>
      </trkpt>
      <trkpt lat="45.60354" lon="4.97674">
        <ele>345</ele>
        <time>2011-10-15T07:15:05Z</time>
      </trkpt>
      <trkpt lat="45.60355" lon="4.97668">
        <ele>344</ele>
        <time>2011-10-15T07:15:06Z</time>
      </trkpt>
      <trkpt lat="45.60355" lon="4.97663">
        <ele>343</ele>
        <time>2011-10-15T07:15:07Z</time>
      </trkpt>
      <trkpt lat="45.60354" lon="4.9765">
        <ele>340</ele>
        <time>2011-10-15T07:15:09Z</time>
      </trkpt>
      <trkpt lat="45.60348" lon="4.97629">
        <ele>337</ele>
        <time>2011-10-15T07:15:12Z</time>
      </trkpt>
      <trkpt lat="45.60348" lon="4.97623">
        <ele>336</ele>
        <time>2011-10-15T07:15:13Z</time>
      </trkpt>
      <trkpt lat="45.60349" lon="4.97617">
        <ele>335</ele>
        <time>2011-10-15T07:15:14Z</time>
      </trkpt>
      <trkpt lat="45.60351" lon="4.97612">
        <ele>334</ele>
        <time>2011-10-15T07:15:15Z</time>
      </trkpt>
      <trkpt lat="45.60353" lon="4.9761">
        <ele>333</ele>
        <time>2011-10-15T07:15:16Z</time>
      </trkpt>
      <trkpt lat="45.60355" lon="4.97609">
        <ele>333</ele>
        <time>2011-10-15T07:15:17Z</time>
      </trkpt>
      <trkpt lat="45.60358" lon="4.9761">
        <ele>332</ele>
        <time>2011-10-15T07:15:18Z</time>
      </trkpt>
      <trkpt lat="45.60361" lon="4.97611">
        <ele>332</ele>
        <time>2011-10-15T07:15:19Z</time>
      </trkpt>
      <trkpt lat="45.60366" lon="4.97611">
        <ele>330</ele>
        <time>2011-10-15T07:15:20Z</time>
      </trkpt>
      <trkpt lat="45.60372" lon="4.97611">
        <ele>328</ele>
        <time>2011-10-15T07:15:21Z</time>
      </trkpt>
      <trkpt lat="45.60378" lon="4.97609">
        <ele>327</ele>
        <time>2011-10-15T07:15:22Z</time>
      </trkpt>
      <trkpt lat="45.60384" lon="4.97605">
        <ele>326</ele>
        <time>2011-10-15T07:15:23Z</time>
      </trkpt>
      <trkpt lat="45.60399" lon="4.97594">
        <ele>322</ele>
        <time>2011-10-15T07:15:25Z</time>
      </trkpt>
      <trkpt lat="45.60408" lon="4.97591">
        <ele>320</ele>
        <time>2011-10-15T07:15:26Z</time>
      </trkpt>
      <trkpt lat="45.60416" lon="4.97589">
        <ele>319</ele>
        <time>2011-10-15T07:15:27Z</time>
      </trkpt>
      <trkpt lat="45.60424" lon="4.97587">
        <ele>318</ele>
        <time>2011-10-15T07:15:28Z</time>
      </trkpt>
      <trkpt lat="45.6043" lon="4.97586">
        <ele>317</ele>
        <time>2011-10-15T07:15:29Z</time>
      </trkpt>
      <trkpt lat="45.60436" lon="4.97586">
        <ele>317</ele>
        <time>2011-10-15T07:15:30Z</time>
      </trkpt>
      <trkpt lat="45.60441" lon="4.97589">
        <ele>316</ele>
        <time>2011-10-15T07:15:31Z</time>
      </trkpt>
      <trkpt lat="45.60446" lon="4.97594">
        <ele>316</ele>
        <time>2011-10-15T07:15:32Z</time>
      </trkpt>
      <trkpt lat="45.60449" lon="4.97599">
        <ele>316</ele>
        <time>2011-10-15T07:15:33Z</time>
      </trkpt>
      <trkpt lat="45.60451" lon="4.97604">
        <ele>315</ele>
        <time>2011-10-15T07:15:34Z</time>
      </trkpt>
      <trkpt lat="45.60454" lon="4.97608">
        <ele>315</ele>
        <time>2011-10-15T07:15:35Z</time>
      </trkpt>
      <trkpt lat="45.60457" lon="4.97612">
        <ele>315</ele>
        <time>2011-10-15T07:15:36Z</time>
      </trkpt>
      <trkpt lat="45.6046" lon="4.97614">
        <ele>315</ele>
        <time>2011-10-15T07:15:37Z</time>
      </trkpt>
      <trkpt lat="45.60462" lon="4.97616">
        <ele>315</ele>
        <time>2011-10-15T07:15:38Z</time>
      </trkpt>
      <trkpt lat="45.60478" lon="4.97633">
        <ele>314</ele>
        <time>2011-10-15T07:15:44Z</time>
      </trkpt>
      <trkpt lat="45.60484" lon="4.97647">
        <ele>314</ele>
        <time>2011-10-15T07:15:48Z</time>
      </trkpt>
      <trkpt lat="45.60483" lon="4.97661">
        <ele>314</ele>
        <time>2011-10-15T07:15:52Z</time>
      </trkpt>
      <trkpt lat="45.60484" lon="4.97671">
        <ele>315</ele>
        <time>2011-10-15T07:15:55Z</time>
      </trkpt>
      <trkpt lat="45.6049" lon="4.97701">
        <ele>315</ele>
        <time>2011-10-15T07:16:03Z</time>
      </trkpt>
      <trkpt lat="45.605" lon="4.97721">
        <ele>315</ele>
        <time>2011-10-15T07:16:08Z</time>
      </trkpt>
      <trkpt lat="45.60512" lon="4.97741">
        <ele>316</ele>
        <time>2011-10-15T07:16:13Z</time>
      </trkpt>
      <trkpt lat="45.60524" lon="4.97761">
        <ele>317</ele>
        <time>2011-10-15T07:16:18Z</time>
      </trkpt>
      <trkpt lat="45.6054" lon="4.97787">
        <ele>319</ele>
        <time>2011-10-15T07:16:25Z</time>
      </trkpt>
      <trkpt lat="45.60542" lon="4.97805">
        <ele>319</ele>
        <time>2011-10-15T07:16:31Z</time>
      </trkpt>
      <trkpt lat="45.60547" lon="4.97821">
        <ele>319</ele>
        <time>2011-10-15T07:16:37Z</time>
      </trkpt>
      <trkpt lat="45.60562" lon="4.97828">
        <ele>320</ele>
        <time>2011-10-15T07:16:42Z</time>
      </trkpt>
      <trkpt lat="45.60577" lon="4.97841">
        <ele>318</ele>
        <time>2011-10-15T07:16:47Z</time>
      </trkpt>
      <trkpt lat="45.6058" lon="4.97845">
        <ele>318</ele>
        <time>2011-10-15T07:16:48Z</time>
      </trkpt>
      <trkpt lat="45.60582" lon="4.97849">
        <ele>318</ele>
        <time>2011-10-15T07:16:49Z</time>
      </trkpt>
      <trkpt lat="45.60586" lon="4.97851">
        <ele>318</ele>
        <time>2011-10-15T07:16:50Z</time>
      </trkpt>
      <trkpt lat="45.60588" lon="4.97854">
        <ele>318</ele>
        <time>2011-10-15T07:16:51Z</time>
      </trkpt>
      <trkpt lat="45.6059" lon="4.97857">
        <ele>318</ele>
        <time>2011-10-15T07:16:52Z</time>
      </trkpt>
      <trkpt lat="45.6059" lon="4.97859">
        <ele>318</ele>
        <time>2011-10-15T07:16:53Z</time>
      </trkpt>
      <trkpt lat="45.60591" lon="4.97863">
        <ele>318</ele>
        <time>2011-10-15T07:16:54Z</time>
      </trkpt>
      <trkpt lat="45.60591" lon="4.97866">
        <ele>318</ele>
        <time>2011-10-15T07:16:55Z</time>
      </trkpt>
      <trkpt lat="45.60591" lon="4.97876">
        <ele>319</ele>
        <time>2011-10-15T07:16:58Z</time>
      </trkpt>
      <trkpt lat="45.60601" lon="4.97898">
        <ele>320</ele>
        <time>2011-10-15T07:17:04Z</time>
      </trkpt>
      <trkpt lat="45.60602" lon="4.97903">
        <ele>319</ele>
        <time>2011-10-15T07:17:05Z</time>
      </trkpt>
      <trkpt lat="45.60602" lon="4.97907">
        <ele>319</ele>
        <time>2011-10-15T07:17:06Z</time>
      </trkpt>
      <trkpt lat="45.60601" lon="4.97911">
        <ele>319</ele>
        <time>2011-10-15T07:17:07Z</time>
      </trkpt>
      <trkpt lat="45.606" lon="4.97916">
        <ele>320</ele>
        <time>2011-10-15T07:17:08Z</time>
      </trkpt>
      <trkpt lat="45.606" lon="4.9792">
        <ele>319</ele>
        <time>2011-10-15T07:17:09Z</time>
      </trkpt>
      <trkpt lat="45.606" lon="4.97924">
        <ele>320</ele>
        <time>2011-10-15T07:17:10Z</time>
      </trkpt>
      <trkpt lat="45.60601" lon="4.97929">
        <ele>320</ele>
        <time>2011-10-15T07:17:11Z</time>
      </trkpt>
      <trkpt lat="45.60602" lon="4.97934">
        <ele>320</ele>
        <time>2011-10-15T07:17:12Z</time>
      </trkpt>
      <trkpt lat="45.60603" lon="4.97938">
        <ele>321</ele>
        <time>2011-10-15T07:17:13Z</time>
      </trkpt>
      <trkpt lat="45.60603" lon="4.97942">
        <ele>321</ele>
        <time>2011-10-15T07:17:14Z</time>
      </trkpt>
      <trkpt lat="45.60603" lon="4.97946">
        <ele>321</ele>
        <time>2011-10-15T07:17:15Z</time>
      </trkpt>
      <trkpt lat="45.60604" lon="4.97951">
        <ele>321</ele>
        <time>2011-10-15T07:17:16Z</time>
      </trkpt>
      <trkpt lat="45.60603" lon="4.97954">
        <ele>321</ele>
        <time>2011-10-15T07:17:17Z</time>
      </trkpt>
      <trkpt lat="45.60603" lon="4.97958">
        <ele>322</ele>
        <time>2011-10-15T07:17:18Z</time>
      </trkpt>
      <trkpt lat="45.60604" lon="4.97962">
        <ele>321</ele>
        <time>2011-10-15T07:17:19Z</time>
      </trkpt>
      <trkpt lat="45.60603" lon="4.97966">
        <ele>321</ele>
        <time>2011-10-15T07:17:20Z</time>
      </trkpt>
      <trkpt lat="45.60602" lon="4.97969">
        <ele>321</ele>
        <time>2011-10-15T07:17:21Z</time>
      </trkpt>
      <trkpt lat="45.60601" lon="4.97972">
        <ele>321</ele>
        <time>2011-10-15T07:17:22Z</time>
      </trkpt>
      <trkpt lat="45.60602" lon="4.97975">
        <ele>321</ele>
        <time>2011-10-15T07:17:23Z</time>
      </trkpt>
      <trkpt lat="45.60608" lon="4.9798">
        <ele>321</ele>
        <time>2011-10-15T07:17:24Z</time>
      </trkpt>
      <trkpt lat="45.60612" lon="4.97983">
        <ele>320</ele>
        <time>2011-10-15T07:17:25Z</time>
      </trkpt>
      <trkpt lat="45.60616" lon="4.97984">
        <ele>320</ele>
        <time>2011-10-15T07:17:26Z</time>
      </trkpt>
      <trkpt lat="45.6062" lon="4.97983">
        <ele>319</ele>
        <time>2011-10-15T07:17:27Z</time>
      </trkpt>
      <trkpt lat="45.60625" lon="4.97982">
        <ele>318</ele>
        <time>2011-10-15T07:17:28Z</time>
      </trkpt>
      <trkpt lat="45.6063" lon="4.9798">
        <ele>318</ele>
        <time>2011-10-15T07:17:29Z</time>
      </trkpt>
      <trkpt lat="45.60635" lon="4.97976">
        <ele>316</ele>
        <time>2011-10-15T07:17:30Z</time>
      </trkpt>
      <trkpt lat="45.60641" lon="4.97971">
        <ele>316</ele>
        <time>2011-10-15T07:17:31Z</time>
      </trkpt>
      <trkpt lat="45.60656" lon="4.9796">
        <ele>313</ele>
        <time>2011-10-15T07:17:33Z</time>
      </trkpt>
      <trkpt lat="45.60671" lon="4.97946">
        <ele>311</ele>
        <time>2011-10-15T07:17:35Z</time>
      </trkpt>
      <trkpt lat="45.6068" lon="4.9794">
        <ele>310</ele>
        <time>2011-10-15T07:17:36Z</time>
      </trkpt>
      <trkpt lat="45.60689" lon="4.97934">
        <ele>308</ele>
        <time>2011-10-15T07:17:37Z</time>
      </trkpt>
      <trkpt lat="45.60698" lon="4.97928">
        <ele>306</ele>
        <time>2011-10-15T07:17:38Z</time>
      </trkpt>
      <trkpt lat="45.60707" lon="4.97922">
        <ele>304</ele>
        <time>2011-10-15T07:17:39Z</time>
      </trkpt>
      <trkpt lat="45.60724" lon="4.97909">
        <ele>301</ele>
        <time>2011-10-15T07:17:41Z</time>
      </trkpt>
      <trkpt lat="45.60743" lon="4.97893">
        <ele>297</ele>
        <time>2011-10-15T07:17:44Z</time>
      </trkpt>
      <trkpt lat="45.6075" lon="4.97887">
        <ele>297</ele>
        <time>2011-10-15T07:17:45Z</time>
      </trkpt>
      <trkpt lat="45.60755" lon="4.9788">
        <ele>295</ele>
        <time>2011-10-15T07:17:46Z</time>
      </trkpt>
      <trkpt lat="45.60761" lon="4.97871">
        <ele>295</ele>
        <time>2011-10-15T07:17:47Z</time>
      </trkpt>
      <trkpt lat="45.60774" lon="4.97851">
        <ele>292</ele>
        <time>2011-10-15T07:17:49Z</time>
      </trkpt>
      <trkpt lat="45.60795" lon="4.97817">
        <ele>288</ele>
        <time>2011-10-15T07:17:52Z</time>
      </trkpt>
      <trkpt lat="45.60813" lon="4.97792">
        <ele>285</ele>
        <time>2011-10-15T07:17:54Z</time>
      </trkpt>
      <trkpt lat="45.60842" lon="4.97752">
        <ele>280</ele>
        <time>2011-10-15T07:17:57Z</time>
      </trkpt>
      <trkpt lat="45.6086" lon="4.9773">
        <ele>276</ele>
        <time>2011-10-15T07:17:59Z</time>
      </trkpt>
      <trkpt lat="45.60868" lon="4.97722">
        <ele>273</ele>
        <time>2011-10-15T07:18:00Z</time>
      </trkpt>
      <trkpt lat="45.60877" lon="4.97715">
        <ele>271</ele>
        <time>2011-10-15T07:18:01Z</time>
      </trkpt>
      <trkpt lat="45.60887" lon="4.97711">
        <ele>270</ele>
        <time>2011-10-15T07:18:02Z</time>
      </trkpt>
      <trkpt lat="45.60897" lon="4.97708">
        <ele>270</ele>
        <time>2011-10-15T07:18:03Z</time>
      </trkpt>
      <trkpt lat="45.60907" lon="4.97707">
        <ele>269</ele>
        <time>2011-10-15T07:18:04Z</time>
      </trkpt>
      <trkpt lat="45.60918" lon="4.97707">
        <ele>269</ele>
        <time>2011-10-15T07:18:05Z</time>
      </trkpt>
      <trkpt lat="45.60928" lon="4.9771">
        <ele>268</ele>
        <time>2011-10-15T07:18:06Z</time>
      </trkpt>
      <trkpt lat="45.60937" lon="4.97716">
        <ele>268</ele>
        <time>2011-10-15T07:18:07Z</time>
      </trkpt>
      <trkpt lat="45.60945" lon="4.97721">
        <ele>268</ele>
        <time>2011-10-15T07:18:08Z</time>
      </trkpt>
      <trkpt lat="45.60966" lon="4.97731">
        <ele>268</ele>
        <time>2011-10-15T07:18:11Z</time>
      </trkpt>
      <trkpt lat="45.60972" lon="4.97736">
        <ele>268</ele>
        <time>2011-10-15T07:18:12Z</time>
      </trkpt>
      <trkpt lat="45.60977" lon="4.97742">
        <ele>268</ele>
        <time>2011-10-15T07:18:13Z</time>
      </trkpt>
      <trkpt lat="45.60986" lon="4.97759">
        <ele>268</ele>
        <time>2011-10-15T07:18:16Z</time>
      </trkpt>
      <trkpt lat="45.60988" lon="4.97764">
        <ele>268</ele>
        <time>2011-10-15T07:18:17Z</time>
      </trkpt>
      <trkpt lat="45.60989" lon="4.97768">
        <ele>268</ele>
        <time>2011-10-15T07:18:18Z</time>
      </trkpt>
      <trkpt lat="45.60989" lon="4.97772">
        <ele>268</ele>
        <time>2011-10-15T07:18:19Z</time>
      </trkpt>
      <trkpt lat="45.60989" lon="4.97776">
        <ele>268</ele>
        <time>2011-10-15T07:18:20Z</time>
      </trkpt>
      <trkpt lat="45.6099" lon="4.9778">
        <ele>268</ele>
        <time>2011-10-15T07:18:21Z</time>
      </trkpt>
      <trkpt lat="45.6099" lon="4.97783">
        <ele>268</ele>
        <time>2011-10-15T07:18:22Z</time>
      </trkpt>
      <trkpt lat="45.60991" lon="4.97787">
        <ele>269</ele>
        <time>2011-10-15T07:18:23Z</time>
      </trkpt>
      <trkpt lat="45.60992" lon="4.9779">
        <ele>269</ele>
        <time>2011-10-15T07:18:24Z</time>
      </trkpt>
      <trkpt lat="45.60992" lon="4.97794">
        <ele>269</ele>
        <time>2011-10-15T07:18:25Z</time>
      </trkpt>
      <trkpt lat="45.60997" lon="4.97825">
        <ele>271</ele>
        <time>2011-10-15T07:18:34Z</time>
      </trkpt>
      <trkpt lat="45.61002" lon="4.97844">
        <ele>272</ele>
        <time>2011-10-15T07:18:40Z</time>
      </trkpt>
      <trkpt lat="45.61007" lon="4.97879">
        <ele>273</ele>
        <time>2011-10-15T07:18:50Z</time>
      </trkpt>
      <trkpt lat="45.61012" lon="4.97911">
        <ele>274</ele>
        <time>2011-10-15T07:18:59Z</time>
      </trkpt>
      <trkpt lat="45.61015" lon="4.97932">
        <ele>275</ele>
        <time>2011-10-15T07:19:05Z</time>
      </trkpt>
      <trkpt lat="45.6102" lon="4.97961">
        <ele>275</ele>
        <time>2011-10-15T07:19:13Z</time>
      </trkpt>
      <trkpt lat="45.61025" lon="4.97989">
        <ele>277</ele>
        <time>2011-10-15T07:19:21Z</time>
      </trkpt>
      <trkpt lat="45.61024" lon="4.97999">
        <ele>277</ele>
        <time>2011-10-15T07:19:24Z</time>
      </trkpt>
      <trkpt lat="45.61023" lon="4.98003">
        <ele>277</ele>
        <time>2011-10-15T07:19:25Z</time>
      </trkpt>
      <trkpt lat="45.61021" lon="4.98007">
        <ele>277</ele>
        <time>2011-10-15T07:19:26Z</time>
      </trkpt>
      <trkpt lat="45.61007" lon="4.98046">
        <ele>276</ele>
        <time>2011-10-15T07:19:34Z</time>
      </trkpt>
      <trkpt lat="45.60996" lon="4.98092">
        <ele>275</ele>
        <time>2011-10-15T07:19:42Z</time>
      </trkpt>
      <trkpt lat="45.60993" lon="4.98133">
        <ele>275</ele>
        <time>2011-10-15T07:19:49Z</time>
      </trkpt>
      <trkpt lat="45.60993" lon="4.98139">
        <ele>275</ele>
        <time>2011-10-15T07:19:50Z</time>
      </trkpt>
      <trkpt lat="45.60992" lon="4.98183">
        <ele>277</ele>
        <time>2011-10-15T07:19:58Z</time>
      </trkpt>
      <trkpt lat="45.60991" lon="4.98216">
        <ele>277</ele>
        <time>2011-10-15T07:20:05Z</time>
      </trkpt>
      <trkpt lat="45.60994" lon="4.98243">
        <ele>277</ele>
        <time>2011-10-15T07:20:11Z</time>
      </trkpt>
      <trkpt lat="45.61007" lon="4.98281">
        <ele>277</ele>
        <time>2011-10-15T07:20:20Z</time>
      </trkpt>
      <trkpt lat="45.61018" lon="4.98304">
        <ele>278</ele>
        <time>2011-10-15T07:20:26Z</time>
      </trkpt>
      <trkpt lat="45.61023" lon="4.98317">
        <ele>278</ele>
        <time>2011-10-15T07:20:29Z</time>
      </trkpt>
      <trkpt lat="45.61026" lon="4.98321">
        <ele>278</ele>
        <time>2011-10-15T07:20:30Z</time>
      </trkpt>
      <trkpt lat="45.61028" lon="4.98325">
        <ele>277</ele>
        <time>2011-10-15T07:20:31Z</time>
      </trkpt>
      <trkpt lat="45.61031" lon="4.98329">
        <ele>278</ele>
        <time>2011-10-15T07:20:32Z</time>
      </trkpt>
      <trkpt lat="45.61033" lon="4.98333">
        <ele>278</ele>
        <time>2011-10-15T07:20:33Z</time>
      </trkpt>
      <trkpt lat="45.61035" lon="4.98336">
        <ele>278</ele>
        <time>2011-10-15T07:20:34Z</time>
      </trkpt>
      <trkpt lat="45.61049" lon="4.98356">
        <ele>278</ele>
        <time>2011-10-15T07:20:40Z</time>
      </trkpt>
      <trkpt lat="45.61068" lon="4.98386">
        <ele>279</ele>
        <time>2011-10-15T07:20:48Z</time>
      </trkpt>
      <trkpt lat="45.61087" lon="4.98419">
        <ele>280</ele>
        <time>2011-10-15T07:20:57Z</time>
      </trkpt>
      <trkpt lat="45.61096" lon="4.98441">
        <ele>280</ele>
        <time>2011-10-15T07:21:03Z</time>
      </trkpt>
      <trkpt lat="45.61103" lon="4.98463">
        <ele>281</ele>
        <time>2011-10-15T07:21:09Z</time>
      </trkpt>
      <trkpt lat="45.61108" lon="4.9849">
        <ele>282</ele>
        <time>2011-10-15T07:21:16Z</time>
      </trkpt>
      <trkpt lat="45.61114" lon="4.9851">
        <ele>283</ele>
        <time>2011-10-15T07:21:21Z</time>
      </trkpt>
      <trkpt lat="45.61119" lon="4.98528">
        <ele>283</ele>
        <time>2011-10-15T07:21:26Z</time>
      </trkpt>
      <trkpt lat="45.61129" lon="4.98556">
        <ele>284</ele>
        <time>2011-10-15T07:21:33Z</time>
      </trkpt>
      <trkpt lat="45.61133" lon="4.9857">
        <ele>284</ele>
        <time>2011-10-15T07:21:37Z</time>
      </trkpt>
      <trkpt lat="45.61134" lon="4.98574">
        <ele>284</ele>
        <time>2011-10-15T07:21:38Z</time>
      </trkpt>
      <trkpt lat="45.61135" lon="4.98578">
        <ele>284</ele>
        <time>2011-10-15T07:21:39Z</time>
      </trkpt>
      <trkpt lat="45.6114" lon="4.98597">
        <ele>284</ele>
        <time>2011-10-15T07:21:44Z</time>
      </trkpt>
      <trkpt lat="45.61148" lon="4.98616">
        <ele>286</ele>
        <time>2011-10-15T07:21:50Z</time>
      </trkpt>
      <trkpt lat="45.61149" lon="4.9862">
        <ele>286</ele>
        <time>2011-10-15T07:21:51Z</time>
      </trkpt>
      <trkpt lat="45.6115" lon="4.98623">
        <ele>286</ele>
        <time>2011-10-15T07:21:52Z</time>
      </trkpt>
      <trkpt lat="45.61152" lon="4.98627">
        <ele>286</ele>
        <time>2011-10-15T07:21:53Z</time>
      </trkpt>
      <trkpt lat="45.61154" lon="4.98632">
        <ele>287</ele>
        <time>2011-10-15T07:21:54Z</time>
      </trkpt>
      <trkpt lat="45.61155" lon="4.98635">
        <ele>286</ele>
        <time>2011-10-15T07:21:55Z</time>
      </trkpt>
      <trkpt lat="45.61156" lon="4.98639">
        <ele>286</ele>
        <time>2011-10-15T07:21:56Z</time>
      </trkpt>
      <trkpt lat="45.61158" lon="4.98643">
        <ele>287</ele>
        <time>2011-10-15T07:21:57Z</time>
      </trkpt>
      <trkpt lat="45.6116" lon="4.98647">
        <ele>287</ele>
        <time>2011-10-15T07:21:58Z</time>
      </trkpt>
      <trkpt lat="45.61161" lon="4.98651">
        <ele>287</ele>
        <time>2011-10-15T07:21:59Z</time>
      </trkpt>
      <trkpt lat="45.61163" lon="4.98655">
        <ele>288</ele>
        <time>2011-10-15T07:22:00Z</time>
      </trkpt>
      <trkpt lat="45.61172" lon="4.98677">
        <ele>288</ele>
        <time>2011-10-15T07:22:07Z</time>
      </trkpt>
      <trkpt lat="45.61172" lon="4.98699">
        <ele>289</ele>
        <time>2011-10-15T07:22:14Z</time>
      </trkpt>
      <trkpt lat="45.61167" lon="4.98721">
        <ele>289</ele>
        <time>2011-10-15T07:22:19Z</time>
      </trkpt>
      <trkpt lat="45.61161" lon="4.9875">
        <ele>288</ele>
        <time>2011-10-15T07:22:26Z</time>
      </trkpt>
      <trkpt lat="45.61165" lon="4.98787">
        <ele>289</ele>
        <time>2011-10-15T07:22:34Z</time>
      </trkpt>
      <trkpt lat="45.61167" lon="4.98814">
        <ele>289</ele>
        <time>2011-10-15T07:22:40Z</time>
      </trkpt>
      <trkpt lat="45.61155" lon="4.98828">
        <ele>290</ele>
        <time>2011-10-15T07:22:46Z</time>
      </trkpt>
      <trkpt lat="45.61144" lon="4.98838">
        <ele>291</ele>
        <time>2011-10-15T07:22:52Z</time>
      </trkpt>
      <trkpt lat="45.61142" lon="4.9884">
        <ele>292</ele>
        <time>2011-10-15T07:22:54Z</time>
      </trkpt>
      <trkpt lat="45.6114" lon="4.98841">
        <ele>291</ele>
        <time>2011-10-15T07:22:55Z</time>
      </trkpt>
      <trkpt lat="45.61122" lon="4.98841">
        <ele>294</ele>
        <time>2011-10-15T07:23:05Z</time>
      </trkpt>
      <trkpt lat="45.61107" lon="4.98843">
        <ele>296</ele>
        <time>2011-10-15T07:23:13Z</time>
      </trkpt>
      <trkpt lat="45.61104" lon="4.98844">
        <ele>296</ele>
        <time>2011-10-15T07:23:15Z</time>
      </trkpt>
      <trkpt lat="45.61102" lon="4.98844">
        <ele>297</ele>
        <time>2011-10-15T07:23:16Z</time>
      </trkpt>
      <trkpt lat="45.611" lon="4.98844">
        <ele>297</ele>
        <time>2011-10-15T07:23:17Z</time>
      </trkpt>
      <trkpt lat="45.61098" lon="4.98844">
        <ele>297</ele>
        <time>2011-10-15T07:23:18Z</time>
      </trkpt>
      <trkpt lat="45.61096" lon="4.98844">
        <ele>297</ele>
        <time>2011-10-15T07:23:19Z</time>
      </trkpt>
      <trkpt lat="45.61094" lon="4.98845">
        <ele>297</ele>
        <time>2011-10-15T07:23:20Z</time>
      </trkpt>
      <trkpt lat="45.61075" lon="4.98855">
        <ele>299</ele>
        <time>2011-10-15T07:23:31Z</time>
      </trkpt>
      <trkpt lat="45.61071" lon="4.98872">
        <ele>299</ele>
        <time>2011-10-15T07:23:38Z</time>
      </trkpt>
      <trkpt lat="45.61073" lon="4.98895">
        <ele>301</ele>
        <time>2011-10-15T07:23:47Z</time>
      </trkpt>
      <trkpt lat="45.61073" lon="4.9891">
        <ele>302</ele>
        <time>2011-10-15T07:23:53Z</time>
      </trkpt>
      <trkpt lat="45.61073" lon="4.98924">
        <ele>303</ele>
        <time>2011-10-15T07:24:00Z</time>
      </trkpt>
      <trkpt lat="45.61076" lon="4.98939">
        <ele>304</ele>
        <time>2011-10-15T07:24:07Z</time>
      </trkpt>
      <trkpt lat="45.61076" lon="4.9895">
        <ele>306</ele>
        <time>2011-10-15T07:24:12Z</time>
      </trkpt>
      <trkpt lat="45.61076" lon="4.98952">
        <ele>306</ele>
        <time>2011-10-15T07:24:13Z</time>
      </trkpt>
      <trkpt lat="45.61076" lon="4.98954">
        <ele>307</ele>
        <time>2011-10-15T07:24:14Z</time>
      </trkpt>
      <trkpt lat="45.61077" lon="4.98956">
        <ele>307</ele>
        <time>2011-10-15T07:24:15Z</time>
      </trkpt>
      <trkpt lat="45.61077" lon="4.98958">
        <ele>307</ele>
        <time>2011-10-15T07:24:16Z</time>
      </trkpt>
      <trkpt lat="45.61077" lon="4.98961">
        <ele>307</ele>
        <time>2011-10-15T07:24:17Z</time>
      </trkpt>
      <trkpt lat="45.61077" lon="4.98963">
        <ele>308</ele>
        <time>2011-10-15T07:24:18Z</time>
      </trkpt>
      <trkpt lat="45.61077" lon="4.98965">
        <ele>308</ele>
        <time>2011-10-15T07:24:19Z</time>
      </trkpt>
      <trkpt lat="45.61078" lon="4.98967">
        <ele>308</ele>
        <time>2011-10-15T07:24:20Z</time>
      </trkpt>
      <trkpt lat="45.61078" lon="4.98969">
        <ele>309</ele>
        <time>2011-10-15T07:24:21Z</time>
      </trkpt>
      <trkpt lat="45.61079" lon="4.98971">
        <ele>308</ele>
        <time>2011-10-15T07:24:22Z</time>
      </trkpt>
      <trkpt lat="45.61079" lon="4.98976">
        <ele>309</ele>
        <time>2011-10-15T07:24:24Z</time>
      </trkpt>
      <trkpt lat="45.61079" lon="4.98978">
        <ele>309</ele>
        <time>2011-10-15T07:24:25Z</time>
      </trkpt>
      <trkpt lat="45.61078" lon="4.9898">
        <ele>309</ele>
        <time>2011-10-15T07:24:26Z</time>
      </trkpt>
      <trkpt lat="45.61077" lon="4.99">
        <ele>311</ele>
        <time>2011-10-15T07:24:35Z</time>
      </trkpt>
      <trkpt lat="45.61077" lon="4.99011">
        <ele>312</ele>
        <time>2011-10-15T07:24:40Z</time>
      </trkpt>
      <trkpt lat="45.61076" lon="4.99013">
        <ele>312</ele>
        <time>2011-10-15T07:24:41Z</time>
      </trkpt>
      <trkpt lat="45.61076" lon="4.99014">
        <ele>313</ele>
        <time>2011-10-15T07:24:42Z</time>
      </trkpt>
      <trkpt lat="45.61076" lon="4.99017">
        <ele>313</ele>
        <time>2011-10-15T07:24:43Z</time>
      </trkpt>
      <trkpt lat="45.61076" lon="4.99019">
        <ele>313</ele>
        <time>2011-10-15T07:24:44Z</time>
      </trkpt>
      <trkpt lat="45.61076" lon="4.99021">
        <ele>313</ele>
        <time>2011-10-15T07:24:45Z</time>
      </trkpt>
      <trkpt lat="45.61075" lon="4.99023">
        <ele>313</ele>
        <time>2011-10-15T07:24:46Z</time>
      </trkpt>
      <trkpt lat="45.61073" lon="4.9904">
        <ele>315</ele>
        <time>2011-10-15T07:24:54Z</time>
      </trkpt>
      <trkpt lat="45.61072" lon="4.99054">
        <ele>317</ele>
        <time>2011-10-15T07:25:01Z</time>
      </trkpt>
      <trkpt lat="45.61072" lon="4.99074">
        <ele>319</ele>
        <time>2011-10-15T07:25:10Z</time>
      </trkpt>
      <trkpt lat="45.61073" lon="4.99093">
        <ele>321</ele>
        <time>2011-10-15T07:25:19Z</time>
      </trkpt>
      <trkpt lat="45.61073" lon="4.99112">
        <ele>322</ele>
        <time>2011-10-15T07:25:28Z</time>
      </trkpt>
      <trkpt lat="45.61074" lon="4.99133">
        <ele>325</ele>
        <time>2011-10-15T07:25:38Z</time>
      </trkpt>
      <trkpt lat="45.61075" lon="4.99152">
        <ele>326</ele>
        <time>2011-10-15T07:25:47Z</time>
      </trkpt>
      <trkpt lat="45.61078" lon="4.99174">
        <ele>328</ele>
        <time>2011-10-15T07:25:57Z</time>
      </trkpt>
      <trkpt lat="45.61081" lon="4.99188">
        <ele>329</ele>
        <time>2011-10-15T07:26:04Z</time>
      </trkpt>
      <trkpt lat="45.61081" lon="4.99193">
        <ele>331</ele>
        <time>2011-10-15T07:26:06Z</time>
      </trkpt>
      <trkpt lat="45.61083" lon="4.99205">
        <ele>331</ele>
        <time>2011-10-15T07:26:12Z</time>
      </trkpt>
      <trkpt lat="45.61083" lon="4.99207">
        <ele>331</ele>
        <time>2011-10-15T07:26:13Z</time>
      </trkpt>
      <trkpt lat="45.61083" lon="4.99209">
        <ele>331</ele>
        <time>2011-10-15T07:26:14Z</time>
      </trkpt>
      <trkpt lat="45.61083" lon="4.99212">
        <ele>331</ele>
        <time>2011-10-15T07:26:15Z</time>
      </trkpt>
      <trkpt lat="45.61083" lon="4.99214">
        <ele>331</ele>
        <time>2011-10-15T07:26:16Z</time>
      </trkpt>
      <trkpt lat="45.61083" lon="4.99216">
        <ele>332</ele>
        <time>2011-10-15T07:26:17Z</time>
      </trkpt>
      <trkpt lat="45.61083" lon="4.99218">
        <ele>332</ele>
        <time>2011-10-15T07:26:18Z</time>
      </trkpt>
      <trkpt lat="45.61082" lon="4.9922">
        <ele>332</ele>
        <time>2011-10-15T07:26:19Z</time>
      </trkpt>
      <trkpt lat="45.61082" lon="4.99224">
        <ele>332</ele>
        <time>2011-10-15T07:26:21Z</time>
      </trkpt>
      <trkpt lat="45.61081" lon="4.99226">
        <ele>333</ele>
        <time>2011-10-15T07:26:22Z</time>
      </trkpt>
      <trkpt lat="45.61081" lon="4.99232">
        <ele>333</ele>
        <time>2011-10-15T07:26:25Z</time>
      </trkpt>
      <trkpt lat="45.6108" lon="4.99234">
        <ele>333</ele>
        <time>2011-10-15T07:26:26Z</time>
      </trkpt>
      <trkpt lat="45.6108" lon="4.99236">
        <ele>334</ele>
        <time>2011-10-15T07:26:27Z</time>
      </trkpt>
      <trkpt lat="45.61079" lon="4.99238">
        <ele>334</ele>
        <time>2011-10-15T07:26:28Z</time>
      </trkpt>
      <trkpt lat="45.61079" lon="4.99241">
        <ele>334</ele>
        <time>2011-10-15T07:26:29Z</time>
      </trkpt>
      <trkpt lat="45.61079" lon="4.99243">
        <ele>334</ele>
        <time>2011-10-15T07:26:30Z</time>
      </trkpt>
      <trkpt lat="45.61076" lon="4.99262">
        <ele>336</ele>
        <time>2011-10-15T07:26:39Z</time>
      </trkpt>
      <trkpt lat="45.61076" lon="4.99268">
        <ele>337</ele>
        <time>2011-10-15T07:26:42Z</time>
      </trkpt>
      <trkpt lat="45.61076" lon="4.99271">
        <ele>337</ele>
        <time>2011-10-15T07:26:43Z</time>
      </trkpt>
      <trkpt lat="45.61076" lon="4.99273">
        <ele>337</ele>
        <time>2011-10-15T07:26:44Z</time>
      </trkpt>
      <trkpt lat="45.61074" lon="4.99292">
        <ele>338</ele>
        <time>2011-10-15T07:26:52Z</time>
      </trkpt>
      <trkpt lat="45.6107" lon="4.9931">
        <ele>338</ele>
        <time>2011-10-15T07:27:00Z</time>
      </trkpt>
      <trkpt lat="45.6107" lon="4.99317">
        <ele>339</ele>
        <time>2011-10-15T07:27:03Z</time>
      </trkpt>
      <trkpt lat="45.6107" lon="4.99319">
        <ele>338</ele>
        <time>2011-10-15T07:27:04Z</time>
      </trkpt>
      <trkpt lat="45.6107" lon="4.99322">
        <ele>339</ele>
        <time>2011-10-15T07:27:05Z</time>
      </trkpt>
      <trkpt lat="45.61069" lon="4.99324">
        <ele>339</ele>
        <time>2011-10-15T07:27:06Z</time>
      </trkpt>
      <trkpt lat="45.61069" lon="4.99326">
        <ele>339</ele>
        <time>2011-10-15T07:27:07Z</time>
      </trkpt>
      <trkpt lat="45.61069" lon="4.99328">
        <ele>339</ele>
        <time>2011-10-15T07:27:08Z</time>
      </trkpt>
      <trkpt lat="45.61069" lon="4.99331">
        <ele>339</ele>
        <time>2011-10-15T07:27:09Z</time>
      </trkpt>
      <trkpt lat="45.61069" lon="4.99333">
        <ele>339</ele>
        <time>2011-10-15T07:27:10Z</time>
      </trkpt>
      <trkpt lat="45.61068" lon="4.99335">
        <ele>339</ele>
        <time>2011-10-15T07:27:11Z</time>
      </trkpt>
      <trkpt lat="45.61068" lon="4.99337">
        <ele>339</ele>
        <time>2011-10-15T07:27:12Z</time>
      </trkpt>
      <trkpt lat="45.61067" lon="4.99339">
        <ele>339</ele>
        <time>2011-10-15T07:27:13Z</time>
      </trkpt>
      <trkpt lat="45.61067" lon="4.99342">
        <ele>339</ele>
        <time>2011-10-15T07:27:14Z</time>
      </trkpt>
      <trkpt lat="45.61067" lon="4.99344">
        <ele>340</ele>
        <time>2011-10-15T07:27:15Z</time>
      </trkpt>
      <trkpt lat="45.61066" lon="4.99347">
        <ele>340</ele>
        <time>2011-10-15T07:27:16Z</time>
      </trkpt>
      <trkpt lat="45.61066" lon="4.99349">
        <ele>339</ele>
        <time>2011-10-15T07:27:17Z</time>
      </trkpt>
      <trkpt lat="45.61065" lon="4.99351">
        <ele>340</ele>
        <time>2011-10-15T07:27:18Z</time>
      </trkpt>
      <trkpt lat="45.61065" lon="4.99353">
        <ele>340</ele>
        <time>2011-10-15T07:27:19Z</time>
      </trkpt>
      <trkpt lat="45.61065" lon="4.99356">
        <ele>340</ele>
        <time>2011-10-15T07:27:20Z</time>
      </trkpt>
      <trkpt lat="45.61064" lon="4.99358">
        <ele>340</ele>
        <time>2011-10-15T07:27:21Z</time>
      </trkpt>
      <trkpt lat="45.61064" lon="4.9936">
        <ele>340</ele>
        <time>2011-10-15T07:27:22Z</time>
      </trkpt>
      <trkpt lat="45.61063" lon="4.99362">
        <ele>341</ele>
        <time>2011-10-15T07:27:23Z</time>
      </trkpt>
      <trkpt lat="45.61063" lon="4.99364">
        <ele>341</ele>
        <time>2011-10-15T07:27:24Z</time>
      </trkpt>
      <trkpt lat="45.61058" lon="4.99384">
        <ele>342</ele>
        <time>2011-10-15T07:27:33Z</time>
      </trkpt>
      <trkpt lat="45.61051" lon="4.99404">
        <ele>345</ele>
        <time>2011-10-15T07:27:43Z</time>
      </trkpt>
      <trkpt lat="45.61044" lon="4.99423">
        <ele>347</ele>
        <time>2011-10-15T07:27:52Z</time>
      </trkpt>
      <trkpt lat="45.61041" lon="4.9943">
        <ele>347</ele>
        <time>2011-10-15T07:27:56Z</time>
      </trkpt>
      <trkpt lat="45.6104" lon="4.99433">
        <ele>348</ele>
        <time>2011-10-15T07:27:57Z</time>
      </trkpt>
      <trkpt lat="45.6104" lon="4.99435">
        <ele>348</ele>
        <time>2011-10-15T07:27:58Z</time>
      </trkpt>
      <trkpt lat="45.61036" lon="4.99455">
        <ele>350</ele>
        <time>2011-10-15T07:28:07Z</time>
      </trkpt>
      <trkpt lat="45.61035" lon="4.99466">
        <ele>351</ele>
        <time>2011-10-15T07:28:12Z</time>
      </trkpt>
      <trkpt lat="45.61035" lon="4.99468">
        <ele>351</ele>
        <time>2011-10-15T07:28:13Z</time>
      </trkpt>
      <trkpt lat="45.61035" lon="4.9949">
        <ele>352</ele>
        <time>2011-10-15T07:28:22Z</time>
      </trkpt>
      <trkpt lat="45.61035" lon="4.99516">
        <ele>353</ele>
        <time>2011-10-15T07:28:32Z</time>
      </trkpt>
      <trkpt lat="45.61034" lon="4.99542">
        <ele>354</ele>
        <time>2011-10-15T07:28:41Z</time>
      </trkpt>
      <trkpt lat="45.61029" lon="4.99576">
        <ele>355</ele>
        <time>2011-10-15T07:28:52Z</time>
      </trkpt>
      <trkpt lat="45.61024" lon="4.99601">
        <ele>356</ele>
        <time>2011-10-15T07:28:59Z</time>
      </trkpt>
      <trkpt lat="45.61023" lon="4.99605">
        <ele>353</ele>
        <time>2011-10-15T07:29:00Z</time>
      </trkpt>
      <trkpt lat="45.61018" lon="4.99637">
        <ele>355</ele>
        <time>2011-10-15T07:29:09Z</time>
      </trkpt>
      <trkpt lat="45.61013" lon="4.99661">
        <ele>356</ele>
        <time>2011-10-15T07:29:16Z</time>
      </trkpt>
      <trkpt lat="45.61005" lon="4.9969">
        <ele>358</ele>
        <time>2011-10-15T07:29:26Z</time>
      </trkpt>
      <trkpt lat="45.61" lon="4.99709">
        <ele>360</ele>
        <time>2011-10-15T07:29:33Z</time>
      </trkpt>
      <trkpt lat="45.60994" lon="4.99729">
        <ele>361</ele>
        <time>2011-10-15T07:29:40Z</time>
      </trkpt>
      <trkpt lat="45.60986" lon="4.99758">
        <ele>362</ele>
        <time>2011-10-15T07:29:49Z</time>
      </trkpt>
      <trkpt lat="45.60978" lon="4.99788">
        <ele>362</ele>
        <time>2011-10-15T07:29:58Z</time>
      </trkpt>
      <trkpt lat="45.60977" lon="4.99812">
        <ele>364</ele>
        <time>2011-10-15T07:30:06Z</time>
      </trkpt>
      <trkpt lat="45.60982" lon="4.99835">
        <ele>365</ele>
        <time>2011-10-15T07:30:14Z</time>
      </trkpt>
      <trkpt lat="45.60985" lon="4.99865">
        <ele>367</ele>
        <time>2011-10-15T07:30:24Z</time>
      </trkpt>
      <trkpt lat="45.60987" lon="4.99894">
        <ele>368</ele>
        <time>2011-10-15T07:30:34Z</time>
      </trkpt>
      <trkpt lat="45.60984" lon="4.99919">
        <ele>368</ele>
        <time>2011-10-15T07:30:43Z</time>
      </trkpt>
      <trkpt lat="45.60984" lon="4.99922">
        <ele>368</ele>
        <time>2011-10-15T07:30:44Z</time>
      </trkpt>
      <trkpt lat="45.60984" lon="4.99924">
        <ele>369</ele>
        <time>2011-10-15T07:30:45Z</time>
      </trkpt>
      <trkpt lat="45.60984" lon="4.99926">
        <ele>368</ele>
        <time>2011-10-15T07:30:46Z</time>
      </trkpt>
      <trkpt lat="45.60984" lon="4.99928">
        <ele>368</ele>
        <time>2011-10-15T07:30:47Z</time>
      </trkpt>
      <trkpt lat="45.60984" lon="4.99934">
        <ele>368</ele>
        <time>2011-10-15T07:30:49Z</time>
      </trkpt>
      <trkpt lat="45.60982" lon="4.99936">
        <ele>368</ele>
        <time>2011-10-15T07:30:50Z</time>
      </trkpt>
      <trkpt lat="45.60981" lon="4.99939">
        <ele>368</ele>
        <time>2011-10-15T07:30:51Z</time>
      </trkpt>
      <trkpt lat="45.60981" lon="4.99943">
        <ele>368</ele>
        <time>2011-10-15T07:30:52Z</time>
      </trkpt>
      <trkpt lat="45.6098" lon="4.99947">
        <ele>367</ele>
        <time>2011-10-15T07:30:53Z</time>
      </trkpt>
      <trkpt lat="45.6098" lon="4.99952">
        <ele>368</ele>
        <time>2011-10-15T07:30:54Z</time>
      </trkpt>
      <trkpt lat="45.60971" lon="4.99993">
        <ele>366</ele>
        <time>2011-10-15T07:31:01Z</time>
      </trkpt>
      <trkpt lat="45.60952" lon="5.00056">
        <ele>365</ele>
        <time>2011-10-15T07:31:10Z</time>
      </trkpt>
      <trkpt lat="45.60942" lon="5.00085">
        <ele>364</ele>
        <time>2011-10-15T07:31:14Z</time>
      </trkpt>
      <trkpt lat="45.60916" lon="5.00153">
        <ele>363</ele>
        <time>2011-10-15T07:31:23Z</time>
      </trkpt>
      <trkpt lat="45.60893" lon="5.00226">
        <ele>361</ele>
        <time>2011-10-15T07:31:32Z</time>
      </trkpt>
      <trkpt lat="45.60874" lon="5.00293">
        <ele>359</ele>
        <time>2011-10-15T07:31:41Z</time>
      </trkpt>
      <trkpt lat="45.6085" lon="5.00362">
        <ele>360</ele>
        <time>2011-10-15T07:31:51Z</time>
      </trkpt>
      <trkpt lat="45.60831" lon="5.00412">
        <ele>360</ele>
        <time>2011-10-15T07:31:59Z</time>
      </trkpt>
      <trkpt lat="45.6083" lon="5.00418">
        <ele>360</ele>
        <time>2011-10-15T07:32:00Z</time>
      </trkpt>
      <trkpt lat="45.6083" lon="5.00424">
        <ele>359</ele>
        <time>2011-10-15T07:32:01Z</time>
      </trkpt>
      <trkpt lat="45.60829" lon="5.0043">
        <ele>360</ele>
        <time>2011-10-15T07:32:02Z</time>
      </trkpt>
      <trkpt lat="45.6083" lon="5.00437">
        <ele>359</ele>
        <time>2011-10-15T07:32:03Z</time>
      </trkpt>
      <trkpt lat="45.6083" lon="5.00444">
        <ele>360</ele>
        <time>2011-10-15T07:32:04Z</time>
      </trkpt>
      <trkpt lat="45.60831" lon="5.00451">
        <ele>360</ele>
        <time>2011-10-15T07:32:05Z</time>
      </trkpt>
      <trkpt lat="45.60841" lon="5.00504">
        <ele>361</ele>
        <time>2011-10-15T07:32:13Z</time>
      </trkpt>
      <trkpt lat="45.60852" lon="5.00553">
        <ele>362</ele>
        <time>2011-10-15T07:32:21Z</time>
      </trkpt>
      <trkpt lat="45.60872" lon="5.00606">
        <ele>362</ele>
        <time>2011-10-15T07:32:30Z</time>
      </trkpt>
      <trkpt lat="45.60889" lon="5.00654">
        <ele>363</ele>
        <time>2011-10-15T07:32:38Z</time>
      </trkpt>
      <trkpt lat="45.60898" lon="5.00686">
        <ele>363</ele>
        <time>2011-10-15T07:32:43Z</time>
      </trkpt>
      <trkpt lat="45.609" lon="5.00692">
        <ele>364</ele>
        <time>2011-10-15T07:32:44Z</time>
      </trkpt>
      <trkpt lat="45.60906" lon="5.00709">
        <ele>364</ele>
        <time>2011-10-15T07:32:47Z</time>
      </trkpt>
      <trkpt lat="45.60908" lon="5.00716">
        <ele>364</ele>
        <time>2011-10-15T07:32:48Z</time>
      </trkpt>
      <trkpt lat="45.6092" lon="5.0075">
        <ele>364</ele>
        <time>2011-10-15T07:32:54Z</time>
      </trkpt>
      <trkpt lat="45.60924" lon="5.00762">
        <ele>364</ele>
        <time>2011-10-15T07:32:56Z</time>
      </trkpt>
      <trkpt lat="45.60939" lon="5.00803">
        <ele>365</ele>
        <time>2011-10-15T07:33:04Z</time>
      </trkpt>
      <trkpt lat="45.60956" lon="5.00837">
        <ele>367</ele>
        <time>2011-10-15T07:33:12Z</time>
      </trkpt>
      <trkpt lat="45.60975" lon="5.00861">
        <ele>368</ele>
        <time>2011-10-15T07:33:20Z</time>
      </trkpt>
      <trkpt lat="45.60991" lon="5.00878">
        <ele>369</ele>
        <time>2011-10-15T07:33:26Z</time>
      </trkpt>
      <trkpt lat="45.61008" lon="5.00899">
        <ele>370</ele>
        <time>2011-10-15T07:33:34Z</time>
      </trkpt>
      <trkpt lat="45.61022" lon="5.00925">
        <ele>373</ele>
        <time>2011-10-15T07:33:43Z</time>
      </trkpt>
      <trkpt lat="45.61033" lon="5.00946">
        <ele>374</ele>
        <time>2011-10-15T07:33:51Z</time>
      </trkpt>
      <trkpt lat="45.61047" lon="5.00966">
        <ele>376</ele>
        <time>2011-10-15T07:33:59Z</time>
      </trkpt>
      <trkpt lat="45.61062" lon="5.00987">
        <ele>377</ele>
        <time>2011-10-15T07:34:07Z</time>
      </trkpt>
      <trkpt lat="45.61075" lon="5.01007">
        <ele>378</ele>
        <time>2011-10-15T07:34:14Z</time>
      </trkpt>
      <trkpt lat="45.61085" lon="5.01022">
        <ele>378</ele>
        <time>2011-10-15T07:34:20Z</time>
      </trkpt>
      <trkpt lat="45.61095" lon="5.01037">
        <ele>380</ele>
        <time>2011-10-15T07:34:26Z</time>
      </trkpt>
      <trkpt lat="45.61103" lon="5.0105">
        <ele>380</ele>
        <time>2011-10-15T07:34:33Z</time>
      </trkpt>
      <trkpt lat="45.61103" lon="5.0105">
        <ele>380</ele>
        <time>2011-10-15T07:34:42Z</time>
      </trkpt>
      <trkpt lat="45.61103" lon="5.0105">
        <ele>380</ele>
        <time>2011-10-15T07:34:57Z</time>
      </trkpt>
      <trkpt lat="45.61103" lon="5.0105">
        <ele>380</ele>
        <time>2011-10-15T07:35:04Z</time>
      </trkpt>
      <trkpt lat="45.61106" lon="5.01058">
        <ele>380</ele>
        <time>2011-10-15T07:35:09Z</time>
      </trkpt>
      <trkpt lat="45.61114" lon="5.01071">
        <ele>380</ele>
        <time>2011-10-15T07:35:14Z</time>
      </trkpt>
      <trkpt lat="45.61124" lon="5.01089">
        <ele>380</ele>
        <time>2011-10-15T07:35:20Z</time>
      </trkpt>
      <trkpt lat="45.61132" lon="5.01105">
        <ele>379</ele>
        <time>2011-10-15T07:35:24Z</time>
      </trkpt>
      <trkpt lat="45.61141" lon="5.01121">
        <ele>377</ele>
        <time>2011-10-15T07:35:27Z</time>
      </trkpt>
      <trkpt lat="45.61143" lon="5.01127">
        <ele>376</ele>
        <time>2011-10-15T07:35:28Z</time>
      </trkpt>
      <trkpt lat="45.61146" lon="5.01132">
        <ele>376</ele>
        <time>2011-10-15T07:35:29Z</time>
      </trkpt>
      <trkpt lat="45.61149" lon="5.01137">
        <ele>374</ele>
        <time>2011-10-15T07:35:30Z</time>
      </trkpt>
      <trkpt lat="45.61151" lon="5.01142">
        <ele>373</ele>
        <time>2011-10-15T07:35:31Z</time>
      </trkpt>
      <trkpt lat="45.61154" lon="5.01147">
        <ele>373</ele>
        <time>2011-10-15T07:35:32Z</time>
      </trkpt>
      <trkpt lat="45.61155" lon="5.01153">
        <ele>373</ele>
        <time>2011-10-15T07:35:33Z</time>
      </trkpt>
      <trkpt lat="45.61155" lon="5.01168">
        <ele>372</ele>
        <time>2011-10-15T07:35:35Z</time>
      </trkpt>
      <trkpt lat="45.61166" lon="5.0123">
        <ele>369</ele>
        <time>2011-10-15T07:35:42Z</time>
      </trkpt>
      <trkpt lat="45.61171" lon="5.01249">
        <ele>368</ele>
        <time>2011-10-15T07:35:44Z</time>
      </trkpt>
      <trkpt lat="45.61187" lon="5.01321">
        <ele>366</ele>
        <time>2011-10-15T07:35:51Z</time>
      </trkpt>
      <trkpt lat="45.61207" lon="5.01406">
        <ele>363</ele>
        <time>2011-10-15T07:36:00Z</time>
      </trkpt>
      <trkpt lat="45.61219" lon="5.01466">
        <ele>362</ele>
        <time>2011-10-15T07:36:07Z</time>
      </trkpt>
      <trkpt lat="45.61229" lon="5.01523">
        <ele>361</ele>
        <time>2011-10-15T07:36:14Z</time>
      </trkpt>
      <trkpt lat="45.61244" lon="5.01569">
        <ele>359</ele>
        <time>2011-10-15T07:36:20Z</time>
      </trkpt>
      <trkpt lat="45.61247" lon="5.01576">
        <ele>359</ele>
        <time>2011-10-15T07:36:21Z</time>
      </trkpt>
      <trkpt lat="45.61272" lon="5.01646">
        <ele>359</ele>
        <time>2011-10-15T07:36:30Z</time>
      </trkpt>
      <trkpt lat="45.61301" lon="5.01706">
        <ele>359</ele>
        <time>2011-10-15T07:36:38Z</time>
      </trkpt>
      <trkpt lat="45.61341" lon="5.01776">
        <ele>357</ele>
        <time>2011-10-15T07:36:48Z</time>
      </trkpt>
      <trkpt lat="45.61358" lon="5.01807">
        <ele>355</ele>
        <time>2011-10-15T07:36:52Z</time>
      </trkpt>
      <trkpt lat="45.61361" lon="5.01816">
        <ele>355</ele>
        <time>2011-10-15T07:36:53Z</time>
      </trkpt>
      <trkpt lat="45.61362" lon="5.01826">
        <ele>354</ele>
        <time>2011-10-15T07:36:54Z</time>
      </trkpt>
      <trkpt lat="45.61362" lon="5.01837">
        <ele>355</ele>
        <time>2011-10-15T07:36:55Z</time>
      </trkpt>
      <trkpt lat="45.61362" lon="5.01847">
        <ele>354</ele>
        <time>2011-10-15T07:36:56Z</time>
      </trkpt>
      <trkpt lat="45.61363" lon="5.01857">
        <ele>354</ele>
        <time>2011-10-15T07:36:57Z</time>
      </trkpt>
      <trkpt lat="45.61364" lon="5.01867">
        <ele>353</ele>
        <time>2011-10-15T07:36:58Z</time>
      </trkpt>
      <trkpt lat="45.61364" lon="5.01876">
        <ele>353</ele>
        <time>2011-10-15T07:36:59Z</time>
      </trkpt>
      <trkpt lat="45.61364" lon="5.01886">
        <ele>353</ele>
        <time>2011-10-15T07:37:00Z</time>
      </trkpt>
      <trkpt lat="45.61363" lon="5.01896">
        <ele>352</ele>
        <time>2011-10-15T07:37:01Z</time>
      </trkpt>
      <trkpt lat="45.61362" lon="5.01905">
        <ele>352</ele>
        <time>2011-10-15T07:37:02Z</time>
      </trkpt>
      <trkpt lat="45.61361" lon="5.01914">
        <ele>352</ele>
        <time>2011-10-15T07:37:03Z</time>
      </trkpt>
      <trkpt lat="45.61361" lon="5.01923">
        <ele>352</ele>
        <time>2011-10-15T07:37:04Z</time>
      </trkpt>
      <trkpt lat="45.61364" lon="5.01931">
        <ele>352</ele>
        <time>2011-10-15T07:37:05Z</time>
      </trkpt>
      <trkpt lat="45.61369" lon="5.01935">
        <ele>352</ele>
        <time>2011-10-15T07:37:06Z</time>
      </trkpt>
      <trkpt lat="45.61375" lon="5.01939">
        <ele>352</ele>
        <time>2011-10-15T07:37:07Z</time>
      </trkpt>
      <trkpt lat="45.61387" lon="5.01946">
        <ele>352</ele>
        <time>2011-10-15T07:37:09Z</time>
      </trkpt>
      <trkpt lat="45.61412" lon="5.0196">
        <ele>351</ele>
        <time>2011-10-15T07:37:13Z</time>
      </trkpt>
      <trkpt lat="45.61419" lon="5.01963">
        <ele>351</ele>
        <time>2011-10-15T07:37:14Z</time>
      </trkpt>
      <trkpt lat="45.61462" lon="5.01986">
        <ele>350</ele>
        <time>2011-10-15T07:37:20Z</time>
      </trkpt>
      <trkpt lat="45.61508" lon="5.02013">
        <ele>346</ele>
        <time>2011-10-15T07:37:26Z</time>
      </trkpt>
      <trkpt lat="45.61541" lon="5.02032">
        <ele>345</ele>
        <time>2011-10-15T07:37:30Z</time>
      </trkpt>
      <trkpt lat="45.61548" lon="5.02038">
        <ele>344</ele>
        <time>2011-10-15T07:37:31Z</time>
      </trkpt>
      <trkpt lat="45.61562" lon="5.02052">
        <ele>342</ele>
        <time>2011-10-15T07:37:33Z</time>
      </trkpt>
      <trkpt lat="45.61569" lon="5.02059">
        <ele>342</ele>
        <time>2011-10-15T07:37:34Z</time>
      </trkpt>
      <trkpt lat="45.61593" lon="5.0208">
        <ele>339</ele>
        <time>2011-10-15T07:37:38Z</time>
      </trkpt>
      <trkpt lat="45.61623" lon="5.02105">
        <ele>338</ele>
        <time>2011-10-15T07:37:43Z</time>
      </trkpt>
      <trkpt lat="45.61648" lon="5.02127">
        <ele>335</ele>
        <time>2011-10-15T07:37:47Z</time>
      </trkpt>
      <trkpt lat="45.61655" lon="5.02132">
        <ele>333</ele>
        <time>2011-10-15T07:37:48Z</time>
      </trkpt>
      <trkpt lat="45.61663" lon="5.02138">
        <ele>332</ele>
        <time>2011-10-15T07:37:49Z</time>
      </trkpt>
      <trkpt lat="45.61685" lon="5.0216">
        <ele>328</ele>
        <time>2011-10-15T07:37:52Z</time>
      </trkpt>
      <trkpt lat="45.617" lon="5.02175">
        <ele>326</ele>
        <time>2011-10-15T07:37:54Z</time>
      </trkpt>
      <trkpt lat="45.61716" lon="5.02192">
        <ele>323</ele>
        <time>2011-10-15T07:37:56Z</time>
      </trkpt>
      <trkpt lat="45.6173" lon="5.02206">
        <ele>320</ele>
        <time>2011-10-15T07:37:58Z</time>
      </trkpt>
      <trkpt lat="45.61736" lon="5.02212">
        <ele>318</ele>
        <time>2011-10-15T07:37:59Z</time>
      </trkpt>
      <trkpt lat="45.6174" lon="5.02219">
        <ele>317</ele>
        <time>2011-10-15T07:38:00Z</time>
      </trkpt>
      <trkpt lat="45.61742" lon="5.02225">
        <ele>317</ele>
        <time>2011-10-15T07:38:01Z</time>
      </trkpt>
      <trkpt lat="45.6174" lon="5.02232">
        <ele>317</ele>
        <time>2011-10-15T07:38:02Z</time>
      </trkpt>
      <trkpt lat="45.61737" lon="5.02237">
        <ele>316</ele>
        <time>2011-10-15T07:38:03Z</time>
      </trkpt>
      <trkpt lat="45.61733" lon="5.02241">
        <ele>316</ele>
        <time>2011-10-15T07:38:04Z</time>
      </trkpt>
      <trkpt lat="45.61715" lon="5.0226">
        <ele>315</ele>
        <time>2011-10-15T07:38:09Z</time>
      </trkpt>
      <trkpt lat="45.61709" lon="5.02269">
        <ele>315</ele>
        <time>2011-10-15T07:38:11Z</time>
      </trkpt>
      <trkpt lat="45.61708" lon="5.02275">
        <ele>314</ele>
        <time>2011-10-15T07:38:12Z</time>
      </trkpt>
      <trkpt lat="45.61709" lon="5.02282">
        <ele>314</ele>
        <time>2011-10-15T07:38:13Z</time>
      </trkpt>
      <trkpt lat="45.61711" lon="5.02288">
        <ele>314</ele>
        <time>2011-10-15T07:38:14Z</time>
      </trkpt>
      <trkpt lat="45.61714" lon="5.02294">
        <ele>314</ele>
        <time>2011-10-15T07:38:15Z</time>
      </trkpt>
      <trkpt lat="45.61717" lon="5.023">
        <ele>314</ele>
        <time>2011-10-15T07:38:16Z</time>
      </trkpt>
      <trkpt lat="45.6172" lon="5.02307">
        <ele>314</ele>
        <time>2011-10-15T07:38:17Z</time>
      </trkpt>
      <trkpt lat="45.61732" lon="5.02335">
        <ele>314</ele>
        <time>2011-10-15T07:38:23Z</time>
      </trkpt>
      <trkpt lat="45.61734" lon="5.02337">
        <ele>314</ele>
        <time>2011-10-15T07:38:24Z</time>
      </trkpt>
      <trkpt lat="45.61736" lon="5.02338">
        <ele>314</ele>
        <time>2011-10-15T07:38:25Z</time>
      </trkpt>
      <trkpt lat="45.61748" lon="5.02334">
        <ele>314</ele>
        <time>2011-10-15T07:38:29Z</time>
      </trkpt>
      <trkpt lat="45.61761" lon="5.02322">
        <ele>317</ele>
        <time>2011-10-15T07:38:37Z</time>
      </trkpt>
      <trkpt lat="45.61767" lon="5.02314">
        <ele>316</ele>
        <time>2011-10-15T07:38:43Z</time>
      </trkpt>
      <trkpt lat="45.61772" lon="5.02297">
        <ele>316</ele>
        <time>2011-10-15T07:38:51Z</time>
      </trkpt>
      <trkpt lat="45.61773" lon="5.02295">
        <ele>315</ele>
        <time>2011-10-15T07:38:52Z</time>
      </trkpt>
      <trkpt lat="45.61791" lon="5.02288">
        <ele>317</ele>
        <time>2011-10-15T07:38:55Z</time>
      </trkpt>
      <trkpt lat="45.61809" lon="5.02276">
        <ele>317</ele>
        <time>2011-10-15T07:39:01Z</time>
      </trkpt>
      <trkpt lat="45.61823" lon="5.02264">
        <ele>318</ele>
        <time>2011-10-15T07:39:07Z</time>
      </trkpt>
      <trkpt lat="45.61831" lon="5.02254">
        <ele>318</ele>
        <time>2011-10-15T07:39:11Z</time>
      </trkpt>
      <trkpt lat="45.61837" lon="5.02242">
        <ele>317</ele>
        <time>2011-10-15T07:39:15Z</time>
      </trkpt>
      <trkpt lat="45.61841" lon="5.02234">
        <ele>318</ele>
        <time>2011-10-15T07:39:18Z</time>
      </trkpt>
      <trkpt lat="45.6185" lon="5.0222">
        <ele>319</ele>
        <time>2011-10-15T07:39:23Z</time>
      </trkpt>
      <trkpt lat="45.61856" lon="5.02207">
        <ele>317</ele>
        <time>2011-10-15T07:39:27Z</time>
      </trkpt>
      <trkpt lat="45.61861" lon="5.02196">
        <ele>316</ele>
        <time>2011-10-15T07:39:32Z</time>
      </trkpt>
      <trkpt lat="45.61871" lon="5.02182">
        <ele>316</ele>
        <time>2011-10-15T07:39:37Z</time>
      </trkpt>
      <trkpt lat="45.61881" lon="5.02164">
        <ele>316</ele>
        <time>2011-10-15T07:39:44Z</time>
      </trkpt>
      <trkpt lat="45.61883" lon="5.02161">
        <ele>317</ele>
        <time>2011-10-15T07:39:46Z</time>
      </trkpt>
      <trkpt lat="45.61891" lon="5.02141">
        <ele>316</ele>
        <time>2011-10-15T07:39:52Z</time>
      </trkpt>
      <trkpt lat="45.61896" lon="5.02133">
        <ele>315</ele>
        <time>2011-10-15T07:39:55Z</time>
      </trkpt>
      <trkpt lat="45.6192" lon="5.02107">
        <ele>314</ele>
        <time>2011-10-15T07:40:00Z</time>
      </trkpt>
      <trkpt lat="45.61927" lon="5.02087">
        <ele>314</ele>
        <time>2011-10-15T07:40:04Z</time>
      </trkpt>
      <trkpt lat="45.61928" lon="5.02083">
        <ele>313</ele>
        <time>2011-10-15T07:40:05Z</time>
      </trkpt>
      <trkpt lat="45.61927" lon="5.0206">
        <ele>310</ele>
        <time>2011-10-15T07:40:09Z</time>
      </trkpt>
      <trkpt lat="45.61931" lon="5.02044">
        <ele>309</ele>
        <time>2011-10-15T07:40:12Z</time>
      </trkpt>
      <trkpt lat="45.61934" lon="5.02024">
        <ele>308</ele>
        <time>2011-10-15T07:40:16Z</time>
      </trkpt>
      <trkpt lat="45.61935" lon="5.02008">
        <ele>307</ele>
        <time>2011-10-15T07:40:18Z</time>
      </trkpt>
      <trkpt lat="45.61939" lon="5.01987">
        <ele>306</ele>
        <time>2011-10-15T07:40:23Z</time>
      </trkpt>
      <trkpt lat="45.6195" lon="5.01968">
        <ele>307</ele>
        <time>2011-10-15T07:40:29Z</time>
      </trkpt>
      <trkpt lat="45.61981" lon="5.01954">
        <ele>307</ele>
        <time>2011-10-15T07:40:34Z</time>
      </trkpt>
      <trkpt lat="45.61985" lon="5.01953">
        <ele>308</ele>
        <time>2011-10-15T07:40:36Z</time>
      </trkpt>
      <trkpt lat="45.61988" lon="5.01953">
        <ele>308</ele>
        <time>2011-10-15T07:40:39Z</time>
      </trkpt>
      <trkpt lat="45.61993" lon="5.01933">
        <ele>308</ele>
        <time>2011-10-15T07:40:47Z</time>
      </trkpt>
      <trkpt lat="45.61995" lon="5.0193">
        <ele>308</ele>
        <time>2011-10-15T07:40:48Z</time>
      </trkpt>
      <trkpt lat="45.62008" lon="5.01923">
        <ele>308</ele>
        <time>2011-10-15T07:40:50Z</time>
      </trkpt>
      <trkpt lat="45.6203" lon="5.01918">
        <ele>310</ele>
        <time>2011-10-15T07:40:56Z</time>
      </trkpt>
      <trkpt lat="45.62036" lon="5.01905">
        <ele>310</ele>
        <time>2011-10-15T07:41:01Z</time>
      </trkpt>
      <trkpt lat="45.6204" lon="5.01887">
        <ele>311</ele>
        <time>2011-10-15T07:41:09Z</time>
      </trkpt>
      <trkpt lat="45.62041" lon="5.01881">
        <ele>311</ele>
        <time>2011-10-15T07:41:12Z</time>
      </trkpt>
      <trkpt lat="45.62047" lon="5.01857">
        <ele>313</ele>
        <time>2011-10-15T07:41:21Z</time>
      </trkpt>
      <trkpt lat="45.62049" lon="5.01843">
        <ele>313</ele>
        <time>2011-10-15T07:41:28Z</time>
      </trkpt>
      <trkpt lat="45.62043" lon="5.01827">
        <ele>312</ele>
        <time>2011-10-15T07:41:34Z</time>
      </trkpt>
      <trkpt lat="45.62042" lon="5.01818">
        <ele>312</ele>
        <time>2011-10-15T07:41:36Z</time>
      </trkpt>
      <trkpt lat="45.62037" lon="5.01801">
        <ele>310</ele>
        <time>2011-10-15T07:41:39Z</time>
      </trkpt>
      <trkpt lat="45.62034" lon="5.01793">
        <ele>310</ele>
        <time>2011-10-15T07:41:40Z</time>
      </trkpt>
      <trkpt lat="45.62032" lon="5.01786">
        <ele>309</ele>
        <time>2011-10-15T07:41:41Z</time>
      </trkpt>
      <trkpt lat="45.62031" lon="5.01781">
        <ele>307</ele>
        <time>2011-10-15T07:41:42Z</time>
      </trkpt>
      <trkpt lat="45.62031" lon="5.01777">
        <ele>307</ele>
        <time>2011-10-15T07:41:43Z</time>
      </trkpt>
      <trkpt lat="45.62032" lon="5.01773">
        <ele>307</ele>
        <time>2011-10-15T07:41:44Z</time>
      </trkpt>
      <trkpt lat="45.62032" lon="5.01766">
        <ele>307</ele>
        <time>2011-10-15T07:41:46Z</time>
      </trkpt>
      <trkpt lat="45.62031" lon="5.01761">
        <ele>306</ele>
        <time>2011-10-15T07:41:47Z</time>
      </trkpt>
      <trkpt lat="45.62027" lon="5.01743">
        <ele>304</ele>
        <time>2011-10-15T07:41:50Z</time>
      </trkpt>
      <trkpt lat="45.62023" lon="5.01728">
        <ele>303</ele>
        <time>2011-10-15T07:41:52Z</time>
      </trkpt>
      <trkpt lat="45.62022" lon="5.01721">
        <ele>302</ele>
        <time>2011-10-15T07:41:53Z</time>
      </trkpt>
      <trkpt lat="45.62022" lon="5.01717">
        <ele>302</ele>
        <time>2011-10-15T07:41:54Z</time>
      </trkpt>
      <trkpt lat="45.62021" lon="5.01712">
        <ele>301</ele>
        <time>2011-10-15T07:41:55Z</time>
      </trkpt>
      <trkpt lat="45.6202" lon="5.01709">
        <ele>301</ele>
        <time>2011-10-15T07:41:56Z</time>
      </trkpt>
      <trkpt lat="45.62019" lon="5.01706">
        <ele>301</ele>
        <time>2011-10-15T07:41:57Z</time>
      </trkpt>
      <trkpt lat="45.62019" lon="5.01702">
        <ele>301</ele>
        <time>2011-10-15T07:41:58Z</time>
      </trkpt>
      <trkpt lat="45.62018" lon="5.01698">
        <ele>301</ele>
        <time>2011-10-15T07:41:59Z</time>
      </trkpt>
      <trkpt lat="45.62018" lon="5.01693">
        <ele>301</ele>
        <time>2011-10-15T07:42:00Z</time>
      </trkpt>
      <trkpt lat="45.62017" lon="5.01689">
        <ele>301</ele>
        <time>2011-10-15T07:42:01Z</time>
      </trkpt>
      <trkpt lat="45.62018" lon="5.01686">
        <ele>301</ele>
        <time>2011-10-15T07:42:02Z</time>
      </trkpt>
      <trkpt lat="45.62018" lon="5.01682">
        <ele>301</ele>
        <time>2011-10-15T07:42:03Z</time>
      </trkpt>
      <trkpt lat="45.62019" lon="5.01681">
        <ele>301</ele>
        <time>2011-10-15T07:42:04Z</time>
      </trkpt>
      <trkpt lat="45.62021" lon="5.0168">
        <ele>301</ele>
        <time>2011-10-15T07:42:05Z</time>
      </trkpt>
      <trkpt lat="45.62027" lon="5.01674">
        <ele>301</ele>
        <time>2011-10-15T07:42:08Z</time>
      </trkpt>
      <trkpt lat="45.62032" lon="5.01669">
        <ele>302</ele>
        <time>2011-10-15T07:42:10Z</time>
      </trkpt>
      <trkpt lat="45.62041" lon="5.01653">
        <ele>301</ele>
        <time>2011-10-15T07:42:17Z</time>
      </trkpt>
      <trkpt lat="45.62041" lon="5.01652">
        <ele>301</ele>
        <time>2011-10-15T07:42:23Z</time>
      </trkpt>
      <trkpt lat="45.62042" lon="5.0165">
        <ele>301</ele>
        <time>2011-10-15T07:42:31Z</time>
      </trkpt>
      <trkpt lat="45.62048" lon="5.01642">
        <ele>301</ele>
        <time>2011-10-15T07:42:38Z</time>
      </trkpt>
      <trkpt lat="45.6205" lon="5.01639">
        <ele>301</ele>
        <time>2011-10-15T07:42:46Z</time>
      </trkpt>
      <trkpt lat="45.62053" lon="5.01637">
        <ele>301</ele>
        <time>2011-10-15T07:42:48Z</time>
      </trkpt>
      <trkpt lat="45.62059" lon="5.0163">
        <ele>302</ele>
        <time>2011-10-15T07:42:52Z</time>
      </trkpt>
      <trkpt lat="45.62069" lon="5.01619">
        <ele>302</ele>
        <time>2011-10-15T07:42:57Z</time>
      </trkpt>
      <trkpt lat="45.62085" lon="5.01606">
        <ele>302</ele>
        <time>2011-10-15T07:43:03Z</time>
      </trkpt>
      <trkpt lat="45.621" lon="5.0159">
        <ele>302</ele>
        <time>2011-10-15T07:43:09Z</time>
      </trkpt>
      <trkpt lat="45.6212" lon="5.01564">
        <ele>301</ele>
        <time>2011-10-15T07:43:16Z</time>
      </trkpt>
      <trkpt lat="45.62137" lon="5.01536">
        <ele>300</ele>
        <time>2011-10-15T07:43:21Z</time>
      </trkpt>
      <trkpt lat="45.62149" lon="5.01512">
        <ele>298</ele>
        <time>2011-10-15T07:43:27Z</time>
      </trkpt>
      <trkpt lat="45.62155" lon="5.01497">
        <ele>298</ele>
        <time>2011-10-15T07:43:32Z</time>
      </trkpt>
      <trkpt lat="45.62157" lon="5.0149">
        <ele>298</ele>
        <time>2011-10-15T07:43:34Z</time>
      </trkpt>
      <trkpt lat="45.6216" lon="5.01487">
        <ele>298</ele>
        <time>2011-10-15T07:43:35Z</time>
      </trkpt>
      <trkpt lat="45.62177" lon="5.01466">
        <ele>298</ele>
        <time>2011-10-15T07:43:41Z</time>
      </trkpt>
      <trkpt lat="45.62196" lon="5.01451">
        <ele>298</ele>
        <time>2011-10-15T07:43:45Z</time>
      </trkpt>
      <trkpt lat="45.62202" lon="5.01448">
        <ele>298</ele>
        <time>2011-10-15T07:43:46Z</time>
      </trkpt>
      <trkpt lat="45.62206" lon="5.01446">
        <ele>298</ele>
        <time>2011-10-15T07:43:47Z</time>
      </trkpt>
      <trkpt lat="45.62215" lon="5.01433">
        <ele>298</ele>
        <time>2011-10-15T07:43:50Z</time>
      </trkpt>
      <trkpt lat="45.62216" lon="5.01429">
        <ele>297</ele>
        <time>2011-10-15T07:43:51Z</time>
      </trkpt>
      <trkpt lat="45.62218" lon="5.01424">
        <ele>298</ele>
        <time>2011-10-15T07:43:52Z</time>
      </trkpt>
      <trkpt lat="45.62231" lon="5.01399">
        <ele>297</ele>
        <time>2011-10-15T07:43:58Z</time>
      </trkpt>
      <trkpt lat="45.62246" lon="5.01371">
        <ele>297</ele>
        <time>2011-10-15T07:44:05Z</time>
      </trkpt>
      <trkpt lat="45.62261" lon="5.01352">
        <ele>297</ele>
        <time>2011-10-15T07:44:11Z</time>
      </trkpt>
      <trkpt lat="45.62278" lon="5.0134">
        <ele>297</ele>
        <time>2011-10-15T07:44:16Z</time>
      </trkpt>
      <trkpt lat="45.62297" lon="5.01327">
        <ele>297</ele>
        <time>2011-10-15T07:44:22Z</time>
      </trkpt>
      <trkpt lat="45.62324" lon="5.01319">
        <ele>298</ele>
        <time>2011-10-15T07:44:27Z</time>
      </trkpt>
      <trkpt lat="45.62326" lon="5.01318">
        <ele>297</ele>
        <time>2011-10-15T07:44:28Z</time>
      </trkpt>
      <trkpt lat="45.62329" lon="5.01315">
        <ele>298</ele>
        <time>2011-10-15T07:44:30Z</time>
      </trkpt>
      <trkpt lat="45.62331" lon="5.01314">
        <ele>297</ele>
        <time>2011-10-15T07:44:31Z</time>
      </trkpt>
      <trkpt lat="45.62334" lon="5.01313">
        <ele>298</ele>
        <time>2011-10-15T07:44:32Z</time>
      </trkpt>
      <trkpt lat="45.62337" lon="5.01313">
        <ele>297</ele>
        <time>2011-10-15T07:44:33Z</time>
      </trkpt>
      <trkpt lat="45.62339" lon="5.01312">
        <ele>297</ele>
        <time>2011-10-15T07:44:34Z</time>
      </trkpt>
      <trkpt lat="45.62342" lon="5.0131">
        <ele>297</ele>
        <time>2011-10-15T07:44:35Z</time>
      </trkpt>
      <trkpt lat="45.6236" lon="5.01299">
        <ele>295</ele>
        <time>2011-10-15T07:44:40Z</time>
      </trkpt>
      <trkpt lat="45.62376" lon="5.01289">
        <ele>295</ele>
        <time>2011-10-15T07:44:44Z</time>
      </trkpt>
      <trkpt lat="45.62403" lon="5.01271">
        <ele>292</ele>
        <time>2011-10-15T07:44:49Z</time>
      </trkpt>
      <trkpt lat="45.62415" lon="5.01261">
        <ele>291</ele>
        <time>2011-10-15T07:44:51Z</time>
      </trkpt>
      <trkpt lat="45.62425" lon="5.01253">
        <ele>290</ele>
        <time>2011-10-15T07:44:53Z</time>
      </trkpt>
      <trkpt lat="45.62429" lon="5.01251">
        <ele>289</ele>
        <time>2011-10-15T07:44:54Z</time>
      </trkpt>
      <trkpt lat="45.6244" lon="5.01249">
        <ele>288</ele>
        <time>2011-10-15T07:44:56Z</time>
      </trkpt>
      <trkpt lat="45.62445" lon="5.01247">
        <ele>288</ele>
        <time>2011-10-15T07:44:57Z</time>
      </trkpt>
      <trkpt lat="45.62449" lon="5.01244">
        <ele>286</ele>
        <time>2011-10-15T07:44:58Z</time>
      </trkpt>
      <trkpt lat="45.62455" lon="5.0124">
        <ele>285</ele>
        <time>2011-10-15T07:44:59Z</time>
      </trkpt>
      <trkpt lat="45.6246" lon="5.01234">
        <ele>285</ele>
        <time>2011-10-15T07:45:00Z</time>
      </trkpt>
      <trkpt lat="45.62465" lon="5.01227">
        <ele>284</ele>
        <time>2011-10-15T07:45:01Z</time>
      </trkpt>
      <trkpt lat="45.62476" lon="5.01212">
        <ele>283</ele>
        <time>2011-10-15T07:45:03Z</time>
      </trkpt>
      <trkpt lat="45.62491" lon="5.01191">
        <ele>279</ele>
        <time>2011-10-15T07:45:06Z</time>
      </trkpt>
      <trkpt lat="45.62494" lon="5.01183">
        <ele>278</ele>
        <time>2011-10-15T07:45:07Z</time>
      </trkpt>
      <trkpt lat="45.62497" lon="5.01173">
        <ele>278</ele>
        <time>2011-10-15T07:45:08Z</time>
      </trkpt>
      <trkpt lat="45.62499" lon="5.01164">
        <ele>278</ele>
        <time>2011-10-15T07:45:09Z</time>
      </trkpt>
      <trkpt lat="45.625" lon="5.01155">
        <ele>277</ele>
        <time>2011-10-15T07:45:10Z</time>
      </trkpt>
      <trkpt lat="45.62501" lon="5.01145">
        <ele>277</ele>
        <time>2011-10-15T07:45:11Z</time>
      </trkpt>
      <trkpt lat="45.62507" lon="5.01091">
        <ele>275</ele>
        <time>2011-10-15T07:45:17Z</time>
      </trkpt>
      <trkpt lat="45.62515" lon="5.01067">
        <ele>275</ele>
        <time>2011-10-15T07:45:21Z</time>
      </trkpt>
      <trkpt lat="45.62518" lon="5.01064">
        <ele>274</ele>
        <time>2011-10-15T07:45:22Z</time>
      </trkpt>
      <trkpt lat="45.62521" lon="5.01062">
        <ele>274</ele>
        <time>2011-10-15T07:45:23Z</time>
      </trkpt>
      <trkpt lat="45.62524" lon="5.01063">
        <ele>274</ele>
        <time>2011-10-15T07:45:24Z</time>
      </trkpt>
      <trkpt lat="45.62536" lon="5.01072">
        <ele>273</ele>
        <time>2011-10-15T07:45:27Z</time>
      </trkpt>
      <trkpt lat="45.62541" lon="5.01075">
        <ele>273</ele>
        <time>2011-10-15T07:45:28Z</time>
      </trkpt>
      <trkpt lat="45.62545" lon="5.01077">
        <ele>272</ele>
        <time>2011-10-15T07:45:29Z</time>
      </trkpt>
      <trkpt lat="45.62549" lon="5.0108">
        <ele>272</ele>
        <time>2011-10-15T07:45:30Z</time>
      </trkpt>
      <trkpt lat="45.62552" lon="5.01083">
        <ele>273</ele>
        <time>2011-10-15T07:45:31Z</time>
      </trkpt>
      <trkpt lat="45.62558" lon="5.01093">
        <ele>273</ele>
        <time>2011-10-15T07:45:35Z</time>
      </trkpt>
      <trkpt lat="45.62566" lon="5.0111">
        <ele>274</ele>
        <time>2011-10-15T07:45:41Z</time>
      </trkpt>
      <trkpt lat="45.62571" lon="5.01121">
        <ele>274</ele>
        <time>2011-10-15T07:45:44Z</time>
      </trkpt>
      <trkpt lat="45.62576" lon="5.01135">
        <ele>273</ele>
        <time>2011-10-15T07:45:48Z</time>
      </trkpt>
      <trkpt lat="45.62578" lon="5.01144">
        <ele>274</ele>
        <time>2011-10-15T07:45:51Z</time>
      </trkpt>
      <trkpt lat="45.62579" lon="5.01149">
        <ele>273</ele>
        <time>2011-10-15T07:45:54Z</time>
      </trkpt>
      <trkpt lat="45.62583" lon="5.01159">
        <ele>273</ele>
        <time>2011-10-15T07:45:59Z</time>
      </trkpt>
      <trkpt lat="45.62588" lon="5.0117">
        <ele>271</ele>
        <time>2011-10-15T07:46:06Z</time>
      </trkpt>
      <trkpt lat="45.62588" lon="5.01172">
        <ele>272</ele>
        <time>2011-10-15T07:46:07Z</time>
      </trkpt>
      <trkpt lat="45.62598" lon="5.01191">
        <ele>273</ele>
        <time>2011-10-15T07:46:16Z</time>
      </trkpt>
      <trkpt lat="45.62598" lon="5.01193">
        <ele>274</ele>
        <time>2011-10-15T07:46:17Z</time>
      </trkpt>
      <trkpt lat="45.62601" lon="5.01207">
        <ele>274</ele>
        <time>2011-10-15T07:46:23Z</time>
      </trkpt>
      <trkpt lat="45.62611" lon="5.01222">
        <ele>275</ele>
        <time>2011-10-15T07:46:30Z</time>
      </trkpt>
      <trkpt lat="45.62615" lon="5.01231">
        <ele>276</ele>
        <time>2011-10-15T07:46:34Z</time>
      </trkpt>
      <trkpt lat="45.62627" lon="5.01248">
        <ele>276</ele>
        <time>2011-10-15T07:46:40Z</time>
      </trkpt>
      <trkpt lat="45.62644" lon="5.01267">
        <ele>276</ele>
        <time>2011-10-15T07:46:46Z</time>
      </trkpt>
      <trkpt lat="45.62658" lon="5.01283">
        <ele>276</ele>
        <time>2011-10-15T07:46:51Z</time>
      </trkpt>
      <trkpt lat="45.62685" lon="5.01306">
        <ele>276</ele>
        <time>2011-10-15T07:46:59Z</time>
      </trkpt>
      <trkpt lat="45.62707" lon="5.01323">
        <ele>277</ele>
        <time>2011-10-15T07:47:05Z</time>
      </trkpt>
      <trkpt lat="45.62728" lon="5.0134">
        <ele>277</ele>
        <time>2011-10-15T07:47:12Z</time>
      </trkpt>
      <trkpt lat="45.62742" lon="5.01362">
        <ele>277</ele>
        <time>2011-10-15T07:47:18Z</time>
      </trkpt>
      <trkpt lat="45.62743" lon="5.01365">
        <ele>276</ele>
        <time>2011-10-15T07:47:19Z</time>
      </trkpt>
      <trkpt lat="45.62743" lon="5.01389">
        <ele>277</ele>
        <time>2011-10-15T07:47:25Z</time>
      </trkpt>
      <trkpt lat="45.62751" lon="5.01417">
        <ele>277</ele>
        <time>2011-10-15T07:47:31Z</time>
      </trkpt>
      <trkpt lat="45.62753" lon="5.01421">
        <ele>277</ele>
        <time>2011-10-15T07:47:32Z</time>
      </trkpt>
      <trkpt lat="45.62765" lon="5.01443">
        <ele>277</ele>
        <time>2011-10-15T07:47:38Z</time>
      </trkpt>
      <trkpt lat="45.62762" lon="5.01467">
        <ele>277</ele>
        <time>2011-10-15T07:47:43Z</time>
      </trkpt>
      <trkpt lat="45.62758" lon="5.01491">
        <ele>277</ele>
        <time>2011-10-15T07:47:48Z</time>
      </trkpt>
      <trkpt lat="45.62751" lon="5.01507">
        <ele>278</ele>
        <time>2011-10-15T07:47:53Z</time>
      </trkpt>
      <trkpt lat="45.62751" lon="5.01515">
        <ele>277</ele>
        <time>2011-10-15T07:47:56Z</time>
      </trkpt>
      <trkpt lat="45.62763" lon="5.01513">
        <ele>278</ele>
        <time>2011-10-15T07:48:02Z</time>
      </trkpt>
      <trkpt lat="45.62765" lon="5.01512">
        <ele>278</ele>
        <time>2011-10-15T07:48:03Z</time>
      </trkpt>
      <trkpt lat="45.62771" lon="5.01508">
        <ele>278</ele>
        <time>2011-10-15T07:48:06Z</time>
      </trkpt>
      <trkpt lat="45.62778" lon="5.01514">
        <ele>279</ele>
        <time>2011-10-15T07:48:11Z</time>
      </trkpt>
      <trkpt lat="45.62782" lon="5.01539">
        <ele>279</ele>
        <time>2011-10-15T07:48:18Z</time>
      </trkpt>
      <trkpt lat="45.62785" lon="5.01564">
        <ele>280</ele>
        <time>2011-10-15T07:48:25Z</time>
      </trkpt>
      <trkpt lat="45.62786" lon="5.01566">
        <ele>280</ele>
        <time>2011-10-15T07:48:26Z</time>
      </trkpt>
      <trkpt lat="45.62788" lon="5.01575">
        <ele>282</ele>
        <time>2011-10-15T07:48:30Z</time>
      </trkpt>
      <trkpt lat="45.62792" lon="5.01591">
        <ele>282</ele>
        <time>2011-10-15T07:48:36Z</time>
      </trkpt>
      <trkpt lat="45.62792" lon="5.0161">
        <ele>283</ele>
        <time>2011-10-15T07:48:43Z</time>
      </trkpt>
      <trkpt lat="45.62789" lon="5.01628">
        <ele>284</ele>
        <time>2011-10-15T07:48:49Z</time>
      </trkpt>
      <trkpt lat="45.62783" lon="5.01656">
        <ele>284</ele>
        <time>2011-10-15T07:48:57Z</time>
      </trkpt>
      <trkpt lat="45.62777" lon="5.01682">
        <ele>284</ele>
        <time>2011-10-15T07:49:03Z</time>
      </trkpt>
      <trkpt lat="45.62774" lon="5.01703">
        <ele>285</ele>
        <time>2011-10-15T07:49:09Z</time>
      </trkpt>
      <trkpt lat="45.62768" lon="5.01733">
        <ele>285</ele>
        <time>2011-10-15T07:49:15Z</time>
      </trkpt>
      <trkpt lat="45.62763" lon="5.01774">
        <ele>285</ele>
        <time>2011-10-15T07:49:22Z</time>
      </trkpt>
      <trkpt lat="45.62758" lon="5.01793">
        <ele>284</ele>
        <time>2011-10-15T07:49:27Z</time>
      </trkpt>
      <trkpt lat="45.62747" lon="5.01823">
        <ele>285</ele>
        <time>2011-10-15T07:49:33Z</time>
      </trkpt>
      <trkpt lat="45.62739" lon="5.01859">
        <ele>284</ele>
        <time>2011-10-15T07:49:40Z</time>
      </trkpt>
      <trkpt lat="45.62732" lon="5.01901">
        <ele>284</ele>
        <time>2011-10-15T07:49:48Z</time>
      </trkpt>
      <trkpt lat="45.62725" lon="5.01932">
        <ele>284</ele>
        <time>2011-10-15T07:49:54Z</time>
      </trkpt>
      <trkpt lat="45.62725" lon="5.0194">
        <ele>284</ele>
        <time>2011-10-15T07:49:56Z</time>
      </trkpt>
      <trkpt lat="45.62731" lon="5.01943">
        <ele>284</ele>
        <time>2011-10-15T07:49:59Z</time>
      </trkpt>
      <trkpt lat="45.62734" lon="5.01944">
        <ele>285</ele>
        <time>2011-10-15T07:50:01Z</time>
      </trkpt>
      <trkpt lat="45.62748" lon="5.01951">
        <ele>286</ele>
        <time>2011-10-15T07:50:08Z</time>
      </trkpt>
      <trkpt lat="45.62749" lon="5.01952">
        <ele>286</ele>
        <time>2011-10-15T07:50:09Z</time>
      </trkpt>
      <trkpt lat="45.62763" lon="5.01952">
        <ele>286</ele>
        <time>2011-10-15T07:50:15Z</time>
      </trkpt>
      <trkpt lat="45.62774" lon="5.01954">
        <ele>288</ele>
        <time>2011-10-15T07:50:21Z</time>
      </trkpt>
      <trkpt lat="45.62784" lon="5.01959">
        <ele>289</ele>
        <time>2011-10-15T07:50:28Z</time>
      </trkpt>
      <trkpt lat="45.62793" lon="5.01967">
        <ele>290</ele>
        <time>2011-10-15T07:50:35Z</time>
      </trkpt>
      <trkpt lat="45.628" lon="5.01972">
        <ele>292</ele>
        <time>2011-10-15T07:50:42Z</time>
      </trkpt>
      <trkpt lat="45.62808" lon="5.01979">
        <ele>293</ele>
        <time>2011-10-15T07:50:50Z</time>
      </trkpt>
      <trkpt lat="45.6281" lon="5.01983">
        <ele>294</ele>
        <time>2011-10-15T07:50:57Z</time>
      </trkpt>
      <trkpt lat="45.62812" lon="5.01989">
        <ele>295</ele>
        <time>2011-10-15T07:51:03Z</time>
      </trkpt>
      <trkpt lat="45.62812" lon="5.01992">
        <ele>296</ele>
        <time>2011-10-15T07:51:08Z</time>
      </trkpt>
      <trkpt lat="45.62813" lon="5.01992">
        <ele>296</ele>
        <time>2011-10-15T07:51:09Z</time>
      </trkpt>
      <trkpt lat="45.62829" lon="5.01997">
        <ele>298</ele>
        <time>2011-10-15T07:51:17Z</time>
      </trkpt>
      <trkpt lat="45.6283" lon="5.02">
        <ele>298</ele>
        <time>2011-10-15T07:51:20Z</time>
      </trkpt>
      <trkpt lat="45.62842" lon="5.02002">
        <ele>300</ele>
        <time>2011-10-15T07:51:27Z</time>
      </trkpt>
      <trkpt lat="45.62849" lon="5.02004">
        <ele>301</ele>
        <time>2011-10-15T07:51:33Z</time>
      </trkpt>
      <trkpt lat="45.62852" lon="5.02005">
        <ele>302</ele>
        <time>2011-10-15T07:51:35Z</time>
      </trkpt>
      <trkpt lat="45.62857" lon="5.02005">
        <ele>302</ele>
        <time>2011-10-15T07:51:38Z</time>
      </trkpt>
      <trkpt lat="45.62861" lon="5.02008">
        <ele>303</ele>
        <time>2011-10-15T07:51:41Z</time>
      </trkpt>
      <trkpt lat="45.62878" lon="5.02016">
        <ele>304</ele>
        <time>2011-10-15T07:51:47Z</time>
      </trkpt>
      <trkpt lat="45.62888" lon="5.02018">
        <ele>304</ele>
        <time>2011-10-15T07:51:49Z</time>
      </trkpt>
      <trkpt lat="45.62899" lon="5.02021">
        <ele>304</ele>
        <time>2011-10-15T07:51:51Z</time>
      </trkpt>
      <trkpt lat="45.6291" lon="5.02032">
        <ele>305</ele>
        <time>2011-10-15T07:51:59Z</time>
      </trkpt>
      <trkpt lat="45.62912" lon="5.02033">
        <ele>306</ele>
        <time>2011-10-15T07:52:00Z</time>
      </trkpt>
      <trkpt lat="45.62925" lon="5.02042">
        <ele>306</ele>
        <time>2011-10-15T07:52:08Z</time>
      </trkpt>
      <trkpt lat="45.62937" lon="5.0205">
        <ele>306</ele>
        <time>2011-10-15T07:52:15Z</time>
      </trkpt>
      <trkpt lat="45.6294" lon="5.02052">
        <ele>307</ele>
        <time>2011-10-15T07:52:17Z</time>
      </trkpt>
      <trkpt lat="45.62944" lon="5.02056">
        <ele>307</ele>
        <time>2011-10-15T07:52:20Z</time>
      </trkpt>
      <trkpt lat="45.62955" lon="5.02058">
        <ele>307</ele>
        <time>2011-10-15T07:52:26Z</time>
      </trkpt>
      <trkpt lat="45.62963" lon="5.02059">
        <ele>308</ele>
        <time>2011-10-15T07:52:32Z</time>
      </trkpt>
      <trkpt lat="45.62975" lon="5.02057">
        <ele>309</ele>
        <time>2011-10-15T07:52:38Z</time>
      </trkpt>
      <trkpt lat="45.62986" lon="5.02062">
        <ele>310</ele>
        <time>2011-10-15T07:52:45Z</time>
      </trkpt>
      <trkpt lat="45.62992" lon="5.02063">
        <ele>311</ele>
        <time>2011-10-15T07:52:49Z</time>
      </trkpt>
      <trkpt lat="45.63" lon="5.02062">
        <ele>312</ele>
        <time>2011-10-15T07:52:55Z</time>
      </trkpt>
      <trkpt lat="45.63001" lon="5.02062">
        <ele>312</ele>
        <time>2011-10-15T07:52:56Z</time>
      </trkpt>
      <trkpt lat="45.63017" lon="5.02059">
        <ele>313</ele>
        <time>2011-10-15T07:53:04Z</time>
      </trkpt>
      <trkpt lat="45.63023" lon="5.02058">
        <ele>315</ele>
        <time>2011-10-15T07:53:08Z</time>
      </trkpt>
      <trkpt lat="45.63027" lon="5.02067">
        <ele>316</ele>
        <time>2011-10-15T07:53:14Z</time>
      </trkpt>
      <trkpt lat="45.63028" lon="5.02071">
        <ele>316</ele>
        <time>2011-10-15T07:53:16Z</time>
      </trkpt>
      <trkpt lat="45.63032" lon="5.02086">
        <ele>316</ele>
        <time>2011-10-15T07:53:23Z</time>
      </trkpt>
      <trkpt lat="45.63032" lon="5.02096">
        <ele>318</ele>
        <time>2011-10-15T07:53:28Z</time>
      </trkpt>
      <trkpt lat="45.63032" lon="5.02103">
        <ele>318</ele>
        <time>2011-10-15T07:53:32Z</time>
      </trkpt>
      <trkpt lat="45.63033" lon="5.0212">
        <ele>320</ele>
        <time>2011-10-15T07:53:40Z</time>
      </trkpt>
      <trkpt lat="45.63028" lon="5.02134">
        <ele>322</ele>
        <time>2011-10-15T07:53:47Z</time>
      </trkpt>
      <trkpt lat="45.63027" lon="5.02146">
        <ele>324</ele>
        <time>2011-10-15T07:53:54Z</time>
      </trkpt>
      <trkpt lat="45.63025" lon="5.02151">
        <ele>325</ele>
        <time>2011-10-15T07:54:00Z</time>
      </trkpt>
      <trkpt lat="45.63021" lon="5.02159">
        <ele>326</ele>
        <time>2011-10-15T07:54:07Z</time>
      </trkpt>
      <trkpt lat="45.63016" lon="5.02172">
        <ele>327</ele>
        <time>2011-10-15T07:54:13Z</time>
      </trkpt>
      <trkpt lat="45.63013" lon="5.02183">
        <ele>329</ele>
        <time>2011-10-15T07:54:19Z</time>
      </trkpt>
      <trkpt lat="45.63011" lon="5.0219">
        <ele>329</ele>
        <time>2011-10-15T07:54:22Z</time>
      </trkpt>
      <trkpt lat="45.63002" lon="5.02203">
        <ele>332</ele>
        <time>2011-10-15T07:54:31Z</time>
      </trkpt>
      <trkpt lat="45.63" lon="5.02206">
        <ele>332</ele>
        <time>2011-10-15T07:54:33Z</time>
      </trkpt>
      <trkpt lat="45.62996" lon="5.02215">
        <ele>333</ele>
        <time>2011-10-15T07:54:39Z</time>
      </trkpt>
      <trkpt lat="45.63" lon="5.02224">
        <ele>335</ele>
        <time>2011-10-15T07:54:44Z</time>
      </trkpt>
      <trkpt lat="45.63009" lon="5.02229">
        <ele>335</ele>
        <time>2011-10-15T07:54:51Z</time>
      </trkpt>
      <trkpt lat="45.63016" lon="5.02229">
        <ele>336</ele>
        <time>2011-10-15T07:54:58Z</time>
      </trkpt>
      <trkpt lat="45.63021" lon="5.02229">
        <ele>337</ele>
        <time>2011-10-15T07:55:02Z</time>
      </trkpt>
      <trkpt lat="45.63029" lon="5.02235">
        <ele>338</ele>
        <time>2011-10-15T07:55:08Z</time>
      </trkpt>
      <trkpt lat="45.63039" lon="5.02237">
        <ele>339</ele>
        <time>2011-10-15T07:55:14Z</time>
      </trkpt>
      <trkpt lat="45.63047" lon="5.0224">
        <ele>339</ele>
        <time>2011-10-15T07:55:19Z</time>
      </trkpt>
      <trkpt lat="45.63052" lon="5.02239">
        <ele>339</ele>
        <time>2011-10-15T07:55:22Z</time>
      </trkpt>
      <trkpt lat="45.63065" lon="5.02236">
        <ele>340</ele>
        <time>2011-10-15T07:55:30Z</time>
      </trkpt>
      <trkpt lat="45.63079" lon="5.02232">
        <ele>340</ele>
        <time>2011-10-15T07:55:39Z</time>
      </trkpt>
      <trkpt lat="45.63092" lon="5.02232">
        <ele>341</ele>
        <time>2011-10-15T07:55:46Z</time>
      </trkpt>
      <trkpt lat="45.63106" lon="5.02233">
        <ele>343</ele>
        <time>2011-10-15T07:55:54Z</time>
      </trkpt>
      <trkpt lat="45.63117" lon="5.02235">
        <ele>343</ele>
        <time>2011-10-15T07:56:00Z</time>
      </trkpt>
      <trkpt lat="45.63134" lon="5.0224">
        <ele>345</ele>
        <time>2011-10-15T07:56:10Z</time>
      </trkpt>
      <trkpt lat="45.6315" lon="5.02246">
        <ele>347</ele>
        <time>2011-10-15T07:56:20Z</time>
      </trkpt>
      <trkpt lat="45.63166" lon="5.0225">
        <ele>348</ele>
        <time>2011-10-15T07:56:29Z</time>
      </trkpt>
      <trkpt lat="45.63181" lon="5.02254">
        <ele>349</ele>
        <time>2011-10-15T07:56:37Z</time>
      </trkpt>
      <trkpt lat="45.63192" lon="5.02261">
        <ele>350</ele>
        <time>2011-10-15T07:56:44Z</time>
      </trkpt>
      <trkpt lat="45.63199" lon="5.02265">
        <ele>351</ele>
        <time>2011-10-15T07:56:49Z</time>
      </trkpt>
      <trkpt lat="45.63208" lon="5.02268">
        <ele>351</ele>
        <time>2011-10-15T07:56:54Z</time>
      </trkpt>
      <trkpt lat="45.63229" lon="5.02264">
        <ele>351</ele>
        <time>2011-10-15T07:57:03Z</time>
      </trkpt>
      <trkpt lat="45.63242" lon="5.02263">
        <ele>351</ele>
        <time>2011-10-15T07:57:09Z</time>
      </trkpt>
      <trkpt lat="45.63252" lon="5.02264">
        <ele>351</ele>
        <time>2011-10-15T07:57:15Z</time>
      </trkpt>
      <trkpt lat="45.63261" lon="5.02267">
        <ele>354</ele>
        <time>2011-10-15T07:57:21Z</time>
      </trkpt>
      <trkpt lat="45.63272" lon="5.02271">
        <ele>352</ele>
        <time>2011-10-15T07:57:27Z</time>
      </trkpt>
      <trkpt lat="45.63278" lon="5.02274">
        <ele>352</ele>
        <time>2011-10-15T07:57:37Z</time>
      </trkpt>
      <trkpt lat="45.63289" lon="5.02277">
        <ele>352</ele>
        <time>2011-10-15T07:57:42Z</time>
      </trkpt>
      <trkpt lat="45.63302" lon="5.02284">
        <ele>352</ele>
        <time>2011-10-15T07:57:48Z</time>
      </trkpt>
      <trkpt lat="45.63327" lon="5.02298">
        <ele>353</ele>
        <time>2011-10-15T07:57:57Z</time>
      </trkpt>
      <trkpt lat="45.63351" lon="5.02314">
        <ele>351</ele>
        <time>2011-10-15T07:58:05Z</time>
      </trkpt>
      <trkpt lat="45.63365" lon="5.02324">
        <ele>350</ele>
        <time>2011-10-15T07:58:09Z</time>
      </trkpt>
      <trkpt lat="45.63368" lon="5.02325">
        <ele>350</ele>
        <time>2011-10-15T07:58:10Z</time>
      </trkpt>
      <trkpt lat="45.63371" lon="5.02324">
        <ele>349</ele>
        <time>2011-10-15T07:58:11Z</time>
      </trkpt>
      <trkpt lat="45.63373" lon="5.02321">
        <ele>350</ele>
        <time>2011-10-15T07:58:12Z</time>
      </trkpt>
      <trkpt lat="45.63375" lon="5.02318">
        <ele>350</ele>
        <time>2011-10-15T07:58:13Z</time>
      </trkpt>
      <trkpt lat="45.63377" lon="5.02314">
        <ele>350</ele>
        <time>2011-10-15T07:58:14Z</time>
      </trkpt>
      <trkpt lat="45.63378" lon="5.0231">
        <ele>351</ele>
        <time>2011-10-15T07:58:15Z</time>
      </trkpt>
      <trkpt lat="45.63385" lon="5.02277">
        <ele>352</ele>
        <time>2011-10-15T07:58:24Z</time>
      </trkpt>
      <trkpt lat="45.63393" lon="5.02248">
        <ele>354</ele>
        <time>2011-10-15T07:58:33Z</time>
      </trkpt>
      <trkpt lat="45.63399" lon="5.02219">
        <ele>356</ele>
        <time>2011-10-15T07:58:42Z</time>
      </trkpt>
      <trkpt lat="45.63405" lon="5.02197">
        <ele>356</ele>
        <time>2011-10-15T07:58:49Z</time>
      </trkpt>
      <trkpt lat="45.63408" lon="5.0218">
        <ele>358</ele>
        <time>2011-10-15T07:58:54Z</time>
      </trkpt>
      <trkpt lat="45.63415" lon="5.02152">
        <ele>360</ele>
        <time>2011-10-15T07:59:02Z</time>
      </trkpt>
      <trkpt lat="45.63422" lon="5.02124">
        <ele>360</ele>
        <time>2011-10-15T07:59:10Z</time>
      </trkpt>
      <trkpt lat="45.63429" lon="5.0209">
        <ele>360</ele>
        <time>2011-10-15T07:59:19Z</time>
      </trkpt>
      <trkpt lat="45.63432" lon="5.02055">
        <ele>361</ele>
        <time>2011-10-15T07:59:28Z</time>
      </trkpt>
      <trkpt lat="45.63435" lon="5.02019">
        <ele>362</ele>
        <time>2011-10-15T07:59:37Z</time>
      </trkpt>
      <trkpt lat="45.63438" lon="5.01983">
        <ele>363</ele>
        <time>2011-10-15T07:59:46Z</time>
      </trkpt>
      <trkpt lat="45.63441" lon="5.01951">
        <ele>364</ele>
        <time>2011-10-15T07:59:54Z</time>
      </trkpt>
      <trkpt lat="45.63442" lon="5.01923">
        <ele>364</ele>
        <time>2011-10-15T08:00:01Z</time>
      </trkpt>
      <trkpt lat="45.63444" lon="5.01922">
        <ele>364</ele>
        <time>2011-10-15T08:00:02Z</time>
      </trkpt>
      <trkpt lat="45.63447" lon="5.01923">
        <ele>365</ele>
        <time>2011-10-15T08:00:03Z</time>
      </trkpt>
      <trkpt lat="45.6345" lon="5.01924">
        <ele>364</ele>
        <time>2011-10-15T08:00:04Z</time>
      </trkpt>
      <trkpt lat="45.63452" lon="5.01926">
        <ele>365</ele>
        <time>2011-10-15T08:00:05Z</time>
      </trkpt>
      <trkpt lat="45.63454" lon="5.01928">
        <ele>365</ele>
        <time>2011-10-15T08:00:06Z</time>
      </trkpt>
      <trkpt lat="45.63476" lon="5.01941">
        <ele>364</ele>
        <time>2011-10-15T08:00:14Z</time>
      </trkpt>
      <trkpt lat="45.63505" lon="5.01959">
        <ele>363</ele>
        <time>2011-10-15T08:00:22Z</time>
      </trkpt>
      <trkpt lat="45.63529" lon="5.01973">
        <ele>361</ele>
        <time>2011-10-15T08:00:27Z</time>
      </trkpt>
      <trkpt lat="45.63534" lon="5.01971">
        <ele>360</ele>
        <time>2011-10-15T08:00:28Z</time>
      </trkpt>
      <trkpt lat="45.63538" lon="5.01966">
        <ele>359</ele>
        <time>2011-10-15T08:00:29Z</time>
      </trkpt>
      <trkpt lat="45.63546" lon="5.01955">
        <ele>359</ele>
        <time>2011-10-15T08:00:31Z</time>
      </trkpt>
      <trkpt lat="45.63559" lon="5.01928">
        <ele>359</ele>
        <time>2011-10-15T08:00:37Z</time>
      </trkpt>
      <trkpt lat="45.63575" lon="5.019">
        <ele>360</ele>
        <time>2011-10-15T08:00:46Z</time>
      </trkpt>
      <trkpt lat="45.63587" lon="5.01876">
        <ele>361</ele>
        <time>2011-10-15T08:00:54Z</time>
      </trkpt>
      <trkpt lat="45.63591" lon="5.0187">
        <ele>362</ele>
        <time>2011-10-15T08:00:57Z</time>
      </trkpt>
      <trkpt lat="45.63593" lon="5.01869">
        <ele>361</ele>
        <time>2011-10-15T08:00:58Z</time>
      </trkpt>
      <trkpt lat="45.63593" lon="5.01867">
        <ele>363</ele>
        <time>2011-10-15T08:00:59Z</time>
      </trkpt>
      <trkpt lat="45.63593" lon="5.01864">
        <ele>362</ele>
        <time>2011-10-15T08:01:00Z</time>
      </trkpt>
      <trkpt lat="45.63592" lon="5.01862">
        <ele>363</ele>
        <time>2011-10-15T08:01:01Z</time>
      </trkpt>
      <trkpt lat="45.63592" lon="5.0186">
        <ele>362</ele>
        <time>2011-10-15T08:01:02Z</time>
      </trkpt>
      <trkpt lat="45.63591" lon="5.01858">
        <ele>362</ele>
        <time>2011-10-15T08:01:03Z</time>
      </trkpt>
      <trkpt lat="45.6359" lon="5.01855">
        <ele>363</ele>
        <time>2011-10-15T08:01:04Z</time>
      </trkpt>
      <trkpt lat="45.6359" lon="5.01852">
        <ele>363</ele>
        <time>2011-10-15T08:01:05Z</time>
      </trkpt>
      <trkpt lat="45.63586" lon="5.0183">
        <ele>365</ele>
        <time>2011-10-15T08:01:13Z</time>
      </trkpt>
      <trkpt lat="45.63589" lon="5.01805">
        <ele>366</ele>
        <time>2011-10-15T08:01:22Z</time>
      </trkpt>
      <trkpt lat="45.63593" lon="5.01796">
        <ele>367</ele>
        <time>2011-10-15T08:01:27Z</time>
      </trkpt>
      <trkpt lat="45.63595" lon="5.01795">
        <ele>367</ele>
        <time>2011-10-15T08:01:28Z</time>
      </trkpt>
      <trkpt lat="45.63596" lon="5.01793">
        <ele>367</ele>
        <time>2011-10-15T08:01:29Z</time>
      </trkpt>
      <trkpt lat="45.63596" lon="5.01791">
        <ele>366</ele>
        <time>2011-10-15T08:01:35Z</time>
      </trkpt>
      <trkpt lat="45.63596" lon="5.01789">
        <ele>367</ele>
        <time>2011-10-15T08:01:40Z</time>
      </trkpt>
      <trkpt lat="45.63595" lon="5.01788">
        <ele>367</ele>
        <time>2011-10-15T08:01:48Z</time>
      </trkpt>
      <trkpt lat="45.63594" lon="5.01788">
        <ele>366</ele>
        <time>2011-10-15T08:01:57Z</time>
      </trkpt>
      <trkpt lat="45.63593" lon="5.01788">
        <ele>365</ele>
        <time>2011-10-15T08:02:03Z</time>
      </trkpt>
      <trkpt lat="45.63593" lon="5.01788">
        <ele>367</ele>
        <time>2011-10-15T08:02:22Z</time>
      </trkpt>
      <trkpt lat="45.63593" lon="5.01788">
        <ele>366</ele>
        <time>2011-10-15T08:02:39Z</time>
      </trkpt>
      <trkpt lat="45.63593" lon="5.01788">
        <ele>367</ele>
        <time>2011-10-15T08:02:56Z</time>
      </trkpt>
      <trkpt lat="45.63593" lon="5.01789">
        <ele>366</ele>
        <time>2011-10-15T08:03:20Z</time>
      </trkpt>
      <trkpt lat="45.63593" lon="5.01789">
        <ele>366</ele>
        <time>2011-10-15T08:03:43Z</time>
      </trkpt>
      <trkpt lat="45.63593" lon="5.01789">
        <ele>365</ele>
        <time>2011-10-15T08:04:03Z</time>
      </trkpt>
      <trkpt lat="45.63593" lon="5.01789">
        <ele>366</ele>
        <time>2011-10-15T08:04:25Z</time>
      </trkpt>
      <trkpt lat="45.63593" lon="5.01788">
        <ele>366</ele>
        <time>2011-10-15T08:04:44Z</time>
      </trkpt>
      <trkpt lat="45.63593" lon="5.01788">
        <ele>362</ele>
        <time>2011-10-15T08:04:56Z</time>
      </trkpt>
      <trkpt lat="45.63593" lon="5.01788">
        <ele>366</ele>
        <time>2011-10-15T08:04:57Z</time>
      </trkpt>
      <trkpt lat="45.63593" lon="5.01788">
        <ele>366</ele>
        <time>2011-10-15T08:05:17Z</time>
      </trkpt>
      <trkpt lat="45.63593" lon="5.01788">
        <ele>365</ele>
        <time>2011-10-15T08:05:33Z</time>
      </trkpt>
      <trkpt lat="45.63593" lon="5.01788">
        <ele>365</ele>
        <time>2011-10-15T08:05:56Z</time>
      </trkpt>
      <trkpt lat="45.63593" lon="5.01788">
        <ele>365</ele>
        <time>2011-10-15T08:06:19Z</time>
      </trkpt>
      <trkpt lat="45.63593" lon="5.01788">
        <ele>365</ele>
        <time>2011-10-15T08:06:37Z</time>
      </trkpt>
      <trkpt lat="45.63593" lon="5.01788">
        <ele>365</ele>
        <time>2011-10-15T08:06:59Z</time>
      </trkpt>
      <trkpt lat="45.63593" lon="5.01788">
        <ele>365</ele>
        <time>2011-10-15T08:07:21Z</time>
      </trkpt>
      <trkpt lat="45.63593" lon="5.01788">
        <ele>365</ele>
        <time>2011-10-15T08:07:40Z</time>
      </trkpt>
      <trkpt lat="45.63593" lon="5.01788">
        <ele>365</ele>
        <time>2011-10-15T08:08:00Z</time>
      </trkpt>
      <trkpt lat="45.63593" lon="5.01788">
        <ele>365</ele>
        <time>2011-10-15T08:08:22Z</time>
      </trkpt>
      <trkpt lat="45.63593" lon="5.01789">
        <ele>365</ele>
        <time>2011-10-15T08:08:43Z</time>
      </trkpt>
      <trkpt lat="45.63593" lon="5.01789">
        <ele>365</ele>
        <time>2011-10-15T08:09:07Z</time>
      </trkpt>
      <trkpt lat="45.63593" lon="5.01789">
        <ele>365</ele>
        <time>2011-10-15T08:09:26Z</time>
      </trkpt>
      <trkpt lat="45.63593" lon="5.01789">
        <ele>365</ele>
        <time>2011-10-15T08:09:45Z</time>
      </trkpt>
      <trkpt lat="45.63593" lon="5.01789">
        <ele>364</ele>
        <time>2011-10-15T08:10:07Z</time>
      </trkpt>
      <trkpt lat="45.63593" lon="5.01789">
        <ele>364</ele>
        <time>2011-10-15T08:10:27Z</time>
      </trkpt>
      <trkpt lat="45.63593" lon="5.01789">
        <ele>364</ele>
        <time>2011-10-15T08:10:48Z</time>
      </trkpt>
      <trkpt lat="45.63593" lon="5.01789">
        <ele>364</ele>
        <time>2011-10-15T08:11:08Z</time>
      </trkpt>
      <trkpt lat="45.63593" lon="5.01789">
        <ele>364</ele>
        <time>2011-10-15T08:11:31Z</time>
      </trkpt>
      <trkpt lat="45.63593" lon="5.01789">
        <ele>365</ele>
        <time>2011-10-15T08:11:59Z</time>
      </trkpt>
      <trkpt lat="45.63593" lon="5.01789">
        <ele>364</ele>
        <time>2011-10-15T08:12:17Z</time>
      </trkpt>
      <trkpt lat="45.63593" lon="5.01789">
        <ele>365</ele>
        <time>2011-10-15T08:12:37Z</time>
      </trkpt>
      <trkpt lat="45.63593" lon="5.01788">
        <ele>364</ele>
        <time>2011-10-15T08:12:56Z</time>
      </trkpt>
      <trkpt lat="45.63593" lon="5.01788">
        <ele>364</ele>
        <time>2011-10-15T08:13:12Z</time>
      </trkpt>
      <trkpt lat="45.63593" lon="5.01788">
        <ele>365</ele>
        <time>2011-10-15T08:13:23Z</time>
      </trkpt>
      <trkpt lat="45.63593" lon="5.01788">
        <ele>365</ele>
        <time>2011-10-15T08:13:37Z</time>
      </trkpt>
      <trkpt lat="45.63593" lon="5.01788">
        <ele>362</ele>
        <time>2011-10-15T08:13:44Z</time>
      </trkpt>
      <trkpt lat="45.63593" lon="5.01788">
        <ele>366</ele>
        <time>2011-10-15T08:13:45Z</time>
      </trkpt>
      <trkpt lat="45.63593" lon="5.01788">
        <ele>365</ele>
        <time>2011-10-15T08:13:46Z</time>
      </trkpt>
      <trkpt lat="45.63594" lon="5.01788">
        <ele>365</ele>
        <time>2011-10-15T08:13:56Z</time>
      </trkpt>
      <trkpt lat="45.63599" lon="5.01789">
        <ele>364</ele>
        <time>2011-10-15T08:13:59Z</time>
      </trkpt>
      <trkpt lat="45.63601" lon="5.01789">
        <ele>364</ele>
        <time>2011-10-15T08:14:00Z</time>
      </trkpt>
      <trkpt lat="45.63604" lon="5.01788">
        <ele>364</ele>
        <time>2011-10-15T08:14:01Z</time>
      </trkpt>
      <trkpt lat="45.63606" lon="5.01787">
        <ele>364</ele>
        <time>2011-10-15T08:14:02Z</time>
      </trkpt>
      <trkpt lat="45.63609" lon="5.01786">
        <ele>364</ele>
        <time>2011-10-15T08:14:03Z</time>
      </trkpt>
      <trkpt lat="45.63622" lon="5.01777">
        <ele>363</ele>
        <time>2011-10-15T08:14:09Z</time>
      </trkpt>
      <trkpt lat="45.63638" lon="5.01774">
        <ele>360</ele>
        <time>2011-10-15T08:14:13Z</time>
      </trkpt>
      <trkpt lat="45.63641" lon="5.01772">
        <ele>360</ele>
        <time>2011-10-15T08:14:14Z</time>
      </trkpt>
      <trkpt lat="45.63645" lon="5.0177">
        <ele>359</ele>
        <time>2011-10-15T08:14:16Z</time>
      </trkpt>
      <trkpt lat="45.63647" lon="5.0177">
        <ele>357</ele>
        <time>2011-10-15T08:14:18Z</time>
      </trkpt>
      <trkpt lat="45.63649" lon="5.0177">
        <ele>356</ele>
        <time>2011-10-15T08:14:19Z</time>
      </trkpt>
      <trkpt lat="45.63652" lon="5.01772">
        <ele>355</ele>
        <time>2011-10-15T08:14:20Z</time>
      </trkpt>
      <trkpt lat="45.63654" lon="5.01773">
        <ele>355</ele>
        <time>2011-10-15T08:14:21Z</time>
      </trkpt>
      <trkpt lat="45.63655" lon="5.01774">
        <ele>353</ele>
        <time>2011-10-15T08:14:22Z</time>
      </trkpt>
      <trkpt lat="45.63654" lon="5.01774">
        <ele>353</ele>
        <time>2011-10-15T08:14:23Z</time>
      </trkpt>
      <trkpt lat="45.63654" lon="5.01772">
        <ele>352</ele>
        <time>2011-10-15T08:14:24Z</time>
      </trkpt>
      <trkpt lat="45.63656" lon="5.01768">
        <ele>352</ele>
        <time>2011-10-15T08:14:25Z</time>
      </trkpt>
      <trkpt lat="45.63657" lon="5.01765">
        <ele>351</ele>
        <time>2011-10-15T08:14:26Z</time>
      </trkpt>
      <trkpt lat="45.6366" lon="5.01761">
        <ele>351</ele>
        <time>2011-10-15T08:14:28Z</time>
      </trkpt>
      <trkpt lat="45.63673" lon="5.01755">
        <ele>350</ele>
        <time>2011-10-15T08:14:35Z</time>
      </trkpt>
      <trkpt lat="45.6368" lon="5.01754">
        <ele>350</ele>
        <time>2011-10-15T08:14:43Z</time>
      </trkpt>
      <trkpt lat="45.63681" lon="5.01754">
        <ele>349</ele>
        <time>2011-10-15T08:14:48Z</time>
      </trkpt>
      <trkpt lat="45.63682" lon="5.01755">
        <ele>349</ele>
        <time>2011-10-15T08:14:49Z</time>
      </trkpt>
      <trkpt lat="45.63687" lon="5.01758">
        <ele>349</ele>
        <time>2011-10-15T08:14:52Z</time>
      </trkpt>
      <trkpt lat="45.63709" lon="5.01762">
        <ele>347</ele>
        <time>2011-10-15T08:14:58Z</time>
      </trkpt>
      <trkpt lat="45.63742" lon="5.01776">
        <ele>343</ele>
        <time>2011-10-15T08:15:05Z</time>
      </trkpt>
      <trkpt lat="45.63746" lon="5.01777">
        <ele>342</ele>
        <time>2011-10-15T08:15:06Z</time>
      </trkpt>
      <trkpt lat="45.63751" lon="5.0178">
        <ele>342</ele>
        <time>2011-10-15T08:15:07Z</time>
      </trkpt>
      <trkpt lat="45.63755" lon="5.01783">
        <ele>341</ele>
        <time>2011-10-15T08:15:08Z</time>
      </trkpt>
      <trkpt lat="45.63758" lon="5.01786">
        <ele>340</ele>
        <time>2011-10-15T08:15:09Z</time>
      </trkpt>
      <trkpt lat="45.63762" lon="5.0179">
        <ele>340</ele>
        <time>2011-10-15T08:15:10Z</time>
      </trkpt>
      <trkpt lat="45.63765" lon="5.01793">
        <ele>339</ele>
        <time>2011-10-15T08:15:11Z</time>
      </trkpt>
      <trkpt lat="45.63768" lon="5.01797">
        <ele>338</ele>
        <time>2011-10-15T08:15:12Z</time>
      </trkpt>
      <trkpt lat="45.63771" lon="5.01798">
        <ele>338</ele>
        <time>2011-10-15T08:15:13Z</time>
      </trkpt>
      <trkpt lat="45.63774" lon="5.01798">
        <ele>337</ele>
        <time>2011-10-15T08:15:14Z</time>
      </trkpt>
      <trkpt lat="45.63777" lon="5.01797">
        <ele>338</ele>
        <time>2011-10-15T08:15:15Z</time>
      </trkpt>
      <trkpt lat="45.6378" lon="5.01795">
        <ele>337</ele>
        <time>2011-10-15T08:15:16Z</time>
      </trkpt>
      <trkpt lat="45.63783" lon="5.01793">
        <ele>337</ele>
        <time>2011-10-15T08:15:17Z</time>
      </trkpt>
      <trkpt lat="45.63786" lon="5.01792">
        <ele>337</ele>
        <time>2011-10-15T08:15:18Z</time>
      </trkpt>
      <trkpt lat="45.63802" lon="5.01785">
        <ele>334</ele>
        <time>2011-10-15T08:15:23Z</time>
      </trkpt>
      <trkpt lat="45.63805" lon="5.01784">
        <ele>333</ele>
        <time>2011-10-15T08:15:24Z</time>
      </trkpt>
      <trkpt lat="45.63812" lon="5.01778">
        <ele>332</ele>
        <time>2011-10-15T08:15:26Z</time>
      </trkpt>
      <trkpt lat="45.63821" lon="5.01768">
        <ele>333</ele>
        <time>2011-10-15T08:15:30Z</time>
      </trkpt>
      <trkpt lat="45.63826" lon="5.01766">
        <ele>332</ele>
        <time>2011-10-15T08:15:32Z</time>
      </trkpt>
      <trkpt lat="45.63833" lon="5.01759">
        <ele>330</ele>
        <time>2011-10-15T08:15:35Z</time>
      </trkpt>
      <trkpt lat="45.63849" lon="5.01746">
        <ele>328</ele>
        <time>2011-10-15T08:15:41Z</time>
      </trkpt>
      <trkpt lat="45.6385" lon="5.01744">
        <ele>328</ele>
        <time>2011-10-15T08:15:47Z</time>
      </trkpt>
      <trkpt lat="45.63857" lon="5.01727">
        <ele>326</ele>
        <time>2011-10-15T08:15:52Z</time>
      </trkpt>
      <trkpt lat="45.63858" lon="5.01719">
        <ele>324</ele>
        <time>2011-10-15T08:15:54Z</time>
      </trkpt>
      <trkpt lat="45.6386" lon="5.01706">
        <ele>319</ele>
        <time>2011-10-15T08:15:58Z</time>
      </trkpt>
      <trkpt lat="45.63861" lon="5.01703">
        <ele>319</ele>
        <time>2011-10-15T08:15:59Z</time>
      </trkpt>
      <trkpt lat="45.63869" lon="5.01694">
        <ele>315</ele>
        <time>2011-10-15T08:16:04Z</time>
      </trkpt>
      <trkpt lat="45.6387" lon="5.01692">
        <ele>315</ele>
        <time>2011-10-15T08:16:05Z</time>
      </trkpt>
      <trkpt lat="45.6387" lon="5.01688">
        <ele>314</ele>
        <time>2011-10-15T08:16:07Z</time>
      </trkpt>
      <trkpt lat="45.63881" lon="5.01691">
        <ele>313</ele>
        <time>2011-10-15T08:16:13Z</time>
      </trkpt>
      <trkpt lat="45.63883" lon="5.01693">
        <ele>312</ele>
        <time>2011-10-15T08:16:14Z</time>
      </trkpt>
      <trkpt lat="45.63892" lon="5.01704">
        <ele>310</ele>
        <time>2011-10-15T08:16:21Z</time>
      </trkpt>
      <trkpt lat="45.63896" lon="5.0171">
        <ele>308</ele>
        <time>2011-10-15T08:16:25Z</time>
      </trkpt>
      <trkpt lat="45.63901" lon="5.01711">
        <ele>307</ele>
        <time>2011-10-15T08:16:27Z</time>
      </trkpt>
      <trkpt lat="45.63912" lon="5.01712">
        <ele>304</ele>
        <time>2011-10-15T08:16:32Z</time>
      </trkpt>
      <trkpt lat="45.63914" lon="5.01713">
        <ele>304</ele>
        <time>2011-10-15T08:16:33Z</time>
      </trkpt>
      <trkpt lat="45.6392" lon="5.01716">
        <ele>303</ele>
        <time>2011-10-15T08:16:35Z</time>
      </trkpt>
      <trkpt lat="45.63928" lon="5.01728">
        <ele>302</ele>
        <time>2011-10-15T08:16:40Z</time>
      </trkpt>
      <trkpt lat="45.6393" lon="5.01733">
        <ele>301</ele>
        <time>2011-10-15T08:16:43Z</time>
      </trkpt>
      <trkpt lat="45.63939" lon="5.01732">
        <ele>300</ele>
        <time>2011-10-15T08:16:48Z</time>
      </trkpt>
      <trkpt lat="45.63954" lon="5.01742">
        <ele>298</ele>
        <time>2011-10-15T08:16:55Z</time>
      </trkpt>
      <trkpt lat="45.63957" lon="5.01748">
        <ele>299</ele>
        <time>2011-10-15T08:17:03Z</time>
      </trkpt>
      <trkpt lat="45.63962" lon="5.01753">
        <ele>299</ele>
        <time>2011-10-15T08:17:11Z</time>
      </trkpt>
      <trkpt lat="45.63963" lon="5.01759">
        <ele>299</ele>
        <time>2011-10-15T08:17:17Z</time>
      </trkpt>
      <trkpt lat="45.63961" lon="5.01769">
        <ele>299</ele>
        <time>2011-10-15T08:17:24Z</time>
      </trkpt>
      <trkpt lat="45.63961" lon="5.01769">
        <ele>299</ele>
        <time>2011-10-15T08:17:32Z</time>
      </trkpt>
      <trkpt lat="45.63962" lon="5.01772">
        <ele>298</ele>
        <time>2011-10-15T08:17:34Z</time>
      </trkpt>
      <trkpt lat="45.63968" lon="5.01772">
        <ele>297</ele>
        <time>2011-10-15T08:17:39Z</time>
      </trkpt>
      <trkpt lat="45.63983" lon="5.01761">
        <ele>295</ele>
        <time>2011-10-15T08:17:44Z</time>
      </trkpt>
      <trkpt lat="45.63991" lon="5.0175">
        <ele>293</ele>
        <time>2011-10-15T08:17:48Z</time>
      </trkpt>
      <trkpt lat="45.64001" lon="5.01759">
        <ele>292</ele>
        <time>2011-10-15T08:17:52Z</time>
      </trkpt>
      <trkpt lat="45.64004" lon="5.01774">
        <ele>292</ele>
        <time>2011-10-15T08:17:56Z</time>
      </trkpt>
      <trkpt lat="45.64008" lon="5.01791">
        <ele>292</ele>
        <time>2011-10-15T08:18:02Z</time>
      </trkpt>
      <trkpt lat="45.64007" lon="5.01809">
        <ele>291</ele>
        <time>2011-10-15T08:18:08Z</time>
      </trkpt>
      <trkpt lat="45.64011" lon="5.0182">
        <ele>291</ele>
        <time>2011-10-15T08:18:11Z</time>
      </trkpt>
      <trkpt lat="45.64022" lon="5.01842">
        <ele>290</ele>
        <time>2011-10-15T08:18:17Z</time>
      </trkpt>
      <trkpt lat="45.64034" lon="5.01848">
        <ele>289</ele>
        <time>2011-10-15T08:18:21Z</time>
      </trkpt>
      <trkpt lat="45.64046" lon="5.01853">
        <ele>289</ele>
        <time>2011-10-15T08:18:24Z</time>
      </trkpt>
      <trkpt lat="45.64065" lon="5.0187">
        <ele>288</ele>
        <time>2011-10-15T08:18:29Z</time>
      </trkpt>
      <trkpt lat="45.6407" lon="5.01879">
        <ele>288</ele>
        <time>2011-10-15T08:18:32Z</time>
      </trkpt>
      <trkpt lat="45.64077" lon="5.01896">
        <ele>287</ele>
        <time>2011-10-15T08:18:35Z</time>
      </trkpt>
      <trkpt lat="45.64086" lon="5.0191">
        <ele>286</ele>
        <time>2011-10-15T08:18:37Z</time>
      </trkpt>
      <trkpt lat="45.6411" lon="5.01953">
        <ele>282</ele>
        <time>2011-10-15T08:18:43Z</time>
      </trkpt>
      <trkpt lat="45.64129" lon="5.01979">
        <ele>281</ele>
        <time>2011-10-15T08:18:47Z</time>
      </trkpt>
      <trkpt lat="45.64138" lon="5.01987">
        <ele>280</ele>
        <time>2011-10-15T08:18:49Z</time>
      </trkpt>
      <trkpt lat="45.64146" lon="5.01988">
        <ele>279</ele>
        <time>2011-10-15T08:18:51Z</time>
      </trkpt>
      <trkpt lat="45.64149" lon="5.01987">
        <ele>278</ele>
        <time>2011-10-15T08:18:52Z</time>
      </trkpt>
      <trkpt lat="45.64152" lon="5.01985">
        <ele>277</ele>
        <time>2011-10-15T08:18:53Z</time>
      </trkpt>
      <trkpt lat="45.64154" lon="5.01985">
        <ele>277</ele>
        <time>2011-10-15T08:18:54Z</time>
      </trkpt>
      <trkpt lat="45.64157" lon="5.01985">
        <ele>277</ele>
        <time>2011-10-15T08:18:55Z</time>
      </trkpt>
      <trkpt lat="45.64159" lon="5.01986">
        <ele>277</ele>
        <time>2011-10-15T08:18:56Z</time>
      </trkpt>
      <trkpt lat="45.64161" lon="5.01988">
        <ele>277</ele>
        <time>2011-10-15T08:18:57Z</time>
      </trkpt>
      <trkpt lat="45.64163" lon="5.01991">
        <ele>277</ele>
        <time>2011-10-15T08:18:59Z</time>
      </trkpt>
      <trkpt lat="45.64162" lon="5.01993">
        <ele>276</ele>
        <time>2011-10-15T08:19:00Z</time>
      </trkpt>
      <trkpt lat="45.64166" lon="5.02004">
        <ele>272</ele>
        <time>2011-10-15T08:19:04Z</time>
      </trkpt>
      <trkpt lat="45.64171" lon="5.02008">
        <ele>271</ele>
        <time>2011-10-15T08:19:06Z</time>
      </trkpt>
      <trkpt lat="45.64184" lon="5.02006">
        <ele>270</ele>
        <time>2011-10-15T08:19:10Z</time>
      </trkpt>
      <trkpt lat="45.64191" lon="5.0201">
        <ele>269</ele>
        <time>2011-10-15T08:19:12Z</time>
      </trkpt>
      <trkpt lat="45.64195" lon="5.02014">
        <ele>269</ele>
        <time>2011-10-15T08:19:13Z</time>
      </trkpt>
      <trkpt lat="45.64204" lon="5.02019">
        <ele>269</ele>
        <time>2011-10-15T08:19:15Z</time>
      </trkpt>
      <trkpt lat="45.64208" lon="5.0202">
        <ele>269</ele>
        <time>2011-10-15T08:19:16Z</time>
      </trkpt>
      <trkpt lat="45.6421" lon="5.02024">
        <ele>269</ele>
        <time>2011-10-15T08:19:18Z</time>
      </trkpt>
      <trkpt lat="45.64211" lon="5.02027">
        <ele>268</ele>
        <time>2011-10-15T08:19:19Z</time>
      </trkpt>
      <trkpt lat="45.64214" lon="5.02028">
        <ele>268</ele>
        <time>2011-10-15T08:19:20Z</time>
      </trkpt>
      <trkpt lat="45.64217" lon="5.02028">
        <ele>268</ele>
        <time>2011-10-15T08:19:21Z</time>
      </trkpt>
      <trkpt lat="45.64219" lon="5.02027">
        <ele>268</ele>
        <time>2011-10-15T08:19:22Z</time>
      </trkpt>
      <trkpt lat="45.64221" lon="5.02027">
        <ele>267</ele>
        <time>2011-10-15T08:19:23Z</time>
      </trkpt>
      <trkpt lat="45.64223" lon="5.02026">
        <ele>268</ele>
        <time>2011-10-15T08:19:24Z</time>
      </trkpt>
      <trkpt lat="45.64226" lon="5.02026">
        <ele>267</ele>
        <time>2011-10-15T08:19:25Z</time>
      </trkpt>
      <trkpt lat="45.6424" lon="5.02023">
        <ele>267</ele>
        <time>2011-10-15T08:19:32Z</time>
      </trkpt>
      <trkpt lat="45.64242" lon="5.02023">
        <ele>267</ele>
        <time>2011-10-15T08:19:33Z</time>
      </trkpt>
      <trkpt lat="45.64245" lon="5.02023">
        <ele>267</ele>
        <time>2011-10-15T08:19:34Z</time>
      </trkpt>
      <trkpt lat="45.6426" lon="5.02021">
        <ele>267</ele>
        <time>2011-10-15T08:19:40Z</time>
      </trkpt>
      <trkpt lat="45.64262" lon="5.02023">
        <ele>267</ele>
        <time>2011-10-15T08:19:41Z</time>
      </trkpt>
      <trkpt lat="45.64264" lon="5.02023">
        <ele>267</ele>
        <time>2011-10-15T08:19:42Z</time>
      </trkpt>
      <trkpt lat="45.64267" lon="5.02022">
        <ele>267</ele>
        <time>2011-10-15T08:19:43Z</time>
      </trkpt>
      <trkpt lat="45.64269" lon="5.02022">
        <ele>267</ele>
        <time>2011-10-15T08:19:44Z</time>
      </trkpt>
      <trkpt lat="45.64274" lon="5.0202">
        <ele>267</ele>
        <time>2011-10-15T08:19:45Z</time>
      </trkpt>
      <trkpt lat="45.64277" lon="5.02019">
        <ele>267</ele>
        <time>2011-10-15T08:19:46Z</time>
      </trkpt>
      <trkpt lat="45.64296" lon="5.02012">
        <ele>266</ele>
        <time>2011-10-15T08:19:52Z</time>
      </trkpt>
      <trkpt lat="45.64311" lon="5.01996">
        <ele>267</ele>
        <time>2011-10-15T08:19:58Z</time>
      </trkpt>
      <trkpt lat="45.64329" lon="5.01977">
        <ele>266</ele>
        <time>2011-10-15T08:20:04Z</time>
      </trkpt>
      <trkpt lat="45.64357" lon="5.01958">
        <ele>266</ele>
        <time>2011-10-15T08:20:12Z</time>
      </trkpt>
      <trkpt lat="45.64369" lon="5.01951">
        <ele>266</ele>
        <time>2011-10-15T08:20:15Z</time>
      </trkpt>
      <trkpt lat="45.64387" lon="5.01935">
        <ele>265</ele>
        <time>2011-10-15T08:20:20Z</time>
      </trkpt>
      <trkpt lat="45.64401" lon="5.01921">
        <ele>265</ele>
        <time>2011-10-15T08:20:25Z</time>
      </trkpt>
      <trkpt lat="45.6441" lon="5.0191">
        <ele>265</ele>
        <time>2011-10-15T08:20:29Z</time>
      </trkpt>
      <trkpt lat="45.64425" lon="5.0189">
        <ele>265</ele>
        <time>2011-10-15T08:20:36Z</time>
      </trkpt>
      <trkpt lat="45.64425" lon="5.01886">
        <ele>265</ele>
        <time>2011-10-15T08:20:37Z</time>
      </trkpt>
      <trkpt lat="45.64423" lon="5.01883">
        <ele>265</ele>
        <time>2011-10-15T08:20:38Z</time>
      </trkpt>
      <trkpt lat="45.6442" lon="5.01881">
        <ele>265</ele>
        <time>2011-10-15T08:20:39Z</time>
      </trkpt>
      <trkpt lat="45.64418" lon="5.0188">
        <ele>266</ele>
        <time>2011-10-15T08:20:40Z</time>
      </trkpt>
      <trkpt lat="45.64415" lon="5.0188">
        <ele>266</ele>
        <time>2011-10-15T08:20:41Z</time>
      </trkpt>
      <trkpt lat="45.64413" lon="5.0188">
        <ele>266</ele>
        <time>2011-10-15T08:20:42Z</time>
      </trkpt>
      <trkpt lat="45.6441" lon="5.0188">
        <ele>266</ele>
        <time>2011-10-15T08:20:43Z</time>
      </trkpt>
      <trkpt lat="45.64396" lon="5.01882">
        <ele>267</ele>
        <time>2011-10-15T08:20:50Z</time>
      </trkpt>
      <trkpt lat="45.64382" lon="5.01886">
        <ele>268</ele>
        <time>2011-10-15T08:20:58Z</time>
      </trkpt>
      <trkpt lat="45.64371" lon="5.01886">
        <ele>270</ele>
        <time>2011-10-15T08:21:05Z</time>
      </trkpt>
      <trkpt lat="45.64363" lon="5.01886">
        <ele>271</ele>
        <time>2011-10-15T08:21:11Z</time>
      </trkpt>
      <trkpt lat="45.64362" lon="5.01886">
        <ele>271</ele>
        <time>2011-10-15T08:21:12Z</time>
      </trkpt>
      <trkpt lat="45.64359" lon="5.01886">
        <ele>272</ele>
        <time>2011-10-15T08:21:14Z</time>
      </trkpt>
      <trkpt lat="45.64358" lon="5.01886">
        <ele>272</ele>
        <time>2011-10-15T08:21:15Z</time>
      </trkpt>
      <trkpt lat="45.64357" lon="5.01886">
        <ele>273</ele>
        <time>2011-10-15T08:21:16Z</time>
      </trkpt>
      <trkpt lat="45.64347" lon="5.01887">
        <ele>274</ele>
        <time>2011-10-15T08:21:21Z</time>
      </trkpt>
      <trkpt lat="45.64346" lon="5.01886">
        <ele>274</ele>
        <time>2011-10-15T08:21:22Z</time>
      </trkpt>
      <trkpt lat="45.64345" lon="5.01886">
        <ele>274</ele>
        <time>2011-10-15T08:21:23Z</time>
      </trkpt>
      <trkpt lat="45.64343" lon="5.01886">
        <ele>274</ele>
        <time>2011-10-15T08:21:24Z</time>
      </trkpt>
      <trkpt lat="45.64341" lon="5.01885">
        <ele>275</ele>
        <time>2011-10-15T08:21:25Z</time>
      </trkpt>
      <trkpt lat="45.6434" lon="5.01884">
        <ele>275</ele>
        <time>2011-10-15T08:21:26Z</time>
      </trkpt>
      <trkpt lat="45.64339" lon="5.01883">
        <ele>275</ele>
        <time>2011-10-15T08:21:27Z</time>
      </trkpt>
      <trkpt lat="45.64338" lon="5.01883">
        <ele>275</ele>
        <time>2011-10-15T08:21:28Z</time>
      </trkpt>
      <trkpt lat="45.64337" lon="5.01883">
        <ele>276</ele>
        <time>2011-10-15T08:21:29Z</time>
      </trkpt>
      <trkpt lat="45.64336" lon="5.01882">
        <ele>276</ele>
        <time>2011-10-15T08:21:30Z</time>
      </trkpt>
      <trkpt lat="45.64335" lon="5.01881">
        <ele>276</ele>
        <time>2011-10-15T08:21:31Z</time>
      </trkpt>
      <trkpt lat="45.64333" lon="5.01881">
        <ele>276</ele>
        <time>2011-10-15T08:21:32Z</time>
      </trkpt>
      <trkpt lat="45.64327" lon="5.01879">
        <ele>277</ele>
        <time>2011-10-15T08:21:37Z</time>
      </trkpt>
      <trkpt lat="45.64324" lon="5.01875">
        <ele>277</ele>
        <time>2011-10-15T08:21:40Z</time>
      </trkpt>
      <trkpt lat="45.64324" lon="5.01874">
        <ele>277</ele>
        <time>2011-10-15T08:21:41Z</time>
      </trkpt>
      <trkpt lat="45.64323" lon="5.01873">
        <ele>278</ele>
        <time>2011-10-15T08:21:42Z</time>
      </trkpt>
      <trkpt lat="45.64322" lon="5.01872">
        <ele>278</ele>
        <time>2011-10-15T08:21:43Z</time>
      </trkpt>
      <trkpt lat="45.64321" lon="5.01871">
        <ele>278</ele>
        <time>2011-10-15T08:21:44Z</time>
      </trkpt>
      <trkpt lat="45.6432" lon="5.0187">
        <ele>278</ele>
        <time>2011-10-15T08:21:45Z</time>
      </trkpt>
      <trkpt lat="45.64318" lon="5.01869">
        <ele>279</ele>
        <time>2011-10-15T08:21:46Z</time>
      </trkpt>
      <trkpt lat="45.64309" lon="5.01866">
        <ele>280</ele>
        <time>2011-10-15T08:21:53Z</time>
      </trkpt>
      <trkpt lat="45.64301" lon="5.0186">
        <ele>281</ele>
        <time>2011-10-15T08:21:59Z</time>
      </trkpt>
      <trkpt lat="45.64293" lon="5.01853">
        <ele>283</ele>
        <time>2011-10-15T08:22:07Z</time>
      </trkpt>
      <trkpt lat="45.64283" lon="5.01838">
        <ele>285</ele>
        <time>2011-10-15T08:22:16Z</time>
      </trkpt>
      <trkpt lat="45.64276" lon="5.01825">
        <ele>287</ele>
        <time>2011-10-15T08:22:24Z</time>
      </trkpt>
      <trkpt lat="45.64272" lon="5.01816">
        <ele>288</ele>
        <time>2011-10-15T08:22:30Z</time>
      </trkpt>
      <trkpt lat="45.64271" lon="5.01814">
        <ele>289</ele>
        <time>2011-10-15T08:22:32Z</time>
      </trkpt>
      <trkpt lat="45.6427" lon="5.01812">
        <ele>289</ele>
        <time>2011-10-15T08:22:33Z</time>
      </trkpt>
      <trkpt lat="45.6427" lon="5.0181">
        <ele>289</ele>
        <time>2011-10-15T08:22:34Z</time>
      </trkpt>
      <trkpt lat="45.64269" lon="5.01808">
        <ele>289</ele>
        <time>2011-10-15T08:22:35Z</time>
      </trkpt>
      <trkpt lat="45.64269" lon="5.01806">
        <ele>289</ele>
        <time>2011-10-15T08:22:36Z</time>
      </trkpt>
      <trkpt lat="45.64268" lon="5.01804">
        <ele>290</ele>
        <time>2011-10-15T08:22:37Z</time>
      </trkpt>
      <trkpt lat="45.64268" lon="5.01803">
        <ele>290</ele>
        <time>2011-10-15T08:22:38Z</time>
      </trkpt>
      <trkpt lat="45.64263" lon="5.01789">
        <ele>291</ele>
        <time>2011-10-15T08:22:46Z</time>
      </trkpt>
      <trkpt lat="45.64259" lon="5.01776">
        <ele>293</ele>
        <time>2011-10-15T08:22:53Z</time>
      </trkpt>
      <trkpt lat="45.64259" lon="5.01774">
        <ele>293</ele>
        <time>2011-10-15T08:22:54Z</time>
      </trkpt>
      <trkpt lat="45.64258" lon="5.01772">
        <ele>293</ele>
        <time>2011-10-15T08:22:55Z</time>
      </trkpt>
      <trkpt lat="45.64257" lon="5.0177">
        <ele>293</ele>
        <time>2011-10-15T08:22:56Z</time>
      </trkpt>
      <trkpt lat="45.64257" lon="5.01768">
        <ele>293</ele>
        <time>2011-10-15T08:22:57Z</time>
      </trkpt>
      <trkpt lat="45.64256" lon="5.01766">
        <ele>293</ele>
        <time>2011-10-15T08:22:58Z</time>
      </trkpt>
      <trkpt lat="45.64255" lon="5.01765">
        <ele>294</ele>
        <time>2011-10-15T08:22:59Z</time>
      </trkpt>
      <trkpt lat="45.64254" lon="5.01763">
        <ele>294</ele>
        <time>2011-10-15T08:23:00Z</time>
      </trkpt>
      <trkpt lat="45.64254" lon="5.01762">
        <ele>294</ele>
        <time>2011-10-15T08:23:01Z</time>
      </trkpt>
      <trkpt lat="45.64253" lon="5.0176">
        <ele>294</ele>
        <time>2011-10-15T08:23:02Z</time>
      </trkpt>
      <trkpt lat="45.64249" lon="5.01745">
        <ele>296</ele>
        <time>2011-10-15T08:23:11Z</time>
      </trkpt>
      <trkpt lat="45.64249" lon="5.01738">
        <ele>297</ele>
        <time>2011-10-15T08:23:15Z</time>
      </trkpt>
      <trkpt lat="45.64249" lon="5.01736">
        <ele>297</ele>
        <time>2011-10-15T08:23:16Z</time>
      </trkpt>
      <trkpt lat="45.64249" lon="5.01734">
        <ele>298</ele>
        <time>2011-10-15T08:23:17Z</time>
      </trkpt>
      <trkpt lat="45.64249" lon="5.01732">
        <ele>298</ele>
        <time>2011-10-15T08:23:18Z</time>
      </trkpt>
      <trkpt lat="45.64248" lon="5.01731">
        <ele>298</ele>
        <time>2011-10-15T08:23:19Z</time>
      </trkpt>
      <trkpt lat="45.64249" lon="5.01729">
        <ele>299</ele>
        <time>2011-10-15T08:23:20Z</time>
      </trkpt>
      <trkpt lat="45.64249" lon="5.01727">
        <ele>298</ele>
        <time>2011-10-15T08:23:21Z</time>
      </trkpt>
      <trkpt lat="45.64249" lon="5.01725">
        <ele>299</ele>
        <time>2011-10-15T08:23:22Z</time>
      </trkpt>
      <trkpt lat="45.64249" lon="5.01723">
        <ele>299</ele>
        <time>2011-10-15T08:23:23Z</time>
      </trkpt>
      <trkpt lat="45.6425" lon="5.01721">
        <ele>299</ele>
        <time>2011-10-15T08:23:24Z</time>
      </trkpt>
      <trkpt lat="45.6425" lon="5.01719">
        <ele>299</ele>
        <time>2011-10-15T08:23:25Z</time>
      </trkpt>
      <trkpt lat="45.6425" lon="5.01717">
        <ele>299</ele>
        <time>2011-10-15T08:23:26Z</time>
      </trkpt>
      <trkpt lat="45.64251" lon="5.01714">
        <ele>300</ele>
        <time>2011-10-15T08:23:28Z</time>
      </trkpt>
      <trkpt lat="45.64251" lon="5.01712">
        <ele>300</ele>
        <time>2011-10-15T08:23:29Z</time>
      </trkpt>
      <trkpt lat="45.64252" lon="5.01697">
        <ele>301</ele>
        <time>2011-10-15T08:23:37Z</time>
      </trkpt>
      <trkpt lat="45.6425" lon="5.01681">
        <ele>302</ele>
        <time>2011-10-15T08:23:45Z</time>
      </trkpt>
      <trkpt lat="45.64249" lon="5.01668">
        <ele>304</ele>
        <time>2011-10-15T08:23:52Z</time>
      </trkpt>
      <trkpt lat="45.64249" lon="5.01666">
        <ele>304</ele>
        <time>2011-10-15T08:23:53Z</time>
      </trkpt>
      <trkpt lat="45.64248" lon="5.01664">
        <ele>305</ele>
        <time>2011-10-15T08:23:54Z</time>
      </trkpt>
      <trkpt lat="45.64245" lon="5.01647">
        <ele>307</ele>
        <time>2011-10-15T08:24:03Z</time>
      </trkpt>
      <trkpt lat="45.64242" lon="5.0163">
        <ele>308</ele>
        <time>2011-10-15T08:24:12Z</time>
      </trkpt>
      <trkpt lat="45.64241" lon="5.01625">
        <ele>309</ele>
        <time>2011-10-15T08:24:15Z</time>
      </trkpt>
      <trkpt lat="45.64241" lon="5.01623">
        <ele>309</ele>
        <time>2011-10-15T08:24:16Z</time>
      </trkpt>
      <trkpt lat="45.6424" lon="5.01621">
        <ele>309</ele>
        <time>2011-10-15T08:24:17Z</time>
      </trkpt>
      <trkpt lat="45.6424" lon="5.01619">
        <ele>309</ele>
        <time>2011-10-15T08:24:18Z</time>
      </trkpt>
      <trkpt lat="45.64239" lon="5.01617">
        <ele>309</ele>
        <time>2011-10-15T08:24:19Z</time>
      </trkpt>
      <trkpt lat="45.64237" lon="5.01615">
        <ele>310</ele>
        <time>2011-10-15T08:24:20Z</time>
      </trkpt>
      <trkpt lat="45.64236" lon="5.01614">
        <ele>310</ele>
        <time>2011-10-15T08:24:21Z</time>
      </trkpt>
      <trkpt lat="45.64225" lon="5.0161">
        <ele>312</ele>
        <time>2011-10-15T08:24:29Z</time>
      </trkpt>
      <trkpt lat="45.64224" lon="5.01611">
        <ele>311</ele>
        <time>2011-10-15T08:24:30Z</time>
      </trkpt>
      <trkpt lat="45.64222" lon="5.0161">
        <ele>312</ele>
        <time>2011-10-15T08:24:31Z</time>
      </trkpt>
      <trkpt lat="45.64221" lon="5.0161">
        <ele>312</ele>
        <time>2011-10-15T08:24:32Z</time>
      </trkpt>
      <trkpt lat="45.64219" lon="5.01609">
        <ele>313</ele>
        <time>2011-10-15T08:24:33Z</time>
      </trkpt>
      <trkpt lat="45.64218" lon="5.01609">
        <ele>313</ele>
        <time>2011-10-15T08:24:34Z</time>
      </trkpt>
      <trkpt lat="45.64216" lon="5.01608">
        <ele>313</ele>
        <time>2011-10-15T08:24:35Z</time>
      </trkpt>
      <trkpt lat="45.64215" lon="5.01608">
        <ele>313</ele>
        <time>2011-10-15T08:24:36Z</time>
      </trkpt>
      <trkpt lat="45.64214" lon="5.01607">
        <ele>313</ele>
        <time>2011-10-15T08:24:37Z</time>
      </trkpt>
      <trkpt lat="45.64213" lon="5.01606">
        <ele>313</ele>
        <time>2011-10-15T08:24:38Z</time>
      </trkpt>
      <trkpt lat="45.64211" lon="5.01606">
        <ele>313</ele>
        <time>2011-10-15T08:24:39Z</time>
      </trkpt>
      <trkpt lat="45.6421" lon="5.01606">
        <ele>314</ele>
        <time>2011-10-15T08:24:40Z</time>
      </trkpt>
      <trkpt lat="45.64203" lon="5.01603">
        <ele>314</ele>
        <time>2011-10-15T08:24:45Z</time>
      </trkpt>
      <trkpt lat="45.64202" lon="5.01603">
        <ele>315</ele>
        <time>2011-10-15T08:24:46Z</time>
      </trkpt>
      <trkpt lat="45.642" lon="5.01603">
        <ele>314</ele>
        <time>2011-10-15T08:24:47Z</time>
      </trkpt>
      <trkpt lat="45.64187" lon="5.01605">
        <ele>316</ele>
        <time>2011-10-15T08:24:57Z</time>
      </trkpt>
      <trkpt lat="45.64174" lon="5.01603">
        <ele>317</ele>
        <time>2011-10-15T08:25:06Z</time>
      </trkpt>
      <trkpt lat="45.64166" lon="5.01595">
        <ele>319</ele>
        <time>2011-10-15T08:25:13Z</time>
      </trkpt>
      <trkpt lat="45.64165" lon="5.01593">
        <ele>319</ele>
        <time>2011-10-15T08:25:14Z</time>
      </trkpt>
      <trkpt lat="45.64164" lon="5.01592">
        <ele>319</ele>
        <time>2011-10-15T08:25:15Z</time>
      </trkpt>
      <trkpt lat="45.64163" lon="5.01591">
        <ele>319</ele>
        <time>2011-10-15T08:25:16Z</time>
      </trkpt>
      <trkpt lat="45.64162" lon="5.01589">
        <ele>319</ele>
        <time>2011-10-15T08:25:17Z</time>
      </trkpt>
      <trkpt lat="45.64161" lon="5.01588">
        <ele>320</ele>
        <time>2011-10-15T08:25:18Z</time>
      </trkpt>
      <trkpt lat="45.64159" lon="5.01586">
        <ele>320</ele>
        <time>2011-10-15T08:25:20Z</time>
      </trkpt>
      <trkpt lat="45.64152" lon="5.01573">
        <ele>322</ele>
        <time>2011-10-15T08:25:29Z</time>
      </trkpt>
      <trkpt lat="45.64151" lon="5.01572">
        <ele>323</ele>
        <time>2011-10-15T08:25:30Z</time>
      </trkpt>
      <trkpt lat="45.64149" lon="5.01569">
        <ele>323</ele>
        <time>2011-10-15T08:25:32Z</time>
      </trkpt>
      <trkpt lat="45.64148" lon="5.01569">
        <ele>324</ele>
        <time>2011-10-15T08:25:33Z</time>
      </trkpt>
      <trkpt lat="45.64147" lon="5.01567">
        <ele>324</ele>
        <time>2011-10-15T08:25:34Z</time>
      </trkpt>
      <trkpt lat="45.64146" lon="5.01566">
        <ele>324</ele>
        <time>2011-10-15T08:25:35Z</time>
      </trkpt>
      <trkpt lat="45.64145" lon="5.01565">
        <ele>325</ele>
        <time>2011-10-15T08:25:36Z</time>
      </trkpt>
      <trkpt lat="45.64143" lon="5.01563">
        <ele>324</ele>
        <time>2011-10-15T08:25:37Z</time>
      </trkpt>
      <trkpt lat="45.6414" lon="5.0156">
        <ele>325</ele>
        <time>2011-10-15T08:25:40Z</time>
      </trkpt>
      <trkpt lat="45.64139" lon="5.01559">
        <ele>325</ele>
        <time>2011-10-15T08:25:41Z</time>
      </trkpt>
      <trkpt lat="45.64137" lon="5.01558">
        <ele>326</ele>
        <time>2011-10-15T08:25:42Z</time>
      </trkpt>
      <trkpt lat="45.64132" lon="5.01552">
        <ele>326</ele>
        <time>2011-10-15T08:25:47Z</time>
      </trkpt>
      <trkpt lat="45.64131" lon="5.0155">
        <ele>326</ele>
        <time>2011-10-15T08:25:48Z</time>
      </trkpt>
      <trkpt lat="45.64129" lon="5.01549">
        <ele>326</ele>
        <time>2011-10-15T08:25:49Z</time>
      </trkpt>
      <trkpt lat="45.64128" lon="5.01547">
        <ele>326</ele>
        <time>2011-10-15T08:25:50Z</time>
      </trkpt>
      <trkpt lat="45.64127" lon="5.01545">
        <ele>327</ele>
        <time>2011-10-15T08:25:51Z</time>
      </trkpt>
      <trkpt lat="45.64125" lon="5.01543">
        <ele>327</ele>
        <time>2011-10-15T08:25:52Z</time>
      </trkpt>
      <trkpt lat="45.64124" lon="5.01542">
        <ele>327</ele>
        <time>2011-10-15T08:25:53Z</time>
      </trkpt>
      <trkpt lat="45.64114" lon="5.01532">
        <ele>329</ele>
        <time>2011-10-15T08:26:00Z</time>
      </trkpt>
      <trkpt lat="45.64106" lon="5.01524">
        <ele>329</ele>
        <time>2011-10-15T08:26:06Z</time>
      </trkpt>
      <trkpt lat="45.64098" lon="5.01517">
        <ele>329</ele>
        <time>2011-10-15T08:26:12Z</time>
      </trkpt>
      <trkpt lat="45.64097" lon="5.01515">
        <ele>330</ele>
        <time>2011-10-15T08:26:13Z</time>
      </trkpt>
      <trkpt lat="45.64096" lon="5.01513">
        <ele>330</ele>
        <time>2011-10-15T08:26:14Z</time>
      </trkpt>
      <trkpt lat="45.64094" lon="5.01512">
        <ele>330</ele>
        <time>2011-10-15T08:26:15Z</time>
      </trkpt>
      <trkpt lat="45.64093" lon="5.01511">
        <ele>331</ele>
        <time>2011-10-15T08:26:16Z</time>
      </trkpt>
      <trkpt lat="45.6408" lon="5.01502">
        <ele>331</ele>
        <time>2011-10-15T08:26:23Z</time>
      </trkpt>
      <trkpt lat="45.6406" lon="5.01484">
        <ele>331</ele>
        <time>2011-10-15T08:26:32Z</time>
      </trkpt>
      <trkpt lat="45.64042" lon="5.01463">
        <ele>332</ele>
        <time>2011-10-15T08:26:40Z</time>
      </trkpt>
      <trkpt lat="45.6402" lon="5.01438">
        <ele>332</ele>
        <time>2011-10-15T08:26:49Z</time>
      </trkpt>
      <trkpt lat="45.63994" lon="5.0141">
        <ele>333</ele>
        <time>2011-10-15T08:26:59Z</time>
      </trkpt>
      <trkpt lat="45.63976" lon="5.01386">
        <ele>333</ele>
        <time>2011-10-15T08:27:06Z</time>
      </trkpt>
      <trkpt lat="45.63961" lon="5.01362">
        <ele>334</ele>
        <time>2011-10-15T08:27:13Z</time>
      </trkpt>
      <trkpt lat="45.63949" lon="5.01341">
        <ele>335</ele>
        <time>2011-10-15T08:27:19Z</time>
      </trkpt>
      <trkpt lat="45.63931" lon="5.01319">
        <ele>336</ele>
        <time>2011-10-15T08:27:26Z</time>
      </trkpt>
      <trkpt lat="45.63914" lon="5.013">
        <ele>337</ele>
        <time>2011-10-15T08:27:33Z</time>
      </trkpt>
      <trkpt lat="45.63894" lon="5.01292">
        <ele>338</ele>
        <time>2011-10-15T08:27:40Z</time>
      </trkpt>
      <trkpt lat="45.63891" lon="5.01291">
        <ele>338</ele>
        <time>2011-10-15T08:27:41Z</time>
      </trkpt>
      <trkpt lat="45.63889" lon="5.0129">
        <ele>338</ele>
        <time>2011-10-15T08:27:42Z</time>
      </trkpt>
      <trkpt lat="45.63886" lon="5.0129">
        <ele>338</ele>
        <time>2011-10-15T08:27:43Z</time>
      </trkpt>
      <trkpt lat="45.63884" lon="5.0129">
        <ele>338</ele>
        <time>2011-10-15T08:27:44Z</time>
      </trkpt>
      <trkpt lat="45.63881" lon="5.0129">
        <ele>339</ele>
        <time>2011-10-15T08:27:45Z</time>
      </trkpt>
      <trkpt lat="45.63878" lon="5.01289">
        <ele>339</ele>
        <time>2011-10-15T08:27:46Z</time>
      </trkpt>
      <trkpt lat="45.63876" lon="5.01286">
        <ele>339</ele>
        <time>2011-10-15T08:27:47Z</time>
      </trkpt>
      <trkpt lat="45.63874" lon="5.01283">
        <ele>339</ele>
        <time>2011-10-15T08:27:48Z</time>
      </trkpt>
      <trkpt lat="45.63872" lon="5.01279">
        <ele>339</ele>
        <time>2011-10-15T08:27:49Z</time>
      </trkpt>
      <trkpt lat="45.63871" lon="5.01275">
        <ele>339</ele>
        <time>2011-10-15T08:27:50Z</time>
      </trkpt>
      <trkpt lat="45.6387" lon="5.01271">
        <ele>339</ele>
        <time>2011-10-15T08:27:51Z</time>
      </trkpt>
      <trkpt lat="45.63865" lon="5.01232">
        <ele>339</ele>
        <time>2011-10-15T08:27:59Z</time>
      </trkpt>
      <trkpt lat="45.63856" lon="5.01196">
        <ele>338</ele>
        <time>2011-10-15T08:28:06Z</time>
      </trkpt>
      <trkpt lat="45.63841" lon="5.01157">
        <ele>338</ele>
        <time>2011-10-15T08:28:14Z</time>
      </trkpt>
      <trkpt lat="45.6383" lon="5.01132">
        <ele>339</ele>
        <time>2011-10-15T08:28:20Z</time>
      </trkpt>
      <trkpt lat="45.6382" lon="5.0111">
        <ele>340</ele>
        <time>2011-10-15T08:28:26Z</time>
      </trkpt>
      <trkpt lat="45.63812" lon="5.01092">
        <ele>341</ele>
        <time>2011-10-15T08:28:32Z</time>
      </trkpt>
      <trkpt lat="45.6381" lon="5.01089">
        <ele>342</ele>
        <time>2011-10-15T08:28:33Z</time>
      </trkpt>
      <trkpt lat="45.63809" lon="5.01086">
        <ele>342</ele>
        <time>2011-10-15T08:28:34Z</time>
      </trkpt>
      <trkpt lat="45.63807" lon="5.01084">
        <ele>342</ele>
        <time>2011-10-15T08:28:35Z</time>
      </trkpt>
      <trkpt lat="45.63805" lon="5.01081">
        <ele>342</ele>
        <time>2011-10-15T08:28:36Z</time>
      </trkpt>
      <trkpt lat="45.63803" lon="5.01078">
        <ele>343</ele>
        <time>2011-10-15T08:28:37Z</time>
      </trkpt>
      <trkpt lat="45.63788" lon="5.01058">
        <ele>344</ele>
        <time>2011-10-15T08:28:45Z</time>
      </trkpt>
      <trkpt lat="45.63771" lon="5.01043">
        <ele>346</ele>
        <time>2011-10-15T08:28:53Z</time>
      </trkpt>
      <trkpt lat="45.63751" lon="5.01031">
        <ele>346</ele>
        <time>2011-10-15T08:29:01Z</time>
      </trkpt>
      <trkpt lat="45.63734" lon="5.01023">
        <ele>347</ele>
        <time>2011-10-15T08:29:07Z</time>
      </trkpt>
      <trkpt lat="45.63708" lon="5.0101">
        <ele>346</ele>
        <time>2011-10-15T08:29:14Z</time>
      </trkpt>
      <trkpt lat="45.63679" lon="5.00994">
        <ele>347</ele>
        <time>2011-10-15T08:29:23Z</time>
      </trkpt>
      <trkpt lat="45.63651" lon="5.00978">
        <ele>348</ele>
        <time>2011-10-15T08:29:32Z</time>
      </trkpt>
      <trkpt lat="45.63625" lon="5.00955">
        <ele>349</ele>
        <time>2011-10-15T08:29:41Z</time>
      </trkpt>
      <trkpt lat="45.63604" lon="5.00922">
        <ele>350</ele>
        <time>2011-10-15T08:29:50Z</time>
      </trkpt>
      <trkpt lat="45.63585" lon="5.00889">
        <ele>351</ele>
        <time>2011-10-15T08:29:59Z</time>
      </trkpt>
      <trkpt lat="45.63576" lon="5.00837">
        <ele>351</ele>
        <time>2011-10-15T08:30:09Z</time>
      </trkpt>
      <trkpt lat="45.63567" lon="5.00789">
        <ele>351</ele>
        <time>2011-10-15T08:30:18Z</time>
      </trkpt>
      <trkpt lat="45.6356" lon="5.00755">
        <ele>352</ele>
        <time>2011-10-15T08:30:25Z</time>
      </trkpt>
      <trkpt lat="45.63556" lon="5.00709">
        <ele>353</ele>
        <time>2011-10-15T08:30:34Z</time>
      </trkpt>
      <trkpt lat="45.63566" lon="5.00684">
        <ele>353</ele>
        <time>2011-10-15T08:30:40Z</time>
      </trkpt>
      <trkpt lat="45.63587" lon="5.00658">
        <ele>352</ele>
        <time>2011-10-15T08:30:47Z</time>
      </trkpt>
      <trkpt lat="45.63601" lon="5.00638">
        <ele>352</ele>
        <time>2011-10-15T08:30:51Z</time>
      </trkpt>
      <trkpt lat="45.63605" lon="5.00634">
        <ele>351</ele>
        <time>2011-10-15T08:30:52Z</time>
      </trkpt>
      <trkpt lat="45.63609" lon="5.00629">
        <ele>351</ele>
        <time>2011-10-15T08:30:53Z</time>
      </trkpt>
      <trkpt lat="45.63613" lon="5.00624">
        <ele>351</ele>
        <time>2011-10-15T08:30:54Z</time>
      </trkpt>
      <trkpt lat="45.63616" lon="5.00618">
        <ele>351</ele>
        <time>2011-10-15T08:30:55Z</time>
      </trkpt>
      <trkpt lat="45.63644" lon="5.00583">
        <ele>350</ele>
        <time>2011-10-15T08:31:02Z</time>
      </trkpt>
      <trkpt lat="45.63664" lon="5.00558">
        <ele>348</ele>
        <time>2011-10-15T08:31:07Z</time>
      </trkpt>
      <trkpt lat="45.63677" lon="5.0054">
        <ele>348</ele>
        <time>2011-10-15T08:31:10Z</time>
      </trkpt>
      <trkpt lat="45.63692" lon="5.00516">
        <ele>347</ele>
        <time>2011-10-15T08:31:13Z</time>
      </trkpt>
      <trkpt lat="45.63697" lon="5.00508">
        <ele>345</ele>
        <time>2011-10-15T08:31:14Z</time>
      </trkpt>
      <trkpt lat="45.63723" lon="5.00447">
        <ele>342</ele>
        <time>2011-10-15T08:31:20Z</time>
      </trkpt>
      <trkpt lat="45.63748" lon="5.00387">
        <ele>339</ele>
        <time>2011-10-15T08:31:25Z</time>
      </trkpt>
      <trkpt lat="45.63768" lon="5.00335">
        <ele>335</ele>
        <time>2011-10-15T08:31:29Z</time>
      </trkpt>
      <trkpt lat="45.63788" lon="5.00282">
        <ele>331</ele>
        <time>2011-10-15T08:31:33Z</time>
      </trkpt>
      <trkpt lat="45.63797" lon="5.00259">
        <ele>328</ele>
        <time>2011-10-15T08:31:35Z</time>
      </trkpt>
      <trkpt lat="45.63803" lon="5.0024">
        <ele>326</ele>
        <time>2011-10-15T08:31:37Z</time>
      </trkpt>
      <trkpt lat="45.63804" lon="5.00231">
        <ele>325</ele>
        <time>2011-10-15T08:31:38Z</time>
      </trkpt>
      <trkpt lat="45.63805" lon="5.00223">
        <ele>325</ele>
        <time>2011-10-15T08:31:39Z</time>
      </trkpt>
      <trkpt lat="45.63805" lon="5.00216">
        <ele>324</ele>
        <time>2011-10-15T08:31:40Z</time>
      </trkpt>
      <trkpt lat="45.63805" lon="5.00209">
        <ele>324</ele>
        <time>2011-10-15T08:31:41Z</time>
      </trkpt>
      <trkpt lat="45.63804" lon="5.00202">
        <ele>324</ele>
        <time>2011-10-15T08:31:42Z</time>
      </trkpt>
      <trkpt lat="45.63803" lon="5.00196">
        <ele>324</ele>
        <time>2011-10-15T08:31:43Z</time>
      </trkpt>
      <trkpt lat="45.63801" lon="5.0019">
        <ele>325</ele>
        <time>2011-10-15T08:31:44Z</time>
      </trkpt>
      <trkpt lat="45.638" lon="5.00184">
        <ele>325</ele>
        <time>2011-10-15T08:31:45Z</time>
      </trkpt>
      <trkpt lat="45.63798" lon="5.00179">
        <ele>326</ele>
        <time>2011-10-15T08:31:46Z</time>
      </trkpt>
      <trkpt lat="45.63786" lon="5.00153">
        <ele>326</ele>
        <time>2011-10-15T08:31:52Z</time>
      </trkpt>
      <trkpt lat="45.63772" lon="5.00134">
        <ele>327</ele>
        <time>2011-10-15T08:31:58Z</time>
      </trkpt>
      <trkpt lat="45.63755" lon="5.00114">
        <ele>327</ele>
        <time>2011-10-15T08:32:04Z</time>
      </trkpt>
      <trkpt lat="45.63729" lon="5.00081">
        <ele>328</ele>
        <time>2011-10-15T08:32:12Z</time>
      </trkpt>
      <trkpt lat="45.63704" lon="5.00046">
        <ele>328</ele>
        <time>2011-10-15T08:32:20Z</time>
      </trkpt>
      <trkpt lat="45.63682" lon="5.00013">
        <ele>330</ele>
        <time>2011-10-15T08:32:28Z</time>
      </trkpt>
      <trkpt lat="45.63662" lon="4.99979">
        <ele>329</ele>
        <time>2011-10-15T08:32:36Z</time>
      </trkpt>
      <trkpt lat="45.6363" lon="4.99928">
        <ele>330</ele>
        <time>2011-10-15T08:32:46Z</time>
      </trkpt>
      <trkpt lat="45.63601" lon="4.99891">
        <ele>331</ele>
        <time>2011-10-15T08:32:55Z</time>
      </trkpt>
      <trkpt lat="45.63591" lon="4.9987">
        <ele>330</ele>
        <time>2011-10-15T08:33:00Z</time>
      </trkpt>
      <trkpt lat="45.63589" lon="4.99864">
        <ele>330</ele>
        <time>2011-10-15T08:33:01Z</time>
      </trkpt>
      <trkpt lat="45.63588" lon="4.99858">
        <ele>329</ele>
        <time>2011-10-15T08:33:02Z</time>
      </trkpt>
      <trkpt lat="45.63587" lon="4.99851">
        <ele>329</ele>
        <time>2011-10-15T08:33:03Z</time>
      </trkpt>
      <trkpt lat="45.63587" lon="4.99843">
        <ele>329</ele>
        <time>2011-10-15T08:33:04Z</time>
      </trkpt>
      <trkpt lat="45.63588" lon="4.99837">
        <ele>329</ele>
        <time>2011-10-15T08:33:05Z</time>
      </trkpt>
      <trkpt lat="45.6359" lon="4.99816">
        <ele>330</ele>
        <time>2011-10-15T08:33:09Z</time>
      </trkpt>
      <trkpt lat="45.63592" lon="4.99813">
        <ele>330</ele>
        <time>2011-10-15T08:33:10Z</time>
      </trkpt>
      <trkpt lat="45.63595" lon="4.99811">
        <ele>330</ele>
        <time>2011-10-15T08:33:11Z</time>
      </trkpt>
      <trkpt lat="45.63598" lon="4.9981">
        <ele>330</ele>
        <time>2011-10-15T08:33:12Z</time>
      </trkpt>
      <trkpt lat="45.63601" lon="4.99809">
        <ele>330</ele>
        <time>2011-10-15T08:33:13Z</time>
      </trkpt>
      <trkpt lat="45.63604" lon="4.99809">
        <ele>330</ele>
        <time>2011-10-15T08:33:14Z</time>
      </trkpt>
      <trkpt lat="45.63607" lon="4.9981">
        <ele>330</ele>
        <time>2011-10-15T08:33:15Z</time>
      </trkpt>
      <trkpt lat="45.63611" lon="4.9981">
        <ele>330</ele>
        <time>2011-10-15T08:33:16Z</time>
      </trkpt>
      <trkpt lat="45.63615" lon="4.9981">
        <ele>330</ele>
        <time>2011-10-15T08:33:17Z</time>
      </trkpt>
      <trkpt lat="45.63646" lon="4.99804">
        <ele>326</ele>
        <time>2011-10-15T08:33:22Z</time>
      </trkpt>
      <trkpt lat="45.63664" lon="4.998">
        <ele>324</ele>
        <time>2011-10-15T08:33:24Z</time>
      </trkpt>
      <trkpt lat="45.63674" lon="4.99795">
        <ele>322</ele>
        <time>2011-10-15T08:33:25Z</time>
      </trkpt>
      <trkpt lat="45.63684" lon="4.99787">
        <ele>319</ele>
        <time>2011-10-15T08:33:26Z</time>
      </trkpt>
      <trkpt lat="45.63704" lon="4.99769">
        <ele>316</ele>
        <time>2011-10-15T08:33:28Z</time>
      </trkpt>
      <trkpt lat="45.63723" lon="4.99741">
        <ele>313</ele>
        <time>2011-10-15T08:33:30Z</time>
      </trkpt>
      <trkpt lat="45.63753" lon="4.99698">
        <ele>310</ele>
        <time>2011-10-15T08:33:33Z</time>
      </trkpt>
      <trkpt lat="45.6378" lon="4.99654">
        <ele>309</ele>
        <time>2011-10-15T08:33:37Z</time>
      </trkpt>
      <trkpt lat="45.63788" lon="4.99634">
        <ele>310</ele>
        <time>2011-10-15T08:33:39Z</time>
      </trkpt>
      <trkpt lat="45.63792" lon="4.99624">
        <ele>310</ele>
        <time>2011-10-15T08:33:40Z</time>
      </trkpt>
      <trkpt lat="45.63795" lon="4.99615">
        <ele>309</ele>
        <time>2011-10-15T08:33:41Z</time>
      </trkpt>
      <trkpt lat="45.63799" lon="4.99597">
        <ele>308</ele>
        <time>2011-10-15T08:33:43Z</time>
      </trkpt>
      <trkpt lat="45.63801" lon="4.99589">
        <ele>308</ele>
        <time>2011-10-15T08:33:44Z</time>
      </trkpt>
      <trkpt lat="45.63811" lon="4.99557">
        <ele>305</ele>
        <time>2011-10-15T08:33:47Z</time>
      </trkpt>
      <trkpt lat="45.63813" lon="4.99544">
        <ele>304</ele>
        <time>2011-10-15T08:33:48Z</time>
      </trkpt>
      <trkpt lat="45.63815" lon="4.9953">
        <ele>302</ele>
        <time>2011-10-15T08:33:49Z</time>
      </trkpt>
      <trkpt lat="45.63818" lon="4.99516">
        <ele>301</ele>
        <time>2011-10-15T08:33:50Z</time>
      </trkpt>
      <trkpt lat="45.63822" lon="4.99502">
        <ele>300</ele>
        <time>2011-10-15T08:33:51Z</time>
      </trkpt>
      <trkpt lat="45.63826" lon="4.99487">
        <ele>299</ele>
        <time>2011-10-15T08:33:52Z</time>
      </trkpt>
      <trkpt lat="45.6383" lon="4.99472">
        <ele>297</ele>
        <time>2011-10-15T08:33:53Z</time>
      </trkpt>
      <trkpt lat="45.63832" lon="4.99456">
        <ele>296</ele>
        <time>2011-10-15T08:33:54Z</time>
      </trkpt>
      <trkpt lat="45.63834" lon="4.9944">
        <ele>295</ele>
        <time>2011-10-15T08:33:55Z</time>
      </trkpt>
      <trkpt lat="45.6384" lon="4.99396">
        <ele>291</ele>
        <time>2011-10-15T08:33:58Z</time>
      </trkpt>
      <trkpt lat="45.63839" lon="4.99382">
        <ele>291</ele>
        <time>2011-10-15T08:33:59Z</time>
      </trkpt>
      <trkpt lat="45.63836" lon="4.99369">
        <ele>289</ele>
        <time>2011-10-15T08:34:00Z</time>
      </trkpt>
      <trkpt lat="45.63832" lon="4.99358">
        <ele>289</ele>
        <time>2011-10-15T08:34:01Z</time>
      </trkpt>
      <trkpt lat="45.63827" lon="4.99346">
        <ele>289</ele>
        <time>2011-10-15T08:34:02Z</time>
      </trkpt>
      <trkpt lat="45.63823" lon="4.99335">
        <ele>288</ele>
        <time>2011-10-15T08:34:03Z</time>
      </trkpt>
      <trkpt lat="45.63821" lon="4.99323">
        <ele>287</ele>
        <time>2011-10-15T08:34:04Z</time>
      </trkpt>
      <trkpt lat="45.63821" lon="4.9931">
        <ele>286</ele>
        <time>2011-10-15T08:34:05Z</time>
      </trkpt>
      <trkpt lat="45.63823" lon="4.99299">
        <ele>286</ele>
        <time>2011-10-15T08:34:06Z</time>
      </trkpt>
      <trkpt lat="45.63824" lon="4.99289">
        <ele>285</ele>
        <time>2011-10-15T08:34:07Z</time>
      </trkpt>
      <trkpt lat="45.63829" lon="4.99264">
        <ele>282</ele>
        <time>2011-10-15T08:34:11Z</time>
      </trkpt>
      <trkpt lat="45.63832" lon="4.99261">
        <ele>282</ele>
        <time>2011-10-15T08:34:12Z</time>
      </trkpt>
      <trkpt lat="45.63837" lon="4.99262">
        <ele>282</ele>
        <time>2011-10-15T08:34:13Z</time>
      </trkpt>
      <trkpt lat="45.63841" lon="4.99263">
        <ele>282</ele>
        <time>2011-10-15T08:34:14Z</time>
      </trkpt>
      <trkpt lat="45.63845" lon="4.99265">
        <ele>282</ele>
        <time>2011-10-15T08:34:15Z</time>
      </trkpt>
      <trkpt lat="45.63849" lon="4.99268">
        <ele>282</ele>
        <time>2011-10-15T08:34:16Z</time>
      </trkpt>
      <trkpt lat="45.63862" lon="4.99275">
        <ele>281</ele>
        <time>2011-10-15T08:34:19Z</time>
      </trkpt>
      <trkpt lat="45.63899" lon="4.99302">
        <ele>279</ele>
        <time>2011-10-15T08:34:27Z</time>
      </trkpt>
      <trkpt lat="45.63941" lon="4.99337">
        <ele>276</ele>
        <time>2011-10-15T08:34:34Z</time>
      </trkpt>
      <trkpt lat="45.63947" lon="4.99343">
        <ele>276</ele>
        <time>2011-10-15T08:34:35Z</time>
      </trkpt>
      <trkpt lat="45.63973" lon="4.99367">
        <ele>274</ele>
        <time>2011-10-15T08:34:39Z</time>
      </trkpt>
      <trkpt lat="45.64021" lon="4.99411">
        <ele>272</ele>
        <time>2011-10-15T08:34:47Z</time>
      </trkpt>
      <trkpt lat="45.64035" lon="4.99425">
        <ele>272</ele>
        <time>2011-10-15T08:34:50Z</time>
      </trkpt>
      <trkpt lat="45.64039" lon="4.99429">
        <ele>271</ele>
        <time>2011-10-15T08:34:51Z</time>
      </trkpt>
      <trkpt lat="45.64043" lon="4.99431">
        <ele>271</ele>
        <time>2011-10-15T08:34:52Z</time>
      </trkpt>
      <trkpt lat="45.64047" lon="4.9943">
        <ele>271</ele>
        <time>2011-10-15T08:34:53Z</time>
      </trkpt>
      <trkpt lat="45.64051" lon="4.99428">
        <ele>270</ele>
        <time>2011-10-15T08:34:54Z</time>
      </trkpt>
      <trkpt lat="45.64056" lon="4.99427">
        <ele>270</ele>
        <time>2011-10-15T08:34:55Z</time>
      </trkpt>
      <trkpt lat="45.6406" lon="4.99425">
        <ele>270</ele>
        <time>2011-10-15T08:34:56Z</time>
      </trkpt>
      <trkpt lat="45.64065" lon="4.99423">
        <ele>269</ele>
        <time>2011-10-15T08:34:57Z</time>
      </trkpt>
      <trkpt lat="45.64069" lon="4.99419">
        <ele>269</ele>
        <time>2011-10-15T08:34:58Z</time>
      </trkpt>
      <trkpt lat="45.64073" lon="4.99416">
        <ele>268</ele>
        <time>2011-10-15T08:34:59Z</time>
      </trkpt>
      <trkpt lat="45.64077" lon="4.99413">
        <ele>269</ele>
        <time>2011-10-15T08:35:00Z</time>
      </trkpt>
      <trkpt lat="45.64081" lon="4.9941">
        <ele>268</ele>
        <time>2011-10-15T08:35:01Z</time>
      </trkpt>
      <trkpt lat="45.64085" lon="4.99406">
        <ele>268</ele>
        <time>2011-10-15T08:35:02Z</time>
      </trkpt>
      <trkpt lat="45.64101" lon="4.99377">
        <ele>265</ele>
        <time>2011-10-15T08:35:08Z</time>
      </trkpt>
      <trkpt lat="45.64107" lon="4.99366">
        <ele>264</ele>
        <time>2011-10-15T08:35:10Z</time>
      </trkpt>
      <trkpt lat="45.64111" lon="4.99361">
        <ele>264</ele>
        <time>2011-10-15T08:35:11Z</time>
      </trkpt>
      <trkpt lat="45.64116" lon="4.99355">
        <ele>263</ele>
        <time>2011-10-15T08:35:12Z</time>
      </trkpt>
      <trkpt lat="45.64121" lon="4.99348">
        <ele>262</ele>
        <time>2011-10-15T08:35:13Z</time>
      </trkpt>
      <trkpt lat="45.64124" lon="4.99341">
        <ele>263</ele>
        <time>2011-10-15T08:35:14Z</time>
      </trkpt>
      <trkpt lat="45.64127" lon="4.99333">
        <ele>262</ele>
        <time>2011-10-15T08:35:15Z</time>
      </trkpt>
      <trkpt lat="45.64134" lon="4.99319">
        <ele>261</ele>
        <time>2011-10-15T08:35:17Z</time>
      </trkpt>
      <trkpt lat="45.64139" lon="4.99312">
        <ele>261</ele>
        <time>2011-10-15T08:35:18Z</time>
      </trkpt>
      <trkpt lat="45.64166" lon="4.99277">
        <ele>260</ele>
        <time>2011-10-15T08:35:24Z</time>
      </trkpt>
      <trkpt lat="45.64173" lon="4.99268">
        <ele>259</ele>
        <time>2011-10-15T08:35:26Z</time>
      </trkpt>
      <trkpt lat="45.64178" lon="4.99264">
        <ele>259</ele>
        <time>2011-10-15T08:35:27Z</time>
      </trkpt>
      <trkpt lat="45.64182" lon="4.99261">
        <ele>259</ele>
        <time>2011-10-15T08:35:28Z</time>
      </trkpt>
      <trkpt lat="45.64187" lon="4.99257">
        <ele>258</ele>
        <time>2011-10-15T08:35:29Z</time>
      </trkpt>
      <trkpt lat="45.64191" lon="4.99253">
        <ele>258</ele>
        <time>2011-10-15T08:35:30Z</time>
      </trkpt>
      <trkpt lat="45.64194" lon="4.99249">
        <ele>258</ele>
        <time>2011-10-15T08:35:31Z</time>
      </trkpt>
      <trkpt lat="45.64198" lon="4.99246">
        <ele>258</ele>
        <time>2011-10-15T08:35:32Z</time>
      </trkpt>
      <trkpt lat="45.64202" lon="4.99243">
        <ele>258</ele>
        <time>2011-10-15T08:35:33Z</time>
      </trkpt>
      <trkpt lat="45.64205" lon="4.99239">
        <ele>257</ele>
        <time>2011-10-15T08:35:34Z</time>
      </trkpt>
      <trkpt lat="45.64209" lon="4.99236">
        <ele>257</ele>
        <time>2011-10-15T08:35:35Z</time>
      </trkpt>
      <trkpt lat="45.64213" lon="4.99233">
        <ele>257</ele>
        <time>2011-10-15T08:35:36Z</time>
      </trkpt>
      <trkpt lat="45.64216" lon="4.99228">
        <ele>257</ele>
        <time>2011-10-15T08:35:37Z</time>
      </trkpt>
      <trkpt lat="45.64218" lon="4.99221">
        <ele>257</ele>
        <time>2011-10-15T08:35:38Z</time>
      </trkpt>
      <trkpt lat="45.6422" lon="4.99215">
        <ele>257</ele>
        <time>2011-10-15T08:35:39Z</time>
      </trkpt>
      <trkpt lat="45.64238" lon="4.99168">
        <ele>255</ele>
        <time>2011-10-15T08:35:47Z</time>
      </trkpt>
      <trkpt lat="45.64252" lon="4.99126">
        <ele>254</ele>
        <time>2011-10-15T08:35:55Z</time>
      </trkpt>
      <trkpt lat="45.64262" lon="4.99107">
        <ele>254</ele>
        <time>2011-10-15T08:36:00Z</time>
      </trkpt>
      <trkpt lat="45.6428" lon="4.99084">
        <ele>253</ele>
        <time>2011-10-15T08:36:07Z</time>
      </trkpt>
      <trkpt lat="45.64285" lon="4.99076">
        <ele>252</ele>
        <time>2011-10-15T08:36:10Z</time>
      </trkpt>
      <trkpt lat="45.64287" lon="4.99075">
        <ele>253</ele>
        <time>2011-10-15T08:36:11Z</time>
      </trkpt>
      <trkpt lat="45.6429" lon="4.99076">
        <ele>252</ele>
        <time>2011-10-15T08:36:12Z</time>
      </trkpt>
      <trkpt lat="45.64293" lon="4.99077">
        <ele>252</ele>
        <time>2011-10-15T08:36:13Z</time>
      </trkpt>
      <trkpt lat="45.64296" lon="4.99078">
        <ele>252</ele>
        <time>2011-10-15T08:36:14Z</time>
      </trkpt>
      <trkpt lat="45.643" lon="4.99078">
        <ele>252</ele>
        <time>2011-10-15T08:36:15Z</time>
      </trkpt>
      <trkpt lat="45.64304" lon="4.99078">
        <ele>252</ele>
        <time>2011-10-15T08:36:16Z</time>
      </trkpt>
      <trkpt lat="45.6433" lon="4.99075">
        <ele>252</ele>
        <time>2011-10-15T08:36:23Z</time>
      </trkpt>
      <trkpt lat="45.64332" lon="4.99071">
        <ele>252</ele>
        <time>2011-10-15T08:36:24Z</time>
      </trkpt>
      <trkpt lat="45.64334" lon="4.99067">
        <ele>252</ele>
        <time>2011-10-15T08:36:25Z</time>
      </trkpt>
      <trkpt lat="45.64336" lon="4.99062">
        <ele>252</ele>
        <time>2011-10-15T08:36:26Z</time>
      </trkpt>
      <trkpt lat="45.64337" lon="4.99057">
        <ele>252</ele>
        <time>2011-10-15T08:36:27Z</time>
      </trkpt>
      <trkpt lat="45.64337" lon="4.99052">
        <ele>252</ele>
        <time>2011-10-15T08:36:28Z</time>
      </trkpt>
      <trkpt lat="45.64337" lon="4.99046">
        <ele>252</ele>
        <time>2011-10-15T08:36:29Z</time>
      </trkpt>
      <trkpt lat="45.64338" lon="4.9904">
        <ele>251</ele>
        <time>2011-10-15T08:36:30Z</time>
      </trkpt>
      <trkpt lat="45.64338" lon="4.98994">
        <ele>251</ele>
        <time>2011-10-15T08:36:37Z</time>
      </trkpt>
      <trkpt lat="45.64336" lon="4.98924">
        <ele>249</ele>
        <time>2011-10-15T08:36:47Z</time>
      </trkpt>
      <trkpt lat="45.64335" lon="4.98889">
        <ele>249</ele>
        <time>2011-10-15T08:36:52Z</time>
      </trkpt>
      <trkpt lat="45.64334" lon="4.98861">
        <ele>249</ele>
        <time>2011-10-15T08:36:56Z</time>
      </trkpt>
      <trkpt lat="45.64334" lon="4.98855">
        <ele>249</ele>
        <time>2011-10-15T08:36:57Z</time>
      </trkpt>
      <trkpt lat="45.64335" lon="4.98848">
        <ele>249</ele>
        <time>2011-10-15T08:36:58Z</time>
      </trkpt>
      <trkpt lat="45.6434" lon="4.98794">
        <ele>248</ele>
        <time>2011-10-15T08:37:06Z</time>
      </trkpt>
      <trkpt lat="45.6434" lon="4.98788">
        <ele>249</ele>
        <time>2011-10-15T08:37:07Z</time>
      </trkpt>
      <trkpt lat="45.64341" lon="4.98775">
        <ele>249</ele>
        <time>2011-10-15T08:37:09Z</time>
      </trkpt>
      <trkpt lat="45.64341" lon="4.98769">
        <ele>249</ele>
        <time>2011-10-15T08:37:10Z</time>
      </trkpt>
      <trkpt lat="45.64342" lon="4.98762">
        <ele>248</ele>
        <time>2011-10-15T08:37:11Z</time>
      </trkpt>
      <trkpt lat="45.64343" lon="4.98756">
        <ele>249</ele>
        <time>2011-10-15T08:37:12Z</time>
      </trkpt>
      <trkpt lat="45.64343" lon="4.98749">
        <ele>248</ele>
        <time>2011-10-15T08:37:13Z</time>
      </trkpt>
      <trkpt lat="45.64343" lon="4.98736">
        <ele>248</ele>
        <time>2011-10-15T08:37:15Z</time>
      </trkpt>
      <trkpt lat="45.64345" lon="4.98704">
        <ele>249</ele>
        <time>2011-10-15T08:37:20Z</time>
      </trkpt>
      <trkpt lat="45.64345" lon="4.98697">
        <ele>248</ele>
        <time>2011-10-15T08:37:21Z</time>
      </trkpt>
      <trkpt lat="45.64346" lon="4.98678">
        <ele>249</ele>
        <time>2011-10-15T08:37:24Z</time>
      </trkpt>
      <trkpt lat="45.64346" lon="4.98671">
        <ele>248</ele>
        <time>2011-10-15T08:37:25Z</time>
      </trkpt>
      <trkpt lat="45.64347" lon="4.98638">
        <ele>248</ele>
        <time>2011-10-15T08:37:30Z</time>
      </trkpt>
      <trkpt lat="45.64347" lon="4.98631">
        <ele>248</ele>
        <time>2011-10-15T08:37:31Z</time>
      </trkpt>
      <trkpt lat="45.64355" lon="4.98574">
        <ele>248</ele>
        <time>2011-10-15T08:37:40Z</time>
      </trkpt>
      <trkpt lat="45.64355" lon="4.98567">
        <ele>248</ele>
        <time>2011-10-15T08:37:41Z</time>
      </trkpt>
      <trkpt lat="45.64355" lon="4.9856">
        <ele>248</ele>
        <time>2011-10-15T08:37:42Z</time>
      </trkpt>
      <trkpt lat="45.64355" lon="4.98554">
        <ele>248</ele>
        <time>2011-10-15T08:37:43Z</time>
      </trkpt>
      <trkpt lat="45.64355" lon="4.98547">
        <ele>248</ele>
        <time>2011-10-15T08:37:44Z</time>
      </trkpt>
      <trkpt lat="45.64355" lon="4.98541">
        <ele>248</ele>
        <time>2011-10-15T08:37:45Z</time>
      </trkpt>
      <trkpt lat="45.64354" lon="4.98534">
        <ele>248</ele>
        <time>2011-10-15T08:37:46Z</time>
      </trkpt>
      <trkpt lat="45.64343" lon="4.98483">
        <ele>246</ele>
        <time>2011-10-15T08:37:54Z</time>
      </trkpt>
      <trkpt lat="45.64341" lon="4.98476">
        <ele>246</ele>
        <time>2011-10-15T08:37:55Z</time>
      </trkpt>
      <trkpt lat="45.64337" lon="4.98456">
        <ele>246</ele>
        <time>2011-10-15T08:37:58Z</time>
      </trkpt>
      <trkpt lat="45.64336" lon="4.98449">
        <ele>246</ele>
        <time>2011-10-15T08:37:59Z</time>
      </trkpt>
      <trkpt lat="45.64336" lon="4.98441">
        <ele>245</ele>
        <time>2011-10-15T08:38:00Z</time>
      </trkpt>
      <trkpt lat="45.6434" lon="4.98387">
        <ele>244</ele>
        <time>2011-10-15T08:38:08Z</time>
      </trkpt>
      <trkpt lat="45.64343" lon="4.9836">
        <ele>244</ele>
        <time>2011-10-15T08:38:12Z</time>
      </trkpt>
      <trkpt lat="45.64343" lon="4.98354">
        <ele>244</ele>
        <time>2011-10-15T08:38:13Z</time>
      </trkpt>
      <trkpt lat="45.64343" lon="4.9834">
        <ele>244</ele>
        <time>2011-10-15T08:38:15Z</time>
      </trkpt>
      <trkpt lat="45.64343" lon="4.98333">
        <ele>244</ele>
        <time>2011-10-15T08:38:16Z</time>
      </trkpt>
      <trkpt lat="45.64343" lon="4.9832">
        <ele>244</ele>
        <time>2011-10-15T08:38:18Z</time>
      </trkpt>
      <trkpt lat="45.64341" lon="4.98249">
        <ele>242</ele>
        <time>2011-10-15T08:38:29Z</time>
      </trkpt>
      <trkpt lat="45.64341" lon="4.98225">
        <ele>243</ele>
        <time>2011-10-15T08:38:33Z</time>
      </trkpt>
      <trkpt lat="45.64341" lon="4.98219">
        <ele>243</ele>
        <time>2011-10-15T08:38:34Z</time>
      </trkpt>
      <trkpt lat="45.6434" lon="4.98183">
        <ele>242</ele>
        <time>2011-10-15T08:38:40Z</time>
      </trkpt>
      <trkpt lat="45.64341" lon="4.98177">
        <ele>243</ele>
        <time>2011-10-15T08:38:41Z</time>
      </trkpt>
      <trkpt lat="45.64341" lon="4.98171">
        <ele>242</ele>
        <time>2011-10-15T08:38:42Z</time>
      </trkpt>
      <trkpt lat="45.64339" lon="4.98132">
        <ele>242</ele>
        <time>2011-10-15T08:38:49Z</time>
      </trkpt>
      <trkpt lat="45.64337" lon="4.98117">
        <ele>242</ele>
        <time>2011-10-15T08:38:52Z</time>
      </trkpt>
      <trkpt lat="45.64335" lon="4.98114">
        <ele>241</ele>
        <time>2011-10-15T08:38:53Z</time>
      </trkpt>
      <trkpt lat="45.64333" lon="4.98112">
        <ele>241</ele>
        <time>2011-10-15T08:38:54Z</time>
      </trkpt>
      <trkpt lat="45.64329" lon="4.98113">
        <ele>241</ele>
        <time>2011-10-15T08:38:55Z</time>
      </trkpt>
      <trkpt lat="45.64326" lon="4.98114">
        <ele>241</ele>
        <time>2011-10-15T08:38:56Z</time>
      </trkpt>
      <trkpt lat="45.64323" lon="4.98115">
        <ele>241</ele>
        <time>2011-10-15T08:38:57Z</time>
      </trkpt>
      <trkpt lat="45.6432" lon="4.98115">
        <ele>241</ele>
        <time>2011-10-15T08:38:58Z</time>
      </trkpt>
      <trkpt lat="45.64292" lon="4.9812">
        <ele>242</ele>
        <time>2011-10-15T08:39:06Z</time>
      </trkpt>
      <trkpt lat="45.64259" lon="4.98117">
        <ele>242</ele>
        <time>2011-10-15T08:39:15Z</time>
      </trkpt>
      <trkpt lat="45.64234" lon="4.98118">
        <ele>243</ele>
        <time>2011-10-15T08:39:22Z</time>
      </trkpt>
      <trkpt lat="45.64223" lon="4.98124">
        <ele>243</ele>
        <time>2011-10-15T08:39:27Z</time>
      </trkpt>
      <trkpt lat="45.64222" lon="4.98125">
        <ele>244</ele>
        <time>2011-10-15T08:39:28Z</time>
      </trkpt>
      <trkpt lat="45.64221" lon="4.98129">
        <ele>245</ele>
        <time>2011-10-15T08:39:30Z</time>
      </trkpt>
      <trkpt lat="45.64221" lon="4.98139">
        <ele>246</ele>
        <time>2011-10-15T08:39:36Z</time>
      </trkpt>
      <trkpt lat="45.64222" lon="4.98156">
        <ele>248</ele>
        <time>2011-10-15T08:39:44Z</time>
      </trkpt>
      <trkpt lat="45.6422" lon="4.98159">
        <ele>249</ele>
        <time>2011-10-15T08:39:46Z</time>
      </trkpt>
      <trkpt lat="45.64215" lon="4.98162">
        <ele>251</ele>
        <time>2011-10-15T08:39:50Z</time>
      </trkpt>
      <trkpt lat="45.64208" lon="4.98163">
        <ele>252</ele>
        <time>2011-10-15T08:39:58Z</time>
      </trkpt>
      <trkpt lat="45.64207" lon="4.98164">
        <ele>253</ele>
        <time>2011-10-15T08:39:59Z</time>
      </trkpt>
      <trkpt lat="45.64203" lon="4.98168">
        <ele>254</ele>
        <time>2011-10-15T08:40:03Z</time>
      </trkpt>
      <trkpt lat="45.64199" lon="4.98176">
        <ele>255</ele>
        <time>2011-10-15T08:40:08Z</time>
      </trkpt>
      <trkpt lat="45.64188" lon="4.9818">
        <ele>258</ele>
        <time>2011-10-15T08:40:17Z</time>
      </trkpt>
      <trkpt lat="45.64182" lon="4.98183">
        <ele>259</ele>
        <time>2011-10-15T08:40:24Z</time>
      </trkpt>
      <trkpt lat="45.64172" lon="4.98184">
        <ele>260</ele>
        <time>2011-10-15T08:40:32Z</time>
      </trkpt>
      <trkpt lat="45.64171" lon="4.98184">
        <ele>260</ele>
        <time>2011-10-15T08:40:33Z</time>
      </trkpt>
      <trkpt lat="45.64168" lon="4.98188">
        <ele>261</ele>
        <time>2011-10-15T08:40:36Z</time>
      </trkpt>
      <trkpt lat="45.64164" lon="4.98197">
        <ele>262</ele>
        <time>2011-10-15T08:40:43Z</time>
      </trkpt>
      <trkpt lat="45.6416" lon="4.98201">
        <ele>263</ele>
        <time>2011-10-15T08:40:48Z</time>
      </trkpt>
      <trkpt lat="45.64155" lon="4.9821">
        <ele>264</ele>
        <time>2011-10-15T08:40:55Z</time>
      </trkpt>
      <trkpt lat="45.64154" lon="4.9821">
        <ele>264</ele>
        <time>2011-10-15T08:40:56Z</time>
      </trkpt>
      <trkpt lat="45.64147" lon="4.98211">
        <ele>264</ele>
        <time>2011-10-15T08:41:01Z</time>
      </trkpt>
      <trkpt lat="45.64137" lon="4.98212">
        <ele>265</ele>
        <time>2011-10-15T08:41:09Z</time>
      </trkpt>
      <trkpt lat="45.64131" lon="4.98211">
        <ele>265</ele>
        <time>2011-10-15T08:41:13Z</time>
      </trkpt>
      <trkpt lat="45.64128" lon="4.98212">
        <ele>264</ele>
        <time>2011-10-15T08:41:15Z</time>
      </trkpt>
      <trkpt lat="45.64117" lon="4.98217">
        <ele>266</ele>
        <time>2011-10-15T08:41:21Z</time>
      </trkpt>
      <trkpt lat="45.64111" lon="4.98219">
        <ele>267</ele>
        <time>2011-10-15T08:41:26Z</time>
      </trkpt>
      <trkpt lat="45.64103" lon="4.98226">
        <ele>268</ele>
        <time>2011-10-15T08:41:31Z</time>
      </trkpt>
      <trkpt lat="45.64086" lon="4.98237">
        <ele>269</ele>
        <time>2011-10-15T08:41:40Z</time>
      </trkpt>
      <trkpt lat="45.6407" lon="4.98243">
        <ele>271</ele>
        <time>2011-10-15T08:41:49Z</time>
      </trkpt>
      <trkpt lat="45.64052" lon="4.98246">
        <ele>273</ele>
        <time>2011-10-15T08:41:59Z</time>
      </trkpt>
      <trkpt lat="45.64042" lon="4.98248">
        <ele>273</ele>
        <time>2011-10-15T08:42:05Z</time>
      </trkpt>
      <trkpt lat="45.64028" lon="4.98252">
        <ele>275</ele>
        <time>2011-10-15T08:42:13Z</time>
      </trkpt>
      <trkpt lat="45.64015" lon="4.98253">
        <ele>277</ele>
        <time>2011-10-15T08:42:21Z</time>
      </trkpt>
      <trkpt lat="45.64" lon="4.98253">
        <ele>278</ele>
        <time>2011-10-15T08:42:30Z</time>
      </trkpt>
      <trkpt lat="45.63988" lon="4.98248">
        <ele>279</ele>
        <time>2011-10-15T08:42:38Z</time>
      </trkpt>
      <trkpt lat="45.63982" lon="4.98234">
        <ele>278</ele>
        <time>2011-10-15T08:42:45Z</time>
      </trkpt>
      <trkpt lat="45.63977" lon="4.98213">
        <ele>278</ele>
        <time>2011-10-15T08:42:49Z</time>
      </trkpt>
      <trkpt lat="45.63974" lon="4.98191">
        <ele>277</ele>
        <time>2011-10-15T08:42:52Z</time>
      </trkpt>
      <trkpt lat="45.63973" lon="4.98184">
        <ele>277</ele>
        <time>2011-10-15T08:42:53Z</time>
      </trkpt>
      <trkpt lat="45.63973" lon="4.98177">
        <ele>277</ele>
        <time>2011-10-15T08:42:54Z</time>
      </trkpt>
      <trkpt lat="45.63974" lon="4.98163">
        <ele>276</ele>
        <time>2011-10-15T08:42:56Z</time>
      </trkpt>
      <trkpt lat="45.6398" lon="4.98131">
        <ele>275</ele>
        <time>2011-10-15T08:43:02Z</time>
      </trkpt>
      <trkpt lat="45.6398" lon="4.98125">
        <ele>275</ele>
        <time>2011-10-15T08:43:07Z</time>
      </trkpt>
      <trkpt lat="45.6398" lon="4.98124">
        <ele>275</ele>
        <time>2011-10-15T08:43:14Z</time>
      </trkpt>
      <trkpt lat="45.6398" lon="4.98124">
        <ele>275</ele>
        <time>2011-10-15T08:43:34Z</time>
      </trkpt>
      <trkpt lat="45.6398" lon="4.98124">
        <ele>275</ele>
        <time>2011-10-15T08:43:56Z</time>
      </trkpt>
      <trkpt lat="45.63978" lon="4.98126">
        <ele>275</ele>
        <time>2011-10-15T08:44:14Z</time>
      </trkpt>
      <trkpt lat="45.63978" lon="4.98126">
        <ele>271</ele>
        <time>2011-10-15T08:44:21Z</time>
      </trkpt>
      <trkpt lat="45.63978" lon="4.98126">
        <ele>275</ele>
        <time>2011-10-15T08:44:22Z</time>
      </trkpt>
      <trkpt lat="45.63977" lon="4.98126">
        <ele>275</ele>
        <time>2011-10-15T08:44:32Z</time>
      </trkpt>
      <trkpt lat="45.63976" lon="4.98127">
        <ele>274</ele>
        <time>2011-10-15T08:44:35Z</time>
      </trkpt>
      <trkpt lat="45.63965" lon="4.98123">
        <ele>273</ele>
        <time>2011-10-15T08:44:40Z</time>
      </trkpt>
      <trkpt lat="45.63946" lon="4.98114">
        <ele>271</ele>
        <time>2011-10-15T08:44:45Z</time>
      </trkpt>
      <trkpt lat="45.63941" lon="4.98112">
        <ele>271</ele>
        <time>2011-10-15T08:44:46Z</time>
      </trkpt>
      <trkpt lat="45.63921" lon="4.98107">
        <ele>269</ele>
        <time>2011-10-15T08:44:49Z</time>
      </trkpt>
      <trkpt lat="45.63885" lon="4.98097">
        <ele>266</ele>
        <time>2011-10-15T08:44:54Z</time>
      </trkpt>
      <trkpt lat="45.63878" lon="4.98098">
        <ele>266</ele>
        <time>2011-10-15T08:44:55Z</time>
      </trkpt>
      <trkpt lat="45.63873" lon="4.98101">
        <ele>266</ele>
        <time>2011-10-15T08:44:56Z</time>
      </trkpt>
      <trkpt lat="45.63868" lon="4.98106">
        <ele>266</ele>
        <time>2011-10-15T08:44:57Z</time>
      </trkpt>
      <trkpt lat="45.63866" lon="4.98112">
        <ele>266</ele>
        <time>2011-10-15T08:44:58Z</time>
      </trkpt>
      <trkpt lat="45.63864" lon="4.98118">
        <ele>265</ele>
        <time>2011-10-15T08:44:59Z</time>
      </trkpt>
      <trkpt lat="45.63864" lon="4.98122">
        <ele>266</ele>
        <time>2011-10-15T08:45:00Z</time>
      </trkpt>
      <trkpt lat="45.63863" lon="4.98127">
        <ele>266</ele>
        <time>2011-10-15T08:45:01Z</time>
      </trkpt>
      <trkpt lat="45.63857" lon="4.98162">
        <ele>266</ele>
        <time>2011-10-15T08:45:09Z</time>
      </trkpt>
      <trkpt lat="45.63851" lon="4.98188">
        <ele>267</ele>
        <time>2011-10-15T08:45:16Z</time>
      </trkpt>
      <trkpt lat="45.63846" lon="4.98212">
        <ele>267</ele>
        <time>2011-10-15T08:45:23Z</time>
      </trkpt>
      <trkpt lat="45.63842" lon="4.98217">
        <ele>267</ele>
        <time>2011-10-15T08:45:25Z</time>
      </trkpt>
      <trkpt lat="45.63816" lon="4.98213">
        <ele>265</ele>
        <time>2011-10-15T08:45:31Z</time>
      </trkpt>
      <trkpt lat="45.63804" lon="4.98212">
        <ele>264</ele>
        <time>2011-10-15T08:45:33Z</time>
      </trkpt>
      <trkpt lat="45.63785" lon="4.98212">
        <ele>264</ele>
        <time>2011-10-15T08:45:36Z</time>
      </trkpt>
      <trkpt lat="45.6375" lon="4.98211">
        <ele>262</ele>
        <time>2011-10-15T08:45:42Z</time>
      </trkpt>
      <trkpt lat="45.63711" lon="4.98202">
        <ele>260</ele>
        <time>2011-10-15T08:45:49Z</time>
      </trkpt>
      <trkpt lat="45.63694" lon="4.98196">
        <ele>258</ele>
        <time>2011-10-15T08:45:53Z</time>
      </trkpt>
      <trkpt lat="45.63668" lon="4.98191">
        <ele>257</ele>
        <time>2011-10-15T08:45:59Z</time>
      </trkpt>
      <trkpt lat="45.63655" lon="4.98191">
        <ele>258</ele>
        <time>2011-10-15T08:46:04Z</time>
      </trkpt>
      <trkpt lat="45.63651" lon="4.9819">
        <ele>257</ele>
        <time>2011-10-15T08:46:06Z</time>
      </trkpt>
      <trkpt lat="45.63648" lon="4.98193">
        <ele>259</ele>
        <time>2011-10-15T08:46:09Z</time>
      </trkpt>
      <trkpt lat="45.63643" lon="4.98204">
        <ele>261</ele>
        <time>2011-10-15T08:46:15Z</time>
      </trkpt>
      <trkpt lat="45.63641" lon="4.98207">
        <ele>262</ele>
        <time>2011-10-15T08:46:17Z</time>
      </trkpt>
      <trkpt lat="45.63639" lon="4.98212">
        <ele>262</ele>
        <time>2011-10-15T08:46:20Z</time>
      </trkpt>
      <trkpt lat="45.63636" lon="4.98216">
        <ele>262</ele>
        <time>2011-10-15T08:46:22Z</time>
      </trkpt>
      <trkpt lat="45.63634" lon="4.98223">
        <ele>264</ele>
        <time>2011-10-15T08:46:25Z</time>
      </trkpt>
      <trkpt lat="45.63638" lon="4.98233">
        <ele>262</ele>
        <time>2011-10-15T08:46:30Z</time>
      </trkpt>
      <trkpt lat="45.63637" lon="4.98245">
        <ele>263</ele>
        <time>2011-10-15T08:46:36Z</time>
      </trkpt>
      <trkpt lat="45.63639" lon="4.98253">
        <ele>263</ele>
        <time>2011-10-15T08:46:39Z</time>
      </trkpt>
      <trkpt lat="45.63635" lon="4.9827">
        <ele>259</ele>
        <time>2011-10-15T08:46:45Z</time>
      </trkpt>
      <trkpt lat="45.63626" lon="4.98283">
        <ele>257</ele>
        <time>2011-10-15T08:46:49Z</time>
      </trkpt>
      <trkpt lat="45.63617" lon="4.98291">
        <ele>255</ele>
        <time>2011-10-15T08:46:52Z</time>
      </trkpt>
      <trkpt lat="45.63614" lon="4.98291">
        <ele>255</ele>
        <time>2011-10-15T08:46:53Z</time>
      </trkpt>
      <trkpt lat="45.63607" lon="4.98289">
        <ele>254</ele>
        <time>2011-10-15T08:46:58Z</time>
      </trkpt>
      <trkpt lat="45.636" lon="4.98287">
        <ele>254</ele>
        <time>2011-10-15T08:47:01Z</time>
      </trkpt>
      <trkpt lat="45.63586" lon="4.98289">
        <ele>253</ele>
        <time>2011-10-15T08:47:04Z</time>
      </trkpt>
      <trkpt lat="45.63579" lon="4.98291">
        <ele>252</ele>
        <time>2011-10-15T08:47:06Z</time>
      </trkpt>
      <trkpt lat="45.63572" lon="4.98292">
        <ele>251</ele>
        <time>2011-10-15T08:47:07Z</time>
      </trkpt>
      <trkpt lat="45.63554" lon="4.98283">
        <ele>249</ele>
        <time>2011-10-15T08:47:12Z</time>
      </trkpt>
      <trkpt lat="45.63544" lon="4.98282">
        <ele>249</ele>
        <time>2011-10-15T08:47:14Z</time>
      </trkpt>
      <trkpt lat="45.63527" lon="4.98285">
        <ele>247</ele>
        <time>2011-10-15T08:47:19Z</time>
      </trkpt>
      <trkpt lat="45.63512" lon="4.98289">
        <ele>244</ele>
        <time>2011-10-15T08:47:22Z</time>
      </trkpt>
      <trkpt lat="45.63501" lon="4.98285">
        <ele>243</ele>
        <time>2011-10-15T08:47:25Z</time>
      </trkpt>
      <trkpt lat="45.63487" lon="4.9828">
        <ele>242</ele>
        <time>2011-10-15T08:47:32Z</time>
      </trkpt>
      <trkpt lat="45.63473" lon="4.98271">
        <ele>241</ele>
        <time>2011-10-15T08:47:37Z</time>
      </trkpt>
      <trkpt lat="45.63467" lon="4.98268">
        <ele>241</ele>
        <time>2011-10-15T08:47:41Z</time>
      </trkpt>
      <trkpt lat="45.63465" lon="4.98264">
        <ele>240</ele>
        <time>2011-10-15T08:47:43Z</time>
      </trkpt>
      <trkpt lat="45.63457" lon="4.98257">
        <ele>243</ele>
        <time>2011-10-15T08:47:47Z</time>
      </trkpt>
      <trkpt lat="45.63453" lon="4.98251">
        <ele>241</ele>
        <time>2011-10-15T08:47:50Z</time>
      </trkpt>
      <trkpt lat="45.63447" lon="4.98238">
        <ele>240</ele>
        <time>2011-10-15T08:47:54Z</time>
      </trkpt>
      <trkpt lat="45.63446" lon="4.98229">
        <ele>239</ele>
        <time>2011-10-15T08:47:56Z</time>
      </trkpt>
      <trkpt lat="45.63446" lon="4.98215">
        <ele>238</ele>
        <time>2011-10-15T08:47:58Z</time>
      </trkpt>
      <trkpt lat="45.6344" lon="4.98193">
        <ele>235</ele>
        <time>2011-10-15T08:48:02Z</time>
      </trkpt>
      <trkpt lat="45.63439" lon="4.98178">
        <ele>235</ele>
        <time>2011-10-15T08:48:06Z</time>
      </trkpt>
      <trkpt lat="45.63434" lon="4.98163">
        <ele>234</ele>
        <time>2011-10-15T08:48:11Z</time>
      </trkpt>
      <trkpt lat="45.63433" lon="4.98161">
        <ele>234</ele>
        <time>2011-10-15T08:48:12Z</time>
      </trkpt>
      <trkpt lat="45.6344" lon="4.98145">
        <ele>234</ele>
        <time>2011-10-15T08:48:18Z</time>
      </trkpt>
      <trkpt lat="45.63443" lon="4.98135">
        <ele>234</ele>
        <time>2011-10-15T08:48:22Z</time>
      </trkpt>
      <trkpt lat="45.63447" lon="4.98127">
        <ele>234</ele>
        <time>2011-10-15T08:48:25Z</time>
      </trkpt>
      <trkpt lat="45.63453" lon="4.98109">
        <ele>234</ele>
        <time>2011-10-15T08:48:32Z</time>
      </trkpt>
      <trkpt lat="45.63468" lon="4.98088">
        <ele>233</ele>
        <time>2011-10-15T08:48:38Z</time>
      </trkpt>
      <trkpt lat="45.63475" lon="4.98066">
        <ele>233</ele>
        <time>2011-10-15T08:48:43Z</time>
      </trkpt>
      <trkpt lat="45.63474" lon="4.98035">
        <ele>233</ele>
        <time>2011-10-15T08:48:49Z</time>
      </trkpt>
      <trkpt lat="45.6348" lon="4.98013">
        <ele>233</ele>
        <time>2011-10-15T08:48:54Z</time>
      </trkpt>
      <trkpt lat="45.63485" lon="4.97998">
        <ele>233</ele>
        <time>2011-10-15T08:48:58Z</time>
      </trkpt>
      <trkpt lat="45.63486" lon="4.97985">
        <ele>232</ele>
        <time>2011-10-15T08:49:02Z</time>
      </trkpt>
      <trkpt lat="45.63492" lon="4.97956">
        <ele>232</ele>
        <time>2011-10-15T08:49:08Z</time>
      </trkpt>
      <trkpt lat="45.63492" lon="4.97924">
        <ele>233</ele>
        <time>2011-10-15T08:49:13Z</time>
      </trkpt>
      <trkpt lat="45.63482" lon="4.97863">
        <ele>232</ele>
        <time>2011-10-15T08:49:23Z</time>
      </trkpt>
      <trkpt lat="45.63473" lon="4.97803">
        <ele>232</ele>
        <time>2011-10-15T08:49:33Z</time>
      </trkpt>
      <trkpt lat="45.63471" lon="4.97763">
        <ele>231</ele>
        <time>2011-10-15T08:49:40Z</time>
      </trkpt>
      <trkpt lat="45.63474" lon="4.97759">
        <ele>231</ele>
        <time>2011-10-15T08:49:41Z</time>
      </trkpt>
      <trkpt lat="45.63484" lon="4.97751">
        <ele>231</ele>
        <time>2011-10-15T08:49:44Z</time>
      </trkpt>
      <trkpt lat="45.63504" lon="4.97746">
        <ele>230</ele>
        <time>2011-10-15T08:49:50Z</time>
      </trkpt>
      <trkpt lat="45.63514" lon="4.97751">
        <ele>231</ele>
        <time>2011-10-15T08:49:57Z</time>
      </trkpt>
      <trkpt lat="45.63515" lon="4.9775">
        <ele>231</ele>
        <time>2011-10-15T08:49:58Z</time>
      </trkpt>
      <trkpt lat="45.63516" lon="4.97748">
        <ele>231</ele>
        <time>2011-10-15T08:49:59Z</time>
      </trkpt>
      <trkpt lat="45.63515" lon="4.97746">
        <ele>231</ele>
        <time>2011-10-15T08:50:00Z</time>
      </trkpt>
      <trkpt lat="45.63514" lon="4.97744">
        <ele>232</ele>
        <time>2011-10-15T08:50:01Z</time>
      </trkpt>
      <trkpt lat="45.63512" lon="4.97744">
        <ele>231</ele>
        <time>2011-10-15T08:50:02Z</time>
      </trkpt>
      <trkpt lat="45.6351" lon="4.97743">
        <ele>230</ele>
        <time>2011-10-15T08:50:03Z</time>
      </trkpt>
      <trkpt lat="45.63508" lon="4.97742">
        <ele>231</ele>
        <time>2011-10-15T08:50:04Z</time>
      </trkpt>
      <trkpt lat="45.63506" lon="4.97741">
        <ele>231</ele>
        <time>2011-10-15T08:50:05Z</time>
      </trkpt>
      <trkpt lat="45.63504" lon="4.97738">
        <ele>230</ele>
        <time>2011-10-15T08:50:06Z</time>
      </trkpt>
      <trkpt lat="45.63502" lon="4.97734">
        <ele>230</ele>
        <time>2011-10-15T08:50:07Z</time>
      </trkpt>
      <trkpt lat="45.63499" lon="4.97728">
        <ele>229</ele>
        <time>2011-10-15T08:50:08Z</time>
      </trkpt>
      <trkpt lat="45.63497" lon="4.97723">
        <ele>229</ele>
        <time>2011-10-15T08:50:09Z</time>
      </trkpt>
      <trkpt lat="45.63495" lon="4.9772">
        <ele>229</ele>
        <time>2011-10-15T08:50:10Z</time>
      </trkpt>
      <trkpt lat="45.63493" lon="4.97717">
        <ele>230</ele>
        <time>2011-10-15T08:50:11Z</time>
      </trkpt>
      <trkpt lat="45.6349" lon="4.97717">
        <ele>230</ele>
        <time>2011-10-15T08:50:12Z</time>
      </trkpt>
      <trkpt lat="45.63486" lon="4.97717">
        <ele>230</ele>
        <time>2011-10-15T08:50:13Z</time>
      </trkpt>
      <trkpt lat="45.6346" lon="4.97713">
        <ele>231</ele>
        <time>2011-10-15T08:50:21Z</time>
      </trkpt>
      <trkpt lat="45.63429" lon="4.97711">
        <ele>231</ele>
        <time>2011-10-15T08:50:31Z</time>
      </trkpt>
      <trkpt lat="45.63402" lon="4.97713">
        <ele>232</ele>
        <time>2011-10-15T08:50:40Z</time>
      </trkpt>
      <trkpt lat="45.6337" lon="4.97715">
        <ele>233</ele>
        <time>2011-10-15T08:50:51Z</time>
      </trkpt>
      <trkpt lat="45.63352" lon="4.97715">
        <ele>234</ele>
        <time>2011-10-15T08:50:59Z</time>
      </trkpt>
      <trkpt lat="45.63332" lon="4.97715">
        <ele>234</ele>
        <time>2011-10-15T08:51:08Z</time>
      </trkpt>
      <trkpt lat="45.63315" lon="4.97711">
        <ele>236</ele>
        <time>2011-10-15T08:51:16Z</time>
      </trkpt>
      <trkpt lat="45.63298" lon="4.97705">
        <ele>237</ele>
        <time>2011-10-15T08:51:25Z</time>
      </trkpt>
      <trkpt lat="45.63279" lon="4.97703">
        <ele>238</ele>
        <time>2011-10-15T08:51:34Z</time>
      </trkpt>
      <trkpt lat="45.63266" lon="4.97702">
        <ele>239</ele>
        <time>2011-10-15T08:51:41Z</time>
      </trkpt>
      <trkpt lat="45.6325" lon="4.977">
        <ele>239</ele>
        <time>2011-10-15T08:51:49Z</time>
      </trkpt>
      <trkpt lat="45.63237" lon="4.97699">
        <ele>241</ele>
        <time>2011-10-15T08:51:56Z</time>
      </trkpt>
      <trkpt lat="45.63223" lon="4.97698">
        <ele>242</ele>
        <time>2011-10-15T08:52:03Z</time>
      </trkpt>
      <trkpt lat="45.6321" lon="4.97699">
        <ele>243</ele>
        <time>2011-10-15T08:52:10Z</time>
      </trkpt>
      <trkpt lat="45.63205" lon="4.97699">
        <ele>243</ele>
        <time>2011-10-15T08:52:15Z</time>
      </trkpt>
      <trkpt lat="45.63204" lon="4.977">
        <ele>243</ele>
        <time>2011-10-15T08:52:24Z</time>
      </trkpt>
      <trkpt lat="45.63202" lon="4.97701">
        <ele>243</ele>
        <time>2011-10-15T08:52:25Z</time>
      </trkpt>
      <trkpt lat="45.63201" lon="4.97702">
        <ele>243</ele>
        <time>2011-10-15T08:52:26Z</time>
      </trkpt>
      <trkpt lat="45.632" lon="4.97705">
        <ele>242</ele>
        <time>2011-10-15T08:52:27Z</time>
      </trkpt>
      <trkpt lat="45.63199" lon="4.97708">
        <ele>243</ele>
        <time>2011-10-15T08:52:28Z</time>
      </trkpt>
      <trkpt lat="45.63199" lon="4.97711">
        <ele>243</ele>
        <time>2011-10-15T08:52:29Z</time>
      </trkpt>
      <trkpt lat="45.632" lon="4.97715">
        <ele>242</ele>
        <time>2011-10-15T08:52:30Z</time>
      </trkpt>
      <trkpt lat="45.63208" lon="4.97745">
        <ele>241</ele>
        <time>2011-10-15T08:52:36Z</time>
      </trkpt>
      <trkpt lat="45.6321" lon="4.97751">
        <ele>241</ele>
        <time>2011-10-15T08:52:37Z</time>
      </trkpt>
      <trkpt lat="45.63212" lon="4.97757">
        <ele>240</ele>
        <time>2011-10-15T08:52:38Z</time>
      </trkpt>
      <trkpt lat="45.63213" lon="4.97764">
        <ele>240</ele>
        <time>2011-10-15T08:52:39Z</time>
      </trkpt>
      <trkpt lat="45.63215" lon="4.9777">
        <ele>240</ele>
        <time>2011-10-15T08:52:40Z</time>
      </trkpt>
      <trkpt lat="45.63228" lon="4.97814">
        <ele>238</ele>
        <time>2011-10-15T08:52:46Z</time>
      </trkpt>
      <trkpt lat="45.63242" lon="4.97857">
        <ele>235</ele>
        <time>2011-10-15T08:52:51Z</time>
      </trkpt>
      <trkpt lat="45.63245" lon="4.97865">
        <ele>235</ele>
        <time>2011-10-15T08:52:52Z</time>
      </trkpt>
      <trkpt lat="45.63251" lon="4.97881">
        <ele>234</ele>
        <time>2011-10-15T08:52:54Z</time>
      </trkpt>
      <trkpt lat="45.63254" lon="4.97887">
        <ele>234</ele>
        <time>2011-10-15T08:52:55Z</time>
      </trkpt>
      <trkpt lat="45.63261" lon="4.97907">
        <ele>235</ele>
        <time>2011-10-15T08:53:00Z</time>
      </trkpt>
      <trkpt lat="45.63265" lon="4.97925">
        <ele>236</ele>
        <time>2011-10-15T08:53:05Z</time>
      </trkpt>
      <trkpt lat="45.63275" lon="4.97954">
        <ele>237</ele>
        <time>2011-10-15T08:53:13Z</time>
      </trkpt>
      <trkpt lat="45.63284" lon="4.9799">
        <ele>237</ele>
        <time>2011-10-15T08:53:22Z</time>
      </trkpt>
      <trkpt lat="45.63291" lon="4.98027">
        <ele>237</ele>
        <time>2011-10-15T08:53:31Z</time>
      </trkpt>
      <trkpt lat="45.6329" lon="4.9803">
        <ele>237</ele>
        <time>2011-10-15T08:53:32Z</time>
      </trkpt>
      <trkpt lat="45.63288" lon="4.98033">
        <ele>237</ele>
        <time>2011-10-15T08:53:33Z</time>
      </trkpt>
      <trkpt lat="45.63286" lon="4.98036">
        <ele>238</ele>
        <time>2011-10-15T08:53:34Z</time>
      </trkpt>
      <trkpt lat="45.63284" lon="4.98038">
        <ele>238</ele>
        <time>2011-10-15T08:53:35Z</time>
      </trkpt>
      <trkpt lat="45.63266" lon="4.98064">
        <ele>238</ele>
        <time>2011-10-15T08:53:44Z</time>
      </trkpt>
      <trkpt lat="45.63248" lon="4.98091">
        <ele>243</ele>
        <time>2011-10-15T08:53:53Z</time>
      </trkpt>
      <trkpt lat="45.63246" lon="4.98094">
        <ele>236</ele>
        <time>2011-10-15T08:53:54Z</time>
      </trkpt>
      <trkpt lat="45.63244" lon="4.98097">
        <ele>239</ele>
        <time>2011-10-15T08:53:55Z</time>
      </trkpt>
      <trkpt lat="45.63221" lon="4.98131">
        <ele>240</ele>
        <time>2011-10-15T08:54:06Z</time>
      </trkpt>
      <trkpt lat="45.63204" lon="4.98154">
        <ele>242</ele>
        <time>2011-10-15T08:54:14Z</time>
      </trkpt>
      <trkpt lat="45.63191" lon="4.98175">
        <ele>242</ele>
        <time>2011-10-15T08:54:23Z</time>
      </trkpt>
      <trkpt lat="45.63179" lon="4.98196">
        <ele>245</ele>
        <time>2011-10-15T08:54:32Z</time>
      </trkpt>
      <trkpt lat="45.63171" lon="4.98212">
        <ele>245</ele>
        <time>2011-10-15T08:54:39Z</time>
      </trkpt>
      <trkpt lat="45.63157" lon="4.98233">
        <ele>247</ele>
        <time>2011-10-15T08:54:49Z</time>
      </trkpt>
      <trkpt lat="45.6314" lon="4.98247">
        <ele>248</ele>
        <time>2011-10-15T08:54:58Z</time>
      </trkpt>
      <trkpt lat="45.6312" lon="4.98262">
        <ele>250</ele>
        <time>2011-10-15T08:55:09Z</time>
      </trkpt>
      <trkpt lat="45.6311" lon="4.9827">
        <ele>252</ele>
        <time>2011-10-15T08:55:16Z</time>
      </trkpt>
      <trkpt lat="45.63097" lon="4.9828">
        <ele>253</ele>
        <time>2011-10-15T08:55:25Z</time>
      </trkpt>
      <trkpt lat="45.6308" lon="4.98294">
        <ele>254</ele>
        <time>2011-10-15T08:55:35Z</time>
      </trkpt>
      <trkpt lat="45.63061" lon="4.9831">
        <ele>256</ele>
        <time>2011-10-15T08:55:46Z</time>
      </trkpt>
      <trkpt lat="45.63047" lon="4.98322">
        <ele>256</ele>
        <time>2011-10-15T08:55:54Z</time>
      </trkpt>
      <trkpt lat="45.63031" lon="4.98337">
        <ele>258</ele>
        <time>2011-10-15T08:56:03Z</time>
      </trkpt>
      <trkpt lat="45.63013" lon="4.98355">
        <ele>259</ele>
        <time>2011-10-15T08:56:13Z</time>
      </trkpt>
      <trkpt lat="45.62989" lon="4.98378">
        <ele>259</ele>
        <time>2011-10-15T08:56:23Z</time>
      </trkpt>
      <trkpt lat="45.62969" lon="4.98395">
        <ele>258</ele>
        <time>2011-10-15T08:56:31Z</time>
      </trkpt>
      <trkpt lat="45.62956" lon="4.98391">
        <ele>259</ele>
        <time>2011-10-15T08:56:36Z</time>
      </trkpt>
      <trkpt lat="45.62945" lon="4.98371">
        <ele>259</ele>
        <time>2011-10-15T08:56:42Z</time>
      </trkpt>
      <trkpt lat="45.62927" lon="4.98332">
        <ele>258</ele>
        <time>2011-10-15T08:56:51Z</time>
      </trkpt>
      <trkpt lat="45.62902" lon="4.9828">
        <ele>257</ele>
        <time>2011-10-15T08:57:02Z</time>
      </trkpt>
      <trkpt lat="45.62898" lon="4.9827">
        <ele>257</ele>
        <time>2011-10-15T08:57:04Z</time>
      </trkpt>
      <trkpt lat="45.62895" lon="4.98264">
        <ele>256</ele>
        <time>2011-10-15T08:57:05Z</time>
      </trkpt>
      <trkpt lat="45.62893" lon="4.98259">
        <ele>256</ele>
        <time>2011-10-15T08:57:06Z</time>
      </trkpt>
      <trkpt lat="45.6289" lon="4.98253">
        <ele>257</ele>
        <time>2011-10-15T08:57:07Z</time>
      </trkpt>
      <trkpt lat="45.62888" lon="4.98248">
        <ele>256</ele>
        <time>2011-10-15T08:57:08Z</time>
      </trkpt>
      <trkpt lat="45.62885" lon="4.98243">
        <ele>256</ele>
        <time>2011-10-15T08:57:09Z</time>
      </trkpt>
      <trkpt lat="45.62882" lon="4.98237">
        <ele>256</ele>
        <time>2011-10-15T08:57:10Z</time>
      </trkpt>
      <trkpt lat="45.62879" lon="4.98232">
        <ele>256</ele>
        <time>2011-10-15T08:57:11Z</time>
      </trkpt>
      <trkpt lat="45.62877" lon="4.98226">
        <ele>255</ele>
        <time>2011-10-15T08:57:12Z</time>
      </trkpt>
      <trkpt lat="45.62874" lon="4.9822">
        <ele>256</ele>
        <time>2011-10-15T08:57:13Z</time>
      </trkpt>
      <trkpt lat="45.62852" lon="4.98171">
        <ele>253</ele>
        <time>2011-10-15T08:57:21Z</time>
      </trkpt>
      <trkpt lat="45.62841" lon="4.98148">
        <ele>252</ele>
        <time>2011-10-15T08:57:24Z</time>
      </trkpt>
      <trkpt lat="45.62837" lon="4.98139">
        <ele>252</ele>
        <time>2011-10-15T08:57:25Z</time>
      </trkpt>
      <trkpt lat="45.62816" lon="4.9809">
        <ele>249</ele>
        <time>2011-10-15T08:57:30Z</time>
      </trkpt>
      <trkpt lat="45.62814" lon="4.98078">
        <ele>248</ele>
        <time>2011-10-15T08:57:31Z</time>
      </trkpt>
      <trkpt lat="45.62812" lon="4.98065">
        <ele>247</ele>
        <time>2011-10-15T08:57:32Z</time>
      </trkpt>
      <trkpt lat="45.62812" lon="4.98051">
        <ele>246</ele>
        <time>2011-10-15T08:57:33Z</time>
      </trkpt>
      <trkpt lat="45.62814" lon="4.98038">
        <ele>246</ele>
        <time>2011-10-15T08:57:34Z</time>
      </trkpt>
      <trkpt lat="45.62818" lon="4.98027">
        <ele>246</ele>
        <time>2011-10-15T08:57:35Z</time>
      </trkpt>
      <trkpt lat="45.62823" lon="4.98018">
        <ele>246</ele>
        <time>2011-10-15T08:57:36Z</time>
      </trkpt>
      <trkpt lat="45.62828" lon="4.9801">
        <ele>245</ele>
        <time>2011-10-15T08:57:37Z</time>
      </trkpt>
      <trkpt lat="45.62833" lon="4.98003">
        <ele>246</ele>
        <time>2011-10-15T08:57:38Z</time>
      </trkpt>
      <trkpt lat="45.62838" lon="4.97996">
        <ele>245</ele>
        <time>2011-10-15T08:57:39Z</time>
      </trkpt>
      <trkpt lat="45.62858" lon="4.97963">
        <ele>245</ele>
        <time>2011-10-15T08:57:45Z</time>
      </trkpt>
      <trkpt lat="45.62873" lon="4.97937">
        <ele>247</ele>
        <time>2011-10-15T08:57:52Z</time>
      </trkpt>
      <trkpt lat="45.62888" lon="4.97906">
        <ele>248</ele>
        <time>2011-10-15T08:58:00Z</time>
      </trkpt>
      <trkpt lat="45.62901" lon="4.97865">
        <ele>250</ele>
        <time>2011-10-15T08:58:10Z</time>
      </trkpt>
      <trkpt lat="45.62909" lon="4.97828">
        <ele>250</ele>
        <time>2011-10-15T08:58:18Z</time>
      </trkpt>
      <trkpt lat="45.62917" lon="4.97784">
        <ele>250</ele>
        <time>2011-10-15T08:58:27Z</time>
      </trkpt>
      <trkpt lat="45.62917" lon="4.97743">
        <ele>250</ele>
        <time>2011-10-15T08:58:35Z</time>
      </trkpt>
      <trkpt lat="45.62902" lon="4.97723">
        <ele>249</ele>
        <time>2011-10-15T08:58:41Z</time>
      </trkpt>
      <trkpt lat="45.62876" lon="4.97713">
        <ele>251</ele>
        <time>2011-10-15T08:58:48Z</time>
      </trkpt>
      <trkpt lat="45.62848" lon="4.97697">
        <ele>252</ele>
        <time>2011-10-15T08:58:57Z</time>
      </trkpt>
      <trkpt lat="45.62834" lon="4.97679">
        <ele>253</ele>
        <time>2011-10-15T08:59:03Z</time>
      </trkpt>
      <trkpt lat="45.62822" lon="4.97647">
        <ele>254</ele>
        <time>2011-10-15T08:59:11Z</time>
      </trkpt>
      <trkpt lat="45.62812" lon="4.97621">
        <ele>255</ele>
        <time>2011-10-15T08:59:18Z</time>
      </trkpt>
      <trkpt lat="45.62805" lon="4.97595">
        <ele>255</ele>
        <time>2011-10-15T08:59:26Z</time>
      </trkpt>
      <trkpt lat="45.628" lon="4.97585">
        <ele>255</ele>
        <time>2011-10-15T08:59:32Z</time>
      </trkpt>
      <trkpt lat="45.62786" lon="4.97574">
        <ele>256</ele>
        <time>2011-10-15T08:59:38Z</time>
      </trkpt>
      <trkpt lat="45.62764" lon="4.97553">
        <ele>257</ele>
        <time>2011-10-15T08:59:48Z</time>
      </trkpt>
      <trkpt lat="45.62744" lon="4.97527">
        <ele>258</ele>
        <time>2011-10-15T08:59:58Z</time>
      </trkpt>
      <trkpt lat="45.62724" lon="4.975">
        <ele>259</ele>
        <time>2011-10-15T09:00:08Z</time>
      </trkpt>
      <trkpt lat="45.62705" lon="4.97475">
        <ele>260</ele>
        <time>2011-10-15T09:00:17Z</time>
      </trkpt>
      <trkpt lat="45.62688" lon="4.97452">
        <ele>262</ele>
        <time>2011-10-15T09:00:26Z</time>
      </trkpt>
      <trkpt lat="45.62671" lon="4.9743">
        <ele>263</ele>
        <time>2011-10-15T09:00:35Z</time>
      </trkpt>
      <trkpt lat="45.62655" lon="4.97408">
        <ele>264</ele>
        <time>2011-10-15T09:00:44Z</time>
      </trkpt>
      <trkpt lat="45.62637" lon="4.97384">
        <ele>266</ele>
        <time>2011-10-15T09:00:54Z</time>
      </trkpt>
      <trkpt lat="45.62617" lon="4.97357">
        <ele>267</ele>
        <time>2011-10-15T09:01:05Z</time>
      </trkpt>
      <trkpt lat="45.62603" lon="4.97338">
        <ele>269</ele>
        <time>2011-10-15T09:01:14Z</time>
      </trkpt>
      <trkpt lat="45.62594" lon="4.97322">
        <ele>270</ele>
        <time>2011-10-15T09:01:21Z</time>
      </trkpt>
      <trkpt lat="45.62585" lon="4.97302">
        <ele>270</ele>
        <time>2011-10-15T09:01:29Z</time>
      </trkpt>
      <trkpt lat="45.62579" lon="4.97276">
        <ele>272</ele>
        <time>2011-10-15T09:01:38Z</time>
      </trkpt>
      <trkpt lat="45.62574" lon="4.97248">
        <ele>273</ele>
        <time>2011-10-15T09:01:48Z</time>
      </trkpt>
      <trkpt lat="45.62569" lon="4.97223">
        <ele>274</ele>
        <time>2011-10-15T09:01:57Z</time>
      </trkpt>
      <trkpt lat="45.62563" lon="4.97192">
        <ele>276</ele>
        <time>2011-10-15T09:02:08Z</time>
      </trkpt>
      <trkpt lat="45.62554" lon="4.97164">
        <ele>277</ele>
        <time>2011-10-15T09:02:17Z</time>
      </trkpt>
      <trkpt lat="45.62542" lon="4.97138">
        <ele>277</ele>
        <time>2011-10-15T09:02:26Z</time>
      </trkpt>
      <trkpt lat="45.62527" lon="4.97113">
        <ele>277</ele>
        <time>2011-10-15T09:02:35Z</time>
      </trkpt>
      <trkpt lat="45.62511" lon="4.97087">
        <ele>277</ele>
        <time>2011-10-15T09:02:44Z</time>
      </trkpt>
      <trkpt lat="45.62491" lon="4.97056">
        <ele>278</ele>
        <time>2011-10-15T09:02:53Z</time>
      </trkpt>
      <trkpt lat="45.62466" lon="4.97007">
        <ele>279</ele>
        <time>2011-10-15T09:03:05Z</time>
      </trkpt>
      <trkpt lat="45.62459" lon="4.9697">
        <ele>280</ele>
        <time>2011-10-15T09:03:13Z</time>
      </trkpt>
      <trkpt lat="45.6246" lon="4.96932">
        <ele>280</ele>
        <time>2011-10-15T09:03:21Z</time>
      </trkpt>
      <trkpt lat="45.62466" lon="4.96894">
        <ele>282</ele>
        <time>2011-10-15T09:03:29Z</time>
      </trkpt>
      <trkpt lat="45.62475" lon="4.96855">
        <ele>283</ele>
        <time>2011-10-15T09:03:38Z</time>
      </trkpt>
      <trkpt lat="45.62485" lon="4.96825">
        <ele>284</ele>
        <time>2011-10-15T09:03:46Z</time>
      </trkpt>
      <trkpt lat="45.62496" lon="4.96791">
        <ele>284</ele>
        <time>2011-10-15T09:03:55Z</time>
      </trkpt>
      <trkpt lat="45.62496" lon="4.96763">
        <ele>285</ele>
        <time>2011-10-15T09:04:02Z</time>
      </trkpt>
      <trkpt lat="45.62486" lon="4.96753">
        <ele>286</ele>
        <time>2011-10-15T09:04:07Z</time>
      </trkpt>
      <trkpt lat="45.62472" lon="4.96752">
        <ele>287</ele>
        <time>2011-10-15T09:04:14Z</time>
      </trkpt>
      <trkpt lat="45.62458" lon="4.96752">
        <ele>288</ele>
        <time>2011-10-15T09:04:21Z</time>
      </trkpt>
      <trkpt lat="45.62447" lon="4.96753">
        <ele>289</ele>
        <time>2011-10-15T09:04:27Z</time>
      </trkpt>
      <trkpt lat="45.62433" lon="4.96753">
        <ele>290</ele>
        <time>2011-10-15T09:04:35Z</time>
      </trkpt>
      <trkpt lat="45.62431" lon="4.96754">
        <ele>290</ele>
        <time>2011-10-15T09:04:36Z</time>
      </trkpt>
      <trkpt lat="45.6243" lon="4.96754">
        <ele>290</ele>
        <time>2011-10-15T09:04:37Z</time>
      </trkpt>
      <trkpt lat="45.62428" lon="4.96754">
        <ele>290</ele>
        <time>2011-10-15T09:04:38Z</time>
      </trkpt>
      <trkpt lat="45.62427" lon="4.96754">
        <ele>290</ele>
        <time>2011-10-15T09:04:39Z</time>
      </trkpt>
      <trkpt lat="45.62425" lon="4.96753">
        <ele>290</ele>
        <time>2011-10-15T09:04:40Z</time>
      </trkpt>
      <trkpt lat="45.62411" lon="4.96754">
        <ele>291</ele>
        <time>2011-10-15T09:04:48Z</time>
      </trkpt>
      <trkpt lat="45.62408" lon="4.96755">
        <ele>292</ele>
        <time>2011-10-15T09:04:50Z</time>
      </trkpt>
      <trkpt lat="45.62407" lon="4.96754">
        <ele>292</ele>
        <time>2011-10-15T09:04:51Z</time>
      </trkpt>
      <trkpt lat="45.62406" lon="4.96754">
        <ele>292</ele>
        <time>2011-10-15T09:04:52Z</time>
      </trkpt>
      <trkpt lat="45.62404" lon="4.96754">
        <ele>293</ele>
        <time>2011-10-15T09:04:53Z</time>
      </trkpt>
      <trkpt lat="45.62402" lon="4.96754">
        <ele>292</ele>
        <time>2011-10-15T09:04:54Z</time>
      </trkpt>
      <trkpt lat="45.624" lon="4.96754">
        <ele>293</ele>
        <time>2011-10-15T09:04:55Z</time>
      </trkpt>
      <trkpt lat="45.62388" lon="4.96755">
        <ele>294</ele>
        <time>2011-10-15T09:05:02Z</time>
      </trkpt>
      <trkpt lat="45.62373" lon="4.96754">
        <ele>295</ele>
        <time>2011-10-15T09:05:10Z</time>
      </trkpt>
      <trkpt lat="45.62358" lon="4.96755">
        <ele>296</ele>
        <time>2011-10-15T09:05:18Z</time>
      </trkpt>
      <trkpt lat="45.62338" lon="4.96752">
        <ele>297</ele>
        <time>2011-10-15T09:05:27Z</time>
      </trkpt>
      <trkpt lat="45.62321" lon="4.96748">
        <ele>297</ele>
        <time>2011-10-15T09:05:35Z</time>
      </trkpt>
      <trkpt lat="45.6232" lon="4.96746">
        <ele>297</ele>
        <time>2011-10-15T09:05:36Z</time>
      </trkpt>
      <trkpt lat="45.62319" lon="4.96743">
        <ele>298</ele>
        <time>2011-10-15T09:05:37Z</time>
      </trkpt>
      <trkpt lat="45.62319" lon="4.9674">
        <ele>297</ele>
        <time>2011-10-15T09:05:38Z</time>
      </trkpt>
      <trkpt lat="45.62319" lon="4.96737">
        <ele>298</ele>
        <time>2011-10-15T09:05:39Z</time>
      </trkpt>
      <trkpt lat="45.62323" lon="4.96708">
        <ele>299</ele>
        <time>2011-10-15T09:05:49Z</time>
      </trkpt>
      <trkpt lat="45.62325" lon="4.96687">
        <ele>299</ele>
        <time>2011-10-15T09:05:56Z</time>
      </trkpt>
      <trkpt lat="45.62329" lon="4.96659">
        <ele>300</ele>
        <time>2011-10-15T09:06:02Z</time>
      </trkpt>
      <trkpt lat="45.62335" lon="4.96617">
        <ele>299</ele>
        <time>2011-10-15T09:06:10Z</time>
      </trkpt>
      <trkpt lat="45.62343" lon="4.96561">
        <ele>298</ele>
        <time>2011-10-15T09:06:20Z</time>
      </trkpt>
      <trkpt lat="45.62346" lon="4.96544">
        <ele>298</ele>
        <time>2011-10-15T09:06:23Z</time>
      </trkpt>
      <trkpt lat="45.62355" lon="4.96512">
        <ele>298</ele>
        <time>2011-10-15T09:06:29Z</time>
      </trkpt>
      <trkpt lat="45.62357" lon="4.96506">
        <ele>298</ele>
        <time>2011-10-15T09:06:30Z</time>
      </trkpt>
      <trkpt lat="45.62357" lon="4.965">
        <ele>298</ele>
        <time>2011-10-15T09:06:31Z</time>
      </trkpt>
      <trkpt lat="45.6236" lon="4.96456">
        <ele>298</ele>
        <time>2011-10-15T09:06:39Z</time>
      </trkpt>
      <trkpt lat="45.62359" lon="4.9642">
        <ele>299</ele>
        <time>2011-10-15T09:06:47Z</time>
      </trkpt>
      <trkpt lat="45.6236" lon="4.96386">
        <ele>300</ele>
        <time>2011-10-15T09:06:54Z</time>
      </trkpt>
      <trkpt lat="45.62361" lon="4.96345">
        <ele>301</ele>
        <time>2011-10-15T09:07:03Z</time>
      </trkpt>
      <trkpt lat="45.62364" lon="4.96304">
        <ele>301</ele>
        <time>2011-10-15T09:07:12Z</time>
      </trkpt>
      <trkpt lat="45.62365" lon="4.96256">
        <ele>301</ele>
        <time>2011-10-15T09:07:22Z</time>
      </trkpt>
      <trkpt lat="45.62367" lon="4.96215">
        <ele>302</ele>
        <time>2011-10-15T09:07:31Z</time>
      </trkpt>
      <trkpt lat="45.6237" lon="4.96184">
        <ele>302</ele>
        <time>2011-10-15T09:07:38Z</time>
      </trkpt>
      <trkpt lat="45.62372" lon="4.96138">
        <ele>304</ele>
        <time>2011-10-15T09:07:49Z</time>
      </trkpt>
      <trkpt lat="45.62374" lon="4.96098">
        <ele>304</ele>
        <time>2011-10-15T09:07:58Z</time>
      </trkpt>
      <trkpt lat="45.62377" lon="4.9606">
        <ele>304</ele>
        <time>2011-10-15T09:08:07Z</time>
      </trkpt>
      <trkpt lat="45.62378" lon="4.96024">
        <ele>305</ele>
        <time>2011-10-15T09:08:15Z</time>
      </trkpt>
      <trkpt lat="45.62381" lon="4.9599">
        <ele>305</ele>
        <time>2011-10-15T09:08:23Z</time>
      </trkpt>
      <trkpt lat="45.6238" lon="4.95954">
        <ele>305</ele>
        <time>2011-10-15T09:08:31Z</time>
      </trkpt>
      <trkpt lat="45.62379" lon="4.95915">
        <ele>305</ele>
        <time>2011-10-15T09:08:39Z</time>
      </trkpt>
      <trkpt lat="45.6237" lon="4.95887">
        <ele>305</ele>
        <time>2011-10-15T09:08:45Z</time>
      </trkpt>
      <trkpt lat="45.62353" lon="4.9588">
        <ele>304</ele>
        <time>2011-10-15T09:08:50Z</time>
      </trkpt>
      <trkpt lat="45.62325" lon="4.95877">
        <ele>304</ele>
        <time>2011-10-15T09:08:58Z</time>
      </trkpt>
      <trkpt lat="45.62304" lon="4.95874">
        <ele>303</ele>
        <time>2011-10-15T09:09:04Z</time>
      </trkpt>
      <trkpt lat="45.62277" lon="4.95872">
        <ele>302</ele>
        <time>2011-10-15T09:09:11Z</time>
      </trkpt>
      <trkpt lat="45.62264" lon="4.9587">
        <ele>301</ele>
        <time>2011-10-15T09:09:14Z</time>
      </trkpt>
      <trkpt lat="45.6226" lon="4.95869">
        <ele>301</ele>
        <time>2011-10-15T09:09:15Z</time>
      </trkpt>
      <trkpt lat="45.62256" lon="4.95866">
        <ele>301</ele>
        <time>2011-10-15T09:09:16Z</time>
      </trkpt>
      <trkpt lat="45.62252" lon="4.95862">
        <ele>301</ele>
        <time>2011-10-15T09:09:17Z</time>
      </trkpt>
      <trkpt lat="45.62249" lon="4.95857">
        <ele>301</ele>
        <time>2011-10-15T09:09:18Z</time>
      </trkpt>
      <trkpt lat="45.62247" lon="4.95851">
        <ele>301</ele>
        <time>2011-10-15T09:09:19Z</time>
      </trkpt>
      <trkpt lat="45.62245" lon="4.95844">
        <ele>301</ele>
        <time>2011-10-15T09:09:20Z</time>
      </trkpt>
      <trkpt lat="45.62244" lon="4.95837">
        <ele>301</ele>
        <time>2011-10-15T09:09:21Z</time>
      </trkpt>
      <trkpt lat="45.62243" lon="4.95831">
        <ele>300</ele>
        <time>2011-10-15T09:09:22Z</time>
      </trkpt>
      <trkpt lat="45.62242" lon="4.95824">
        <ele>300</ele>
        <time>2011-10-15T09:09:23Z</time>
      </trkpt>
      <trkpt lat="45.62235" lon="4.95788">
        <ele>299</ele>
        <time>2011-10-15T09:09:29Z</time>
      </trkpt>
      <trkpt lat="45.62234" lon="4.95775">
        <ele>299</ele>
        <time>2011-10-15T09:09:31Z</time>
      </trkpt>
      <trkpt lat="45.62232" lon="4.95769">
        <ele>299</ele>
        <time>2011-10-15T09:09:32Z</time>
      </trkpt>
      <trkpt lat="45.62228" lon="4.95743">
        <ele>299</ele>
        <time>2011-10-15T09:09:36Z</time>
      </trkpt>
      <trkpt lat="45.62227" lon="4.95699">
        <ele>299</ele>
        <time>2011-10-15T09:09:43Z</time>
      </trkpt>
      <trkpt lat="45.62228" lon="4.95693">
        <ele>299</ele>
        <time>2011-10-15T09:09:44Z</time>
      </trkpt>
      <trkpt lat="45.62228" lon="4.95687">
        <ele>299</ele>
        <time>2011-10-15T09:09:45Z</time>
      </trkpt>
      <trkpt lat="45.62227" lon="4.95638">
        <ele>299</ele>
        <time>2011-10-15T09:09:54Z</time>
      </trkpt>
      <trkpt lat="45.62226" lon="4.95602">
        <ele>301</ele>
        <time>2011-10-15T09:10:01Z</time>
      </trkpt>
      <trkpt lat="45.62229" lon="4.95561">
        <ele>299</ele>
        <time>2011-10-15T09:10:09Z</time>
      </trkpt>
      <trkpt lat="45.62223" lon="4.95521">
        <ele>298</ele>
        <time>2011-10-15T09:10:16Z</time>
      </trkpt>
      <trkpt lat="45.62218" lon="4.95479">
        <ele>297</ele>
        <time>2011-10-15T09:10:23Z</time>
      </trkpt>
      <trkpt lat="45.62217" lon="4.95467">
        <ele>296</ele>
        <time>2011-10-15T09:10:25Z</time>
      </trkpt>
      <trkpt lat="45.62217" lon="4.95461">
        <ele>297</ele>
        <time>2011-10-15T09:10:26Z</time>
      </trkpt>
      <trkpt lat="45.62218" lon="4.95455">
        <ele>296</ele>
        <time>2011-10-15T09:10:27Z</time>
      </trkpt>
      <trkpt lat="45.62218" lon="4.95449">
        <ele>296</ele>
        <time>2011-10-15T09:10:28Z</time>
      </trkpt>
      <trkpt lat="45.62219" lon="4.95443">
        <ele>296</ele>
        <time>2011-10-15T09:10:29Z</time>
      </trkpt>
      <trkpt lat="45.62221" lon="4.95437">
        <ele>296</ele>
        <time>2011-10-15T09:10:30Z</time>
      </trkpt>
      <trkpt lat="45.62232" lon="4.95404">
        <ele>295</ele>
        <time>2011-10-15T09:10:36Z</time>
      </trkpt>
      <trkpt lat="45.62238" lon="4.95395">
        <ele>295</ele>
        <time>2011-10-15T09:10:38Z</time>
      </trkpt>
      <trkpt lat="45.62241" lon="4.95391">
        <ele>295</ele>
        <time>2011-10-15T09:10:39Z</time>
      </trkpt>
      <trkpt lat="45.62278" lon="4.95368">
        <ele>293</ele>
        <time>2011-10-15T09:10:48Z</time>
      </trkpt>
      <trkpt lat="45.62315" lon="4.95357">
        <ele>291</ele>
        <time>2011-10-15T09:10:57Z</time>
      </trkpt>
      <trkpt lat="45.62333" lon="4.95351">
        <ele>291</ele>
        <time>2011-10-15T09:11:02Z</time>
      </trkpt>
      <trkpt lat="45.62352" lon="4.95338">
        <ele>291</ele>
        <time>2011-10-15T09:11:08Z</time>
      </trkpt>
      <trkpt lat="45.62368" lon="4.9532">
        <ele>292</ele>
        <time>2011-10-15T09:11:14Z</time>
      </trkpt>
      <trkpt lat="45.62372" lon="4.95309">
        <ele>292</ele>
        <time>2011-10-15T09:11:17Z</time>
      </trkpt>
      <trkpt lat="45.62378" lon="4.95282">
        <ele>292</ele>
        <time>2011-10-15T09:11:23Z</time>
      </trkpt>
      <trkpt lat="45.62386" lon="4.95266">
        <ele>292</ele>
        <time>2011-10-15T09:11:27Z</time>
      </trkpt>
      <trkpt lat="45.62398" lon="4.95259">
        <ele>291</ele>
        <time>2011-10-15T09:11:32Z</time>
      </trkpt>
      <trkpt lat="45.62416" lon="4.95251">
        <ele>289</ele>
        <time>2011-10-15T09:11:36Z</time>
      </trkpt>
      <trkpt lat="45.62422" lon="4.95246">
        <ele>288</ele>
        <time>2011-10-15T09:11:37Z</time>
      </trkpt>
      <trkpt lat="45.62431" lon="4.95231">
        <ele>287</ele>
        <time>2011-10-15T09:11:39Z</time>
      </trkpt>
      <trkpt lat="45.62454" lon="4.95208">
        <ele>283</ele>
        <time>2011-10-15T09:11:42Z</time>
      </trkpt>
      <trkpt lat="45.62461" lon="4.952">
        <ele>282</ele>
        <time>2011-10-15T09:11:43Z</time>
      </trkpt>
      <trkpt lat="45.62469" lon="4.95193">
        <ele>282</ele>
        <time>2011-10-15T09:11:44Z</time>
      </trkpt>
      <trkpt lat="45.62475" lon="4.95184">
        <ele>281</ele>
        <time>2011-10-15T09:11:45Z</time>
      </trkpt>
      <trkpt lat="45.62485" lon="4.95165">
        <ele>280</ele>
        <time>2011-10-15T09:11:47Z</time>
      </trkpt>
      <trkpt lat="45.6249" lon="4.95154">
        <ele>279</ele>
        <time>2011-10-15T09:11:48Z</time>
      </trkpt>
      <trkpt lat="45.62495" lon="4.95145">
        <ele>277</ele>
        <time>2011-10-15T09:11:49Z</time>
      </trkpt>
      <trkpt lat="45.62501" lon="4.95136">
        <ele>277</ele>
        <time>2011-10-15T09:11:50Z</time>
      </trkpt>
      <trkpt lat="45.62509" lon="4.95125">
        <ele>276</ele>
        <time>2011-10-15T09:11:52Z</time>
      </trkpt>
      <trkpt lat="45.62524" lon="4.95105">
        <ele>274</ele>
        <time>2011-10-15T09:11:54Z</time>
      </trkpt>
      <trkpt lat="45.62529" lon="4.95097">
        <ele>273</ele>
        <time>2011-10-15T09:11:55Z</time>
      </trkpt>
      <trkpt lat="45.62533" lon="4.9509">
        <ele>272</ele>
        <time>2011-10-15T09:11:56Z</time>
      </trkpt>
      <trkpt lat="45.62536" lon="4.95083">
        <ele>272</ele>
        <time>2011-10-15T09:11:57Z</time>
      </trkpt>
      <trkpt lat="45.6254" lon="4.95074">
        <ele>270</ele>
        <time>2011-10-15T09:11:58Z</time>
      </trkpt>
      <trkpt lat="45.62543" lon="4.95065">
        <ele>269</ele>
        <time>2011-10-15T09:11:59Z</time>
      </trkpt>
      <trkpt lat="45.62546" lon="4.95057">
        <ele>268</ele>
        <time>2011-10-15T09:12:00Z</time>
      </trkpt>
      <trkpt lat="45.62553" lon="4.95042">
        <ele>266</ele>
        <time>2011-10-15T09:12:02Z</time>
      </trkpt>
      <trkpt lat="45.62559" lon="4.95025">
        <ele>263</ele>
        <time>2011-10-15T09:12:04Z</time>
      </trkpt>
      <trkpt lat="45.62569" lon="4.95001">
        <ele>260</ele>
        <time>2011-10-15T09:12:07Z</time>
      </trkpt>
      <trkpt lat="45.62576" lon="4.94987">
        <ele>258</ele>
        <time>2011-10-15T09:12:09Z</time>
      </trkpt>
      <trkpt lat="45.62578" lon="4.94979">
        <ele>257</ele>
        <time>2011-10-15T09:12:10Z</time>
      </trkpt>
      <trkpt lat="45.62579" lon="4.9497">
        <ele>256</ele>
        <time>2011-10-15T09:12:11Z</time>
      </trkpt>
      <trkpt lat="45.62581" lon="4.9495">
        <ele>255</ele>
        <time>2011-10-15T09:12:13Z</time>
      </trkpt>
      <trkpt lat="45.62583" lon="4.94915">
        <ele>252</ele>
        <time>2011-10-15T09:12:17Z</time>
      </trkpt>
      <trkpt lat="45.62583" lon="4.94907">
        <ele>251</ele>
        <time>2011-10-15T09:12:18Z</time>
      </trkpt>
      <trkpt lat="45.62582" lon="4.94889">
        <ele>250</ele>
        <time>2011-10-15T09:12:20Z</time>
      </trkpt>
      <trkpt lat="45.62582" lon="4.9488">
        <ele>249</ele>
        <time>2011-10-15T09:12:21Z</time>
      </trkpt>
      <trkpt lat="45.62583" lon="4.9487">
        <ele>249</ele>
        <time>2011-10-15T09:12:22Z</time>
      </trkpt>
      <trkpt lat="45.62582" lon="4.9486">
        <ele>248</ele>
        <time>2011-10-15T09:12:23Z</time>
      </trkpt>
      <trkpt lat="45.62581" lon="4.9485">
        <ele>247</ele>
        <time>2011-10-15T09:12:24Z</time>
      </trkpt>
      <trkpt lat="45.62581" lon="4.9484">
        <ele>247</ele>
        <time>2011-10-15T09:12:25Z</time>
      </trkpt>
      <trkpt lat="45.62579" lon="4.9483">
        <ele>246</ele>
        <time>2011-10-15T09:12:26Z</time>
      </trkpt>
      <trkpt lat="45.62579" lon="4.94821">
        <ele>245</ele>
        <time>2011-10-15T09:12:27Z</time>
      </trkpt>
      <trkpt lat="45.62578" lon="4.94814">
        <ele>244</ele>
        <time>2011-10-15T09:12:28Z</time>
      </trkpt>
      <trkpt lat="45.62578" lon="4.94806">
        <ele>243</ele>
        <time>2011-10-15T09:12:29Z</time>
      </trkpt>
      <trkpt lat="45.62578" lon="4.94797">
        <ele>242</ele>
        <time>2011-10-15T09:12:30Z</time>
      </trkpt>
      <trkpt lat="45.6258" lon="4.9479">
        <ele>242</ele>
        <time>2011-10-15T09:12:31Z</time>
      </trkpt>
      <trkpt lat="45.62584" lon="4.94784">
        <ele>240</ele>
        <time>2011-10-15T09:12:32Z</time>
      </trkpt>
      <trkpt lat="45.62588" lon="4.94779">
        <ele>240</ele>
        <time>2011-10-15T09:12:33Z</time>
      </trkpt>
      <trkpt lat="45.62603" lon="4.9476">
        <ele>238</ele>
        <time>2011-10-15T09:12:38Z</time>
      </trkpt>
      <trkpt lat="45.62607" lon="4.94756">
        <ele>237</ele>
        <time>2011-10-15T09:12:39Z</time>
      </trkpt>
      <trkpt lat="45.62618" lon="4.94746">
        <ele>235</ele>
        <time>2011-10-15T09:12:41Z</time>
      </trkpt>
      <trkpt lat="45.62636" lon="4.94729">
        <ele>230</ele>
        <time>2011-10-15T09:12:45Z</time>
      </trkpt>
      <trkpt lat="45.62639" lon="4.94726">
        <ele>230</ele>
        <time>2011-10-15T09:12:46Z</time>
      </trkpt>
      <trkpt lat="45.62643" lon="4.94722">
        <ele>230</ele>
        <time>2011-10-15T09:12:47Z</time>
      </trkpt>
      <trkpt lat="45.6265" lon="4.94716">
        <ele>228</ele>
        <time>2011-10-15T09:12:49Z</time>
      </trkpt>
      <trkpt lat="45.62659" lon="4.94707">
        <ele>227</ele>
        <time>2011-10-15T09:12:52Z</time>
      </trkpt>
      <trkpt lat="45.62661" lon="4.94703">
        <ele>227</ele>
        <time>2011-10-15T09:12:53Z</time>
      </trkpt>
      <trkpt lat="45.62664" lon="4.94693">
        <ele>226</ele>
        <time>2011-10-15T09:12:55Z</time>
      </trkpt>
      <trkpt lat="45.62665" lon="4.94687">
        <ele>226</ele>
        <time>2011-10-15T09:12:56Z</time>
      </trkpt>
      <trkpt lat="45.62666" lon="4.94667">
        <ele>226</ele>
        <time>2011-10-15T09:12:59Z</time>
      </trkpt>
      <trkpt lat="45.62666" lon="4.9466">
        <ele>225</ele>
        <time>2011-10-15T09:13:00Z</time>
      </trkpt>
      <trkpt lat="45.62668" lon="4.94598">
        <ele>225</ele>
        <time>2011-10-15T09:13:09Z</time>
      </trkpt>
      <trkpt lat="45.62668" lon="4.94557">
        <ele>225</ele>
        <time>2011-10-15T09:13:16Z</time>
      </trkpt>
      <trkpt lat="45.62666" lon="4.94552">
        <ele>225</ele>
        <time>2011-10-15T09:13:17Z</time>
      </trkpt>
      <trkpt lat="45.62661" lon="4.94535">
        <ele>225</ele>
        <time>2011-10-15T09:13:20Z</time>
      </trkpt>
      <trkpt lat="45.62658" lon="4.9453">
        <ele>225</ele>
        <time>2011-10-15T09:13:21Z</time>
      </trkpt>
      <trkpt lat="45.62656" lon="4.94525">
        <ele>225</ele>
        <time>2011-10-15T09:13:22Z</time>
      </trkpt>
      <trkpt lat="45.62653" lon="4.94521">
        <ele>225</ele>
        <time>2011-10-15T09:13:23Z</time>
      </trkpt>
      <trkpt lat="45.6265" lon="4.94517">
        <ele>225</ele>
        <time>2011-10-15T09:13:24Z</time>
      </trkpt>
      <trkpt lat="45.62646" lon="4.94514">
        <ele>225</ele>
        <time>2011-10-15T09:13:25Z</time>
      </trkpt>
      <trkpt lat="45.62643" lon="4.94511">
        <ele>225</ele>
        <time>2011-10-15T09:13:26Z</time>
      </trkpt>
      <trkpt lat="45.62623" lon="4.94495">
        <ele>225</ele>
        <time>2011-10-15T09:13:31Z</time>
      </trkpt>
      <trkpt lat="45.6262" lon="4.9449">
        <ele>225</ele>
        <time>2011-10-15T09:13:32Z</time>
      </trkpt>
      <trkpt lat="45.62617" lon="4.94485">
        <ele>225</ele>
        <time>2011-10-15T09:13:33Z</time>
      </trkpt>
      <trkpt lat="45.62615" lon="4.9448">
        <ele>225</ele>
        <time>2011-10-15T09:13:34Z</time>
      </trkpt>
      <trkpt lat="45.62614" lon="4.94474">
        <ele>225</ele>
        <time>2011-10-15T09:13:35Z</time>
      </trkpt>
      <trkpt lat="45.62613" lon="4.94467">
        <ele>225</ele>
        <time>2011-10-15T09:13:36Z</time>
      </trkpt>
      <trkpt lat="45.62612" lon="4.94461">
        <ele>225</ele>
        <time>2011-10-15T09:13:37Z</time>
      </trkpt>
      <trkpt lat="45.62611" lon="4.94454">
        <ele>225</ele>
        <time>2011-10-15T09:13:38Z</time>
      </trkpt>
      <trkpt lat="45.62611" lon="4.94448">
        <ele>225</ele>
        <time>2011-10-15T09:13:39Z</time>
      </trkpt>
      <trkpt lat="45.62611" lon="4.94442">
        <ele>226</ele>
        <time>2011-10-15T09:13:40Z</time>
      </trkpt>
      <trkpt lat="45.62613" lon="4.94429">
        <ele>225</ele>
        <time>2011-10-15T09:13:42Z</time>
      </trkpt>
      <trkpt lat="45.62614" lon="4.94423">
        <ele>225</ele>
        <time>2011-10-15T09:13:43Z</time>
      </trkpt>
      <trkpt lat="45.62616" lon="4.94417">
        <ele>225</ele>
        <time>2011-10-15T09:13:44Z</time>
      </trkpt>
      <trkpt lat="45.62619" lon="4.94406">
        <ele>226</ele>
        <time>2011-10-15T09:13:46Z</time>
      </trkpt>
      <trkpt lat="45.62639" lon="4.94355">
        <ele>224</ele>
        <time>2011-10-15T09:13:54Z</time>
      </trkpt>
      <trkpt lat="45.62641" lon="4.94347">
        <ele>224</ele>
        <time>2011-10-15T09:13:55Z</time>
      </trkpt>
      <trkpt lat="45.62653" lon="4.94281">
        <ele>222</ele>
        <time>2011-10-15T09:14:03Z</time>
      </trkpt>
      <trkpt lat="45.62653" lon="4.94214">
        <ele>221</ele>
        <time>2011-10-15T09:14:11Z</time>
      </trkpt>
      <trkpt lat="45.6265" lon="4.94126">
        <ele>219</ele>
        <time>2011-10-15T09:14:21Z</time>
      </trkpt>
      <trkpt lat="45.62648" lon="4.94038">
        <ele>217</ele>
        <time>2011-10-15T09:14:31Z</time>
      </trkpt>
      <trkpt lat="45.62646" lon="4.93968">
        <ele>217</ele>
        <time>2011-10-15T09:14:39Z</time>
      </trkpt>
      <trkpt lat="45.62651" lon="4.93908">
        <ele>216</ele>
        <time>2011-10-15T09:14:46Z</time>
      </trkpt>
      <trkpt lat="45.62653" lon="4.939">
        <ele>215</ele>
        <time>2011-10-15T09:14:47Z</time>
      </trkpt>
      <trkpt lat="45.62655" lon="4.93893">
        <ele>215</ele>
        <time>2011-10-15T09:14:48Z</time>
      </trkpt>
      <trkpt lat="45.62658" lon="4.93885">
        <ele>215</ele>
        <time>2011-10-15T09:14:49Z</time>
      </trkpt>
      <trkpt lat="45.62661" lon="4.93878">
        <ele>216</ele>
        <time>2011-10-15T09:14:50Z</time>
      </trkpt>
      <trkpt lat="45.62687" lon="4.93821">
        <ele>215</ele>
        <time>2011-10-15T09:14:58Z</time>
      </trkpt>
      <trkpt lat="45.6272" lon="4.93763">
        <ele>215</ele>
        <time>2011-10-15T09:15:07Z</time>
      </trkpt>
      <trkpt lat="45.62723" lon="4.93756">
        <ele>215</ele>
        <time>2011-10-15T09:15:08Z</time>
      </trkpt>
      <trkpt lat="45.62726" lon="4.93749">
        <ele>215</ele>
        <time>2011-10-15T09:15:09Z</time>
      </trkpt>
      <trkpt lat="45.62727" lon="4.93741">
        <ele>215</ele>
        <time>2011-10-15T09:15:10Z</time>
      </trkpt>
      <trkpt lat="45.62726" lon="4.93734">
        <ele>215</ele>
        <time>2011-10-15T09:15:11Z</time>
      </trkpt>
      <trkpt lat="45.62726" lon="4.93726">
        <ele>215</ele>
        <time>2011-10-15T09:15:12Z</time>
      </trkpt>
      <trkpt lat="45.62724" lon="4.93718">
        <ele>215</ele>
        <time>2011-10-15T09:15:13Z</time>
      </trkpt>
      <trkpt lat="45.62721" lon="4.93696">
        <ele>215</ele>
        <time>2011-10-15T09:15:16Z</time>
      </trkpt>
      <trkpt lat="45.62716" lon="4.93645">
        <ele>215</ele>
        <time>2011-10-15T09:15:24Z</time>
      </trkpt>
      <trkpt lat="45.62716" lon="4.93638">
        <ele>215</ele>
        <time>2011-10-15T09:15:25Z</time>
      </trkpt>
      <trkpt lat="45.62716" lon="4.93615">
        <ele>216</ele>
        <time>2011-10-15T09:15:29Z</time>
      </trkpt>
      <trkpt lat="45.62717" lon="4.93609">
        <ele>216</ele>
        <time>2011-10-15T09:15:30Z</time>
      </trkpt>
      <trkpt lat="45.62723" lon="4.93552">
        <ele>217</ele>
        <time>2011-10-15T09:15:40Z</time>
      </trkpt>
      <trkpt lat="45.62728" lon="4.93506">
        <ele>217</ele>
        <time>2011-10-15T09:15:48Z</time>
      </trkpt>
      <trkpt lat="45.62729" lon="4.93487">
        <ele>217</ele>
        <time>2011-10-15T09:15:51Z</time>
      </trkpt>
      <trkpt lat="45.6273" lon="4.93481">
        <ele>217</ele>
        <time>2011-10-15T09:15:52Z</time>
      </trkpt>
      <trkpt lat="45.6273" lon="4.93474">
        <ele>217</ele>
        <time>2011-10-15T09:15:53Z</time>
      </trkpt>
      <trkpt lat="45.62729" lon="4.93468">
        <ele>217</ele>
        <time>2011-10-15T09:15:54Z</time>
      </trkpt>
      <trkpt lat="45.62729" lon="4.93462">
        <ele>217</ele>
        <time>2011-10-15T09:15:55Z</time>
      </trkpt>
      <trkpt lat="45.6273" lon="4.93456">
        <ele>217</ele>
        <time>2011-10-15T09:15:56Z</time>
      </trkpt>
      <trkpt lat="45.6273" lon="4.93443">
        <ele>217</ele>
        <time>2011-10-15T09:15:58Z</time>
      </trkpt>
      <trkpt lat="45.62729" lon="4.93389">
        <ele>219</ele>
        <time>2011-10-15T09:16:07Z</time>
      </trkpt>
      <trkpt lat="45.62725" lon="4.93332">
        <ele>218</ele>
        <time>2011-10-15T09:16:16Z</time>
      </trkpt>
      <trkpt lat="45.62723" lon="4.933">
        <ele>217</ele>
        <time>2011-10-15T09:16:21Z</time>
      </trkpt>
      <trkpt lat="45.62723" lon="4.93293">
        <ele>218</ele>
        <time>2011-10-15T09:16:22Z</time>
      </trkpt>
      <trkpt lat="45.62723" lon="4.9328">
        <ele>217</ele>
        <time>2011-10-15T09:16:24Z</time>
      </trkpt>
      <trkpt lat="45.62724" lon="4.93273">
        <ele>217</ele>
        <time>2011-10-15T09:16:25Z</time>
      </trkpt>
      <trkpt lat="45.62724" lon="4.93267">
        <ele>217</ele>
        <time>2011-10-15T09:16:26Z</time>
      </trkpt>
      <trkpt lat="45.62724" lon="4.93201">
        <ele>216</ele>
        <time>2011-10-15T09:16:35Z</time>
      </trkpt>
      <trkpt lat="45.62723" lon="4.9314">
        <ele>216</ele>
        <time>2011-10-15T09:16:43Z</time>
      </trkpt>
      <trkpt lat="45.62723" lon="4.93092">
        <ele>214</ele>
        <time>2011-10-15T09:16:50Z</time>
      </trkpt>
      <trkpt lat="45.62724" lon="4.93086">
        <ele>214</ele>
        <time>2011-10-15T09:16:51Z</time>
      </trkpt>
      <trkpt lat="45.62726" lon="4.9308">
        <ele>214</ele>
        <time>2011-10-15T09:16:52Z</time>
      </trkpt>
      <trkpt lat="45.62728" lon="4.93075">
        <ele>214</ele>
        <time>2011-10-15T09:16:53Z</time>
      </trkpt>
      <trkpt lat="45.62728" lon="4.93069">
        <ele>214</ele>
        <time>2011-10-15T09:16:54Z</time>
      </trkpt>
      <trkpt lat="45.62727" lon="4.93063">
        <ele>215</ele>
        <time>2011-10-15T09:16:55Z</time>
      </trkpt>
      <trkpt lat="45.62724" lon="4.93058">
        <ele>214</ele>
        <time>2011-10-15T09:16:56Z</time>
      </trkpt>
      <trkpt lat="45.62721" lon="4.93054">
        <ele>214</ele>
        <time>2011-10-15T09:16:57Z</time>
      </trkpt>
      <trkpt lat="45.62717" lon="4.93051">
        <ele>214</ele>
        <time>2011-10-15T09:16:58Z</time>
      </trkpt>
      <trkpt lat="45.62713" lon="4.93049">
        <ele>214</ele>
        <time>2011-10-15T09:16:59Z</time>
      </trkpt>
      <trkpt lat="45.62709" lon="4.93048">
        <ele>214</ele>
        <time>2011-10-15T09:17:00Z</time>
      </trkpt>
      <trkpt lat="45.62706" lon="4.93046">
        <ele>214</ele>
        <time>2011-10-15T09:17:01Z</time>
      </trkpt>
      <trkpt lat="45.62703" lon="4.93041">
        <ele>214</ele>
        <time>2011-10-15T09:17:02Z</time>
      </trkpt>
      <trkpt lat="45.62702" lon="4.93036">
        <ele>214</ele>
        <time>2011-10-15T09:17:03Z</time>
      </trkpt>
      <trkpt lat="45.62701" lon="4.9303">
        <ele>214</ele>
        <time>2011-10-15T09:17:04Z</time>
      </trkpt>
      <trkpt lat="45.627" lon="4.93023">
        <ele>214</ele>
        <time>2011-10-15T09:17:05Z</time>
      </trkpt>
      <trkpt lat="45.62698" lon="4.93017">
        <ele>214</ele>
        <time>2011-10-15T09:17:06Z</time>
      </trkpt>
      <trkpt lat="45.62696" lon="4.93011">
        <ele>214</ele>
        <time>2011-10-15T09:17:07Z</time>
      </trkpt>
      <trkpt lat="45.62694" lon="4.93005">
        <ele>214</ele>
        <time>2011-10-15T09:17:08Z</time>
      </trkpt>
      <trkpt lat="45.62671" lon="4.9296">
        <ele>214</ele>
        <time>2011-10-15T09:17:16Z</time>
      </trkpt>
      <trkpt lat="45.62655" lon="4.92935">
        <ele>214</ele>
        <time>2011-10-15T09:17:21Z</time>
      </trkpt>
      <trkpt lat="45.62652" lon="4.92929">
        <ele>214</ele>
        <time>2011-10-15T09:17:22Z</time>
      </trkpt>
      <trkpt lat="45.6265" lon="4.92923">
        <ele>214</ele>
        <time>2011-10-15T09:17:23Z</time>
      </trkpt>
      <trkpt lat="45.62648" lon="4.92917">
        <ele>214</ele>
        <time>2011-10-15T09:17:24Z</time>
      </trkpt>
      <trkpt lat="45.62646" lon="4.92911">
        <ele>214</ele>
        <time>2011-10-15T09:17:25Z</time>
      </trkpt>
      <trkpt lat="45.62643" lon="4.92905">
        <ele>214</ele>
        <time>2011-10-15T09:17:26Z</time>
      </trkpt>
      <trkpt lat="45.6264" lon="4.92899">
        <ele>214</ele>
        <time>2011-10-15T09:17:27Z</time>
      </trkpt>
      <trkpt lat="45.62605" lon="4.92834">
        <ele>214</ele>
        <time>2011-10-15T09:17:39Z</time>
      </trkpt>
      <trkpt lat="45.62571" lon="4.92772">
        <ele>214</ele>
        <time>2011-10-15T09:17:51Z</time>
      </trkpt>
      <trkpt lat="45.62544" lon="4.9272">
        <ele>214</ele>
        <time>2011-10-15T09:18:01Z</time>
      </trkpt>
      <trkpt lat="45.62541" lon="4.92715">
        <ele>214</ele>
        <time>2011-10-15T09:18:02Z</time>
      </trkpt>
      <trkpt lat="45.62539" lon="4.9271">
        <ele>214</ele>
        <time>2011-10-15T09:18:03Z</time>
      </trkpt>
      <trkpt lat="45.62528" lon="4.9269">
        <ele>214</ele>
        <time>2011-10-15T09:18:07Z</time>
      </trkpt>
      <trkpt lat="45.62525" lon="4.92685">
        <ele>214</ele>
        <time>2011-10-15T09:18:08Z</time>
      </trkpt>
      <trkpt lat="45.62522" lon="4.92679">
        <ele>214</ele>
        <time>2011-10-15T09:18:09Z</time>
      </trkpt>
      <trkpt lat="45.62492" lon="4.92622">
        <ele>215</ele>
        <time>2011-10-15T09:18:20Z</time>
      </trkpt>
      <trkpt lat="45.6247" lon="4.92582">
        <ele>215</ele>
        <time>2011-10-15T09:18:28Z</time>
      </trkpt>
      <trkpt lat="45.62462" lon="4.92568">
        <ele>215</ele>
        <time>2011-10-15T09:18:31Z</time>
      </trkpt>
      <trkpt lat="45.62433" lon="4.92512">
        <ele>216</ele>
        <time>2011-10-15T09:18:42Z</time>
      </trkpt>
      <trkpt lat="45.62416" lon="4.92482">
        <ele>216</ele>
        <time>2011-10-15T09:18:48Z</time>
      </trkpt>
      <trkpt lat="45.62414" lon="4.92477">
        <ele>218</ele>
        <time>2011-10-15T09:18:49Z</time>
      </trkpt>
      <trkpt lat="45.62386" lon="4.92426">
        <ele>217</ele>
        <time>2011-10-15T09:18:59Z</time>
      </trkpt>
      <trkpt lat="45.6236" lon="4.92375">
        <ele>218</ele>
        <time>2011-10-15T09:19:09Z</time>
      </trkpt>
      <trkpt lat="45.6233" lon="4.92318">
        <ele>218</ele>
        <time>2011-10-15T09:19:20Z</time>
      </trkpt>
      <trkpt lat="45.623" lon="4.92261">
        <ele>218</ele>
        <time>2011-10-15T09:19:31Z</time>
      </trkpt>
      <trkpt lat="45.62262" lon="4.9219">
        <ele>219</ele>
        <time>2011-10-15T09:19:45Z</time>
      </trkpt>
      <trkpt lat="45.62234" lon="4.92137">
        <ele>219</ele>
        <time>2011-10-15T09:19:55Z</time>
      </trkpt>
      <trkpt lat="45.62226" lon="4.92121">
        <ele>219</ele>
        <time>2011-10-15T09:19:58Z</time>
      </trkpt>
      <trkpt lat="45.62223" lon="4.92116">
        <ele>219</ele>
        <time>2011-10-15T09:19:59Z</time>
      </trkpt>
      <trkpt lat="45.62188" lon="4.9205">
        <ele>219</ele>
        <time>2011-10-15T09:20:12Z</time>
      </trkpt>
      <trkpt lat="45.6218" lon="4.92034">
        <ele>220</ele>
        <time>2011-10-15T09:20:15Z</time>
      </trkpt>
      <trkpt lat="45.62173" lon="4.92017">
        <ele>220</ele>
        <time>2011-10-15T09:20:18Z</time>
      </trkpt>
      <trkpt lat="45.62149" lon="4.91963">
        <ele>219</ele>
        <time>2011-10-15T09:20:27Z</time>
      </trkpt>
      <trkpt lat="45.62122" lon="4.91897">
        <ele>218</ele>
        <time>2011-10-15T09:20:37Z</time>
      </trkpt>
      <trkpt lat="45.62089" lon="4.91816">
        <ele>217</ele>
        <time>2011-10-15T09:20:49Z</time>
      </trkpt>
      <trkpt lat="45.62067" lon="4.91756">
        <ele>217</ele>
        <time>2011-10-15T09:20:58Z</time>
      </trkpt>
      <trkpt lat="45.62051" lon="4.91688">
        <ele>218</ele>
        <time>2011-10-15T09:21:08Z</time>
      </trkpt>
      <trkpt lat="45.62043" lon="4.91664">
        <ele>218</ele>
        <time>2011-10-15T09:21:12Z</time>
      </trkpt>
      <trkpt lat="45.62034" lon="4.91639">
        <ele>217</ele>
        <time>2011-10-15T09:21:16Z</time>
      </trkpt>
      <trkpt lat="45.62032" lon="4.91632">
        <ele>217</ele>
        <time>2011-10-15T09:21:17Z</time>
      </trkpt>
      <trkpt lat="45.62024" lon="4.91571">
        <ele>217</ele>
        <time>2011-10-15T09:21:26Z</time>
      </trkpt>
      <trkpt lat="45.62018" lon="4.91533">
        <ele>216</ele>
        <time>2011-10-15T09:21:33Z</time>
      </trkpt>
      <trkpt lat="45.62012" lon="4.91499">
        <ele>215</ele>
        <time>2011-10-15T09:21:41Z</time>
      </trkpt>
      <trkpt lat="45.62009" lon="4.91497">
        <ele>215</ele>
        <time>2011-10-15T09:21:42Z</time>
      </trkpt>
      <trkpt lat="45.62006" lon="4.91496">
        <ele>215</ele>
        <time>2011-10-15T09:21:43Z</time>
      </trkpt>
      <trkpt lat="45.62002" lon="4.91495">
        <ele>215</ele>
        <time>2011-10-15T09:21:44Z</time>
      </trkpt>
      <trkpt lat="45.62" lon="4.91496">
        <ele>215</ele>
        <time>2011-10-15T09:21:45Z</time>
      </trkpt>
      <trkpt lat="45.61998" lon="4.91498">
        <ele>215</ele>
        <time>2011-10-15T09:21:46Z</time>
      </trkpt>
      <trkpt lat="45.61997" lon="4.91501">
        <ele>216</ele>
        <time>2011-10-15T09:21:47Z</time>
      </trkpt>
      <trkpt lat="45.61997" lon="4.91505">
        <ele>216</ele>
        <time>2011-10-15T09:21:48Z</time>
      </trkpt>
      <trkpt lat="45.61997" lon="4.91509">
        <ele>216</ele>
        <time>2011-10-15T09:21:49Z</time>
      </trkpt>
      <trkpt lat="45.61998" lon="4.91512">
        <ele>216</ele>
        <time>2011-10-15T09:21:50Z</time>
      </trkpt>
      <trkpt lat="45.61999" lon="4.91514">
        <ele>216</ele>
        <time>2011-10-15T09:21:51Z</time>
      </trkpt>
      <trkpt lat="45.62" lon="4.91517">
        <ele>216</ele>
        <time>2011-10-15T09:21:52Z</time>
      </trkpt>
      <trkpt lat="45.62001" lon="4.91518">
        <ele>216</ele>
        <time>2011-10-15T09:21:53Z</time>
      </trkpt>
      <trkpt lat="45.62001" lon="4.9152">
        <ele>216</ele>
        <time>2011-10-15T09:21:54Z</time>
      </trkpt>
      <trkpt lat="45.62002" lon="4.91521">
        <ele>216</ele>
        <time>2011-10-15T09:22:01Z</time>
      </trkpt>
      <trkpt lat="45.62002" lon="4.91521">
        <ele>211</ele>
        <time>2011-10-15T09:22:09Z</time>
      </trkpt>
      <trkpt lat="45.62002" lon="4.91521">
        <ele>216</ele>
        <time>2011-10-15T09:22:10Z</time>
      </trkpt>
    </trkseg>
  </trk>
</gpx>